<?xml version="1.0" encoding="UTF-8" standalone="no" ?>
<gpx xmlns="http://www.topografix.com/GPX/1/1" xmlns:xsi="http://www.w3.org/2001/XMLSchema-instance" xsi:schemaLocation="http://www.topografix.com/GPX/1/1 http://www.topografix.com/GPX/1/1/gpx.xsd" version="1.1" creator="VisuGPX - https://www.visugpx.com">
  <metadata>
    <name>Tour du Lac Léman 172km</name>
  </metadata>
  <trk>
    <name><![CDATA[Tour du Lac Léman 172km_1]]></name>
    <trkseg>
      <trkpt lat="46.21281" lon="6.17408">
        <ele>379.3</ele>
        <time>2017-03-15T12:52:50.321Z</time>
      </trkpt>
      <trkpt lat="46.21245" lon="6.17363">
        <ele>377.4</ele>
        <time>2017-03-15T12:53:04.055Z</time>
      </trkpt>
      <trkpt lat="46.21225" lon="6.17338">
        <ele>376.6</ele>
        <time>2017-03-15T12:53:17.793Z</time>
      </trkpt>
      <trkpt lat="46.212" lon="6.17294">
        <ele>375.7</ele>
        <time>2017-03-15T12:53:31.536Z</time>
      </trkpt>
      <trkpt lat="46.21175" lon="6.17235">
        <ele>375.1</ele>
        <time>2017-03-15T12:53:45.286Z</time>
      </trkpt>
      <trkpt lat="46.21168" lon="6.17228">
        <ele>375.4</ele>
        <time>2017-03-15T12:53:59.037Z</time>
      </trkpt>
      <trkpt lat="46.2116" lon="6.1721">
        <ele>375.3</ele>
        <time>2017-03-15T12:54:12.790Z</time>
      </trkpt>
      <trkpt lat="46.21105" lon="6.17088">
        <ele>376.5</ele>
        <time>2017-03-15T12:54:26.556Z</time>
      </trkpt>
      <trkpt lat="46.2104" lon="6.16943">
        <ele>374.1</ele>
        <time>2017-03-15T12:54:40.338Z</time>
      </trkpt>
      <trkpt lat="46.20911" lon="6.16659">
        <ele>373.2</ele>
        <time>2017-03-15T12:54:54.152Z</time>
      </trkpt>
      <trkpt lat="46.20842" lon="6.16503">
        <ele>375.1</ele>
        <time>2017-03-15T12:55:07.983Z</time>
      </trkpt>
      <trkpt lat="46.20841" lon="6.16493">
        <ele>375.2</ele>
        <time>2017-03-15T12:55:21.815Z</time>
      </trkpt>
      <trkpt lat="46.20826" lon="6.1645">
        <ele>376</ele>
        <time>2017-03-15T12:55:35.651Z</time>
      </trkpt>
      <trkpt lat="46.20799" lon="6.16359">
        <ele>376.3</ele>
        <time>2017-03-15T12:55:49.496Z</time>
      </trkpt>
      <trkpt lat="46.20791" lon="6.16325">
        <ele>376.4</ele>
        <time>2017-03-15T12:56:03.345Z</time>
      </trkpt>
      <trkpt lat="46.20782" lon="6.16288">
        <ele>376.5</ele>
        <time>2017-03-15T12:56:17.197Z</time>
      </trkpt>
      <trkpt lat="46.20774" lon="6.16257">
        <ele>376.8</ele>
        <time>2017-03-15T12:56:31.052Z</time>
      </trkpt>
      <trkpt lat="46.20768" lon="6.1625">
        <ele>377.1</ele>
        <time>2017-03-15T12:56:44.908Z</time>
      </trkpt>
      <trkpt lat="46.20755" lon="6.16203">
        <ele>376.2</ele>
        <time>2017-03-15T12:56:58.769Z</time>
      </trkpt>
      <trkpt lat="46.20733" lon="6.16147">
        <ele>374</ele>
        <time>2017-03-15T12:57:12.636Z</time>
      </trkpt>
      <trkpt lat="46.207" lon="6.16075">
        <ele>376.8</ele>
        <time>2017-03-15T12:57:26.511Z</time>
      </trkpt>
      <trkpt lat="46.20653" lon="6.15977">
        <ele>380</ele>
        <time>2017-03-15T12:57:40.397Z</time>
      </trkpt>
      <trkpt lat="46.20617" lon="6.15902">
        <ele>378</ele>
        <time>2017-03-15T12:57:54.291Z</time>
      </trkpt>
      <trkpt lat="46.20541" lon="6.15744">
        <ele>376.3</ele>
        <time>2017-03-15T12:58:08.203Z</time>
      </trkpt>
      <trkpt lat="46.205" lon="6.15655">
        <ele>377.7</ele>
        <time>2017-03-15T12:58:22.125Z</time>
      </trkpt>
      <trkpt lat="46.20443" lon="6.15539">
        <ele>376.4</ele>
        <time>2017-03-15T12:58:36.060Z</time>
      </trkpt>
      <trkpt lat="46.2039" lon="6.1543">
        <ele>376</ele>
        <time>2017-03-15T12:58:50.008Z</time>
      </trkpt>
      <trkpt lat="46.20353" lon="6.15338">
        <ele>376</ele>
        <time>2017-03-15T12:59:03.965Z</time>
      </trkpt>
      <trkpt lat="46.20342" lon="6.1531">
        <ele>376.5</ele>
        <time>2017-03-15T12:59:17.925Z</time>
      </trkpt>
      <trkpt lat="46.2037" lon="6.15168">
        <ele>377.8</ele>
        <time>2017-03-15T12:59:31.899Z</time>
      </trkpt>
      <trkpt lat="46.20383" lon="6.15111">
        <ele>376.7</ele>
        <time>2017-03-15T12:59:45.879Z</time>
      </trkpt>
      <trkpt lat="46.20393" lon="6.15096">
        <ele>375.1</ele>
        <time>2017-03-15T12:59:59.861Z</time>
      </trkpt>
      <trkpt lat="46.20399" lon="6.15079">
        <ele>374.2</ele>
        <time>2017-03-15T13:00:13.844Z</time>
      </trkpt>
      <trkpt lat="46.2041" lon="6.1506">
        <ele>373.9</ele>
        <time>2017-03-15T13:00:27.830Z</time>
      </trkpt>
      <trkpt lat="46.2043" lon="6.15037">
        <ele>374.4</ele>
        <time>2017-03-15T13:00:41.819Z</time>
      </trkpt>
      <trkpt lat="46.20495" lon="6.1497">
        <ele>371.8</ele>
        <time>2017-03-15T13:00:55.819Z</time>
      </trkpt>
      <trkpt lat="46.20498" lon="6.14963">
        <ele>371.9</ele>
        <time>2017-03-15T13:01:09.819Z</time>
      </trkpt>
      <trkpt lat="46.20506" lon="6.14952">
        <ele>372</ele>
        <time>2017-03-15T13:01:23.821Z</time>
      </trkpt>
      <trkpt lat="46.20685" lon="6.14782">
        <ele>377.1</ele>
        <time>2017-03-15T13:01:37.851Z</time>
      </trkpt>
      <trkpt lat="46.20697" lon="6.14771">
        <ele>378.3</ele>
        <time>2017-03-15T13:01:51.883Z</time>
      </trkpt>
      <trkpt lat="46.20726" lon="6.14808">
        <ele>378.9</ele>
        <time>2017-03-15T13:02:05.921Z</time>
      </trkpt>
      <trkpt lat="46.20778" lon="6.14867">
        <ele>378.1</ele>
        <time>2017-03-15T13:02:19.967Z</time>
      </trkpt>
      <trkpt lat="46.20879" lon="6.14978">
        <ele>381</ele>
        <time>2017-03-15T13:02:34.030Z</time>
      </trkpt>
      <trkpt lat="46.20963" lon="6.15073">
        <ele>380.5</ele>
        <time>2017-03-15T13:02:48.108Z</time>
      </trkpt>
      <trkpt lat="46.21039" lon="6.15159">
        <ele>380.2</ele>
        <time>2017-03-15T13:03:02.198Z</time>
      </trkpt>
      <trkpt lat="46.21103" lon="6.15228">
        <ele>379</ele>
        <time>2017-03-15T13:03:16.299Z</time>
      </trkpt>
      <trkpt lat="46.21139" lon="6.15264">
        <ele>377.2</ele>
        <time>2017-03-15T13:03:30.406Z</time>
      </trkpt>
      <trkpt lat="46.21153" lon="6.1527">
        <ele>376.9</ele>
        <time>2017-03-15T13:03:44.515Z</time>
      </trkpt>
      <trkpt lat="46.21165" lon="6.15271">
        <ele>376.6</ele>
        <time>2017-03-15T13:03:58.626Z</time>
      </trkpt>
      <trkpt lat="46.21237" lon="6.15255">
        <ele>376.1</ele>
        <time>2017-03-15T13:04:12.746Z</time>
      </trkpt>
      <trkpt lat="46.21274" lon="6.15244">
        <ele>377.1</ele>
        <time>2017-03-15T13:04:26.871Z</time>
      </trkpt>
      <trkpt lat="46.21376" lon="6.15216">
        <ele>381.2</ele>
        <time>2017-03-15T13:04:41.010Z</time>
      </trkpt>
      <trkpt lat="46.21566" lon="6.15165">
        <ele>371.5</ele>
        <time>2017-03-15T13:04:55.175Z</time>
      </trkpt>
      <trkpt lat="46.21598" lon="6.15152">
        <ele>374.9</ele>
        <time>2017-03-15T13:05:09.344Z</time>
      </trkpt>
      <trkpt lat="46.21627" lon="6.15138">
        <ele>379.4</ele>
        <time>2017-03-15T13:05:23.517Z</time>
      </trkpt>
      <trkpt lat="46.21655" lon="6.15122">
        <ele>381</ele>
        <time>2017-03-15T13:05:37.694Z</time>
      </trkpt>
      <trkpt lat="46.21717" lon="6.15074">
        <ele>382.9</ele>
        <time>2017-03-15T13:05:51.881Z</time>
      </trkpt>
      <trkpt lat="46.21734" lon="6.1506">
        <ele>383.1</ele>
        <time>2017-03-15T13:06:06.070Z</time>
      </trkpt>
      <trkpt lat="46.21766" lon="6.15027">
        <ele>385.8</ele>
        <time>2017-03-15T13:06:20.265Z</time>
      </trkpt>
      <trkpt lat="46.21818" lon="6.14973">
        <ele>390.5</ele>
        <time>2017-03-15T13:06:34.468Z</time>
      </trkpt>
      <trkpt lat="46.21845" lon="6.14943">
        <ele>388.2</ele>
        <time>2017-03-15T13:06:48.676Z</time>
      </trkpt>
      <trkpt lat="46.21859" lon="6.14934">
        <ele>387.4</ele>
        <time>2017-03-15T13:07:02.886Z</time>
      </trkpt>
      <trkpt lat="46.2187" lon="6.14926">
        <ele>387.5</ele>
        <time>2017-03-15T13:07:17.097Z</time>
      </trkpt>
      <trkpt lat="46.21907" lon="6.14912">
        <ele>387.8</ele>
        <time>2017-03-15T13:07:31.314Z</time>
      </trkpt>
      <trkpt lat="46.2193" lon="6.1492">
        <ele>388.2</ele>
        <time>2017-03-15T13:07:45.534Z</time>
      </trkpt>
      <trkpt lat="46.21944" lon="6.14928">
        <ele>388.4</ele>
        <time>2017-03-15T13:07:59.756Z</time>
      </trkpt>
      <trkpt lat="46.21955" lon="6.1493">
        <ele>388.6</ele>
        <time>2017-03-15T13:08:13.979Z</time>
      </trkpt>
      <trkpt lat="46.22021" lon="6.14973">
        <ele>389.6</ele>
        <time>2017-03-15T13:08:28.212Z</time>
      </trkpt>
      <trkpt lat="46.22066" lon="6.14995">
        <ele>391.2</ele>
        <time>2017-03-15T13:08:42.451Z</time>
      </trkpt>
      <trkpt lat="46.22083" lon="6.14993">
        <ele>390.5</ele>
        <time>2017-03-15T13:08:56.692Z</time>
      </trkpt>
      <trkpt lat="46.2215" lon="6.14964">
        <ele>392.1</ele>
        <time>2017-03-15T13:09:10.943Z</time>
      </trkpt>
      <trkpt lat="46.22205" lon="6.14933">
        <ele>390.9</ele>
        <time>2017-03-15T13:09:25.202Z</time>
      </trkpt>
      <trkpt lat="46.22212" lon="6.14934">
        <ele>390.6</ele>
        <time>2017-03-15T13:09:39.462Z</time>
      </trkpt>
      <trkpt lat="46.22221" lon="6.14931">
        <ele>390.3</ele>
        <time>2017-03-15T13:09:53.723Z</time>
      </trkpt>
      <trkpt lat="46.22251" lon="6.14917">
        <ele>388.4</ele>
        <time>2017-03-15T13:10:07.988Z</time>
      </trkpt>
      <trkpt lat="46.22315" lon="6.14887">
        <ele>383.9</ele>
        <time>2017-03-15T13:10:22.262Z</time>
      </trkpt>
      <trkpt lat="46.22411" lon="6.14843">
        <ele>381</ele>
        <time>2017-03-15T13:10:36.549Z</time>
      </trkpt>
      <trkpt lat="46.22507" lon="6.14796">
        <ele>381.4</ele>
        <time>2017-03-15T13:10:50.850Z</time>
      </trkpt>
      <trkpt lat="46.22525" lon="6.14793">
        <ele>381.3</ele>
        <time>2017-03-15T13:11:05.153Z</time>
      </trkpt>
      <trkpt lat="46.22564" lon="6.14795">
        <ele>380.6</ele>
        <time>2017-03-15T13:11:19.462Z</time>
      </trkpt>
      <trkpt lat="46.22582" lon="6.14799">
        <ele>380.9</ele>
        <time>2017-03-15T13:11:33.773Z</time>
      </trkpt>
      <trkpt lat="46.2262" lon="6.14814">
        <ele>381.3</ele>
        <time>2017-03-15T13:11:48.089Z</time>
      </trkpt>
      <trkpt lat="46.22655" lon="6.14829">
        <ele>381.2</ele>
        <time>2017-03-15T13:12:02.410Z</time>
      </trkpt>
      <trkpt lat="46.22732" lon="6.14861">
        <ele>379.5</ele>
        <time>2017-03-15T13:12:16.742Z</time>
      </trkpt>
      <trkpt lat="46.22772" lon="6.14876">
        <ele>379.3</ele>
        <time>2017-03-15T13:12:31.079Z</time>
      </trkpt>
      <trkpt lat="46.22785" lon="6.14887">
        <ele>378.9</ele>
        <time>2017-03-15T13:12:45.418Z</time>
      </trkpt>
      <trkpt lat="46.22861" lon="6.14908">
        <ele>380.1</ele>
        <time>2017-03-15T13:12:59.768Z</time>
      </trkpt>
      <trkpt lat="46.22933" lon="6.14924">
        <ele>379.3</ele>
        <time>2017-03-15T13:13:14.127Z</time>
      </trkpt>
      <trkpt lat="46.23" lon="6.14936">
        <ele>378.7</ele>
        <time>2017-03-15T13:13:28.495Z</time>
      </trkpt>
      <trkpt lat="46.23109" lon="6.14946">
        <ele>378.5</ele>
        <time>2017-03-15T13:13:42.878Z</time>
      </trkpt>
      <trkpt lat="46.23167" lon="6.14949">
        <ele>379.2</ele>
        <time>2017-03-15T13:13:57.269Z</time>
      </trkpt>
      <trkpt lat="46.23238" lon="6.14948">
        <ele>380.4</ele>
        <time>2017-03-15T13:14:11.669Z</time>
      </trkpt>
      <trkpt lat="46.23308" lon="6.14944">
        <ele>380.6</ele>
        <time>2017-03-15T13:14:26.079Z</time>
      </trkpt>
      <trkpt lat="46.23428" lon="6.1493">
        <ele>382.4</ele>
        <time>2017-03-15T13:14:40.505Z</time>
      </trkpt>
      <trkpt lat="46.2351" lon="6.14922">
        <ele>381.7</ele>
        <time>2017-03-15T13:14:54.942Z</time>
      </trkpt>
      <trkpt lat="46.23589" lon="6.14913">
        <ele>383.2</ele>
        <time>2017-03-15T13:15:09.389Z</time>
      </trkpt>
      <trkpt lat="46.23704" lon="6.14903">
        <ele>382.8</ele>
        <time>2017-03-15T13:15:23.852Z</time>
      </trkpt>
      <trkpt lat="46.23742" lon="6.149">
        <ele>382.2</ele>
        <time>2017-03-15T13:15:38.320Z</time>
      </trkpt>
      <trkpt lat="46.23791" lon="6.14903">
        <ele>383.4</ele>
        <time>2017-03-15T13:15:52.794Z</time>
      </trkpt>
      <trkpt lat="46.23844" lon="6.14914">
        <ele>385.4</ele>
        <time>2017-03-15T13:16:07.275Z</time>
      </trkpt>
      <trkpt lat="46.23912" lon="6.14938">
        <ele>387.6</ele>
        <time>2017-03-15T13:16:21.766Z</time>
      </trkpt>
      <trkpt lat="46.23981" lon="6.14973">
        <ele>385</ele>
        <time>2017-03-15T13:16:36.266Z</time>
      </trkpt>
      <trkpt lat="46.24002" lon="6.14985">
        <ele>384.7</ele>
        <time>2017-03-15T13:16:50.769Z</time>
      </trkpt>
      <trkpt lat="46.24036" lon="6.15008">
        <ele>384.3</ele>
        <time>2017-03-15T13:17:05.277Z</time>
      </trkpt>
      <trkpt lat="46.24092" lon="6.15049">
        <ele>383.3</ele>
        <time>2017-03-15T13:17:19.794Z</time>
      </trkpt>
      <trkpt lat="46.24148" lon="6.15087">
        <ele>381</ele>
        <time>2017-03-15T13:17:34.319Z</time>
      </trkpt>
      <trkpt lat="46.24182" lon="6.15108">
        <ele>379.9</ele>
        <time>2017-03-15T13:17:48.849Z</time>
      </trkpt>
      <trkpt lat="46.24244" lon="6.15139">
        <ele>378.5</ele>
        <time>2017-03-15T13:18:03.388Z</time>
      </trkpt>
      <trkpt lat="46.24255" lon="6.15142">
        <ele>378.7</ele>
        <time>2017-03-15T13:18:17.928Z</time>
      </trkpt>
      <trkpt lat="46.2431" lon="6.15159">
        <ele>379.8</ele>
        <time>2017-03-15T13:18:32.476Z</time>
      </trkpt>
      <trkpt lat="46.2437" lon="6.15173">
        <ele>379</ele>
        <time>2017-03-15T13:18:47.032Z</time>
      </trkpt>
      <trkpt lat="46.24445" lon="6.15176">
        <ele>380.4</ele>
        <time>2017-03-15T13:19:01.598Z</time>
      </trkpt>
      <trkpt lat="46.24508" lon="6.15173">
        <ele>380.6</ele>
        <time>2017-03-15T13:19:16.172Z</time>
      </trkpt>
      <trkpt lat="46.24561" lon="6.15165">
        <ele>378.1</ele>
        <time>2017-03-15T13:19:30.753Z</time>
      </trkpt>
      <trkpt lat="46.24607" lon="6.15157">
        <ele>377.8</ele>
        <time>2017-03-15T13:19:45.341Z</time>
      </trkpt>
      <trkpt lat="46.24655" lon="6.15147">
        <ele>378.1</ele>
        <time>2017-03-15T13:19:59.935Z</time>
      </trkpt>
      <trkpt lat="46.24704" lon="6.15134">
        <ele>379.8</ele>
        <time>2017-03-15T13:20:14.536Z</time>
      </trkpt>
      <trkpt lat="46.24775" lon="6.15109">
        <ele>381.3</ele>
        <time>2017-03-15T13:20:29.146Z</time>
      </trkpt>
      <trkpt lat="46.24817" lon="6.15094">
        <ele>380.4</ele>
        <time>2017-03-15T13:20:43.762Z</time>
      </trkpt>
      <trkpt lat="46.24874" lon="6.15083">
        <ele>380.4</ele>
        <time>2017-03-15T13:20:58.386Z</time>
      </trkpt>
      <trkpt lat="46.24905" lon="6.15085">
        <ele>380.8</ele>
        <time>2017-03-15T13:21:13.014Z</time>
      </trkpt>
      <trkpt lat="46.24932" lon="6.1509">
        <ele>381</ele>
        <time>2017-03-15T13:21:27.646Z</time>
      </trkpt>
      <trkpt lat="46.24935" lon="6.15075">
        <ele>381.5</ele>
        <time>2017-03-15T13:21:42.279Z</time>
      </trkpt>
      <trkpt lat="46.24967" lon="6.15079">
        <ele>381.3</ele>
        <time>2017-03-15T13:21:56.916Z</time>
      </trkpt>
      <trkpt lat="46.25038" lon="6.15091">
        <ele>380.9</ele>
        <time>2017-03-15T13:22:11.563Z</time>
      </trkpt>
      <trkpt lat="46.25078" lon="6.15101">
        <ele>381.4</ele>
        <time>2017-03-15T13:22:26.215Z</time>
      </trkpt>
      <trkpt lat="46.25097" lon="6.15103">
        <ele>382.1</ele>
        <time>2017-03-15T13:22:40.870Z</time>
      </trkpt>
      <trkpt lat="46.25131" lon="6.1511">
        <ele>382.9</ele>
        <time>2017-03-15T13:22:55.529Z</time>
      </trkpt>
      <trkpt lat="46.25146" lon="6.15115">
        <ele>383.1</ele>
        <time>2017-03-15T13:23:10.190Z</time>
      </trkpt>
      <trkpt lat="46.2517" lon="6.15127">
        <ele>382.8</ele>
        <time>2017-03-15T13:23:24.855Z</time>
      </trkpt>
      <trkpt lat="46.25186" lon="6.15141">
        <ele>382.2</ele>
        <time>2017-03-15T13:23:39.522Z</time>
      </trkpt>
      <trkpt lat="46.25222" lon="6.15174">
        <ele>381.8</ele>
        <time>2017-03-15T13:23:54.195Z</time>
      </trkpt>
      <trkpt lat="46.2527" lon="6.15232">
        <ele>379.9</ele>
        <time>2017-03-15T13:24:08.876Z</time>
      </trkpt>
      <trkpt lat="46.25335" lon="6.15312">
        <ele>378</ele>
        <time>2017-03-15T13:24:23.569Z</time>
      </trkpt>
      <trkpt lat="46.25368" lon="6.15353">
        <ele>377.5</ele>
        <time>2017-03-15T13:24:38.268Z</time>
      </trkpt>
      <trkpt lat="46.2539" lon="6.15383">
        <ele>377.1</ele>
        <time>2017-03-15T13:24:52.971Z</time>
      </trkpt>
      <trkpt lat="46.25442" lon="6.15446">
        <ele>379.1</ele>
        <time>2017-03-15T13:25:07.683Z</time>
      </trkpt>
      <trkpt lat="46.25468" lon="6.15474">
        <ele>380.4</ele>
        <time>2017-03-15T13:25:22.399Z</time>
      </trkpt>
      <trkpt lat="46.25532" lon="6.15556">
        <ele>379.1</ele>
        <time>2017-03-15T13:25:37.126Z</time>
      </trkpt>
      <trkpt lat="46.25562" lon="6.15586">
        <ele>377</ele>
        <time>2017-03-15T13:25:51.858Z</time>
      </trkpt>
      <trkpt lat="46.25584" lon="6.15602">
        <ele>377.6</ele>
        <time>2017-03-15T13:26:06.594Z</time>
      </trkpt>
      <trkpt lat="46.25608" lon="6.15613">
        <ele>379.2</ele>
        <time>2017-03-15T13:26:21.333Z</time>
      </trkpt>
      <trkpt lat="46.25654" lon="6.15625">
        <ele>380.3</ele>
        <time>2017-03-15T13:26:36.078Z</time>
      </trkpt>
      <trkpt lat="46.25666" lon="6.15633">
        <ele>379.8</ele>
        <time>2017-03-15T13:26:50.825Z</time>
      </trkpt>
      <trkpt lat="46.25688" lon="6.1564">
        <ele>379.1</ele>
        <time>2017-03-15T13:27:05.575Z</time>
      </trkpt>
      <trkpt lat="46.25766" lon="6.15664">
        <ele>379.3</ele>
        <time>2017-03-15T13:27:20.336Z</time>
      </trkpt>
      <trkpt lat="46.25767" lon="6.15667">
        <ele>379.3</ele>
        <time>2017-03-15T13:27:35.097Z</time>
      </trkpt>
      <trkpt lat="46.2577" lon="6.15671">
        <ele>379.3</ele>
        <time>2017-03-15T13:27:49.858Z</time>
      </trkpt>
      <trkpt lat="46.25774" lon="6.15673">
        <ele>379.5</ele>
        <time>2017-03-15T13:28:04.620Z</time>
      </trkpt>
      <trkpt lat="46.2578" lon="6.15672">
        <ele>379.8</ele>
        <time>2017-03-15T13:28:19.383Z</time>
      </trkpt>
      <trkpt lat="46.258" lon="6.15686">
        <ele>380.4</ele>
        <time>2017-03-15T13:28:34.149Z</time>
      </trkpt>
      <trkpt lat="46.25873" lon="6.1574">
        <ele>380</ele>
        <time>2017-03-15T13:28:48.926Z</time>
      </trkpt>
      <trkpt lat="46.25883" lon="6.15744">
        <ele>380</ele>
        <time>2017-03-15T13:29:03.704Z</time>
      </trkpt>
      <trkpt lat="46.26019" lon="6.15858">
        <ele>385.7</ele>
        <time>2017-03-15T13:29:18.503Z</time>
      </trkpt>
      <trkpt lat="46.26022" lon="6.15861">
        <ele>385.9</ele>
        <time>2017-03-15T13:29:33.303Z</time>
      </trkpt>
      <trkpt lat="46.26099" lon="6.15923">
        <ele>387.9</ele>
        <time>2017-03-15T13:29:48.114Z</time>
      </trkpt>
      <trkpt lat="46.26204" lon="6.16011">
        <ele>385.9</ele>
        <time>2017-03-15T13:30:02.942Z</time>
      </trkpt>
      <trkpt lat="46.26228" lon="6.16026">
        <ele>386.2</ele>
        <time>2017-03-15T13:30:17.773Z</time>
      </trkpt>
      <trkpt lat="46.26314" lon="6.16097">
        <ele>388.5</ele>
        <time>2017-03-15T13:30:32.617Z</time>
      </trkpt>
      <trkpt lat="46.26356" lon="6.16127">
        <ele>388.8</ele>
        <time>2017-03-15T13:30:47.468Z</time>
      </trkpt>
      <trkpt lat="46.26473" lon="6.16205">
        <ele>388.6</ele>
        <time>2017-03-15T13:31:02.336Z</time>
      </trkpt>
      <trkpt lat="46.26481" lon="6.16213">
        <ele>388.3</ele>
        <time>2017-03-15T13:31:17.205Z</time>
      </trkpt>
      <trkpt lat="46.26518" lon="6.16237">
        <ele>387.7</ele>
        <time>2017-03-15T13:31:32.079Z</time>
      </trkpt>
      <trkpt lat="46.26673" lon="6.16335">
        <ele>386.2</ele>
        <time>2017-03-15T13:31:46.976Z</time>
      </trkpt>
      <trkpt lat="46.26833" lon="6.16434">
        <ele>390.8</ele>
        <time>2017-03-15T13:32:01.896Z</time>
      </trkpt>
      <trkpt lat="46.27025" lon="6.16554">
        <ele>386.9</ele>
        <time>2017-03-15T13:32:16.844Z</time>
      </trkpt>
      <trkpt lat="46.27096" lon="6.16596">
        <ele>389.1</ele>
        <time>2017-03-15T13:32:31.802Z</time>
      </trkpt>
      <trkpt lat="46.2718" lon="6.16641">
        <ele>390</ele>
        <time>2017-03-15T13:32:46.772Z</time>
      </trkpt>
      <trkpt lat="46.27288" lon="6.16698">
        <ele>390</ele>
        <time>2017-03-15T13:33:01.758Z</time>
      </trkpt>
      <trkpt lat="46.27325" lon="6.16716">
        <ele>390</ele>
        <time>2017-03-15T13:33:16.749Z</time>
      </trkpt>
      <trkpt lat="46.27342" lon="6.16728">
        <ele>388.9</ele>
        <time>2017-03-15T13:33:31.742Z</time>
      </trkpt>
      <trkpt lat="46.2736" lon="6.16736">
        <ele>387.7</ele>
        <time>2017-03-15T13:33:46.738Z</time>
      </trkpt>
      <trkpt lat="46.27407" lon="6.16753">
        <ele>384.7</ele>
        <time>2017-03-15T13:34:01.740Z</time>
      </trkpt>
      <trkpt lat="46.27408" lon="6.16756">
        <ele>384.6</ele>
        <time>2017-03-15T13:34:16.743Z</time>
      </trkpt>
      <trkpt lat="46.2741" lon="6.16761">
        <ele>384.6</ele>
        <time>2017-03-15T13:34:31.746Z</time>
      </trkpt>
      <trkpt lat="46.27418" lon="6.16765">
        <ele>384.1</ele>
        <time>2017-03-15T13:34:46.750Z</time>
      </trkpt>
      <trkpt lat="46.27419" lon="6.16765">
        <ele>384.1</ele>
        <time>2017-03-15T13:35:01.755Z</time>
      </trkpt>
      <trkpt lat="46.27448" lon="6.168">
        <ele>382.8</ele>
        <time>2017-03-15T13:35:16.765Z</time>
      </trkpt>
      <trkpt lat="46.27464" lon="6.16825">
        <ele>382.1</ele>
        <time>2017-03-15T13:35:31.778Z</time>
      </trkpt>
      <trkpt lat="46.27488" lon="6.16854">
        <ele>381.2</ele>
        <time>2017-03-15T13:35:46.795Z</time>
      </trkpt>
      <trkpt lat="46.27532" lon="6.16898">
        <ele>380</ele>
        <time>2017-03-15T13:36:01.819Z</time>
      </trkpt>
      <trkpt lat="46.27581" lon="6.16936">
        <ele>378</ele>
        <time>2017-03-15T13:36:16.850Z</time>
      </trkpt>
      <trkpt lat="46.276" lon="6.16948">
        <ele>377.7</ele>
        <time>2017-03-15T13:36:31.884Z</time>
      </trkpt>
      <trkpt lat="46.27616" lon="6.16955">
        <ele>377.5</ele>
        <time>2017-03-15T13:36:46.920Z</time>
      </trkpt>
      <trkpt lat="46.27631" lon="6.1696">
        <ele>377.4</ele>
        <time>2017-03-15T13:37:01.958Z</time>
      </trkpt>
      <trkpt lat="46.2764" lon="6.16959">
        <ele>377.3</ele>
        <time>2017-03-15T13:37:16.998Z</time>
      </trkpt>
      <trkpt lat="46.27661" lon="6.16949">
        <ele>376.6</ele>
        <time>2017-03-15T13:37:32.041Z</time>
      </trkpt>
      <trkpt lat="46.27729" lon="6.16906">
        <ele>377.3</ele>
        <time>2017-03-15T13:37:47.094Z</time>
      </trkpt>
      <trkpt lat="46.27802" lon="6.1686">
        <ele>378</ele>
        <time>2017-03-15T13:38:02.157Z</time>
      </trkpt>
      <trkpt lat="46.27913" lon="6.16788">
        <ele>376.7</ele>
        <time>2017-03-15T13:38:17.236Z</time>
      </trkpt>
      <trkpt lat="46.27939" lon="6.16771">
        <ele>376.3</ele>
        <time>2017-03-15T13:38:32.319Z</time>
      </trkpt>
      <trkpt lat="46.27958" lon="6.16761">
        <ele>376.5</ele>
        <time>2017-03-15T13:38:47.405Z</time>
      </trkpt>
      <trkpt lat="46.28036" lon="6.16711">
        <ele>379.7</ele>
        <time>2017-03-15T13:39:02.502Z</time>
      </trkpt>
      <trkpt lat="46.28117" lon="6.16656">
        <ele>384.1</ele>
        <time>2017-03-15T13:39:17.611Z</time>
      </trkpt>
      <trkpt lat="46.28214" lon="6.16598">
        <ele>389.7</ele>
        <time>2017-03-15T13:39:32.734Z</time>
      </trkpt>
      <trkpt lat="46.28229" lon="6.16594">
        <ele>389.8</ele>
        <time>2017-03-15T13:39:47.859Z</time>
      </trkpt>
      <trkpt lat="46.28344" lon="6.16587">
        <ele>389.6</ele>
        <time>2017-03-15T13:40:03.000Z</time>
      </trkpt>
      <trkpt lat="46.28476" lon="6.16585">
        <ele>390</ele>
        <time>2017-03-15T13:40:18.158Z</time>
      </trkpt>
      <trkpt lat="46.28609" lon="6.1658">
        <ele>389.3</ele>
        <time>2017-03-15T13:40:33.334Z</time>
      </trkpt>
      <trkpt lat="46.28769" lon="6.16578">
        <ele>387.6</ele>
        <time>2017-03-15T13:40:48.531Z</time>
      </trkpt>
      <trkpt lat="46.28883" lon="6.16573">
        <ele>390.1</ele>
        <time>2017-03-15T13:41:03.744Z</time>
      </trkpt>
      <trkpt lat="46.28925" lon="6.16572">
        <ele>392</ele>
        <time>2017-03-15T13:41:18.962Z</time>
      </trkpt>
      <trkpt lat="46.28985" lon="6.16574">
        <ele>393.8</ele>
        <time>2017-03-15T13:41:34.188Z</time>
      </trkpt>
      <trkpt lat="46.29026" lon="6.16575">
        <ele>392.7</ele>
        <time>2017-03-15T13:41:49.420Z</time>
      </trkpt>
      <trkpt lat="46.29203" lon="6.1657">
        <ele>391.9</ele>
        <time>2017-03-15T13:42:04.675Z</time>
      </trkpt>
      <trkpt lat="46.29234" lon="6.16571">
        <ele>392.7</ele>
        <time>2017-03-15T13:42:19.934Z</time>
      </trkpt>
      <trkpt lat="46.2928" lon="6.1658">
        <ele>393.5</ele>
        <time>2017-03-15T13:42:35.200Z</time>
      </trkpt>
      <trkpt lat="46.29314" lon="6.1659">
        <ele>394</ele>
        <time>2017-03-15T13:42:50.470Z</time>
      </trkpt>
      <trkpt lat="46.29347" lon="6.16603">
        <ele>394.3</ele>
        <time>2017-03-15T13:43:05.745Z</time>
      </trkpt>
      <trkpt lat="46.29411" lon="6.16639">
        <ele>394.3</ele>
        <time>2017-03-15T13:43:21.029Z</time>
      </trkpt>
      <trkpt lat="46.29506" lon="6.167">
        <ele>390.7</ele>
        <time>2017-03-15T13:43:36.327Z</time>
      </trkpt>
      <trkpt lat="46.29546" lon="6.16723">
        <ele>389.3</ele>
        <time>2017-03-15T13:43:51.631Z</time>
      </trkpt>
      <trkpt lat="46.29561" lon="6.16732">
        <ele>389.2</ele>
        <time>2017-03-15T13:44:06.937Z</time>
      </trkpt>
      <trkpt lat="46.29572" lon="6.16743">
        <ele>389.6</ele>
        <time>2017-03-15T13:44:22.244Z</time>
      </trkpt>
      <trkpt lat="46.29628" lon="6.16784">
        <ele>391</ele>
        <time>2017-03-15T13:44:37.560Z</time>
      </trkpt>
      <trkpt lat="46.29688" lon="6.16835">
        <ele>389.9</ele>
        <time>2017-03-15T13:44:52.885Z</time>
      </trkpt>
      <trkpt lat="46.29712" lon="6.16859">
        <ele>388.5</ele>
        <time>2017-03-15T13:45:08.214Z</time>
      </trkpt>
      <trkpt lat="46.29733" lon="6.16886">
        <ele>387.3</ele>
        <time>2017-03-15T13:45:23.547Z</time>
      </trkpt>
      <trkpt lat="46.29735" lon="6.16892">
        <ele>387.2</ele>
        <time>2017-03-15T13:45:38.880Z</time>
      </trkpt>
      <trkpt lat="46.29743" lon="6.16902">
        <ele>387</ele>
        <time>2017-03-15T13:45:54.215Z</time>
      </trkpt>
      <trkpt lat="46.29752" lon="6.16909">
        <ele>386.9</ele>
        <time>2017-03-15T13:46:09.551Z</time>
      </trkpt>
      <trkpt lat="46.29756" lon="6.16912">
        <ele>386.9</ele>
        <time>2017-03-15T13:46:24.888Z</time>
      </trkpt>
      <trkpt lat="46.29788" lon="6.16942">
        <ele>386.2</ele>
        <time>2017-03-15T13:46:40.230Z</time>
      </trkpt>
      <trkpt lat="46.29797" lon="6.16948">
        <ele>386.2</ele>
        <time>2017-03-15T13:46:55.573Z</time>
      </trkpt>
      <trkpt lat="46.29809" lon="6.16963">
        <ele>385.7</ele>
        <time>2017-03-15T13:47:10.918Z</time>
      </trkpt>
      <trkpt lat="46.29868" lon="6.17048">
        <ele>385.9</ele>
        <time>2017-03-15T13:47:26.274Z</time>
      </trkpt>
      <trkpt lat="46.29932" lon="6.1716">
        <ele>387.5</ele>
        <time>2017-03-15T13:47:41.644Z</time>
      </trkpt>
      <trkpt lat="46.30049" lon="6.17398">
        <ele>386.5</ele>
        <time>2017-03-15T13:47:57.041Z</time>
      </trkpt>
      <trkpt lat="46.30125" lon="6.1754">
        <ele>384.5</ele>
        <time>2017-03-15T13:48:12.454Z</time>
      </trkpt>
      <trkpt lat="46.30153" lon="6.17588">
        <ele>384.1</ele>
        <time>2017-03-15T13:48:27.873Z</time>
      </trkpt>
      <trkpt lat="46.30211" lon="6.17681">
        <ele>385.2</ele>
        <time>2017-03-15T13:48:43.304Z</time>
      </trkpt>
      <trkpt lat="46.30284" lon="6.17788">
        <ele>385.3</ele>
        <time>2017-03-15T13:48:58.749Z</time>
      </trkpt>
      <trkpt lat="46.30334" lon="6.17855">
        <ele>383.4</ele>
        <time>2017-03-15T13:49:14.203Z</time>
      </trkpt>
      <trkpt lat="46.30367" lon="6.17897">
        <ele>382.1</ele>
        <time>2017-03-15T13:49:29.663Z</time>
      </trkpt>
      <trkpt lat="46.30409" lon="6.17949">
        <ele>380</ele>
        <time>2017-03-15T13:49:45.130Z</time>
      </trkpt>
      <trkpt lat="46.30467" lon="6.18017">
        <ele>377.8</ele>
        <time>2017-03-15T13:50:00.607Z</time>
      </trkpt>
      <trkpt lat="46.30493" lon="6.18044">
        <ele>377.5</ele>
        <time>2017-03-15T13:50:16.088Z</time>
      </trkpt>
      <trkpt lat="46.30526" lon="6.18075">
        <ele>377.7</ele>
        <time>2017-03-15T13:50:31.575Z</time>
      </trkpt>
      <trkpt lat="46.30775" lon="6.18306">
        <ele>384.7</ele>
        <time>2017-03-15T13:50:47.101Z</time>
      </trkpt>
      <trkpt lat="46.30928" lon="6.18448">
        <ele>384.9</ele>
        <time>2017-03-15T13:51:02.651Z</time>
      </trkpt>
      <trkpt lat="46.3121" lon="6.18709">
        <ele>383.7</ele>
        <time>2017-03-15T13:51:18.246Z</time>
      </trkpt>
      <trkpt lat="46.31265" lon="6.18761">
        <ele>384.2</ele>
        <time>2017-03-15T13:51:33.850Z</time>
      </trkpt>
      <trkpt lat="46.31298" lon="6.18794">
        <ele>384.2</ele>
        <time>2017-03-15T13:51:49.459Z</time>
      </trkpt>
      <trkpt lat="46.31337" lon="6.18843">
        <ele>384.7</ele>
        <time>2017-03-15T13:52:05.075Z</time>
      </trkpt>
      <trkpt lat="46.31357" lon="6.18873">
        <ele>385.2</ele>
        <time>2017-03-15T13:52:20.695Z</time>
      </trkpt>
      <trkpt lat="46.31422" lon="6.18991">
        <ele>382</ele>
        <time>2017-03-15T13:52:36.329Z</time>
      </trkpt>
      <trkpt lat="46.31567" lon="6.19257">
        <ele>381</ele>
        <time>2017-03-15T13:52:51.994Z</time>
      </trkpt>
      <trkpt lat="46.3159" lon="6.1929">
        <ele>380.4</ele>
        <time>2017-03-15T13:53:07.663Z</time>
      </trkpt>
      <trkpt lat="46.31619" lon="6.19323">
        <ele>379.6</ele>
        <time>2017-03-15T13:53:23.337Z</time>
      </trkpt>
      <trkpt lat="46.31656" lon="6.19353">
        <ele>378.9</ele>
        <time>2017-03-15T13:53:39.017Z</time>
      </trkpt>
      <trkpt lat="46.31671" lon="6.19364">
        <ele>379</ele>
        <time>2017-03-15T13:53:54.699Z</time>
      </trkpt>
      <trkpt lat="46.31727" lon="6.19415">
        <ele>378.6</ele>
        <time>2017-03-15T13:54:10.390Z</time>
      </trkpt>
      <trkpt lat="46.31761" lon="6.19437">
        <ele>379.3</ele>
        <time>2017-03-15T13:54:26.086Z</time>
      </trkpt>
      <trkpt lat="46.31824" lon="6.19472">
        <ele>380.7</ele>
        <time>2017-03-15T13:54:41.791Z</time>
      </trkpt>
      <trkpt lat="46.3187" lon="6.19498">
        <ele>381.1</ele>
        <time>2017-03-15T13:54:57.503Z</time>
      </trkpt>
      <trkpt lat="46.32105" lon="6.19628">
        <ele>382.2</ele>
        <time>2017-03-15T13:55:13.248Z</time>
      </trkpt>
      <trkpt lat="46.32388" lon="6.19784">
        <ele>382.8</ele>
        <time>2017-03-15T13:55:29.034Z</time>
      </trkpt>
      <trkpt lat="46.32462" lon="6.19818">
        <ele>381.6</ele>
        <time>2017-03-15T13:55:44.830Z</time>
      </trkpt>
      <trkpt lat="46.32519" lon="6.19842">
        <ele>381.5</ele>
        <time>2017-03-15T13:56:00.634Z</time>
      </trkpt>
      <trkpt lat="46.3259" lon="6.19871">
        <ele>381</ele>
        <time>2017-03-15T13:56:16.448Z</time>
      </trkpt>
      <trkpt lat="46.32645" lon="6.19897">
        <ele>381</ele>
        <time>2017-03-15T13:56:32.269Z</time>
      </trkpt>
      <trkpt lat="46.32728" lon="6.19945">
        <ele>382.7</ele>
        <time>2017-03-15T13:56:48.102Z</time>
      </trkpt>
      <trkpt lat="46.3276" lon="6.19966">
        <ele>382.3</ele>
        <time>2017-03-15T13:57:03.940Z</time>
      </trkpt>
      <trkpt lat="46.32774" lon="6.19976">
        <ele>382.1</ele>
        <time>2017-03-15T13:57:19.780Z</time>
      </trkpt>
      <trkpt lat="46.32862" lon="6.20055">
        <ele>381.1</ele>
        <time>2017-03-15T13:57:35.634Z</time>
      </trkpt>
      <trkpt lat="46.32887" lon="6.20076">
        <ele>380.3</ele>
        <time>2017-03-15T13:57:51.492Z</time>
      </trkpt>
      <trkpt lat="46.32919" lon="6.20101">
        <ele>380.2</ele>
        <time>2017-03-15T13:58:07.355Z</time>
      </trkpt>
      <trkpt lat="46.3294" lon="6.20116">
        <ele>380.4</ele>
        <time>2017-03-15T13:58:23.221Z</time>
      </trkpt>
      <trkpt lat="46.32982" lon="6.20143">
        <ele>381</ele>
        <time>2017-03-15T13:58:39.093Z</time>
      </trkpt>
      <trkpt lat="46.33037" lon="6.20174">
        <ele>380</ele>
        <time>2017-03-15T13:58:54.973Z</time>
      </trkpt>
      <trkpt lat="46.33112" lon="6.20206">
        <ele>379.4</ele>
        <time>2017-03-15T13:59:10.863Z</time>
      </trkpt>
      <trkpt lat="46.33168" lon="6.20225">
        <ele>379.1</ele>
        <time>2017-03-15T13:59:26.761Z</time>
      </trkpt>
      <trkpt lat="46.3322" lon="6.20235">
        <ele>378.8</ele>
        <time>2017-03-15T13:59:42.666Z</time>
      </trkpt>
      <trkpt lat="46.33277" lon="6.20241">
        <ele>376.3</ele>
        <time>2017-03-15T13:59:58.579Z</time>
      </trkpt>
      <trkpt lat="46.33449" lon="6.2024">
        <ele>376.6</ele>
        <time>2017-03-15T14:00:14.514Z</time>
      </trkpt>
      <trkpt lat="46.33542" lon="6.20242">
        <ele>376.8</ele>
        <time>2017-03-15T14:00:30.462Z</time>
      </trkpt>
      <trkpt lat="46.33608" lon="6.20251">
        <ele>378</ele>
        <time>2017-03-15T14:00:46.419Z</time>
      </trkpt>
      <trkpt lat="46.33653" lon="6.2026">
        <ele>379.6</ele>
        <time>2017-03-15T14:01:02.382Z</time>
      </trkpt>
      <trkpt lat="46.33717" lon="6.20282">
        <ele>379.3</ele>
        <time>2017-03-15T14:01:18.354Z</time>
      </trkpt>
      <trkpt lat="46.33767" lon="6.20303">
        <ele>379.7</ele>
        <time>2017-03-15T14:01:34.332Z</time>
      </trkpt>
      <trkpt lat="46.3381" lon="6.20324">
        <ele>380.9</ele>
        <time>2017-03-15T14:01:50.317Z</time>
      </trkpt>
      <trkpt lat="46.33857" lon="6.20351">
        <ele>380.6</ele>
        <time>2017-03-15T14:02:06.308Z</time>
      </trkpt>
      <trkpt lat="46.33983" lon="6.20438">
        <ele>383.9</ele>
        <time>2017-03-15T14:02:22.318Z</time>
      </trkpt>
      <trkpt lat="46.34056" lon="6.20482">
        <ele>379.4</ele>
        <time>2017-03-15T14:02:38.338Z</time>
      </trkpt>
      <trkpt lat="46.34089" lon="6.20498">
        <ele>378.8</ele>
        <time>2017-03-15T14:02:54.363Z</time>
      </trkpt>
      <trkpt lat="46.34125" lon="6.20512">
        <ele>378</ele>
        <time>2017-03-15T14:03:10.393Z</time>
      </trkpt>
      <trkpt lat="46.34178" lon="6.20529">
        <ele>378.2</ele>
        <time>2017-03-15T14:03:26.430Z</time>
      </trkpt>
      <trkpt lat="46.34264" lon="6.20548">
        <ele>378.5</ele>
        <time>2017-03-15T14:03:42.479Z</time>
      </trkpt>
      <trkpt lat="46.34455" lon="6.20595">
        <ele>379</ele>
        <time>2017-03-15T14:03:58.554Z</time>
      </trkpt>
      <trkpt lat="46.34625" lon="6.20636">
        <ele>379.1</ele>
        <time>2017-03-15T14:04:14.652Z</time>
      </trkpt>
      <trkpt lat="46.34763" lon="6.20669">
        <ele>376.3</ele>
        <time>2017-03-15T14:04:30.768Z</time>
      </trkpt>
      <trkpt lat="46.34812" lon="6.20682">
        <ele>374.2</ele>
        <time>2017-03-15T14:04:46.891Z</time>
      </trkpt>
      <trkpt lat="46.34881" lon="6.20705">
        <ele>374.4</ele>
        <time>2017-03-15T14:05:03.024Z</time>
      </trkpt>
      <trkpt lat="46.34911" lon="6.20718">
        <ele>374.9</ele>
        <time>2017-03-15T14:05:19.161Z</time>
      </trkpt>
      <trkpt lat="46.34983" lon="6.20754">
        <ele>377.2</ele>
        <time>2017-03-15T14:05:35.308Z</time>
      </trkpt>
      <trkpt lat="46.35027" lon="6.20781">
        <ele>378.3</ele>
        <time>2017-03-15T14:05:51.461Z</time>
      </trkpt>
      <trkpt lat="46.35118" lon="6.20852">
        <ele>379</ele>
        <time>2017-03-15T14:06:07.628Z</time>
      </trkpt>
      <trkpt lat="46.35162" lon="6.2089">
        <ele>378.8</ele>
        <time>2017-03-15T14:06:23.802Z</time>
      </trkpt>
      <trkpt lat="46.35266" lon="6.20991">
        <ele>379.6</ele>
        <time>2017-03-15T14:06:39.993Z</time>
      </trkpt>
      <trkpt lat="46.3544" lon="6.21156">
        <ele>377.6</ele>
        <time>2017-03-15T14:06:56.211Z</time>
      </trkpt>
      <trkpt lat="46.35557" lon="6.21269">
        <ele>376.8</ele>
        <time>2017-03-15T14:07:12.448Z</time>
      </trkpt>
      <trkpt lat="46.35751" lon="6.21455">
        <ele>380.5</ele>
        <time>2017-03-15T14:07:28.716Z</time>
      </trkpt>
      <trkpt lat="46.35868" lon="6.21572">
        <ele>378.5</ele>
        <time>2017-03-15T14:07:45.003Z</time>
      </trkpt>
      <trkpt lat="46.35877" lon="6.21579">
        <ele>378.2</ele>
        <time>2017-03-15T14:08:01.292Z</time>
      </trkpt>
      <trkpt lat="46.35883" lon="6.21592">
        <ele>377.6</ele>
        <time>2017-03-15T14:08:17.582Z</time>
      </trkpt>
      <trkpt lat="46.35883" lon="6.21593">
        <ele>377.5</ele>
        <time>2017-03-15T14:08:33.872Z</time>
      </trkpt>
      <trkpt lat="46.35884" lon="6.21595">
        <ele>377.4</ele>
        <time>2017-03-15T14:08:50.162Z</time>
      </trkpt>
      <trkpt lat="46.35885" lon="6.21598">
        <ele>377.3</ele>
        <time>2017-03-15T14:09:06.453Z</time>
      </trkpt>
      <trkpt lat="46.35889" lon="6.21602">
        <ele>377.1</ele>
        <time>2017-03-15T14:09:22.744Z</time>
      </trkpt>
      <trkpt lat="46.35893" lon="6.21604">
        <ele>377</ele>
        <time>2017-03-15T14:09:39.036Z</time>
      </trkpt>
      <trkpt lat="46.35895" lon="6.21604">
        <ele>377</ele>
        <time>2017-03-15T14:09:55.328Z</time>
      </trkpt>
      <trkpt lat="46.35909" lon="6.2161">
        <ele>377.4</ele>
        <time>2017-03-15T14:10:11.622Z</time>
      </trkpt>
      <trkpt lat="46.35957" lon="6.21667">
        <ele>377.8</ele>
        <time>2017-03-15T14:10:27.924Z</time>
      </trkpt>
      <trkpt lat="46.35989" lon="6.21703">
        <ele>378.3</ele>
        <time>2017-03-15T14:10:44.232Z</time>
      </trkpt>
      <trkpt lat="46.36123" lon="6.21841">
        <ele>382.8</ele>
        <time>2017-03-15T14:11:00.562Z</time>
      </trkpt>
      <trkpt lat="46.36207" lon="6.21919">
        <ele>382.6</ele>
        <time>2017-03-15T14:11:16.905Z</time>
      </trkpt>
      <trkpt lat="46.36246" lon="6.21952">
        <ele>381.6</ele>
        <time>2017-03-15T14:11:33.254Z</time>
      </trkpt>
      <trkpt lat="46.36255" lon="6.21962">
        <ele>381.4</ele>
        <time>2017-03-15T14:11:49.605Z</time>
      </trkpt>
      <trkpt lat="46.36301" lon="6.21996">
        <ele>381.1</ele>
        <time>2017-03-15T14:12:05.962Z</time>
      </trkpt>
      <trkpt lat="46.36394" lon="6.22064">
        <ele>381.8</ele>
        <time>2017-03-15T14:12:22.333Z</time>
      </trkpt>
      <trkpt lat="46.36455" lon="6.22107">
        <ele>384.5</ele>
        <time>2017-03-15T14:12:38.713Z</time>
      </trkpt>
      <trkpt lat="46.36529" lon="6.2216">
        <ele>386.4</ele>
        <time>2017-03-15T14:12:55.104Z</time>
      </trkpt>
      <trkpt lat="46.36551" lon="6.22173">
        <ele>386.7</ele>
        <time>2017-03-15T14:13:11.499Z</time>
      </trkpt>
      <trkpt lat="46.36582" lon="6.22194">
        <ele>386.5</ele>
        <time>2017-03-15T14:13:27.898Z</time>
      </trkpt>
      <trkpt lat="46.36649" lon="6.22245">
        <ele>385.5</ele>
        <time>2017-03-15T14:13:44.307Z</time>
      </trkpt>
      <trkpt lat="46.36706" lon="6.22295">
        <ele>385.3</ele>
        <time>2017-03-15T14:14:00.725Z</time>
      </trkpt>
      <trkpt lat="46.36752" lon="6.22347">
        <ele>384.7</ele>
        <time>2017-03-15T14:14:17.151Z</time>
      </trkpt>
      <trkpt lat="46.36789" lon="6.22394">
        <ele>383.9</ele>
        <time>2017-03-15T14:14:33.584Z</time>
      </trkpt>
      <trkpt lat="46.36832" lon="6.22457">
        <ele>383</ele>
        <time>2017-03-15T14:14:50.025Z</time>
      </trkpt>
      <trkpt lat="46.3687" lon="6.22519">
        <ele>383.5</ele>
        <time>2017-03-15T14:15:06.473Z</time>
      </trkpt>
      <trkpt lat="46.36893" lon="6.22563">
        <ele>384.2</ele>
        <time>2017-03-15T14:15:22.926Z</time>
      </trkpt>
      <trkpt lat="46.36985" lon="6.2275">
        <ele>387.3</ele>
        <time>2017-03-15T14:15:39.401Z</time>
      </trkpt>
      <trkpt lat="46.37024" lon="6.22827">
        <ele>389</ele>
        <time>2017-03-15T14:15:55.884Z</time>
      </trkpt>
      <trkpt lat="46.37033" lon="6.22838">
        <ele>389.2</ele>
        <time>2017-03-15T14:16:12.369Z</time>
      </trkpt>
      <trkpt lat="46.3707" lon="6.22903">
        <ele>390.1</ele>
        <time>2017-03-15T14:16:28.862Z</time>
      </trkpt>
      <trkpt lat="46.37124" lon="6.22988">
        <ele>391.1</ele>
        <time>2017-03-15T14:16:45.365Z</time>
      </trkpt>
      <trkpt lat="46.37171" lon="6.2305">
        <ele>392.1</ele>
        <time>2017-03-15T14:17:01.877Z</time>
      </trkpt>
      <trkpt lat="46.37217" lon="6.23106">
        <ele>392.8</ele>
        <time>2017-03-15T14:17:18.397Z</time>
      </trkpt>
      <trkpt lat="46.37242" lon="6.23138">
        <ele>393.1</ele>
        <time>2017-03-15T14:17:34.921Z</time>
      </trkpt>
      <trkpt lat="46.37338" lon="6.23242">
        <ele>386.4</ele>
        <time>2017-03-15T14:17:51.461Z</time>
      </trkpt>
      <trkpt lat="46.37416" lon="6.23316">
        <ele>382.9</ele>
        <time>2017-03-15T14:18:08.014Z</time>
      </trkpt>
      <trkpt lat="46.37446" lon="6.23339">
        <ele>382.4</ele>
        <time>2017-03-15T14:18:24.571Z</time>
      </trkpt>
      <trkpt lat="46.37483" lon="6.23366">
        <ele>381.8</ele>
        <time>2017-03-15T14:18:41.134Z</time>
      </trkpt>
      <trkpt lat="46.37584" lon="6.23444">
        <ele>381.7</ele>
        <time>2017-03-15T14:18:57.712Z</time>
      </trkpt>
      <trkpt lat="46.37592" lon="6.2345">
        <ele>382.1</ele>
        <time>2017-03-15T14:19:14.291Z</time>
      </trkpt>
      <trkpt lat="46.37654" lon="6.23498">
        <ele>384.4</ele>
        <time>2017-03-15T14:19:30.880Z</time>
      </trkpt>
      <trkpt lat="46.37679" lon="6.23523">
        <ele>385</ele>
        <time>2017-03-15T14:19:47.473Z</time>
      </trkpt>
      <trkpt lat="46.3769" lon="6.23539">
        <ele>384.6</ele>
        <time>2017-03-15T14:20:04.068Z</time>
      </trkpt>
      <trkpt lat="46.37707" lon="6.23568">
        <ele>383.7</ele>
        <time>2017-03-15T14:20:20.666Z</time>
      </trkpt>
      <trkpt lat="46.37758" lon="6.23679">
        <ele>380.5</ele>
        <time>2017-03-15T14:20:37.277Z</time>
      </trkpt>
      <trkpt lat="46.37798" lon="6.23763">
        <ele>377.4</ele>
        <time>2017-03-15T14:20:53.897Z</time>
      </trkpt>
      <trkpt lat="46.37808" lon="6.23778">
        <ele>376.4</ele>
        <time>2017-03-15T14:21:10.519Z</time>
      </trkpt>
      <trkpt lat="46.37815" lon="6.23789">
        <ele>375.7</ele>
        <time>2017-03-15T14:21:27.142Z</time>
      </trkpt>
      <trkpt lat="46.37814" lon="6.23795">
        <ele>375.2</ele>
        <time>2017-03-15T14:21:43.766Z</time>
      </trkpt>
      <trkpt lat="46.37816" lon="6.23804">
        <ele>374.8</ele>
        <time>2017-03-15T14:22:00.391Z</time>
      </trkpt>
      <trkpt lat="46.37821" lon="6.2382">
        <ele>374</ele>
        <time>2017-03-15T14:22:17.017Z</time>
      </trkpt>
      <trkpt lat="46.37822" lon="6.23827">
        <ele>373.9</ele>
        <time>2017-03-15T14:22:33.644Z</time>
      </trkpt>
      <trkpt lat="46.37825" lon="6.23832">
        <ele>373.9</ele>
        <time>2017-03-15T14:22:50.272Z</time>
      </trkpt>
      <trkpt lat="46.37829" lon="6.23835">
        <ele>374</ele>
        <time>2017-03-15T14:23:06.900Z</time>
      </trkpt>
      <trkpt lat="46.37831" lon="6.23836">
        <ele>374</ele>
        <time>2017-03-15T14:23:23.529Z</time>
      </trkpt>
      <trkpt lat="46.37852" lon="6.23857">
        <ele>374.3</ele>
        <time>2017-03-15T14:23:40.161Z</time>
      </trkpt>
      <trkpt lat="46.37961" lon="6.24005">
        <ele>377.4</ele>
        <time>2017-03-15T14:23:56.813Z</time>
      </trkpt>
      <trkpt lat="46.37991" lon="6.24047">
        <ele>377.1</ele>
        <time>2017-03-15T14:24:13.471Z</time>
      </trkpt>
      <trkpt lat="46.38009" lon="6.24078">
        <ele>376.6</ele>
        <time>2017-03-15T14:24:30.132Z</time>
      </trkpt>
      <trkpt lat="46.38033" lon="6.24143">
        <ele>375.1</ele>
        <time>2017-03-15T14:24:46.800Z</time>
      </trkpt>
      <trkpt lat="46.38042" lon="6.24161">
        <ele>375.1</ele>
        <time>2017-03-15T14:25:03.470Z</time>
      </trkpt>
      <trkpt lat="46.38049" lon="6.2417">
        <ele>375.3</ele>
        <time>2017-03-15T14:25:20.141Z</time>
      </trkpt>
      <trkpt lat="46.3807" lon="6.24192">
        <ele>376.1</ele>
        <time>2017-03-15T14:25:36.816Z</time>
      </trkpt>
      <trkpt lat="46.38133" lon="6.24249">
        <ele>377.4</ele>
        <time>2017-03-15T14:25:53.501Z</time>
      </trkpt>
      <trkpt lat="46.38216" lon="6.24326">
        <ele>375</ele>
        <time>2017-03-15T14:26:10.199Z</time>
      </trkpt>
      <trkpt lat="46.38243" lon="6.2434">
        <ele>374.9</ele>
        <time>2017-03-15T14:26:26.901Z</time>
      </trkpt>
      <trkpt lat="46.38263" lon="6.24344">
        <ele>375.4</ele>
        <time>2017-03-15T14:26:43.605Z</time>
      </trkpt>
      <trkpt lat="46.38283" lon="6.24353">
        <ele>375.9</ele>
        <time>2017-03-15T14:27:00.312Z</time>
      </trkpt>
      <trkpt lat="46.3832" lon="6.24378">
        <ele>376.6</ele>
        <time>2017-03-15T14:27:17.025Z</time>
      </trkpt>
      <trkpt lat="46.38362" lon="6.24424">
        <ele>376.5</ele>
        <time>2017-03-15T14:27:33.745Z</time>
      </trkpt>
      <trkpt lat="46.38384" lon="6.24453">
        <ele>376.3</ele>
        <time>2017-03-15T14:27:50.469Z</time>
      </trkpt>
      <trkpt lat="46.38443" lon="6.24549">
        <ele>376.2</ele>
        <time>2017-03-15T14:28:07.205Z</time>
      </trkpt>
      <trkpt lat="46.38455" lon="6.24565">
        <ele>376.4</ele>
        <time>2017-03-15T14:28:23.943Z</time>
      </trkpt>
      <trkpt lat="46.38467" lon="6.24575">
        <ele>376.8</ele>
        <time>2017-03-15T14:28:40.683Z</time>
      </trkpt>
      <trkpt lat="46.38504" lon="6.246">
        <ele>376.9</ele>
        <time>2017-03-15T14:28:57.428Z</time>
      </trkpt>
      <trkpt lat="46.38556" lon="6.24622">
        <ele>376.3</ele>
        <time>2017-03-15T14:29:14.180Z</time>
      </trkpt>
      <trkpt lat="46.38618" lon="6.24646">
        <ele>376.6</ele>
        <time>2017-03-15T14:29:30.941Z</time>
      </trkpt>
      <trkpt lat="46.38668" lon="6.24666">
        <ele>377.5</ele>
        <time>2017-03-15T14:29:47.709Z</time>
      </trkpt>
      <trkpt lat="46.38693" lon="6.24679">
        <ele>378.5</ele>
        <time>2017-03-15T14:30:04.480Z</time>
      </trkpt>
      <trkpt lat="46.38721" lon="6.24701">
        <ele>379.4</ele>
        <time>2017-03-15T14:30:21.256Z</time>
      </trkpt>
      <trkpt lat="46.38736" lon="6.24716">
        <ele>379.7</ele>
        <time>2017-03-15T14:30:38.034Z</time>
      </trkpt>
      <trkpt lat="46.38854" lon="6.24861">
        <ele>381.2</ele>
        <time>2017-03-15T14:30:54.833Z</time>
      </trkpt>
      <trkpt lat="46.38968" lon="6.25002">
        <ele>381.4</ele>
        <time>2017-03-15T14:31:11.652Z</time>
      </trkpt>
      <trkpt lat="46.38987" lon="6.2503">
        <ele>381.6</ele>
        <time>2017-03-15T14:31:28.474Z</time>
      </trkpt>
      <trkpt lat="46.39055" lon="6.25115">
        <ele>382.4</ele>
        <time>2017-03-15T14:31:45.308Z</time>
      </trkpt>
      <trkpt lat="46.39095" lon="6.25162">
        <ele>382.5</ele>
        <time>2017-03-15T14:32:02.149Z</time>
      </trkpt>
      <trkpt lat="46.39211" lon="6.25312">
        <ele>386.8</ele>
        <time>2017-03-15T14:32:19.011Z</time>
      </trkpt>
      <trkpt lat="46.39275" lon="6.2539">
        <ele>383.4</ele>
        <time>2017-03-15T14:32:35.884Z</time>
      </trkpt>
      <trkpt lat="46.39294" lon="6.25415">
        <ele>382.8</ele>
        <time>2017-03-15T14:32:52.760Z</time>
      </trkpt>
      <trkpt lat="46.39455" lon="6.25618">
        <ele>385.1</ele>
        <time>2017-03-15T14:33:09.665Z</time>
      </trkpt>
      <trkpt lat="46.39496" lon="6.25668">
        <ele>385.4</ele>
        <time>2017-03-15T14:33:26.577Z</time>
      </trkpt>
      <trkpt lat="46.39568" lon="6.25758">
        <ele>387.4</ele>
        <time>2017-03-15T14:33:43.502Z</time>
      </trkpt>
      <trkpt lat="46.39734" lon="6.25967">
        <ele>398.4</ele>
        <time>2017-03-15T14:34:00.456Z</time>
      </trkpt>
      <trkpt lat="46.39856" lon="6.26122">
        <ele>399.3</ele>
        <time>2017-03-15T14:34:17.432Z</time>
      </trkpt>
      <trkpt lat="46.40067" lon="6.26389">
        <ele>402</ele>
        <time>2017-03-15T14:34:34.445Z</time>
      </trkpt>
      <trkpt lat="46.40245" lon="6.26614">
        <ele>402.2</ele>
        <time>2017-03-15T14:34:51.490Z</time>
      </trkpt>
      <trkpt lat="46.40295" lon="6.26676">
        <ele>401.6</ele>
        <time>2017-03-15T14:35:08.544Z</time>
      </trkpt>
      <trkpt lat="46.40349" lon="6.2674">
        <ele>403.3</ele>
        <time>2017-03-15T14:35:25.607Z</time>
      </trkpt>
      <trkpt lat="46.40387" lon="6.26776">
        <ele>405.1</ele>
        <time>2017-03-15T14:35:42.676Z</time>
      </trkpt>
      <trkpt lat="46.4041" lon="6.26793">
        <ele>405.5</ele>
        <time>2017-03-15T14:35:59.748Z</time>
      </trkpt>
      <trkpt lat="46.40442" lon="6.26812">
        <ele>404.9</ele>
        <time>2017-03-15T14:36:16.825Z</time>
      </trkpt>
      <trkpt lat="46.40488" lon="6.26833">
        <ele>404.2</ele>
        <time>2017-03-15T14:36:33.908Z</time>
      </trkpt>
      <trkpt lat="46.40588" lon="6.26869">
        <ele>400.1</ele>
        <time>2017-03-15T14:36:51.005Z</time>
      </trkpt>
      <trkpt lat="46.40607" lon="6.26877">
        <ele>398.5</ele>
        <time>2017-03-15T14:37:08.105Z</time>
      </trkpt>
      <trkpt lat="46.40645" lon="6.26899">
        <ele>395.4</ele>
        <time>2017-03-15T14:37:25.210Z</time>
      </trkpt>
      <trkpt lat="46.40657" lon="6.26908">
        <ele>395.5</ele>
        <time>2017-03-15T14:37:42.317Z</time>
      </trkpt>
      <trkpt lat="46.40673" lon="6.26922">
        <ele>396.2</ele>
        <time>2017-03-15T14:37:59.427Z</time>
      </trkpt>
      <trkpt lat="46.40691" lon="6.26942">
        <ele>397.1</ele>
        <time>2017-03-15T14:38:16.540Z</time>
      </trkpt>
      <trkpt lat="46.40708" lon="6.2696">
        <ele>398</ele>
        <time>2017-03-15T14:38:33.655Z</time>
      </trkpt>
      <trkpt lat="46.40771" lon="6.27036">
        <ele>401.3</ele>
        <time>2017-03-15T14:38:50.781Z</time>
      </trkpt>
      <trkpt lat="46.40847" lon="6.2712">
        <ele>405.3</ele>
        <time>2017-03-15T14:39:07.920Z</time>
      </trkpt>
      <trkpt lat="46.41017" lon="6.27317">
        <ele>407.1</ele>
        <time>2017-03-15T14:39:25.088Z</time>
      </trkpt>
      <trkpt lat="46.41102" lon="6.27417">
        <ele>404.8</ele>
        <time>2017-03-15T14:39:42.271Z</time>
      </trkpt>
      <trkpt lat="46.41153" lon="6.27478">
        <ele>405.2</ele>
        <time>2017-03-15T14:39:59.463Z</time>
      </trkpt>
      <trkpt lat="46.41189" lon="6.27515">
        <ele>405.7</ele>
        <time>2017-03-15T14:40:16.661Z</time>
      </trkpt>
      <trkpt lat="46.41196" lon="6.2752">
        <ele>405.9</ele>
        <time>2017-03-15T14:40:33.860Z</time>
      </trkpt>
      <trkpt lat="46.41247" lon="6.27572">
        <ele>406.5</ele>
        <time>2017-03-15T14:40:51.067Z</time>
      </trkpt>
      <trkpt lat="46.41345" lon="6.27685">
        <ele>405</ele>
        <time>2017-03-15T14:41:08.291Z</time>
      </trkpt>
      <trkpt lat="46.41402" lon="6.27758">
        <ele>398.7</ele>
        <time>2017-03-15T14:41:25.525Z</time>
      </trkpt>
      <trkpt lat="46.41424" lon="6.27788">
        <ele>397.5</ele>
        <time>2017-03-15T14:41:42.763Z</time>
      </trkpt>
      <trkpt lat="46.41488" lon="6.27865">
        <ele>396.4</ele>
        <time>2017-03-15T14:42:00.012Z</time>
      </trkpt>
      <trkpt lat="46.41529" lon="6.27915">
        <ele>396.1</ele>
        <time>2017-03-15T14:42:17.268Z</time>
      </trkpt>
      <trkpt lat="46.41532" lon="6.27924">
        <ele>395.9</ele>
        <time>2017-03-15T14:42:34.525Z</time>
      </trkpt>
      <trkpt lat="46.41539" lon="6.27937">
        <ele>395.7</ele>
        <time>2017-03-15T14:42:51.784Z</time>
      </trkpt>
      <trkpt lat="46.41539" lon="6.2794">
        <ele>395.6</ele>
        <time>2017-03-15T14:43:09.043Z</time>
      </trkpt>
      <trkpt lat="46.4154" lon="6.27946">
        <ele>395.5</ele>
        <time>2017-03-15T14:43:26.302Z</time>
      </trkpt>
      <trkpt lat="46.41546" lon="6.27954">
        <ele>395.4</ele>
        <time>2017-03-15T14:43:43.562Z</time>
      </trkpt>
      <trkpt lat="46.4155" lon="6.27955">
        <ele>395.4</ele>
        <time>2017-03-15T14:44:00.823Z</time>
      </trkpt>
      <trkpt lat="46.41552" lon="6.27955">
        <ele>395.4</ele>
        <time>2017-03-15T14:44:18.084Z</time>
      </trkpt>
      <trkpt lat="46.41566" lon="6.27962">
        <ele>395.4</ele>
        <time>2017-03-15T14:44:35.347Z</time>
      </trkpt>
      <trkpt lat="46.41574" lon="6.27966">
        <ele>395.2</ele>
        <time>2017-03-15T14:44:52.611Z</time>
      </trkpt>
      <trkpt lat="46.41581" lon="6.27975">
        <ele>394.9</ele>
        <time>2017-03-15T14:45:09.877Z</time>
      </trkpt>
      <trkpt lat="46.41681" lon="6.28091">
        <ele>394.1</ele>
        <time>2017-03-15T14:45:27.160Z</time>
      </trkpt>
      <trkpt lat="46.41724" lon="6.28141">
        <ele>394</ele>
        <time>2017-03-15T14:45:44.450Z</time>
      </trkpt>
      <trkpt lat="46.41844" lon="6.28278">
        <ele>392.1</ele>
        <time>2017-03-15T14:46:01.761Z</time>
      </trkpt>
      <trkpt lat="46.41968" lon="6.28421">
        <ele>390.5</ele>
        <time>2017-03-15T14:46:19.093Z</time>
      </trkpt>
      <trkpt lat="46.41979" lon="6.28445">
        <ele>390.4</ele>
        <time>2017-03-15T14:46:36.427Z</time>
      </trkpt>
      <trkpt lat="46.41979" lon="6.28452">
        <ele>390.3</ele>
        <time>2017-03-15T14:46:53.762Z</time>
      </trkpt>
      <trkpt lat="46.41981" lon="6.28458">
        <ele>390.2</ele>
        <time>2017-03-15T14:47:11.098Z</time>
      </trkpt>
      <trkpt lat="46.41988" lon="6.28464">
        <ele>390.2</ele>
        <time>2017-03-15T14:47:28.435Z</time>
      </trkpt>
      <trkpt lat="46.41992" lon="6.28464">
        <ele>390.2</ele>
        <time>2017-03-15T14:47:45.772Z</time>
      </trkpt>
      <trkpt lat="46.41996" lon="6.28462">
        <ele>390.2</ele>
        <time>2017-03-15T14:48:03.110Z</time>
      </trkpt>
      <trkpt lat="46.42017" lon="6.28479">
        <ele>390</ele>
        <time>2017-03-15T14:48:20.451Z</time>
      </trkpt>
      <trkpt lat="46.4212" lon="6.28601">
        <ele>387.7</ele>
        <time>2017-03-15T14:48:37.810Z</time>
      </trkpt>
      <trkpt lat="46.42159" lon="6.28647">
        <ele>386.9</ele>
        <time>2017-03-15T14:48:55.175Z</time>
      </trkpt>
      <trkpt lat="46.42229" lon="6.28732">
        <ele>386.1</ele>
        <time>2017-03-15T14:49:12.553Z</time>
      </trkpt>
      <trkpt lat="46.42323" lon="6.28878">
        <ele>387.2</ele>
        <time>2017-03-15T14:49:29.949Z</time>
      </trkpt>
      <trkpt lat="46.42485" lon="6.29133">
        <ele>388.4</ele>
        <time>2017-03-15T14:49:47.377Z</time>
      </trkpt>
      <trkpt lat="46.42532" lon="6.29211">
        <ele>389.7</ele>
        <time>2017-03-15T14:50:04.815Z</time>
      </trkpt>
      <trkpt lat="46.42557" lon="6.29256">
        <ele>390</ele>
        <time>2017-03-15T14:50:22.258Z</time>
      </trkpt>
      <trkpt lat="46.42583" lon="6.29311">
        <ele>389.5</ele>
        <time>2017-03-15T14:50:39.707Z</time>
      </trkpt>
      <trkpt lat="46.42632" lon="6.29429">
        <ele>384.8</ele>
        <time>2017-03-15T14:50:57.169Z</time>
      </trkpt>
      <trkpt lat="46.42762" lon="6.29745">
        <ele>395.9</ele>
        <time>2017-03-15T14:51:14.665Z</time>
      </trkpt>
      <trkpt lat="46.42782" lon="6.29789">
        <ele>397.1</ele>
        <time>2017-03-15T14:51:32.165Z</time>
      </trkpt>
      <trkpt lat="46.42801" lon="6.29822">
        <ele>398.3</ele>
        <time>2017-03-15T14:51:49.669Z</time>
      </trkpt>
      <trkpt lat="46.42843" lon="6.29882">
        <ele>398.5</ele>
        <time>2017-03-15T14:52:07.181Z</time>
      </trkpt>
      <trkpt lat="46.42889" lon="6.29942">
        <ele>396.4</ele>
        <time>2017-03-15T14:52:24.702Z</time>
      </trkpt>
      <trkpt lat="46.43354" lon="6.30547">
        <ele>390</ele>
        <time>2017-03-15T14:52:42.306Z</time>
      </trkpt>
      <trkpt lat="46.43468" lon="6.30697">
        <ele>389.9</ele>
        <time>2017-03-15T14:52:59.931Z</time>
      </trkpt>
      <trkpt lat="46.43512" lon="6.30752">
        <ele>390.9</ele>
        <time>2017-03-15T14:53:17.563Z</time>
      </trkpt>
      <trkpt lat="46.43662" lon="6.30946">
        <ele>390.9</ele>
        <time>2017-03-15T14:53:35.222Z</time>
      </trkpt>
      <trkpt lat="46.43749" lon="6.31061">
        <ele>390.5</ele>
        <time>2017-03-15T14:53:52.897Z</time>
      </trkpt>
      <trkpt lat="46.4392" lon="6.31283">
        <ele>388.3</ele>
        <time>2017-03-15T14:54:10.603Z</time>
      </trkpt>
      <trkpt lat="46.44288" lon="6.31764">
        <ele>379.9</ele>
        <time>2017-03-15T14:54:28.375Z</time>
      </trkpt>
      <trkpt lat="46.44358" lon="6.31856">
        <ele>379</ele>
        <time>2017-03-15T14:54:46.159Z</time>
      </trkpt>
      <trkpt lat="46.44371" lon="6.31876">
        <ele>378.9</ele>
        <time>2017-03-15T14:55:03.946Z</time>
      </trkpt>
      <trkpt lat="46.44798" lon="6.32595">
        <ele>381.6</ele>
        <time>2017-03-15T14:55:21.820Z</time>
      </trkpt>
      <trkpt lat="46.44933" lon="6.32825">
        <ele>382.2</ele>
        <time>2017-03-15T14:55:39.722Z</time>
      </trkpt>
      <trkpt lat="46.4522" lon="6.3331">
        <ele>383.9</ele>
        <time>2017-03-15T14:55:57.683Z</time>
      </trkpt>
      <trkpt lat="46.45261" lon="6.33378">
        <ele>382.7</ele>
        <time>2017-03-15T14:56:15.652Z</time>
      </trkpt>
      <trkpt lat="46.45288" lon="6.33417">
        <ele>381.8</ele>
        <time>2017-03-15T14:56:33.626Z</time>
      </trkpt>
      <trkpt lat="46.45306" lon="6.33436">
        <ele>381.3</ele>
        <time>2017-03-15T14:56:51.603Z</time>
      </trkpt>
      <trkpt lat="46.45483" lon="6.33558">
        <ele>382.4</ele>
        <time>2017-03-15T14:57:09.606Z</time>
      </trkpt>
      <trkpt lat="46.45595" lon="6.33633">
        <ele>380.1</ele>
        <time>2017-03-15T14:57:27.626Z</time>
      </trkpt>
      <trkpt lat="46.4562" lon="6.33654">
        <ele>379.6</ele>
        <time>2017-03-15T14:57:45.650Z</time>
      </trkpt>
      <trkpt lat="46.45688" lon="6.33725">
        <ele>378.2</ele>
        <time>2017-03-15T14:58:03.685Z</time>
      </trkpt>
      <trkpt lat="46.45753" lon="6.33802">
        <ele>378.6</ele>
        <time>2017-03-15T14:58:21.731Z</time>
      </trkpt>
      <trkpt lat="46.45846" lon="6.3391">
        <ele>378.8</ele>
        <time>2017-03-15T14:58:39.793Z</time>
      </trkpt>
      <trkpt lat="46.45915" lon="6.33985">
        <ele>378.5</ele>
        <time>2017-03-15T14:58:57.867Z</time>
      </trkpt>
      <trkpt lat="46.4598" lon="6.3406">
        <ele>380</ele>
        <time>2017-03-15T14:59:15.952Z</time>
      </trkpt>
      <trkpt lat="46.4599" lon="6.3408">
        <ele>379.9</ele>
        <time>2017-03-15T14:59:34.039Z</time>
      </trkpt>
      <trkpt lat="46.4599" lon="6.34083">
        <ele>379.8</ele>
        <time>2017-03-15T14:59:52.126Z</time>
      </trkpt>
      <trkpt lat="46.45991" lon="6.34084">
        <ele>379.8</ele>
        <time>2017-03-15T15:00:10.213Z</time>
      </trkpt>
      <trkpt lat="46.45992" lon="6.34086">
        <ele>379.8</ele>
        <time>2017-03-15T15:00:28.301Z</time>
      </trkpt>
      <trkpt lat="46.45994" lon="6.34088">
        <ele>379.8</ele>
        <time>2017-03-15T15:00:46.389Z</time>
      </trkpt>
      <trkpt lat="46.45996" lon="6.34089">
        <ele>379.9</ele>
        <time>2017-03-15T15:01:04.477Z</time>
      </trkpt>
      <trkpt lat="46.46018" lon="6.3411">
        <ele>380.2</ele>
        <time>2017-03-15T15:01:22.569Z</time>
      </trkpt>
      <trkpt lat="46.46026" lon="6.34115">
        <ele>380.3</ele>
        <time>2017-03-15T15:01:40.662Z</time>
      </trkpt>
      <trkpt lat="46.46078" lon="6.34176">
        <ele>380</ele>
        <time>2017-03-15T15:01:58.764Z</time>
      </trkpt>
      <trkpt lat="46.46085" lon="6.34186">
        <ele>379.6</ele>
        <time>2017-03-15T15:02:16.867Z</time>
      </trkpt>
      <trkpt lat="46.46085" lon="6.34188">
        <ele>379.5</ele>
        <time>2017-03-15T15:02:34.970Z</time>
      </trkpt>
      <trkpt lat="46.46084" lon="6.34191">
        <ele>379.4</ele>
        <time>2017-03-15T15:02:53.074Z</time>
      </trkpt>
      <trkpt lat="46.46086" lon="6.34197">
        <ele>379.2</ele>
        <time>2017-03-15T15:03:11.178Z</time>
      </trkpt>
      <trkpt lat="46.46089" lon="6.34201">
        <ele>379.1</ele>
        <time>2017-03-15T15:03:29.283Z</time>
      </trkpt>
      <trkpt lat="46.46093" lon="6.34202">
        <ele>379</ele>
        <time>2017-03-15T15:03:47.388Z</time>
      </trkpt>
      <trkpt lat="46.46097" lon="6.34199">
        <ele>379.1</ele>
        <time>2017-03-15T15:04:05.494Z</time>
      </trkpt>
      <trkpt lat="46.46114" lon="6.34217">
        <ele>378.5</ele>
        <time>2017-03-15T15:04:23.603Z</time>
      </trkpt>
      <trkpt lat="46.46191" lon="6.34305">
        <ele>376.7</ele>
        <time>2017-03-15T15:04:41.725Z</time>
      </trkpt>
      <trkpt lat="46.46226" lon="6.34351">
        <ele>376.5</ele>
        <time>2017-03-15T15:04:59.853Z</time>
      </trkpt>
      <trkpt lat="46.46237" lon="6.34373">
        <ele>376.7</ele>
        <time>2017-03-15T15:05:17.984Z</time>
      </trkpt>
      <trkpt lat="46.46245" lon="6.34393">
        <ele>377.2</ele>
        <time>2017-03-15T15:05:36.117Z</time>
      </trkpt>
      <trkpt lat="46.46252" lon="6.34424">
        <ele>377.4</ele>
        <time>2017-03-15T15:05:54.253Z</time>
      </trkpt>
      <trkpt lat="46.46259" lon="6.34506">
        <ele>378.2</ele>
        <time>2017-03-15T15:06:12.396Z</time>
      </trkpt>
      <trkpt lat="46.46267" lon="6.34601">
        <ele>379.9</ele>
        <time>2017-03-15T15:06:30.548Z</time>
      </trkpt>
      <trkpt lat="46.46281" lon="6.3478">
        <ele>380.9</ele>
        <time>2017-03-15T15:06:48.717Z</time>
      </trkpt>
      <trkpt lat="46.4629" lon="6.34912">
        <ele>381.8</ele>
        <time>2017-03-15T15:07:06.898Z</time>
      </trkpt>
      <trkpt lat="46.46289" lon="6.34926">
        <ele>382</ele>
        <time>2017-03-15T15:07:25.080Z</time>
      </trkpt>
      <trkpt lat="46.46294" lon="6.34988">
        <ele>381.8</ele>
        <time>2017-03-15T15:07:43.268Z</time>
      </trkpt>
      <trkpt lat="46.46304" lon="6.35126">
        <ele>379.7</ele>
        <time>2017-03-15T15:08:01.469Z</time>
      </trkpt>
      <trkpt lat="46.46306" lon="6.35161">
        <ele>379.8</ele>
        <time>2017-03-15T15:08:19.673Z</time>
      </trkpt>
      <trkpt lat="46.46305" lon="6.35177">
        <ele>380</ele>
        <time>2017-03-15T15:08:37.879Z</time>
      </trkpt>
      <trkpt lat="46.46302" lon="6.35181">
        <ele>379.9</ele>
        <time>2017-03-15T15:08:56.085Z</time>
      </trkpt>
      <trkpt lat="46.46301" lon="6.35186">
        <ele>379.9</ele>
        <time>2017-03-15T15:09:14.292Z</time>
      </trkpt>
      <trkpt lat="46.46301" lon="6.35196">
        <ele>380</ele>
        <time>2017-03-15T15:09:32.500Z</time>
      </trkpt>
      <trkpt lat="46.46307" lon="6.35204">
        <ele>380.4</ele>
        <time>2017-03-15T15:09:50.709Z</time>
      </trkpt>
      <trkpt lat="46.46313" lon="6.35232">
        <ele>380.9</ele>
        <time>2017-03-15T15:10:08.920Z</time>
      </trkpt>
      <trkpt lat="46.46326" lon="6.35385">
        <ele>379.2</ele>
        <time>2017-03-15T15:10:27.146Z</time>
      </trkpt>
      <trkpt lat="46.46332" lon="6.35474">
        <ele>379.7</ele>
        <time>2017-03-15T15:10:45.380Z</time>
      </trkpt>
      <trkpt lat="46.4639" lon="6.3624">
        <ele>382.4</ele>
        <time>2017-03-15T15:11:03.685Z</time>
      </trkpt>
      <trkpt lat="46.464" lon="6.36358">
        <ele>382</ele>
        <time>2017-03-15T15:11:22.001Z</time>
      </trkpt>
      <trkpt lat="46.46409" lon="6.3643">
        <ele>382.3</ele>
        <time>2017-03-15T15:11:40.324Z</time>
      </trkpt>
      <trkpt lat="46.46534" lon="6.37086">
        <ele>383.3</ele>
        <time>2017-03-15T15:11:58.709Z</time>
      </trkpt>
      <trkpt lat="46.4656" lon="6.37231">
        <ele>382.6</ele>
        <time>2017-03-15T15:12:17.108Z</time>
      </trkpt>
      <trkpt lat="46.46573" lon="6.37314">
        <ele>383.1</ele>
        <time>2017-03-15T15:12:35.515Z</time>
      </trkpt>
      <trkpt lat="46.46579" lon="6.37367">
        <ele>383.4</ele>
        <time>2017-03-15T15:12:53.927Z</time>
      </trkpt>
      <trkpt lat="46.46627" lon="6.37842">
        <ele>387.7</ele>
        <time>2017-03-15T15:13:12.383Z</time>
      </trkpt>
      <trkpt lat="46.46647" lon="6.38024">
        <ele>383.8</ele>
        <time>2017-03-15T15:13:30.856Z</time>
      </trkpt>
      <trkpt lat="46.46682" lon="6.38204">
        <ele>384.7</ele>
        <time>2017-03-15T15:13:49.346Z</time>
      </trkpt>
      <trkpt lat="46.46709" lon="6.38339">
        <ele>386.3</ele>
        <time>2017-03-15T15:14:07.849Z</time>
      </trkpt>
      <trkpt lat="46.46833" lon="6.38978">
        <ele>386</ele>
        <time>2017-03-15T15:14:26.413Z</time>
      </trkpt>
      <trkpt lat="46.46861" lon="6.39126">
        <ele>388.1</ele>
        <time>2017-03-15T15:14:44.992Z</time>
      </trkpt>
      <trkpt lat="46.46905" lon="6.39338">
        <ele>394.4</ele>
        <time>2017-03-15T15:15:03.591Z</time>
      </trkpt>
      <trkpt lat="46.46963" lon="6.3963">
        <ele>404.4</ele>
        <time>2017-03-15T15:15:22.218Z</time>
      </trkpt>
      <trkpt lat="46.46976" lon="6.3969">
        <ele>404.5</ele>
        <time>2017-03-15T15:15:40.851Z</time>
      </trkpt>
      <trkpt lat="46.46978" lon="6.39719">
        <ele>404</ele>
        <time>2017-03-15T15:15:59.486Z</time>
      </trkpt>
      <trkpt lat="46.46975" lon="6.39761">
        <ele>403.3</ele>
        <time>2017-03-15T15:16:18.125Z</time>
      </trkpt>
      <trkpt lat="46.46967" lon="6.39803">
        <ele>402.4</ele>
        <time>2017-03-15T15:16:36.768Z</time>
      </trkpt>
      <trkpt lat="46.46956" lon="6.39847">
        <ele>402</ele>
        <time>2017-03-15T15:16:55.416Z</time>
      </trkpt>
      <trkpt lat="46.46944" lon="6.3989">
        <ele>402</ele>
        <time>2017-03-15T15:17:14.068Z</time>
      </trkpt>
      <trkpt lat="46.46922" lon="6.39958">
        <ele>398.8</ele>
        <time>2017-03-15T15:17:32.727Z</time>
      </trkpt>
      <trkpt lat="46.4691" lon="6.40008">
        <ele>395.7</ele>
        <time>2017-03-15T15:17:51.391Z</time>
      </trkpt>
      <trkpt lat="46.46908" lon="6.40032">
        <ele>394.7</ele>
        <time>2017-03-15T15:18:10.057Z</time>
      </trkpt>
      <trkpt lat="46.46911" lon="6.40067">
        <ele>393.6</ele>
        <time>2017-03-15T15:18:28.726Z</time>
      </trkpt>
      <trkpt lat="46.4692" lon="6.40097">
        <ele>392.8</ele>
        <time>2017-03-15T15:18:47.398Z</time>
      </trkpt>
      <trkpt lat="46.46927" lon="6.40114">
        <ele>392.6</ele>
        <time>2017-03-15T15:19:06.072Z</time>
      </trkpt>
      <trkpt lat="46.46959" lon="6.40164">
        <ele>391.7</ele>
        <time>2017-03-15T15:19:24.752Z</time>
      </trkpt>
      <trkpt lat="46.46968" lon="6.40176">
        <ele>391.3</ele>
        <time>2017-03-15T15:19:43.434Z</time>
      </trkpt>
      <trkpt lat="46.46973" lon="6.40188">
        <ele>390.7</ele>
        <time>2017-03-15T15:20:02.117Z</time>
      </trkpt>
      <trkpt lat="46.47" lon="6.4022">
        <ele>389.5</ele>
        <time>2017-03-15T15:20:20.805Z</time>
      </trkpt>
      <trkpt lat="46.47033" lon="6.40254">
        <ele>389</ele>
        <time>2017-03-15T15:20:39.498Z</time>
      </trkpt>
      <trkpt lat="46.47155" lon="6.40369">
        <ele>392</ele>
        <time>2017-03-15T15:20:58.211Z</time>
      </trkpt>
      <trkpt lat="46.47204" lon="6.40429">
        <ele>393.2</ele>
        <time>2017-03-15T15:21:16.932Z</time>
      </trkpt>
      <trkpt lat="46.47231" lon="6.40467">
        <ele>393.4</ele>
        <time>2017-03-15T15:21:35.658Z</time>
      </trkpt>
      <trkpt lat="46.47278" lon="6.4055">
        <ele>394.6</ele>
        <time>2017-03-15T15:21:54.394Z</time>
      </trkpt>
      <trkpt lat="46.47323" lon="6.40648">
        <ele>395.2</ele>
        <time>2017-03-15T15:22:13.141Z</time>
      </trkpt>
      <trkpt lat="46.47347" lon="6.40699">
        <ele>397.7</ele>
        <time>2017-03-15T15:22:31.894Z</time>
      </trkpt>
      <trkpt lat="46.47374" lon="6.40767">
        <ele>401.5</ele>
        <time>2017-03-15T15:22:50.654Z</time>
      </trkpt>
      <trkpt lat="46.47384" lon="6.40813">
        <ele>403.9</ele>
        <time>2017-03-15T15:23:09.418Z</time>
      </trkpt>
      <trkpt lat="46.4739" lon="6.40864">
        <ele>406.5</ele>
        <time>2017-03-15T15:23:28.187Z</time>
      </trkpt>
      <trkpt lat="46.47394" lon="6.41009">
        <ele>411.2</ele>
        <time>2017-03-15T15:23:46.970Z</time>
      </trkpt>
      <trkpt lat="46.47399" lon="6.41228">
        <ele>410.2</ele>
        <time>2017-03-15T15:24:05.773Z</time>
      </trkpt>
      <trkpt lat="46.47399" lon="6.41256">
        <ele>410</ele>
        <time>2017-03-15T15:24:24.578Z</time>
      </trkpt>
      <trkpt lat="46.47397" lon="6.41266">
        <ele>409.9</ele>
        <time>2017-03-15T15:24:43.384Z</time>
      </trkpt>
      <trkpt lat="46.47395" lon="6.41294">
        <ele>409.8</ele>
        <time>2017-03-15T15:25:02.193Z</time>
      </trkpt>
      <trkpt lat="46.47394" lon="6.41295">
        <ele>409.7</ele>
        <time>2017-03-15T15:25:21.002Z</time>
      </trkpt>
      <trkpt lat="46.47392" lon="6.41299">
        <ele>409.6</ele>
        <time>2017-03-15T15:25:39.812Z</time>
      </trkpt>
      <trkpt lat="46.47391" lon="6.41308">
        <ele>409.6</ele>
        <time>2017-03-15T15:25:58.622Z</time>
      </trkpt>
      <trkpt lat="46.47395" lon="6.41319">
        <ele>409.7</ele>
        <time>2017-03-15T15:26:17.434Z</time>
      </trkpt>
      <trkpt lat="46.47398" lon="6.41335">
        <ele>409.7</ele>
        <time>2017-03-15T15:26:36.247Z</time>
      </trkpt>
      <trkpt lat="46.47402" lon="6.41355">
        <ele>409.5</ele>
        <time>2017-03-15T15:26:55.062Z</time>
      </trkpt>
      <trkpt lat="46.47405" lon="6.41497">
        <ele>409.1</ele>
        <time>2017-03-15T15:27:13.890Z</time>
      </trkpt>
      <trkpt lat="46.47414" lon="6.41825">
        <ele>406.9</ele>
        <time>2017-03-15T15:27:32.748Z</time>
      </trkpt>
      <trkpt lat="46.47411" lon="6.41859">
        <ele>406.5</ele>
        <time>2017-03-15T15:27:51.609Z</time>
      </trkpt>
      <trkpt lat="46.47408" lon="6.41875">
        <ele>406.3</ele>
        <time>2017-03-15T15:28:10.472Z</time>
      </trkpt>
      <trkpt lat="46.47406" lon="6.41878">
        <ele>406.2</ele>
        <time>2017-03-15T15:28:29.335Z</time>
      </trkpt>
      <trkpt lat="46.47405" lon="6.4188">
        <ele>406.2</ele>
        <time>2017-03-15T15:28:48.199Z</time>
      </trkpt>
      <trkpt lat="46.47404" lon="6.41886">
        <ele>406.2</ele>
        <time>2017-03-15T15:29:07.063Z</time>
      </trkpt>
      <trkpt lat="46.47404" lon="6.41889">
        <ele>406.1</ele>
        <time>2017-03-15T15:29:25.927Z</time>
      </trkpt>
      <trkpt lat="46.47407" lon="6.419">
        <ele>406</ele>
        <time>2017-03-15T15:29:44.793Z</time>
      </trkpt>
      <trkpt lat="46.47409" lon="6.41902">
        <ele>406</ele>
        <time>2017-03-15T15:30:03.659Z</time>
      </trkpt>
      <trkpt lat="46.47417" lon="6.41939">
        <ele>406</ele>
        <time>2017-03-15T15:30:22.528Z</time>
      </trkpt>
      <trkpt lat="46.47434" lon="6.42598">
        <ele>403</ele>
        <time>2017-03-15T15:30:41.458Z</time>
      </trkpt>
      <trkpt lat="46.47429" lon="6.42642">
        <ele>404.5</ele>
        <time>2017-03-15T15:31:00.392Z</time>
      </trkpt>
      <trkpt lat="46.47427" lon="6.42646">
        <ele>404.6</ele>
        <time>2017-03-15T15:31:19.327Z</time>
      </trkpt>
      <trkpt lat="46.47425" lon="6.42653">
        <ele>404.6</ele>
        <time>2017-03-15T15:31:38.262Z</time>
      </trkpt>
      <trkpt lat="46.47426" lon="6.42661">
        <ele>404.5</ele>
        <time>2017-03-15T15:31:57.198Z</time>
      </trkpt>
      <trkpt lat="46.47438" lon="6.42758">
        <ele>403.8</ele>
        <time>2017-03-15T15:32:16.143Z</time>
      </trkpt>
      <trkpt lat="46.47449" lon="6.43119">
        <ele>405.7</ele>
        <time>2017-03-15T15:32:35.122Z</time>
      </trkpt>
      <trkpt lat="46.47461" lon="6.43473">
        <ele>405</ele>
        <time>2017-03-15T15:32:54.133Z</time>
      </trkpt>
      <trkpt lat="46.47477" lon="6.43569">
        <ele>407.3</ele>
        <time>2017-03-15T15:33:13.153Z</time>
      </trkpt>
      <trkpt lat="46.47631" lon="6.44119">
        <ele>404.4</ele>
        <time>2017-03-15T15:33:32.228Z</time>
      </trkpt>
      <trkpt lat="46.47772" lon="6.44578">
        <ele>401.1</ele>
        <time>2017-03-15T15:33:51.349Z</time>
      </trkpt>
      <trkpt lat="46.47932" lon="6.45123">
        <ele>401.4</ele>
        <time>2017-03-15T15:34:10.525Z</time>
      </trkpt>
      <trkpt lat="46.48041" lon="6.45492">
        <ele>397.9</ele>
        <time>2017-03-15T15:34:29.738Z</time>
      </trkpt>
      <trkpt lat="46.4809" lon="6.45644">
        <ele>394.8</ele>
        <time>2017-03-15T15:34:48.966Z</time>
      </trkpt>
      <trkpt lat="46.48126" lon="6.45691">
        <ele>394.4</ele>
        <time>2017-03-15T15:35:08.201Z</time>
      </trkpt>
      <trkpt lat="46.48162" lon="6.45719">
        <ele>394.6</ele>
        <time>2017-03-15T15:35:27.441Z</time>
      </trkpt>
      <trkpt lat="46.48171" lon="6.45725">
        <ele>394.7</ele>
        <time>2017-03-15T15:35:46.683Z</time>
      </trkpt>
      <trkpt lat="46.48173" lon="6.45725">
        <ele>394.7</ele>
        <time>2017-03-15T15:36:05.925Z</time>
      </trkpt>
      <trkpt lat="46.48177" lon="6.45726">
        <ele>394.8</ele>
        <time>2017-03-15T15:36:25.167Z</time>
      </trkpt>
      <trkpt lat="46.48182" lon="6.45733">
        <ele>394.7</ele>
        <time>2017-03-15T15:36:44.410Z</time>
      </trkpt>
      <trkpt lat="46.48183" lon="6.45736">
        <ele>394.5</ele>
        <time>2017-03-15T15:37:03.654Z</time>
      </trkpt>
      <trkpt lat="46.48204" lon="6.45759">
        <ele>392.8</ele>
        <time>2017-03-15T15:37:22.901Z</time>
      </trkpt>
      <trkpt lat="46.48209" lon="6.45767">
        <ele>392.1</ele>
        <time>2017-03-15T15:37:42.149Z</time>
      </trkpt>
      <trkpt lat="46.48234" lon="6.45787">
        <ele>390.8</ele>
        <time>2017-03-15T15:38:01.401Z</time>
      </trkpt>
      <trkpt lat="46.48291" lon="6.45834">
        <ele>386.9</ele>
        <time>2017-03-15T15:38:20.662Z</time>
      </trkpt>
      <trkpt lat="46.48298" lon="6.45835">
        <ele>386.9</ele>
        <time>2017-03-15T15:38:39.924Z</time>
      </trkpt>
      <trkpt lat="46.48314" lon="6.45841">
        <ele>386.5</ele>
        <time>2017-03-15T15:38:59.188Z</time>
      </trkpt>
      <trkpt lat="46.48319" lon="6.45842">
        <ele>386.5</ele>
        <time>2017-03-15T15:39:18.453Z</time>
      </trkpt>
      <trkpt lat="46.48324" lon="6.45845">
        <ele>386.5</ele>
        <time>2017-03-15T15:39:37.718Z</time>
      </trkpt>
      <trkpt lat="46.48327" lon="6.45855">
        <ele>386</ele>
        <time>2017-03-15T15:39:56.984Z</time>
      </trkpt>
      <trkpt lat="46.48327" lon="6.45856">
        <ele>386</ele>
        <time>2017-03-15T15:40:16.250Z</time>
      </trkpt>
      <trkpt lat="46.48344" lon="6.45878">
        <ele>385.3</ele>
        <time>2017-03-15T15:40:35.519Z</time>
      </trkpt>
      <trkpt lat="46.48506" lon="6.4601">
        <ele>384.3</ele>
        <time>2017-03-15T15:40:54.813Z</time>
      </trkpt>
      <trkpt lat="46.48588" lon="6.46077">
        <ele>383.4</ele>
        <time>2017-03-15T15:41:14.120Z</time>
      </trkpt>
      <trkpt lat="46.48597" lon="6.46081">
        <ele>383.6</ele>
        <time>2017-03-15T15:41:33.428Z</time>
      </trkpt>
      <trkpt lat="46.48616" lon="6.46095">
        <ele>383.8</ele>
        <time>2017-03-15T15:41:52.739Z</time>
      </trkpt>
      <trkpt lat="46.48651" lon="6.46123">
        <ele>384.3</ele>
        <time>2017-03-15T15:42:12.055Z</time>
      </trkpt>
      <trkpt lat="46.4867" lon="6.46142">
        <ele>384.6</ele>
        <time>2017-03-15T15:42:31.374Z</time>
      </trkpt>
      <trkpt lat="46.487" lon="6.46177">
        <ele>384.5</ele>
        <time>2017-03-15T15:42:50.698Z</time>
      </trkpt>
      <trkpt lat="46.48739" lon="6.46235">
        <ele>384.4</ele>
        <time>2017-03-15T15:43:10.030Z</time>
      </trkpt>
      <trkpt lat="46.48777" lon="6.46294">
        <ele>386.2</ele>
        <time>2017-03-15T15:43:29.369Z</time>
      </trkpt>
      <trkpt lat="46.48787" lon="6.46315">
        <ele>386.5</ele>
        <time>2017-03-15T15:43:48.711Z</time>
      </trkpt>
      <trkpt lat="46.48867" lon="6.46433">
        <ele>386</ele>
        <time>2017-03-15T15:44:08.068Z</time>
      </trkpt>
      <trkpt lat="46.48957" lon="6.46561">
        <ele>388.7</ele>
        <time>2017-03-15T15:44:27.442Z</time>
      </trkpt>
      <trkpt lat="46.49081" lon="6.4675">
        <ele>386.1</ele>
        <time>2017-03-15T15:44:46.840Z</time>
      </trkpt>
      <trkpt lat="46.49107" lon="6.46794">
        <ele>385.7</ele>
        <time>2017-03-15T15:45:06.243Z</time>
      </trkpt>
      <trkpt lat="46.49155" lon="6.46892">
        <ele>384.6</ele>
        <time>2017-03-15T15:45:25.657Z</time>
      </trkpt>
      <trkpt lat="46.49196" lon="6.4699">
        <ele>384.8</ele>
        <time>2017-03-15T15:45:45.082Z</time>
      </trkpt>
      <trkpt lat="46.49251" lon="6.47146">
        <ele>382.6</ele>
        <time>2017-03-15T15:46:04.523Z</time>
      </trkpt>
      <trkpt lat="46.49516" lon="6.47912">
        <ele>385.6</ele>
        <time>2017-03-15T15:46:24.043Z</time>
      </trkpt>
      <trkpt lat="46.49531" lon="6.47956">
        <ele>386.3</ele>
        <time>2017-03-15T15:46:43.567Z</time>
      </trkpt>
      <trkpt lat="46.49532" lon="6.47955">
        <ele>386.4</ele>
        <time>2017-03-15T15:47:03.091Z</time>
      </trkpt>
      <trkpt lat="46.49536" lon="6.47955">
        <ele>386.8</ele>
        <time>2017-03-15T15:47:22.616Z</time>
      </trkpt>
      <trkpt lat="46.49542" lon="6.4796">
        <ele>387.2</ele>
        <time>2017-03-15T15:47:42.142Z</time>
      </trkpt>
      <trkpt lat="46.49545" lon="6.47957">
        <ele>387.5</ele>
        <time>2017-03-15T15:48:01.668Z</time>
      </trkpt>
      <trkpt lat="46.49544" lon="6.47963">
        <ele>387.3</ele>
        <time>2017-03-15T15:48:21.195Z</time>
      </trkpt>
      <trkpt lat="46.49544" lon="6.47971">
        <ele>387.2</ele>
        <time>2017-03-15T15:48:40.723Z</time>
      </trkpt>
      <trkpt lat="46.49543" lon="6.47976">
        <ele>387.1</ele>
        <time>2017-03-15T15:49:00.251Z</time>
      </trkpt>
      <trkpt lat="46.49542" lon="6.47979">
        <ele>387</ele>
        <time>2017-03-15T15:49:19.780Z</time>
      </trkpt>
      <trkpt lat="46.49542" lon="6.4798">
        <ele>387</ele>
        <time>2017-03-15T15:49:39.309Z</time>
      </trkpt>
      <trkpt lat="46.49551" lon="6.48005">
        <ele>387.2</ele>
        <time>2017-03-15T15:49:58.840Z</time>
      </trkpt>
      <trkpt lat="46.49575" lon="6.48057">
        <ele>387.5</ele>
        <time>2017-03-15T15:50:18.377Z</time>
      </trkpt>
      <trkpt lat="46.49596" lon="6.48092">
        <ele>386.2</ele>
        <time>2017-03-15T15:50:37.918Z</time>
      </trkpt>
      <trkpt lat="46.49625" lon="6.48128">
        <ele>384.6</ele>
        <time>2017-03-15T15:50:57.464Z</time>
      </trkpt>
      <trkpt lat="46.49639" lon="6.48141">
        <ele>384.2</ele>
        <time>2017-03-15T15:51:17.013Z</time>
      </trkpt>
      <trkpt lat="46.49659" lon="6.48154">
        <ele>383.9</ele>
        <time>2017-03-15T15:51:36.564Z</time>
      </trkpt>
      <trkpt lat="46.49683" lon="6.48166">
        <ele>383.6</ele>
        <time>2017-03-15T15:51:56.119Z</time>
      </trkpt>
      <trkpt lat="46.49701" lon="6.4817">
        <ele>383.6</ele>
        <time>2017-03-15T15:52:15.676Z</time>
      </trkpt>
      <trkpt lat="46.49749" lon="6.4818">
        <ele>384.3</ele>
        <time>2017-03-15T15:52:35.240Z</time>
      </trkpt>
      <trkpt lat="46.49769" lon="6.48187">
        <ele>384.9</ele>
        <time>2017-03-15T15:52:54.806Z</time>
      </trkpt>
      <trkpt lat="46.49799" lon="6.48206">
        <ele>385.5</ele>
        <time>2017-03-15T15:53:14.377Z</time>
      </trkpt>
      <trkpt lat="46.49875" lon="6.48275">
        <ele>384.2</ele>
        <time>2017-03-15T15:53:33.960Z</time>
      </trkpt>
      <trkpt lat="46.5002" lon="6.4841">
        <ele>382.9</ele>
        <time>2017-03-15T15:53:53.566Z</time>
      </trkpt>
      <trkpt lat="46.50082" lon="6.48469">
        <ele>382.7</ele>
        <time>2017-03-15T15:54:13.182Z</time>
      </trkpt>
      <trkpt lat="46.5019" lon="6.4857">
        <ele>381.3</ele>
        <time>2017-03-15T15:54:32.815Z</time>
      </trkpt>
      <trkpt lat="46.50346" lon="6.48717">
        <ele>381.1</ele>
        <time>2017-03-15T15:54:52.473Z</time>
      </trkpt>
      <trkpt lat="46.50358" lon="6.48735">
        <ele>380.9</ele>
        <time>2017-03-15T15:55:12.133Z</time>
      </trkpt>
      <trkpt lat="46.50362" lon="6.48743">
        <ele>380.7</ele>
        <time>2017-03-15T15:55:31.794Z</time>
      </trkpt>
      <trkpt lat="46.50362" lon="6.48739">
        <ele>380.9</ele>
        <time>2017-03-15T15:55:51.455Z</time>
      </trkpt>
      <trkpt lat="46.50363" lon="6.48737">
        <ele>381</ele>
        <time>2017-03-15T15:56:11.117Z</time>
      </trkpt>
      <trkpt lat="46.50364" lon="6.48734">
        <ele>381.1</ele>
        <time>2017-03-15T15:56:30.779Z</time>
      </trkpt>
      <trkpt lat="46.5037" lon="6.48729">
        <ele>381.4</ele>
        <time>2017-03-15T15:56:50.442Z</time>
      </trkpt>
      <trkpt lat="46.50375" lon="6.4873">
        <ele>381.5</ele>
        <time>2017-03-15T15:57:10.105Z</time>
      </trkpt>
      <trkpt lat="46.5038" lon="6.48737">
        <ele>381.4</ele>
        <time>2017-03-15T15:57:29.769Z</time>
      </trkpt>
      <trkpt lat="46.5038" lon="6.48742">
        <ele>381.2</ele>
        <time>2017-03-15T15:57:49.434Z</time>
      </trkpt>
      <trkpt lat="46.50401" lon="6.4877">
        <ele>380.7</ele>
        <time>2017-03-15T15:58:09.103Z</time>
      </trkpt>
      <trkpt lat="46.50448" lon="6.48812">
        <ele>380.3</ele>
        <time>2017-03-15T15:58:28.779Z</time>
      </trkpt>
      <trkpt lat="46.50539" lon="6.48897">
        <ele>380.5</ele>
        <time>2017-03-15T15:58:48.469Z</time>
      </trkpt>
      <trkpt lat="46.50578" lon="6.48937">
        <ele>379.7</ele>
        <time>2017-03-15T15:59:08.166Z</time>
      </trkpt>
      <trkpt lat="46.50591" lon="6.48953">
        <ele>379</ele>
        <time>2017-03-15T15:59:27.865Z</time>
      </trkpt>
      <trkpt lat="46.50599" lon="6.48958">
        <ele>379</ele>
        <time>2017-03-15T15:59:47.565Z</time>
      </trkpt>
      <trkpt lat="46.5061" lon="6.48971">
        <ele>378.4</ele>
        <time>2017-03-15T16:00:07.267Z</time>
      </trkpt>
      <trkpt lat="46.50615" lon="6.48979">
        <ele>378</ele>
        <time>2017-03-15T16:00:26.970Z</time>
      </trkpt>
      <trkpt lat="46.5062" lon="6.48979">
        <ele>378.2</ele>
        <time>2017-03-15T16:00:46.674Z</time>
      </trkpt>
      <trkpt lat="46.50624" lon="6.48982">
        <ele>378.1</ele>
        <time>2017-03-15T16:01:06.378Z</time>
      </trkpt>
      <trkpt lat="46.50628" lon="6.48989">
        <ele>378.1</ele>
        <time>2017-03-15T16:01:26.083Z</time>
      </trkpt>
      <trkpt lat="46.5063" lon="6.49001">
        <ele>377.8</ele>
        <time>2017-03-15T16:01:45.789Z</time>
      </trkpt>
      <trkpt lat="46.50629" lon="6.49006">
        <ele>377.7</ele>
        <time>2017-03-15T16:02:05.496Z</time>
      </trkpt>
      <trkpt lat="46.50628" lon="6.49008">
        <ele>377.6</ele>
        <time>2017-03-15T16:02:25.203Z</time>
      </trkpt>
      <trkpt lat="46.50631" lon="6.49019">
        <ele>377.5</ele>
        <time>2017-03-15T16:02:44.911Z</time>
      </trkpt>
      <trkpt lat="46.50642" lon="6.49047">
        <ele>377.2</ele>
        <time>2017-03-15T16:03:04.622Z</time>
      </trkpt>
      <trkpt lat="46.50671" lon="6.49112">
        <ele>377.2</ele>
        <time>2017-03-15T16:03:24.340Z</time>
      </trkpt>
      <trkpt lat="46.50684" lon="6.49148">
        <ele>377.2</ele>
        <time>2017-03-15T16:03:44.062Z</time>
      </trkpt>
      <trkpt lat="46.50712" lon="6.49245">
        <ele>378.8</ele>
        <time>2017-03-15T16:04:03.794Z</time>
      </trkpt>
      <trkpt lat="46.50731" lon="6.49324">
        <ele>378.8</ele>
        <time>2017-03-15T16:04:23.533Z</time>
      </trkpt>
      <trkpt lat="46.50739" lon="6.49363">
        <ele>378.6</ele>
        <time>2017-03-15T16:04:43.276Z</time>
      </trkpt>
      <trkpt lat="46.5074" lon="6.49374">
        <ele>378.5</ele>
        <time>2017-03-15T16:05:03.020Z</time>
      </trkpt>
      <trkpt lat="46.50758" lon="6.49499">
        <ele>377.5</ele>
        <time>2017-03-15T16:05:22.776Z</time>
      </trkpt>
      <trkpt lat="46.50771" lon="6.49602">
        <ele>376.9</ele>
        <time>2017-03-15T16:05:42.542Z</time>
      </trkpt>
      <trkpt lat="46.50775" lon="6.49641">
        <ele>376.6</ele>
        <time>2017-03-15T16:06:02.311Z</time>
      </trkpt>
      <trkpt lat="46.50763" lon="6.49653">
        <ele>376.2</ele>
        <time>2017-03-15T16:06:22.082Z</time>
      </trkpt>
      <trkpt lat="46.5074" lon="6.49679">
        <ele>376.3</ele>
        <time>2017-03-15T16:06:41.857Z</time>
      </trkpt>
      <trkpt lat="46.50735" lon="6.49685">
        <ele>376.3</ele>
        <time>2017-03-15T16:07:01.633Z</time>
      </trkpt>
      <trkpt lat="46.50731" lon="6.49698">
        <ele>376.7</ele>
        <time>2017-03-15T16:07:21.410Z</time>
      </trkpt>
      <trkpt lat="46.50731" lon="6.49708">
        <ele>377.1</ele>
        <time>2017-03-15T16:07:41.188Z</time>
      </trkpt>
      <trkpt lat="46.50739" lon="6.49725">
        <ele>377.9</ele>
        <time>2017-03-15T16:08:00.968Z</time>
      </trkpt>
      <trkpt lat="46.50754" lon="6.49743">
        <ele>378.6</ele>
        <time>2017-03-15T16:08:20.751Z</time>
      </trkpt>
      <trkpt lat="46.50877" lon="6.499">
        <ele>379.4</ele>
        <time>2017-03-15T16:08:40.555Z</time>
      </trkpt>
      <trkpt lat="46.50908" lon="6.49932">
        <ele>379.8</ele>
        <time>2017-03-15T16:09:00.365Z</time>
      </trkpt>
      <trkpt lat="46.50933" lon="6.49955">
        <ele>380.1</ele>
        <time>2017-03-15T16:09:20.179Z</time>
      </trkpt>
      <trkpt lat="46.50955" lon="6.49972">
        <ele>380.5</ele>
        <time>2017-03-15T16:09:39.996Z</time>
      </trkpt>
      <trkpt lat="46.50971" lon="6.49982">
        <ele>380.7</ele>
        <time>2017-03-15T16:09:59.815Z</time>
      </trkpt>
      <trkpt lat="46.50997" lon="6.4999">
        <ele>380.4</ele>
        <time>2017-03-15T16:10:19.638Z</time>
      </trkpt>
      <trkpt lat="46.51038" lon="6.49998">
        <ele>379.2</ele>
        <time>2017-03-15T16:10:39.466Z</time>
      </trkpt>
      <trkpt lat="46.51046" lon="6.5">
        <ele>378.9</ele>
        <time>2017-03-15T16:10:59.295Z</time>
      </trkpt>
      <trkpt lat="46.51065" lon="6.49998">
        <ele>378.5</ele>
        <time>2017-03-15T16:11:19.127Z</time>
      </trkpt>
      <trkpt lat="46.51103" lon="6.49998">
        <ele>378.4</ele>
        <time>2017-03-15T16:11:38.964Z</time>
      </trkpt>
      <trkpt lat="46.51138" lon="6.49996">
        <ele>378</ele>
        <time>2017-03-15T16:11:58.806Z</time>
      </trkpt>
      <trkpt lat="46.51157" lon="6.49998">
        <ele>377.8</ele>
        <time>2017-03-15T16:12:18.650Z</time>
      </trkpt>
      <trkpt lat="46.51189" lon="6.50008">
        <ele>377.5</ele>
        <time>2017-03-15T16:12:38.498Z</time>
      </trkpt>
      <trkpt lat="46.51215" lon="6.50026">
        <ele>377.2</ele>
        <time>2017-03-15T16:12:58.350Z</time>
      </trkpt>
      <trkpt lat="46.51253" lon="6.50066">
        <ele>376.8</ele>
        <time>2017-03-15T16:13:18.209Z</time>
      </trkpt>
      <trkpt lat="46.51417" lon="6.50257">
        <ele>375.3</ele>
        <time>2017-03-15T16:13:38.096Z</time>
      </trkpt>
      <trkpt lat="46.5142" lon="6.50262">
        <ele>375.3</ele>
        <time>2017-03-15T16:13:57.983Z</time>
      </trkpt>
      <trkpt lat="46.51465" lon="6.50314">
        <ele>376</ele>
        <time>2017-03-15T16:14:17.878Z</time>
      </trkpt>
      <trkpt lat="46.51511" lon="6.50371">
        <ele>375.7</ele>
        <time>2017-03-15T16:14:37.781Z</time>
      </trkpt>
      <trkpt lat="46.51539" lon="6.5041">
        <ele>375.7</ele>
        <time>2017-03-15T16:14:57.689Z</time>
      </trkpt>
      <trkpt lat="46.51556" lon="6.50444">
        <ele>375.9</ele>
        <time>2017-03-15T16:15:17.601Z</time>
      </trkpt>
      <trkpt lat="46.51599" lon="6.50561">
        <ele>376.5</ele>
        <time>2017-03-15T16:15:37.525Z</time>
      </trkpt>
      <trkpt lat="46.51631" lon="6.50646">
        <ele>376.2</ele>
        <time>2017-03-15T16:15:57.458Z</time>
      </trkpt>
      <trkpt lat="46.5165" lon="6.507">
        <ele>377.2</ele>
        <time>2017-03-15T16:16:17.397Z</time>
      </trkpt>
      <trkpt lat="46.51659" lon="6.50737">
        <ele>377.9</ele>
        <time>2017-03-15T16:16:37.339Z</time>
      </trkpt>
      <trkpt lat="46.51666" lon="6.50778">
        <ele>377.6</ele>
        <time>2017-03-15T16:16:57.285Z</time>
      </trkpt>
      <trkpt lat="46.51674" lon="6.50833">
        <ele>377.4</ele>
        <time>2017-03-15T16:17:17.236Z</time>
      </trkpt>
      <trkpt lat="46.51684" lon="6.50931">
        <ele>375</ele>
        <time>2017-03-15T16:17:37.197Z</time>
      </trkpt>
      <trkpt lat="46.51697" lon="6.51052">
        <ele>374.6</ele>
        <time>2017-03-15T16:17:57.169Z</time>
      </trkpt>
      <trkpt lat="46.51715" lon="6.51203">
        <ele>374.6</ele>
        <time>2017-03-15T16:18:17.155Z</time>
      </trkpt>
      <trkpt lat="46.51732" lon="6.51337">
        <ele>375</ele>
        <time>2017-03-15T16:18:37.154Z</time>
      </trkpt>
      <trkpt lat="46.51765" lon="6.51617">
        <ele>381.2</ele>
        <time>2017-03-15T16:18:57.179Z</time>
      </trkpt>
      <trkpt lat="46.51781" lon="6.51753">
        <ele>383</ele>
        <time>2017-03-15T16:19:17.216Z</time>
      </trkpt>
      <trkpt lat="46.51786" lon="6.51815">
        <ele>383.9</ele>
        <time>2017-03-15T16:19:37.259Z</time>
      </trkpt>
      <trkpt lat="46.5179" lon="6.51874">
        <ele>386.7</ele>
        <time>2017-03-15T16:19:57.308Z</time>
      </trkpt>
      <trkpt lat="46.51789" lon="6.51917">
        <ele>387</ele>
        <time>2017-03-15T16:20:17.361Z</time>
      </trkpt>
      <trkpt lat="46.51784" lon="6.52019">
        <ele>387.9</ele>
        <time>2017-03-15T16:20:37.423Z</time>
      </trkpt>
      <trkpt lat="46.51782" lon="6.52088">
        <ele>390.4</ele>
        <time>2017-03-15T16:20:57.491Z</time>
      </trkpt>
      <trkpt lat="46.51767" lon="6.52386">
        <ele>401.9</ele>
        <time>2017-03-15T16:21:17.587Z</time>
      </trkpt>
      <trkpt lat="46.51763" lon="6.52464">
        <ele>402.9</ele>
        <time>2017-03-15T16:21:37.690Z</time>
      </trkpt>
      <trkpt lat="46.51764" lon="6.52505">
        <ele>403</ele>
        <time>2017-03-15T16:21:57.797Z</time>
      </trkpt>
      <trkpt lat="46.51765" lon="6.52506">
        <ele>403</ele>
        <time>2017-03-15T16:22:17.904Z</time>
      </trkpt>
      <trkpt lat="46.51765" lon="6.52508">
        <ele>403</ele>
        <time>2017-03-15T16:22:38.011Z</time>
      </trkpt>
      <trkpt lat="46.51766" lon="6.52512">
        <ele>403.1</ele>
        <time>2017-03-15T16:22:58.119Z</time>
      </trkpt>
      <trkpt lat="46.51766" lon="6.52516">
        <ele>403.2</ele>
        <time>2017-03-15T16:23:18.227Z</time>
      </trkpt>
      <trkpt lat="46.51763" lon="6.52524">
        <ele>403.2</ele>
        <time>2017-03-15T16:23:38.336Z</time>
      </trkpt>
      <trkpt lat="46.51761" lon="6.52526">
        <ele>403.2</ele>
        <time>2017-03-15T16:23:58.445Z</time>
      </trkpt>
      <trkpt lat="46.51759" lon="6.52527">
        <ele>403.1</ele>
        <time>2017-03-15T16:24:18.554Z</time>
      </trkpt>
      <trkpt lat="46.51758" lon="6.52527">
        <ele>403.1</ele>
        <time>2017-03-15T16:24:38.664Z</time>
      </trkpt>
      <trkpt lat="46.51749" lon="6.52561">
        <ele>403.3</ele>
        <time>2017-03-15T16:24:58.777Z</time>
      </trkpt>
      <trkpt lat="46.51694" lon="6.52851">
        <ele>402.1</ele>
        <time>2017-03-15T16:25:18.918Z</time>
      </trkpt>
      <trkpt lat="46.51674" lon="6.52954">
        <ele>401.8</ele>
        <time>2017-03-15T16:25:39.068Z</time>
      </trkpt>
      <trkpt lat="46.51669" lon="6.52998">
        <ele>402.1</ele>
        <time>2017-03-15T16:25:59.223Z</time>
      </trkpt>
      <trkpt lat="46.51634" lon="6.53178">
        <ele>401.7</ele>
        <time>2017-03-15T16:26:19.395Z</time>
      </trkpt>
      <trkpt lat="46.51617" lon="6.53248">
        <ele>403.5</ele>
        <time>2017-03-15T16:26:39.574Z</time>
      </trkpt>
      <trkpt lat="46.51595" lon="6.53344">
        <ele>403</ele>
        <time>2017-03-15T16:26:59.762Z</time>
      </trkpt>
      <trkpt lat="46.51588" lon="6.53367">
        <ele>402.6</ele>
        <time>2017-03-15T16:27:19.952Z</time>
      </trkpt>
      <trkpt lat="46.5157" lon="6.53449">
        <ele>401.3</ele>
        <time>2017-03-15T16:27:40.150Z</time>
      </trkpt>
      <trkpt lat="46.51558" lon="6.53507">
        <ele>399.9</ele>
        <time>2017-03-15T16:28:00.354Z</time>
      </trkpt>
      <trkpt lat="46.51557" lon="6.5354">
        <ele>399.1</ele>
        <time>2017-03-15T16:28:20.561Z</time>
      </trkpt>
      <trkpt lat="46.51558" lon="6.53541">
        <ele>399.1</ele>
        <time>2017-03-15T16:28:40.768Z</time>
      </trkpt>
      <trkpt lat="46.51558" lon="6.53544">
        <ele>399</ele>
        <time>2017-03-15T16:29:00.975Z</time>
      </trkpt>
      <trkpt lat="46.51559" lon="6.53547">
        <ele>399</ele>
        <time>2017-03-15T16:29:21.182Z</time>
      </trkpt>
      <trkpt lat="46.51558" lon="6.53549">
        <ele>398.9</ele>
        <time>2017-03-15T16:29:41.390Z</time>
      </trkpt>
      <trkpt lat="46.51558" lon="6.53552">
        <ele>398.8</ele>
        <time>2017-03-15T16:30:01.598Z</time>
      </trkpt>
      <trkpt lat="46.51555" lon="6.53556">
        <ele>398.6</ele>
        <time>2017-03-15T16:30:21.807Z</time>
      </trkpt>
      <trkpt lat="46.51553" lon="6.53557">
        <ele>398.5</ele>
        <time>2017-03-15T16:30:42.016Z</time>
      </trkpt>
      <trkpt lat="46.51541" lon="6.53582">
        <ele>397.5</ele>
        <time>2017-03-15T16:31:02.228Z</time>
      </trkpt>
      <trkpt lat="46.51448" lon="6.53919">
        <ele>389.2</ele>
        <time>2017-03-15T16:31:22.473Z</time>
      </trkpt>
      <trkpt lat="46.51447" lon="6.53931">
        <ele>389.4</ele>
        <time>2017-03-15T16:31:42.719Z</time>
      </trkpt>
      <trkpt lat="46.51443" lon="6.53961">
        <ele>389.6</ele>
        <time>2017-03-15T16:32:02.968Z</time>
      </trkpt>
      <trkpt lat="46.51443" lon="6.53964">
        <ele>389.6</ele>
        <time>2017-03-15T16:32:23.217Z</time>
      </trkpt>
      <trkpt lat="46.51442" lon="6.53969">
        <ele>389.5</ele>
        <time>2017-03-15T16:32:43.467Z</time>
      </trkpt>
      <trkpt lat="46.51442" lon="6.53971">
        <ele>389.5</ele>
        <time>2017-03-15T16:33:03.717Z</time>
      </trkpt>
      <trkpt lat="46.51438" lon="6.53976">
        <ele>389.3</ele>
        <time>2017-03-15T16:33:23.968Z</time>
      </trkpt>
      <trkpt lat="46.51437" lon="6.53978">
        <ele>389.2</ele>
        <time>2017-03-15T16:33:44.219Z</time>
      </trkpt>
      <trkpt lat="46.51425" lon="6.53998">
        <ele>388.7</ele>
        <time>2017-03-15T16:34:04.472Z</time>
      </trkpt>
      <trkpt lat="46.5137" lon="6.54187">
        <ele>382.5</ele>
        <time>2017-03-15T16:34:24.744Z</time>
      </trkpt>
      <trkpt lat="46.51354" lon="6.54241">
        <ele>381.5</ele>
        <time>2017-03-15T16:34:45.022Z</time>
      </trkpt>
      <trkpt lat="46.51341" lon="6.54291">
        <ele>383</ele>
        <time>2017-03-15T16:35:05.305Z</time>
      </trkpt>
      <trkpt lat="46.51331" lon="6.54348">
        <ele>385.9</ele>
        <time>2017-03-15T16:35:25.593Z</time>
      </trkpt>
      <trkpt lat="46.51325" lon="6.54387">
        <ele>388.8</ele>
        <time>2017-03-15T16:35:45.885Z</time>
      </trkpt>
      <trkpt lat="46.51324" lon="6.54406">
        <ele>390</ele>
        <time>2017-03-15T16:36:06.178Z</time>
      </trkpt>
      <trkpt lat="46.51325" lon="6.54448">
        <ele>391</ele>
        <time>2017-03-15T16:36:26.475Z</time>
      </trkpt>
      <trkpt lat="46.51328" lon="6.54509">
        <ele>392.4</ele>
        <time>2017-03-15T16:36:46.778Z</time>
      </trkpt>
      <trkpt lat="46.51346" lon="6.54673">
        <ele>394.7</ele>
        <time>2017-03-15T16:37:07.096Z</time>
      </trkpt>
      <trkpt lat="46.51351" lon="6.54713">
        <ele>394.6</ele>
        <time>2017-03-15T16:37:27.418Z</time>
      </trkpt>
      <trkpt lat="46.51355" lon="6.54731">
        <ele>394.5</ele>
        <time>2017-03-15T16:37:47.742Z</time>
      </trkpt>
      <trkpt lat="46.51371" lon="6.54876">
        <ele>396.2</ele>
        <time>2017-03-15T16:38:08.079Z</time>
      </trkpt>
      <trkpt lat="46.51383" lon="6.54996">
        <ele>396.3</ele>
        <time>2017-03-15T16:38:28.427Z</time>
      </trkpt>
      <trkpt lat="46.51385" lon="6.55246">
        <ele>401.5</ele>
        <time>2017-03-15T16:38:48.798Z</time>
      </trkpt>
      <trkpt lat="46.51383" lon="6.55429">
        <ele>401.7</ele>
        <time>2017-03-15T16:39:09.186Z</time>
      </trkpt>
      <trkpt lat="46.51378" lon="6.55571">
        <ele>404.5</ele>
        <time>2017-03-15T16:39:29.587Z</time>
      </trkpt>
      <trkpt lat="46.51379" lon="6.55636">
        <ele>404.6</ele>
        <time>2017-03-15T16:39:49.994Z</time>
      </trkpt>
      <trkpt lat="46.51383" lon="6.55669">
        <ele>404.1</ele>
        <time>2017-03-15T16:40:10.404Z</time>
      </trkpt>
      <trkpt lat="46.514" lon="6.55744">
        <ele>401.7</ele>
        <time>2017-03-15T16:40:30.822Z</time>
      </trkpt>
      <trkpt lat="46.51401" lon="6.5576">
        <ele>401.1</ele>
        <time>2017-03-15T16:40:51.241Z</time>
      </trkpt>
      <trkpt lat="46.51406" lon="6.55776">
        <ele>400.7</ele>
        <time>2017-03-15T16:41:11.662Z</time>
      </trkpt>
      <trkpt lat="46.51437" lon="6.55865">
        <ele>398.2</ele>
        <time>2017-03-15T16:41:32.092Z</time>
      </trkpt>
      <trkpt lat="46.51472" lon="6.55958">
        <ele>396.4</ele>
        <time>2017-03-15T16:41:52.532Z</time>
      </trkpt>
      <trkpt lat="46.51484" lon="6.55988">
        <ele>395.9</ele>
        <time>2017-03-15T16:42:12.975Z</time>
      </trkpt>
      <trkpt lat="46.51495" lon="6.55992">
        <ele>396.5</ele>
        <time>2017-03-15T16:42:33.419Z</time>
      </trkpt>
      <trkpt lat="46.51521" lon="6.5605">
        <ele>396.7</ele>
        <time>2017-03-15T16:42:53.870Z</time>
      </trkpt>
      <trkpt lat="46.5157" lon="6.5615">
        <ele>395.1</ele>
        <time>2017-03-15T16:43:14.332Z</time>
      </trkpt>
      <trkpt lat="46.51639" lon="6.56302">
        <ele>394</ele>
        <time>2017-03-15T16:43:34.811Z</time>
      </trkpt>
      <trkpt lat="46.51665" lon="6.56374">
        <ele>394.4</ele>
        <time>2017-03-15T16:43:55.297Z</time>
      </trkpt>
      <trkpt lat="46.51678" lon="6.56413">
        <ele>395.1</ele>
        <time>2017-03-15T16:44:15.787Z</time>
      </trkpt>
      <trkpt lat="46.51695" lon="6.56475">
        <ele>396</ele>
        <time>2017-03-15T16:44:36.283Z</time>
      </trkpt>
      <trkpt lat="46.51702" lon="6.56514">
        <ele>395.3</ele>
        <time>2017-03-15T16:44:56.783Z</time>
      </trkpt>
      <trkpt lat="46.51709" lon="6.56548">
        <ele>394.7</ele>
        <time>2017-03-15T16:45:17.286Z</time>
      </trkpt>
      <trkpt lat="46.5171" lon="6.56548">
        <ele>394.8</ele>
        <time>2017-03-15T16:45:37.790Z</time>
      </trkpt>
      <trkpt lat="46.51713" lon="6.56549">
        <ele>395</ele>
        <time>2017-03-15T16:45:58.294Z</time>
      </trkpt>
      <trkpt lat="46.51716" lon="6.56555">
        <ele>395</ele>
        <time>2017-03-15T16:46:18.799Z</time>
      </trkpt>
      <trkpt lat="46.51718" lon="6.56564">
        <ele>395</ele>
        <time>2017-03-15T16:46:39.304Z</time>
      </trkpt>
      <trkpt lat="46.51717" lon="6.56566">
        <ele>394.8</ele>
        <time>2017-03-15T16:46:59.810Z</time>
      </trkpt>
      <trkpt lat="46.51721" lon="6.56566">
        <ele>395.1</ele>
        <time>2017-03-15T16:47:20.316Z</time>
      </trkpt>
      <trkpt lat="46.51717" lon="6.56567">
        <ele>394.8</ele>
        <time>2017-03-15T16:47:40.823Z</time>
      </trkpt>
      <trkpt lat="46.51716" lon="6.56569">
        <ele>394.7</ele>
        <time>2017-03-15T16:48:01.330Z</time>
      </trkpt>
      <trkpt lat="46.51714" lon="6.56572">
        <ele>394.4</ele>
        <time>2017-03-15T16:48:21.837Z</time>
      </trkpt>
      <trkpt lat="46.51712" lon="6.56575">
        <ele>394.2</ele>
        <time>2017-03-15T16:48:42.345Z</time>
      </trkpt>
      <trkpt lat="46.5171" lon="6.56575">
        <ele>394</ele>
        <time>2017-03-15T16:49:02.853Z</time>
      </trkpt>
      <trkpt lat="46.51715" lon="6.56639">
        <ele>392.3</ele>
        <time>2017-03-15T16:49:23.367Z</time>
      </trkpt>
      <trkpt lat="46.51725" lon="6.56722">
        <ele>392.7</ele>
        <time>2017-03-15T16:49:43.889Z</time>
      </trkpt>
      <trkpt lat="46.5173" lon="6.56754">
        <ele>393.5</ele>
        <time>2017-03-15T16:50:04.414Z</time>
      </trkpt>
      <trkpt lat="46.51751" lon="6.56969">
        <ele>400.5</ele>
        <time>2017-03-15T16:50:24.959Z</time>
      </trkpt>
      <trkpt lat="46.51752" lon="6.5697">
        <ele>400.5</ele>
        <time>2017-03-15T16:50:45.504Z</time>
      </trkpt>
      <trkpt lat="46.51753" lon="6.56974">
        <ele>400.7</ele>
        <time>2017-03-15T16:51:06.049Z</time>
      </trkpt>
      <trkpt lat="46.51752" lon="6.56982">
        <ele>401.1</ele>
        <time>2017-03-15T16:51:26.595Z</time>
      </trkpt>
      <trkpt lat="46.51754" lon="6.56997">
        <ele>401.2</ele>
        <time>2017-03-15T16:51:47.142Z</time>
      </trkpt>
      <trkpt lat="46.51762" lon="6.57032">
        <ele>401.8</ele>
        <time>2017-03-15T16:52:07.693Z</time>
      </trkpt>
      <trkpt lat="46.51775" lon="6.5708">
        <ele>402.5</ele>
        <time>2017-03-15T16:52:28.249Z</time>
      </trkpt>
      <trkpt lat="46.51787" lon="6.57128">
        <ele>402</ele>
        <time>2017-03-15T16:52:48.809Z</time>
      </trkpt>
      <trkpt lat="46.51811" lon="6.57204">
        <ele>400.5</ele>
        <time>2017-03-15T16:53:09.377Z</time>
      </trkpt>
      <trkpt lat="46.51818" lon="6.57213">
        <ele>400.6</ele>
        <time>2017-03-15T16:53:29.946Z</time>
      </trkpt>
      <trkpt lat="46.51819" lon="6.57214">
        <ele>400.6</ele>
        <time>2017-03-15T16:53:50.515Z</time>
      </trkpt>
      <trkpt lat="46.51821" lon="6.57217">
        <ele>400.7</ele>
        <time>2017-03-15T16:54:11.085Z</time>
      </trkpt>
      <trkpt lat="46.51823" lon="6.57223">
        <ele>400.7</ele>
        <time>2017-03-15T16:54:31.655Z</time>
      </trkpt>
      <trkpt lat="46.51824" lon="6.57231">
        <ele>400.6</ele>
        <time>2017-03-15T16:54:52.226Z</time>
      </trkpt>
      <trkpt lat="46.51823" lon="6.57233">
        <ele>400.5</ele>
        <time>2017-03-15T16:55:12.797Z</time>
      </trkpt>
      <trkpt lat="46.51827" lon="6.5723">
        <ele>400.8</ele>
        <time>2017-03-15T16:55:33.369Z</time>
      </trkpt>
      <trkpt lat="46.51822" lon="6.57236">
        <ele>400.3</ele>
        <time>2017-03-15T16:55:53.942Z</time>
      </trkpt>
      <trkpt lat="46.51821" lon="6.57239">
        <ele>400</ele>
        <time>2017-03-15T16:56:14.515Z</time>
      </trkpt>
      <trkpt lat="46.51821" lon="6.57246">
        <ele>399.2</ele>
        <time>2017-03-15T16:56:35.089Z</time>
      </trkpt>
      <trkpt lat="46.51826" lon="6.57261">
        <ele>398</ele>
        <time>2017-03-15T16:56:55.664Z</time>
      </trkpt>
      <trkpt lat="46.51838" lon="6.57291">
        <ele>396</ele>
        <time>2017-03-15T16:57:16.243Z</time>
      </trkpt>
      <trkpt lat="46.51844" lon="6.57312">
        <ele>394.3</ele>
        <time>2017-03-15T16:57:36.824Z</time>
      </trkpt>
      <trkpt lat="46.51848" lon="6.57335">
        <ele>393.7</ele>
        <time>2017-03-15T16:57:57.407Z</time>
      </trkpt>
      <trkpt lat="46.51859" lon="6.57388">
        <ele>394.2</ele>
        <time>2017-03-15T16:58:17.995Z</time>
      </trkpt>
      <trkpt lat="46.51888" lon="6.57493">
        <ele>394.1</ele>
        <time>2017-03-15T16:58:38.593Z</time>
      </trkpt>
      <trkpt lat="46.51899" lon="6.57538">
        <ele>392</ele>
        <time>2017-03-15T16:58:59.196Z</time>
      </trkpt>
      <trkpt lat="46.51951" lon="6.57734">
        <ele>389.9</ele>
        <time>2017-03-15T16:59:19.818Z</time>
      </trkpt>
      <trkpt lat="46.5196" lon="6.57769">
        <ele>391</ele>
        <time>2017-03-15T16:59:40.443Z</time>
      </trkpt>
      <trkpt lat="46.51966" lon="6.57785">
        <ele>391.6</ele>
        <time>2017-03-15T17:00:01.070Z</time>
      </trkpt>
      <trkpt lat="46.51997" lon="6.57919">
        <ele>384.4</ele>
        <time>2017-03-15T17:00:21.710Z</time>
      </trkpt>
      <trkpt lat="46.52013" lon="6.57993">
        <ele>378.5</ele>
        <time>2017-03-15T17:00:42.357Z</time>
      </trkpt>
      <trkpt lat="46.52054" lon="6.5821">
        <ele>379.4</ele>
        <time>2017-03-15T17:01:03.025Z</time>
      </trkpt>
      <trkpt lat="46.52064" lon="6.58265">
        <ele>379.3</ele>
        <time>2017-03-15T17:01:23.698Z</time>
      </trkpt>
      <trkpt lat="46.52081" lon="6.58348">
        <ele>378.3</ele>
        <time>2017-03-15T17:01:44.379Z</time>
      </trkpt>
      <trkpt lat="46.52082" lon="6.58349">
        <ele>378.3</ele>
        <time>2017-03-15T17:02:05.060Z</time>
      </trkpt>
      <trkpt lat="46.52084" lon="6.58352">
        <ele>378.4</ele>
        <time>2017-03-15T17:02:25.742Z</time>
      </trkpt>
      <trkpt lat="46.52087" lon="6.58351">
        <ele>378.6</ele>
        <time>2017-03-15T17:02:46.424Z</time>
      </trkpt>
      <trkpt lat="46.52085" lon="6.58354">
        <ele>378.4</ele>
        <time>2017-03-15T17:03:07.107Z</time>
      </trkpt>
      <trkpt lat="46.52085" lon="6.58356">
        <ele>378.4</ele>
        <time>2017-03-15T17:03:27.790Z</time>
      </trkpt>
      <trkpt lat="46.52086" lon="6.5836">
        <ele>378.4</ele>
        <time>2017-03-15T17:03:48.473Z</time>
      </trkpt>
      <trkpt lat="46.52085" lon="6.58364">
        <ele>378.2</ele>
        <time>2017-03-15T17:04:09.157Z</time>
      </trkpt>
      <trkpt lat="46.52085" lon="6.58366">
        <ele>378.1</ele>
        <time>2017-03-15T17:04:29.841Z</time>
      </trkpt>
      <trkpt lat="46.5209" lon="6.58394">
        <ele>377.8</ele>
        <time>2017-03-15T17:04:50.527Z</time>
      </trkpt>
      <trkpt lat="46.52125" lon="6.5851">
        <ele>381.1</ele>
        <time>2017-03-15T17:05:11.225Z</time>
      </trkpt>
      <trkpt lat="46.52169" lon="6.58638">
        <ele>380.9</ele>
        <time>2017-03-15T17:05:31.936Z</time>
      </trkpt>
      <trkpt lat="46.52206" lon="6.58746">
        <ele>383</ele>
        <time>2017-03-15T17:05:52.658Z</time>
      </trkpt>
      <trkpt lat="46.52258" lon="6.58884">
        <ele>383.7</ele>
        <time>2017-03-15T17:06:13.395Z</time>
      </trkpt>
      <trkpt lat="46.52262" lon="6.58893">
        <ele>383.7</ele>
        <time>2017-03-15T17:06:34.133Z</time>
      </trkpt>
      <trkpt lat="46.52284" lon="6.58955">
        <ele>384.6</ele>
        <time>2017-03-15T17:06:54.877Z</time>
      </trkpt>
      <trkpt lat="46.5229" lon="6.58972">
        <ele>384.9</ele>
        <time>2017-03-15T17:07:15.623Z</time>
      </trkpt>
      <trkpt lat="46.52285" lon="6.5898">
        <ele>384.4</ele>
        <time>2017-03-15T17:07:36.370Z</time>
      </trkpt>
      <trkpt lat="46.5231" lon="6.59047">
        <ele>387.2</ele>
        <time>2017-03-15T17:07:57.124Z</time>
      </trkpt>
      <trkpt lat="46.52324" lon="6.59082">
        <ele>388</ele>
        <time>2017-03-15T17:08:17.882Z</time>
      </trkpt>
      <trkpt lat="46.52375" lon="6.59223">
        <ele>391.2</ele>
        <time>2017-03-15T17:08:38.654Z</time>
      </trkpt>
      <trkpt lat="46.5234" lon="6.59323">
        <ele>390.5</ele>
        <time>2017-03-15T17:08:59.437Z</time>
      </trkpt>
      <trkpt lat="46.52288" lon="6.59452">
        <ele>391</ele>
        <time>2017-03-15T17:09:20.233Z</time>
      </trkpt>
      <trkpt lat="46.5225" lon="6.59541">
        <ele>390.4</ele>
        <time>2017-03-15T17:09:41.039Z</time>
      </trkpt>
      <trkpt lat="46.52216" lon="6.5962">
        <ele>391.8</ele>
        <time>2017-03-15T17:10:01.854Z</time>
      </trkpt>
      <trkpt lat="46.52197" lon="6.59658">
        <ele>393.1</ele>
        <time>2017-03-15T17:10:22.673Z</time>
      </trkpt>
      <trkpt lat="46.5217" lon="6.59699">
        <ele>393.5</ele>
        <time>2017-03-15T17:10:43.497Z</time>
      </trkpt>
      <trkpt lat="46.52056" lon="6.59841">
        <ele>390</ele>
        <time>2017-03-15T17:11:04.341Z</time>
      </trkpt>
      <trkpt lat="46.51968" lon="6.59955">
        <ele>390.6</ele>
        <time>2017-03-15T17:11:25.201Z</time>
      </trkpt>
      <trkpt lat="46.51901" lon="6.60028">
        <ele>390.1</ele>
        <time>2017-03-15T17:11:46.072Z</time>
      </trkpt>
      <trkpt lat="46.51863" lon="6.60075">
        <ele>389.4</ele>
        <time>2017-03-15T17:12:06.950Z</time>
      </trkpt>
      <trkpt lat="46.5183" lon="6.60126">
        <ele>387.4</ele>
        <time>2017-03-15T17:12:27.834Z</time>
      </trkpt>
      <trkpt lat="46.51804" lon="6.60179">
        <ele>385.2</ele>
        <time>2017-03-15T17:12:48.724Z</time>
      </trkpt>
      <trkpt lat="46.51793" lon="6.60207">
        <ele>384.5</ele>
        <time>2017-03-15T17:13:09.617Z</time>
      </trkpt>
      <trkpt lat="46.51784" lon="6.60244">
        <ele>384.4</ele>
        <time>2017-03-15T17:13:30.514Z</time>
      </trkpt>
      <trkpt lat="46.51779" lon="6.60266">
        <ele>384.8</ele>
        <time>2017-03-15T17:13:51.413Z</time>
      </trkpt>
      <trkpt lat="46.51775" lon="6.60278">
        <ele>385</ele>
        <time>2017-03-15T17:14:12.313Z</time>
      </trkpt>
      <trkpt lat="46.51772" lon="6.60286">
        <ele>385.1</ele>
        <time>2017-03-15T17:14:33.214Z</time>
      </trkpt>
      <trkpt lat="46.51763" lon="6.60291">
        <ele>385</ele>
        <time>2017-03-15T17:14:54.116Z</time>
      </trkpt>
      <trkpt lat="46.51756" lon="6.6029">
        <ele>384.9</ele>
        <time>2017-03-15T17:15:15.019Z</time>
      </trkpt>
      <trkpt lat="46.51752" lon="6.60289">
        <ele>384.7</ele>
        <time>2017-03-15T17:15:35.923Z</time>
      </trkpt>
      <trkpt lat="46.51754" lon="6.60292">
        <ele>384.9</ele>
        <time>2017-03-15T17:15:56.827Z</time>
      </trkpt>
      <trkpt lat="46.51754" lon="6.60294">
        <ele>384.9</ele>
        <time>2017-03-15T17:16:17.731Z</time>
      </trkpt>
      <trkpt lat="46.51741" lon="6.60275">
        <ele>384.1</ele>
        <time>2017-03-15T17:16:38.638Z</time>
      </trkpt>
      <trkpt lat="46.51723" lon="6.60263">
        <ele>383.9</ele>
        <time>2017-03-15T17:16:59.547Z</time>
      </trkpt>
      <trkpt lat="46.51721" lon="6.60263">
        <ele>384</ele>
        <time>2017-03-15T17:17:20.457Z</time>
      </trkpt>
      <trkpt lat="46.51709" lon="6.6026">
        <ele>384.2</ele>
        <time>2017-03-15T17:17:41.368Z</time>
      </trkpt>
      <trkpt lat="46.51694" lon="6.60262">
        <ele>384.6</ele>
        <time>2017-03-15T17:18:02.281Z</time>
      </trkpt>
      <trkpt lat="46.5168" lon="6.60268">
        <ele>385</ele>
        <time>2017-03-15T17:18:23.196Z</time>
      </trkpt>
      <trkpt lat="46.51676" lon="6.60272">
        <ele>385.1</ele>
        <time>2017-03-15T17:18:44.112Z</time>
      </trkpt>
      <trkpt lat="46.51667" lon="6.6028">
        <ele>385.3</ele>
        <time>2017-03-15T17:19:05.029Z</time>
      </trkpt>
      <trkpt lat="46.51656" lon="6.60297">
        <ele>385.7</ele>
        <time>2017-03-15T17:19:25.949Z</time>
      </trkpt>
      <trkpt lat="46.51648" lon="6.60318">
        <ele>385.8</ele>
        <time>2017-03-15T17:19:46.871Z</time>
      </trkpt>
      <trkpt lat="46.51644" lon="6.60341">
        <ele>385.3</ele>
        <time>2017-03-15T17:20:07.795Z</time>
      </trkpt>
      <trkpt lat="46.51638" lon="6.60361">
        <ele>384.6</ele>
        <time>2017-03-15T17:20:28.721Z</time>
      </trkpt>
      <trkpt lat="46.5163" lon="6.60413">
        <ele>384.4</ele>
        <time>2017-03-15T17:20:49.652Z</time>
      </trkpt>
      <trkpt lat="46.51618" lon="6.60522">
        <ele>386.1</ele>
        <time>2017-03-15T17:21:10.593Z</time>
      </trkpt>
      <trkpt lat="46.5161" lon="6.60587">
        <ele>384.6</ele>
        <time>2017-03-15T17:21:31.540Z</time>
      </trkpt>
      <trkpt lat="46.51603" lon="6.60626">
        <ele>383.6</ele>
        <time>2017-03-15T17:21:52.491Z</time>
      </trkpt>
      <trkpt lat="46.51574" lon="6.60734">
        <ele>381.6</ele>
        <time>2017-03-15T17:22:13.452Z</time>
      </trkpt>
      <trkpt lat="46.51557" lon="6.60795">
        <ele>380.4</ele>
        <time>2017-03-15T17:22:34.420Z</time>
      </trkpt>
      <trkpt lat="46.51502" lon="6.60987">
        <ele>382</ele>
        <time>2017-03-15T17:22:55.407Z</time>
      </trkpt>
      <trkpt lat="46.51485" lon="6.61045">
        <ele>381.4</ele>
        <time>2017-03-15T17:23:16.399Z</time>
      </trkpt>
      <trkpt lat="46.51473" lon="6.61072">
        <ele>381.6</ele>
        <time>2017-03-15T17:23:37.394Z</time>
      </trkpt>
      <trkpt lat="46.51459" lon="6.61094">
        <ele>382.1</ele>
        <time>2017-03-15T17:23:58.392Z</time>
      </trkpt>
      <trkpt lat="46.51454" lon="6.61094">
        <ele>381.8</ele>
        <time>2017-03-15T17:24:19.391Z</time>
      </trkpt>
      <trkpt lat="46.51448" lon="6.61103">
        <ele>381.9</ele>
        <time>2017-03-15T17:24:40.391Z</time>
      </trkpt>
      <trkpt lat="46.51436" lon="6.61118">
        <ele>381.5</ele>
        <time>2017-03-15T17:25:01.393Z</time>
      </trkpt>
      <trkpt lat="46.51429" lon="6.61124">
        <ele>380.8</ele>
        <time>2017-03-15T17:25:22.396Z</time>
      </trkpt>
      <trkpt lat="46.51427" lon="6.61123">
        <ele>380.5</ele>
        <time>2017-03-15T17:25:43.399Z</time>
      </trkpt>
      <trkpt lat="46.51423" lon="6.61123">
        <ele>380.1</ele>
        <time>2017-03-15T17:26:04.403Z</time>
      </trkpt>
      <trkpt lat="46.51418" lon="6.61126">
        <ele>379.6</ele>
        <time>2017-03-15T17:26:25.408Z</time>
      </trkpt>
      <trkpt lat="46.51414" lon="6.61134">
        <ele>379.3</ele>
        <time>2017-03-15T17:26:46.414Z</time>
      </trkpt>
      <trkpt lat="46.51415" lon="6.61146">
        <ele>379.5</ele>
        <time>2017-03-15T17:27:07.421Z</time>
      </trkpt>
      <trkpt lat="46.51404" lon="6.61166">
        <ele>379.1</ele>
        <time>2017-03-15T17:27:28.430Z</time>
      </trkpt>
      <trkpt lat="46.514" lon="6.61181">
        <ele>379</ele>
        <time>2017-03-15T17:27:49.441Z</time>
      </trkpt>
      <trkpt lat="46.51379" lon="6.6121">
        <ele>379.6</ele>
        <time>2017-03-15T17:28:10.455Z</time>
      </trkpt>
      <trkpt lat="46.51378" lon="6.6121">
        <ele>379.6</ele>
        <time>2017-03-15T17:28:31.470Z</time>
      </trkpt>
      <trkpt lat="46.51335" lon="6.61272">
        <ele>382.2</ele>
        <time>2017-03-15T17:28:52.493Z</time>
      </trkpt>
      <trkpt lat="46.51327" lon="6.61288">
        <ele>382.6</ele>
        <time>2017-03-15T17:29:13.518Z</time>
      </trkpt>
      <trkpt lat="46.51311" lon="6.61333">
        <ele>383.9</ele>
        <time>2017-03-15T17:29:34.547Z</time>
      </trkpt>
      <trkpt lat="46.51253" lon="6.61534">
        <ele>386.4</ele>
        <time>2017-03-15T17:29:55.596Z</time>
      </trkpt>
      <trkpt lat="46.51233" lon="6.61587">
        <ele>384.7</ele>
        <time>2017-03-15T17:30:16.651Z</time>
      </trkpt>
      <trkpt lat="46.512" lon="6.6166">
        <ele>381.4</ele>
        <time>2017-03-15T17:30:37.714Z</time>
      </trkpt>
      <trkpt lat="46.51182" lon="6.61685">
        <ele>380.4</ele>
        <time>2017-03-15T17:30:58.780Z</time>
      </trkpt>
      <trkpt lat="46.51172" lon="6.61698">
        <ele>379.6</ele>
        <time>2017-03-15T17:31:19.848Z</time>
      </trkpt>
      <trkpt lat="46.51168" lon="6.61701">
        <ele>379.3</ele>
        <time>2017-03-15T17:31:40.917Z</time>
      </trkpt>
      <trkpt lat="46.51165" lon="6.61707">
        <ele>379.1</ele>
        <time>2017-03-15T17:32:01.986Z</time>
      </trkpt>
      <trkpt lat="46.51165" lon="6.61711">
        <ele>379.1</ele>
        <time>2017-03-15T17:32:23.056Z</time>
      </trkpt>
      <trkpt lat="46.51155" lon="6.61729">
        <ele>378.4</ele>
        <time>2017-03-15T17:32:44.128Z</time>
      </trkpt>
      <trkpt lat="46.51138" lon="6.61761">
        <ele>379.4</ele>
        <time>2017-03-15T17:33:05.203Z</time>
      </trkpt>
      <trkpt lat="46.51115" lon="6.61799">
        <ele>381.1</ele>
        <time>2017-03-15T17:33:26.283Z</time>
      </trkpt>
      <trkpt lat="46.51082" lon="6.61849">
        <ele>381.9</ele>
        <time>2017-03-15T17:33:47.369Z</time>
      </trkpt>
      <trkpt lat="46.50985" lon="6.61999">
        <ele>380.7</ele>
        <time>2017-03-15T17:34:08.474Z</time>
      </trkpt>
      <trkpt lat="46.50979" lon="6.62008">
        <ele>380.8</ele>
        <time>2017-03-15T17:34:29.581Z</time>
      </trkpt>
      <trkpt lat="46.5095" lon="6.61971">
        <ele>377.4</ele>
        <time>2017-03-15T17:34:50.693Z</time>
      </trkpt>
      <trkpt lat="46.50932" lon="6.61949">
        <ele>375.9</ele>
        <time>2017-03-15T17:35:11.808Z</time>
      </trkpt>
      <trkpt lat="46.50919" lon="6.61973">
        <ele>375.2</ele>
        <time>2017-03-15T17:35:32.926Z</time>
      </trkpt>
      <trkpt lat="46.50804" lon="6.62162">
        <ele>374.1</ele>
        <time>2017-03-15T17:35:54.067Z</time>
      </trkpt>
      <trkpt lat="46.50797" lon="6.62174">
        <ele>374.3</ele>
        <time>2017-03-15T17:36:15.209Z</time>
      </trkpt>
      <trkpt lat="46.50813" lon="6.62197">
        <ele>374.5</ele>
        <time>2017-03-15T17:36:36.354Z</time>
      </trkpt>
      <trkpt lat="46.50818" lon="6.62215">
        <ele>374.9</ele>
        <time>2017-03-15T17:36:57.501Z</time>
      </trkpt>
      <trkpt lat="46.50828" lon="6.62267">
        <ele>378.9</ele>
        <time>2017-03-15T17:37:18.653Z</time>
      </trkpt>
      <trkpt lat="46.50804" lon="6.62302">
        <ele>378</ele>
        <time>2017-03-15T17:37:39.810Z</time>
      </trkpt>
      <trkpt lat="46.50781" lon="6.62339">
        <ele>376.9</ele>
        <time>2017-03-15T17:38:00.971Z</time>
      </trkpt>
      <trkpt lat="46.50716" lon="6.62444">
        <ele>374.6</ele>
        <time>2017-03-15T17:38:22.145Z</time>
      </trkpt>
      <trkpt lat="46.50692" lon="6.62482">
        <ele>374.5</ele>
        <time>2017-03-15T17:38:43.324Z</time>
      </trkpt>
      <trkpt lat="46.50689" lon="6.62488">
        <ele>374.5</ele>
        <time>2017-03-15T17:39:04.504Z</time>
        <extensions>
          <visugpx:TrkExtension xmlns:visugpx="https://www.visugpx.com/editgpx/">
            <visugpx:node>1</visugpx:node>
            </visugpx:TrkExtension>
        </extensions>
      </trkpt>
      <trkpt lat="46.50677" lon="6.62629">
        <ele>380</ele>
        <time>2017-03-15T08:35:06.000Z</time>
      </trkpt>
      <trkpt lat="46.50677" lon="6.62629">
        <ele>380</ele>
        <time>2017-03-15T08:35:06.000Z</time>
      </trkpt>
      <trkpt lat="46.50681" lon="6.62634">
        <ele>380.4</ele>
        <time>2017-03-15T08:35:06.001Z</time>
      </trkpt>
      <trkpt lat="46.50694" lon="6.62642">
        <ele>381.3</ele>
        <time>2017-03-15T08:35:06.004Z</time>
      </trkpt>
      <trkpt lat="46.5069" lon="6.62654">
        <ele>382</ele>
        <time>2017-03-15T08:35:06.008Z</time>
      </trkpt>
      <trkpt lat="46.5069" lon="6.62661">
        <ele>382.1</ele>
        <time>2017-03-15T08:35:06.012Z</time>
      </trkpt>
      <trkpt lat="46.5069" lon="6.62661">
        <ele>382.1</ele>
        <time>2017-03-15T08:35:06.016Z</time>
      </trkpt>
      <trkpt lat="46.5069" lon="6.62661">
        <ele>382.1</ele>
        <time>2017-03-15T08:35:06.020Z</time>
      </trkpt>
      <trkpt lat="46.5069" lon="6.62661">
        <ele>382.1</ele>
        <time>2017-03-15T08:35:06.024Z</time>
      </trkpt>
      <trkpt lat="46.5069" lon="6.62662">
        <ele>382.1</ele>
        <time>2017-03-15T08:35:06.029Z</time>
      </trkpt>
      <trkpt lat="46.50692" lon="6.62689">
        <ele>382.4</ele>
        <time>2017-03-15T08:35:06.036Z</time>
      </trkpt>
      <trkpt lat="46.50707" lon="6.62729">
        <ele>382.6</ele>
        <time>2017-03-15T08:35:06.047Z</time>
      </trkpt>
      <trkpt lat="46.50709" lon="6.6274">
        <ele>382.4</ele>
        <time>2017-03-15T08:35:06.059Z</time>
      </trkpt>
      <trkpt lat="46.50709" lon="6.6274">
        <ele>382.4</ele>
        <time>2017-03-15T08:35:06.071Z</time>
      </trkpt>
      <trkpt lat="46.50709" lon="6.62741">
        <ele>382.3</ele>
        <time>2017-03-15T08:35:06.083Z</time>
      </trkpt>
      <trkpt lat="46.50709" lon="6.62741">
        <ele>382.3</ele>
        <time>2017-03-15T08:35:06.095Z</time>
      </trkpt>
      <trkpt lat="46.50709" lon="6.62742">
        <ele>382.3</ele>
        <time>2017-03-15T08:35:06.107Z</time>
      </trkpt>
      <trkpt lat="46.5071" lon="6.62744">
        <ele>382.3</ele>
        <time>2017-03-15T08:35:06.120Z</time>
      </trkpt>
      <trkpt lat="46.50712" lon="6.62745">
        <ele>382.4</ele>
        <time>2017-03-15T08:35:06.133Z</time>
      </trkpt>
      <trkpt lat="46.50708" lon="6.62763">
        <ele>381.5</ele>
        <time>2017-03-15T08:35:06.148Z</time>
      </trkpt>
      <trkpt lat="46.50706" lon="6.62784">
        <ele>380.6</ele>
        <time>2017-03-15T08:35:06.165Z</time>
      </trkpt>
      <trkpt lat="46.50705" lon="6.62792">
        <ele>380.3</ele>
        <time>2017-03-15T08:35:06.182Z</time>
      </trkpt>
      <trkpt lat="46.50701" lon="6.62809">
        <ele>379.4</ele>
        <time>2017-03-15T08:35:06.201Z</time>
      </trkpt>
      <trkpt lat="46.50695" lon="6.62859">
        <ele>379.7</ele>
        <time>2017-03-15T08:35:06.225Z</time>
      </trkpt>
      <trkpt lat="46.50695" lon="6.62859">
        <ele>379.7</ele>
        <time>2017-03-15T08:35:06.249Z</time>
      </trkpt>
      <trkpt lat="46.50695" lon="6.6286">
        <ele>379.7</ele>
        <time>2017-03-15T08:35:06.273Z</time>
      </trkpt>
      <trkpt lat="46.50695" lon="6.6286">
        <ele>379.7</ele>
        <time>2017-03-15T08:35:06.297Z</time>
      </trkpt>
      <trkpt lat="46.50695" lon="6.62863">
        <ele>379.8</ele>
        <time>2017-03-15T08:35:06.321Z</time>
      </trkpt>
      <trkpt lat="46.5069" lon="6.62996">
        <ele>380.3</ele>
        <time>2017-03-15T08:35:06.357Z</time>
      </trkpt>
      <trkpt lat="46.50694" lon="6.63026">
        <ele>380.1</ele>
        <time>2017-03-15T08:35:06.396Z</time>
      </trkpt>
      <trkpt lat="46.50714" lon="6.63107">
        <ele>378.7</ele>
        <time>2017-03-15T08:35:06.443Z</time>
      </trkpt>
      <trkpt lat="46.50715" lon="6.63108">
        <ele>378.9</ele>
        <time>2017-03-15T08:35:06.490Z</time>
      </trkpt>
      <trkpt lat="46.50715" lon="6.6311">
        <ele>378.8</ele>
        <time>2017-03-15T08:35:06.537Z</time>
      </trkpt>
      <trkpt lat="46.50715" lon="6.63111">
        <ele>378.8</ele>
        <time>2017-03-15T08:35:06.585Z</time>
      </trkpt>
      <trkpt lat="46.50716" lon="6.63113">
        <ele>379</ele>
        <time>2017-03-15T08:35:06.633Z</time>
      </trkpt>
      <trkpt lat="46.50725" lon="6.6315">
        <ele>379.9</ele>
        <time>2017-03-15T08:35:06.684Z</time>
      </trkpt>
      <trkpt lat="46.50733" lon="6.63214">
        <ele>379.5</ele>
        <time>2017-03-15T08:35:06.741Z</time>
      </trkpt>
      <trkpt lat="46.50733" lon="6.63274">
        <ele>379.4</ele>
        <time>2017-03-15T08:35:06.804Z</time>
      </trkpt>
      <trkpt lat="46.50729" lon="6.6331">
        <ele>379.4</ele>
        <time>2017-03-15T08:35:06.870Z</time>
      </trkpt>
      <trkpt lat="46.50712" lon="6.6338">
        <ele>380.4</ele>
        <time>2017-03-15T08:35:06.943Z</time>
      </trkpt>
      <trkpt lat="46.50711" lon="6.63382">
        <ele>380.2</ele>
        <time>2017-03-15T08:35:07.016Z</time>
      </trkpt>
      <trkpt lat="46.50711" lon="6.63384">
        <ele>380.2</ele>
        <time>2017-03-15T08:35:07.089Z</time>
      </trkpt>
      <trkpt lat="46.5071" lon="6.63386">
        <ele>380.1</ele>
        <time>2017-03-15T08:35:07.163Z</time>
      </trkpt>
      <trkpt lat="46.5071" lon="6.63388">
        <ele>380.1</ele>
        <time>2017-03-15T08:35:07.237Z</time>
      </trkpt>
      <trkpt lat="46.50602" lon="6.63808">
        <ele>380.8</ele>
        <time>2017-03-15T08:35:07.352Z</time>
      </trkpt>
      <trkpt lat="46.50601" lon="6.63811">
        <ele>381</ele>
        <time>2017-03-15T08:35:07.467Z</time>
      </trkpt>
      <trkpt lat="46.506" lon="6.63814">
        <ele>381.2</ele>
        <time>2017-03-15T08:35:07.583Z</time>
      </trkpt>
      <trkpt lat="46.506" lon="6.63817">
        <ele>381.6</ele>
        <time>2017-03-15T08:35:07.699Z</time>
      </trkpt>
      <trkpt lat="46.50599" lon="6.6382">
        <ele>381.7</ele>
        <time>2017-03-15T08:35:07.815Z</time>
      </trkpt>
      <trkpt lat="46.50538" lon="6.64045">
        <ele>377.2</ele>
        <time>2017-03-15T08:35:07.954Z</time>
      </trkpt>
      <trkpt lat="46.50524" lon="6.64103">
        <ele>374.5</ele>
        <time>2017-03-15T08:35:08.098Z</time>
      </trkpt>
      <trkpt lat="46.50525" lon="6.64125">
        <ele>375</ele>
        <time>2017-03-15T08:35:08.244Z</time>
      </trkpt>
      <trkpt lat="46.50525" lon="6.64129">
        <ele>375.1</ele>
        <time>2017-03-15T08:35:08.391Z</time>
      </trkpt>
      <trkpt lat="46.50526" lon="6.64133">
        <ele>375.4</ele>
        <time>2017-03-15T08:35:08.538Z</time>
      </trkpt>
      <trkpt lat="46.50526" lon="6.64137">
        <ele>375.5</ele>
        <time>2017-03-15T08:35:08.685Z</time>
      </trkpt>
      <trkpt lat="46.50526" lon="6.64141">
        <ele>375.7</ele>
        <time>2017-03-15T08:35:08.833Z</time>
      </trkpt>
      <trkpt lat="46.50528" lon="6.64157">
        <ele>376.2</ele>
        <time>2017-03-15T08:35:08.982Z</time>
      </trkpt>
      <trkpt lat="46.50533" lon="6.64165">
        <ele>376.6</ele>
        <time>2017-03-15T08:35:09.132Z</time>
      </trkpt>
      <trkpt lat="46.50546" lon="6.64189">
        <ele>377.5</ele>
        <time>2017-03-15T08:35:09.285Z</time>
      </trkpt>
      <trkpt lat="46.50569" lon="6.64212">
        <ele>379.2</ele>
        <time>2017-03-15T08:35:09.442Z</time>
      </trkpt>
      <trkpt lat="46.50622" lon="6.64236">
        <ele>385</ele>
        <time>2017-03-15T08:35:09.606Z</time>
      </trkpt>
      <trkpt lat="46.50644" lon="6.64256">
        <ele>387.1</ele>
        <time>2017-03-15T08:35:09.774Z</time>
      </trkpt>
      <trkpt lat="46.50649" lon="6.64262">
        <ele>387.6</ele>
        <time>2017-03-15T08:35:09.943Z</time>
      </trkpt>
      <trkpt lat="46.5065" lon="6.64264">
        <ele>387.6</ele>
        <time>2017-03-15T08:35:10.112Z</time>
      </trkpt>
      <trkpt lat="46.50651" lon="6.64265">
        <ele>387.7</ele>
        <time>2017-03-15T08:35:10.281Z</time>
      </trkpt>
      <trkpt lat="46.50654" lon="6.64268">
        <ele>387.9</ele>
        <time>2017-03-15T08:35:10.450Z</time>
      </trkpt>
      <trkpt lat="46.50656" lon="6.64271">
        <ele>388</ele>
        <time>2017-03-15T08:35:10.620Z</time>
      </trkpt>
      <trkpt lat="46.50658" lon="6.64273">
        <ele>388.1</ele>
        <time>2017-03-15T08:35:10.790Z</time>
      </trkpt>
      <trkpt lat="46.50651" lon="6.64532">
        <ele>385.7</ele>
        <time>2017-03-15T08:35:10.984Z</time>
      </trkpt>
      <trkpt lat="46.5065" lon="6.64624">
        <ele>385.3</ele>
        <time>2017-03-15T08:35:11.186Z</time>
      </trkpt>
      <trkpt lat="46.50648" lon="6.648">
        <ele>386.8</ele>
        <time>2017-03-15T08:35:11.405Z</time>
      </trkpt>
      <trkpt lat="46.50648" lon="6.64806">
        <ele>386.8</ele>
        <time>2017-03-15T08:35:11.624Z</time>
      </trkpt>
      <trkpt lat="46.50648" lon="6.64811">
        <ele>386.8</ele>
        <time>2017-03-15T08:35:11.844Z</time>
      </trkpt>
      <trkpt lat="46.50648" lon="6.64817">
        <ele>386.8</ele>
        <time>2017-03-15T08:35:12.064Z</time>
      </trkpt>
      <trkpt lat="46.50648" lon="6.64823">
        <ele>386.7</ele>
        <time>2017-03-15T08:35:12.285Z</time>
      </trkpt>
      <trkpt lat="46.50643" lon="6.65073">
        <ele>387.1</ele>
        <time>2017-03-15T08:35:12.529Z</time>
      </trkpt>
      <trkpt lat="46.50641" lon="6.65236">
        <ele>385.9</ele>
        <time>2017-03-15T08:35:12.788Z</time>
      </trkpt>
      <trkpt lat="46.50642" lon="6.65365">
        <ele>385.1</ele>
        <time>2017-03-15T08:35:13.059Z</time>
      </trkpt>
      <trkpt lat="46.50647" lon="6.65483">
        <ele>386.7</ele>
        <time>2017-03-15T08:35:13.341Z</time>
      </trkpt>
      <trkpt lat="46.50654" lon="6.65568">
        <ele>384.4</ele>
        <time>2017-03-15T08:35:13.630Z</time>
      </trkpt>
      <trkpt lat="46.50655" lon="6.65576">
        <ele>384.5</ele>
        <time>2017-03-15T08:35:13.920Z</time>
      </trkpt>
      <trkpt lat="46.50655" lon="6.65579">
        <ele>384.5</ele>
        <time>2017-03-15T08:35:14.210Z</time>
      </trkpt>
      <trkpt lat="46.50655" lon="6.65584">
        <ele>384.5</ele>
        <time>2017-03-15T08:35:14.501Z</time>
      </trkpt>
      <trkpt lat="46.50656" lon="6.65592">
        <ele>384.6</ele>
        <time>2017-03-15T08:35:14.793Z</time>
      </trkpt>
      <trkpt lat="46.50657" lon="6.656">
        <ele>384.7</ele>
        <time>2017-03-15T08:35:15.085Z</time>
      </trkpt>
      <trkpt lat="46.50672" lon="6.65768">
        <ele>385.4</ele>
        <time>2017-03-15T08:35:15.393Z</time>
      </trkpt>
      <trkpt lat="46.50677" lon="6.65838">
        <ele>385.5</ele>
        <time>2017-03-15T08:35:15.708Z</time>
      </trkpt>
      <trkpt lat="46.50681" lon="6.65906">
        <ele>386.1</ele>
        <time>2017-03-15T08:35:16.029Z</time>
      </trkpt>
      <trkpt lat="46.5068" lon="6.65954">
        <ele>387.7</ele>
        <time>2017-03-15T08:35:16.354Z</time>
      </trkpt>
      <trkpt lat="46.50675" lon="6.66006">
        <ele>387.6</ele>
        <time>2017-03-15T08:35:16.684Z</time>
      </trkpt>
      <trkpt lat="46.50671" lon="6.66043">
        <ele>387.2</ele>
        <time>2017-03-15T08:35:17.018Z</time>
      </trkpt>
      <trkpt lat="46.5067" lon="6.66056">
        <ele>387.1</ele>
        <time>2017-03-15T08:35:17.353Z</time>
      </trkpt>
      <trkpt lat="46.50669" lon="6.66065">
        <ele>387</ele>
        <time>2017-03-15T08:35:17.689Z</time>
      </trkpt>
      <trkpt lat="46.50669" lon="6.66075">
        <ele>386.9</ele>
        <time>2017-03-15T08:35:18.025Z</time>
      </trkpt>
      <trkpt lat="46.50668" lon="6.66084">
        <ele>386.3</ele>
        <time>2017-03-15T08:35:18.362Z</time>
      </trkpt>
      <trkpt lat="46.50667" lon="6.66094">
        <ele>386.2</ele>
        <time>2017-03-15T08:35:18.700Z</time>
      </trkpt>
      <trkpt lat="46.50667" lon="6.66137">
        <ele>387.3</ele>
        <time>2017-03-15T08:35:19.042Z</time>
      </trkpt>
      <trkpt lat="46.50672" lon="6.66182">
        <ele>386.6</ele>
        <time>2017-03-15T08:35:19.388Z</time>
      </trkpt>
      <trkpt lat="46.50686" lon="6.66263">
        <ele>384.7</ele>
        <time>2017-03-15T08:35:19.742Z</time>
      </trkpt>
      <trkpt lat="46.50699" lon="6.66327">
        <ele>383.5</ele>
        <time>2017-03-15T08:35:20.102Z</time>
      </trkpt>
      <trkpt lat="46.50716" lon="6.6642">
        <ele>383.5</ele>
        <time>2017-03-15T08:35:20.471Z</time>
      </trkpt>
      <trkpt lat="46.50721" lon="6.66486">
        <ele>384.9</ele>
        <time>2017-03-15T08:35:20.846Z</time>
      </trkpt>
      <trkpt lat="46.50721" lon="6.66526">
        <ele>385.4</ele>
        <time>2017-03-15T08:35:21.225Z</time>
      </trkpt>
      <trkpt lat="46.50717" lon="6.66576">
        <ele>386</ele>
        <time>2017-03-15T08:35:21.609Z</time>
      </trkpt>
      <trkpt lat="46.50711" lon="6.66606">
        <ele>386.3</ele>
        <time>2017-03-15T08:35:21.995Z</time>
      </trkpt>
      <trkpt lat="46.50674" lon="6.66725">
        <ele>386.9</ele>
        <time>2017-03-15T08:35:22.393Z</time>
      </trkpt>
      <trkpt lat="46.50646" lon="6.66813">
        <ele>385.8</ele>
        <time>2017-03-15T08:35:22.800Z</time>
      </trkpt>
      <trkpt lat="46.50639" lon="6.66844">
        <ele>385.6</ele>
        <time>2017-03-15T08:35:23.210Z</time>
      </trkpt>
      <trkpt lat="46.50629" lon="6.66923">
        <ele>384.5</ele>
        <time>2017-03-15T08:35:23.628Z</time>
      </trkpt>
      <trkpt lat="46.50618" lon="6.66977">
        <ele>384.5</ele>
        <time>2017-03-15T08:35:24.051Z</time>
      </trkpt>
      <trkpt lat="46.506" lon="6.67033">
        <ele>384.9</ele>
        <time>2017-03-15T08:35:24.480Z</time>
      </trkpt>
      <trkpt lat="46.50563" lon="6.67113">
        <ele>386.9</ele>
        <time>2017-03-15T08:35:24.917Z</time>
      </trkpt>
      <trkpt lat="46.50545" lon="6.67151">
        <ele>386.9</ele>
        <time>2017-03-15T08:35:25.359Z</time>
      </trkpt>
      <trkpt lat="46.50541" lon="6.67162">
        <ele>386.4</ele>
        <time>2017-03-15T08:35:25.802Z</time>
      </trkpt>
      <trkpt lat="46.50537" lon="6.6717">
        <ele>385.9</ele>
        <time>2017-03-15T08:35:26.246Z</time>
      </trkpt>
      <trkpt lat="46.50536" lon="6.67172">
        <ele>385.8</ele>
        <time>2017-03-15T08:35:26.690Z</time>
      </trkpt>
      <trkpt lat="46.50532" lon="6.67183">
        <ele>385.3</ele>
        <time>2017-03-15T08:35:27.135Z</time>
      </trkpt>
      <trkpt lat="46.50528" lon="6.67195">
        <ele>384.8</ele>
        <time>2017-03-15T08:35:27.581Z</time>
      </trkpt>
      <trkpt lat="46.50516" lon="6.6723">
        <ele>384.8</ele>
        <time>2017-03-15T08:35:28.031Z</time>
      </trkpt>
      <trkpt lat="46.50504" lon="6.6729">
        <ele>383.3</ele>
        <time>2017-03-15T08:35:28.487Z</time>
      </trkpt>
      <trkpt lat="46.50499" lon="6.67327">
        <ele>382.9</ele>
        <time>2017-03-15T08:35:28.946Z</time>
      </trkpt>
      <trkpt lat="46.50483" lon="6.67471">
        <ele>382.6</ele>
        <time>2017-03-15T08:35:29.419Z</time>
      </trkpt>
      <trkpt lat="46.50475" lon="6.67518">
        <ele>383.3</ele>
        <time>2017-03-15T08:35:29.896Z</time>
      </trkpt>
      <trkpt lat="46.50467" lon="6.67548">
        <ele>383.5</ele>
        <time>2017-03-15T08:35:30.376Z</time>
      </trkpt>
      <trkpt lat="46.50453" lon="6.6759">
        <ele>383.7</ele>
        <time>2017-03-15T08:35:30.860Z</time>
      </trkpt>
      <trkpt lat="46.50424" lon="6.67738">
        <ele>381.6</ele>
        <time>2017-03-15T08:35:31.359Z</time>
      </trkpt>
      <trkpt lat="46.50412" lon="6.67814">
        <ele>378.7</ele>
        <time>2017-03-15T08:35:31.865Z</time>
      </trkpt>
      <trkpt lat="46.50407" lon="6.67824">
        <ele>378.1</ele>
        <time>2017-03-15T08:35:32.372Z</time>
      </trkpt>
      <trkpt lat="46.50405" lon="6.67834">
        <ele>377.9</ele>
        <time>2017-03-15T08:35:32.880Z</time>
      </trkpt>
      <trkpt lat="46.50404" lon="6.67838">
        <ele>377.7</ele>
        <time>2017-03-15T08:35:33.388Z</time>
      </trkpt>
      <trkpt lat="46.50402" lon="6.67848">
        <ele>377.3</ele>
        <time>2017-03-15T08:35:33.897Z</time>
      </trkpt>
      <trkpt lat="46.504" lon="6.67862">
        <ele>377</ele>
        <time>2017-03-15T08:35:34.408Z</time>
      </trkpt>
      <trkpt lat="46.50397" lon="6.67876">
        <ele>376.7</ele>
        <time>2017-03-15T08:35:34.920Z</time>
      </trkpt>
      <trkpt lat="46.50396" lon="6.67885">
        <ele>376.7</ele>
        <time>2017-03-15T08:35:35.433Z</time>
      </trkpt>
      <trkpt lat="46.50396" lon="6.67891">
        <ele>376.7</ele>
        <time>2017-03-15T08:35:35.946Z</time>
      </trkpt>
      <trkpt lat="46.50393" lon="6.67927">
        <ele>376.6</ele>
        <time>2017-03-15T08:35:36.463Z</time>
      </trkpt>
      <trkpt lat="46.50392" lon="6.67941">
        <ele>376.5</ele>
        <time>2017-03-15T08:35:36.981Z</time>
      </trkpt>
      <trkpt lat="46.50392" lon="6.67941">
        <ele>376.5</ele>
        <time>2017-03-15T08:35:37.499Z</time>
      </trkpt>
      <trkpt lat="46.50393" lon="6.67956">
        <ele>376.6</ele>
        <time>2017-03-15T08:35:38.018Z</time>
      </trkpt>
      <trkpt lat="46.50393" lon="6.6796">
        <ele>376.6</ele>
        <time>2017-03-15T08:35:38.538Z</time>
      </trkpt>
      <trkpt lat="46.50393" lon="6.67971">
        <ele>376.6</ele>
        <time>2017-03-15T08:35:39.059Z</time>
      </trkpt>
      <trkpt lat="46.50392" lon="6.67986">
        <ele>376.6</ele>
        <time>2017-03-15T08:35:39.581Z</time>
      </trkpt>
      <trkpt lat="46.50393" lon="6.68007">
        <ele>376.9</ele>
        <time>2017-03-15T08:35:40.105Z</time>
      </trkpt>
      <trkpt lat="46.50393" lon="6.68022">
        <ele>377.1</ele>
        <time>2017-03-15T08:35:40.630Z</time>
      </trkpt>
      <trkpt lat="46.50394" lon="6.68037">
        <ele>377.3</ele>
        <time>2017-03-15T08:35:41.157Z</time>
      </trkpt>
      <trkpt lat="46.50394" lon="6.68045">
        <ele>377.4</ele>
        <time>2017-03-15T08:35:41.684Z</time>
      </trkpt>
      <trkpt lat="46.50394" lon="6.68051">
        <ele>377.5</ele>
        <time>2017-03-15T08:35:42.212Z</time>
      </trkpt>
      <trkpt lat="46.50395" lon="6.6806">
        <ele>377.6</ele>
        <time>2017-03-15T08:35:42.741Z</time>
      </trkpt>
      <trkpt lat="46.50395" lon="6.68066">
        <ele>377.7</ele>
        <time>2017-03-15T08:35:43.270Z</time>
      </trkpt>
      <trkpt lat="46.50395" lon="6.68075">
        <ele>377.9</ele>
        <time>2017-03-15T08:35:43.800Z</time>
      </trkpt>
      <trkpt lat="46.50395" lon="6.6808">
        <ele>378</ele>
        <time>2017-03-15T08:35:44.331Z</time>
      </trkpt>
      <trkpt lat="46.50399" lon="6.6808">
        <ele>378.2</ele>
        <time>2017-03-15T08:35:44.862Z</time>
      </trkpt>
      <trkpt lat="46.504" lon="6.68076">
        <ele>378.1</ele>
        <time>2017-03-15T08:35:45.394Z</time>
      </trkpt>
      <trkpt lat="46.50402" lon="6.68071">
        <ele>378.3</ele>
        <time>2017-03-15T08:35:45.926Z</time>
      </trkpt>
      <trkpt lat="46.50403" lon="6.68077">
        <ele>378.5</ele>
        <time>2017-03-15T08:35:46.459Z</time>
      </trkpt>
      <trkpt lat="46.50405" lon="6.68081">
        <ele>378.8</ele>
        <time>2017-03-15T08:35:46.992Z</time>
      </trkpt>
      <trkpt lat="46.50406" lon="6.68084">
        <ele>379</ele>
        <time>2017-03-15T08:35:47.526Z</time>
      </trkpt>
      <trkpt lat="46.50408" lon="6.68088">
        <ele>379.3</ele>
        <time>2017-03-15T08:35:48.060Z</time>
      </trkpt>
      <trkpt lat="46.50409" lon="6.68097">
        <ele>379.6</ele>
        <time>2017-03-15T08:35:48.595Z</time>
      </trkpt>
      <trkpt lat="46.50409" lon="6.68099">
        <ele>379.7</ele>
        <time>2017-03-15T08:35:49.130Z</time>
      </trkpt>
      <trkpt lat="46.50412" lon="6.68113">
        <ele>380.3</ele>
        <time>2017-03-15T08:35:49.666Z</time>
      </trkpt>
      <trkpt lat="46.50414" lon="6.68121">
        <ele>380.7</ele>
        <time>2017-03-15T08:35:50.203Z</time>
      </trkpt>
      <trkpt lat="46.50415" lon="6.68129">
        <ele>381</ele>
        <time>2017-03-15T08:35:50.741Z</time>
      </trkpt>
      <trkpt lat="46.50417" lon="6.68136">
        <ele>381.4</ele>
        <time>2017-03-15T08:35:51.279Z</time>
      </trkpt>
      <trkpt lat="46.50421" lon="6.6815">
        <ele>382.2</ele>
        <time>2017-03-15T08:35:51.819Z</time>
      </trkpt>
      <trkpt lat="46.50425" lon="6.68164">
        <ele>383</ele>
        <time>2017-03-15T08:35:52.360Z</time>
      </trkpt>
      <trkpt lat="46.50429" lon="6.68179">
        <ele>383.7</ele>
        <time>2017-03-15T08:35:52.903Z</time>
      </trkpt>
      <trkpt lat="46.50433" lon="6.68204">
        <ele>384.6</ele>
        <time>2017-03-15T08:35:53.448Z</time>
      </trkpt>
      <trkpt lat="46.50435" lon="6.68219">
        <ele>385</ele>
        <time>2017-03-15T08:35:53.995Z</time>
      </trkpt>
      <trkpt lat="46.50438" lon="6.68235">
        <ele>385.5</ele>
        <time>2017-03-15T08:35:54.543Z</time>
      </trkpt>
      <trkpt lat="46.5044" lon="6.6825">
        <ele>385.8</ele>
        <time>2017-03-15T08:35:55.092Z</time>
      </trkpt>
      <trkpt lat="46.50442" lon="6.68263">
        <ele>386</ele>
        <time>2017-03-15T08:35:55.643Z</time>
      </trkpt>
      <trkpt lat="46.50442" lon="6.68266">
        <ele>386</ele>
        <time>2017-03-15T08:35:56.194Z</time>
      </trkpt>
      <trkpt lat="46.50442" lon="6.68279">
        <ele>386</ele>
        <time>2017-03-15T08:35:56.746Z</time>
      </trkpt>
      <trkpt lat="46.50442" lon="6.68295">
        <ele>386.4</ele>
        <time>2017-03-15T08:35:57.300Z</time>
      </trkpt>
      <trkpt lat="46.50442" lon="6.6831">
        <ele>386.8</ele>
        <time>2017-03-15T08:35:57.855Z</time>
      </trkpt>
      <trkpt lat="46.50442" lon="6.68324">
        <ele>387</ele>
        <time>2017-03-15T08:35:58.411Z</time>
      </trkpt>
      <trkpt lat="46.50442" lon="6.68327">
        <ele>387</ele>
        <time>2017-03-15T08:35:58.968Z</time>
      </trkpt>
      <trkpt lat="46.5044" lon="6.68339">
        <ele>386.8</ele>
        <time>2017-03-15T08:35:59.526Z</time>
      </trkpt>
      <trkpt lat="46.50437" lon="6.68354">
        <ele>386.5</ele>
        <time>2017-03-15T08:36:00.085Z</time>
      </trkpt>
      <trkpt lat="46.50434" lon="6.6837">
        <ele>386.3</ele>
        <time>2017-03-15T08:36:00.646Z</time>
      </trkpt>
      <trkpt lat="46.50431" lon="6.68386">
        <ele>386</ele>
        <time>2017-03-15T08:36:01.208Z</time>
      </trkpt>
      <trkpt lat="46.50402" lon="6.68502">
        <ele>385.6</ele>
        <time>2017-03-15T08:36:01.782Z</time>
      </trkpt>
      <trkpt lat="46.50398" lon="6.68517">
        <ele>385.6</ele>
        <time>2017-03-15T08:36:02.357Z</time>
      </trkpt>
      <trkpt lat="46.50394" lon="6.68532">
        <ele>385.7</ele>
        <time>2017-03-15T08:36:02.934Z</time>
      </trkpt>
      <trkpt lat="46.5039" lon="6.68548">
        <ele>385.9</ele>
        <time>2017-03-15T08:36:03.512Z</time>
      </trkpt>
      <trkpt lat="46.50386" lon="6.68564">
        <ele>386.2</ele>
        <time>2017-03-15T08:36:04.092Z</time>
      </trkpt>
      <trkpt lat="46.50368" lon="6.68619">
        <ele>387</ele>
        <time>2017-03-15T08:36:04.677Z</time>
      </trkpt>
      <trkpt lat="46.50364" lon="6.68634">
        <ele>387.2</ele>
        <time>2017-03-15T08:36:05.264Z</time>
      </trkpt>
      <trkpt lat="46.50359" lon="6.68649">
        <ele>387.4</ele>
        <time>2017-03-15T08:36:05.852Z</time>
      </trkpt>
      <trkpt lat="46.50354" lon="6.68664">
        <ele>387.6</ele>
        <time>2017-03-15T08:36:06.442Z</time>
      </trkpt>
      <trkpt lat="46.50349" lon="6.6868">
        <ele>387.8</ele>
        <time>2017-03-15T08:36:07.033Z</time>
      </trkpt>
      <trkpt lat="46.50316" lon="6.68729">
        <ele>386</ele>
        <time>2017-03-15T08:36:07.631Z</time>
      </trkpt>
      <trkpt lat="46.50308" lon="6.68741">
        <ele>385.6</ele>
        <time>2017-03-15T08:36:08.230Z</time>
      </trkpt>
      <trkpt lat="46.503" lon="6.68754">
        <ele>385.4</ele>
        <time>2017-03-15T08:36:08.831Z</time>
      </trkpt>
      <trkpt lat="46.50292" lon="6.68766">
        <ele>385.2</ele>
        <time>2017-03-15T08:36:09.433Z</time>
      </trkpt>
      <trkpt lat="46.50283" lon="6.68778">
        <ele>385</ele>
        <time>2017-03-15T08:36:10.037Z</time>
      </trkpt>
      <trkpt lat="46.50212" lon="6.68884">
        <ele>381.2</ele>
        <time>2017-03-15T08:36:10.655Z</time>
      </trkpt>
      <trkpt lat="46.50203" lon="6.68896">
        <ele>380.7</ele>
        <time>2017-03-15T08:36:11.274Z</time>
      </trkpt>
      <trkpt lat="46.50195" lon="6.68908">
        <ele>380.5</ele>
        <time>2017-03-15T08:36:11.895Z</time>
      </trkpt>
      <trkpt lat="46.50187" lon="6.68921">
        <ele>380.7</ele>
        <time>2017-03-15T08:36:12.517Z</time>
      </trkpt>
      <trkpt lat="46.50178" lon="6.68933">
        <ele>380.8</ele>
        <time>2017-03-15T08:36:13.141Z</time>
      </trkpt>
      <trkpt lat="46.5016" lon="6.68958">
        <ele>380.5</ele>
        <time>2017-03-15T08:36:13.768Z</time>
      </trkpt>
      <trkpt lat="46.50156" lon="6.68958">
        <ele>380.1</ele>
        <time>2017-03-15T08:36:14.396Z</time>
      </trkpt>
      <trkpt lat="46.50152" lon="6.6896">
        <ele>379.9</ele>
        <time>2017-03-15T08:36:15.024Z</time>
      </trkpt>
      <trkpt lat="46.50149" lon="6.68966">
        <ele>380</ele>
        <time>2017-03-15T08:36:15.653Z</time>
      </trkpt>
      <trkpt lat="46.50149" lon="6.68971">
        <ele>380.3</ele>
        <time>2017-03-15T08:36:16.283Z</time>
      </trkpt>
      <trkpt lat="46.50148" lon="6.68972">
        <ele>380.3</ele>
        <time>2017-03-15T08:36:16.913Z</time>
      </trkpt>
      <trkpt lat="46.5014" lon="6.68985">
        <ele>380.7</ele>
        <time>2017-03-15T08:36:17.544Z</time>
      </trkpt>
      <trkpt lat="46.50132" lon="6.68997">
        <ele>381.2</ele>
        <time>2017-03-15T08:36:18.177Z</time>
      </trkpt>
      <trkpt lat="46.50123" lon="6.6901">
        <ele>381.8</ele>
        <time>2017-03-15T08:36:18.812Z</time>
      </trkpt>
      <trkpt lat="46.50115" lon="6.69022">
        <ele>382.3</ele>
        <time>2017-03-15T08:36:19.448Z</time>
      </trkpt>
      <trkpt lat="46.50099" lon="6.69056">
        <ele>383.1</ele>
        <time>2017-03-15T08:36:20.088Z</time>
      </trkpt>
      <trkpt lat="46.50083" lon="6.69103">
        <ele>383</ele>
        <time>2017-03-15T08:36:20.733Z</time>
      </trkpt>
      <trkpt lat="46.50076" lon="6.69133">
        <ele>382</ele>
        <time>2017-03-15T08:36:21.381Z</time>
      </trkpt>
      <trkpt lat="46.50072" lon="6.6915">
        <ele>381.5</ele>
        <time>2017-03-15T08:36:22.030Z</time>
      </trkpt>
      <trkpt lat="46.50069" lon="6.69167">
        <ele>381.3</ele>
        <time>2017-03-15T08:36:22.681Z</time>
      </trkpt>
      <trkpt lat="46.50065" lon="6.69183">
        <ele>381.2</ele>
        <time>2017-03-15T08:36:23.334Z</time>
      </trkpt>
      <trkpt lat="46.50061" lon="6.692">
        <ele>381.1</ele>
        <time>2017-03-15T08:36:23.988Z</time>
      </trkpt>
      <trkpt lat="46.50056" lon="6.69275">
        <ele>380.2</ele>
        <time>2017-03-15T08:36:24.649Z</time>
      </trkpt>
      <trkpt lat="46.50052" lon="6.69333">
        <ele>378.6</ele>
        <time>2017-03-15T08:36:25.315Z</time>
      </trkpt>
      <trkpt lat="46.50051" lon="6.69351">
        <ele>378.3</ele>
        <time>2017-03-15T08:36:25.983Z</time>
      </trkpt>
      <trkpt lat="46.50049" lon="6.69369">
        <ele>377.9</ele>
        <time>2017-03-15T08:36:26.653Z</time>
      </trkpt>
      <trkpt lat="46.50048" lon="6.69387">
        <ele>377.7</ele>
        <time>2017-03-15T08:36:27.325Z</time>
      </trkpt>
      <trkpt lat="46.50047" lon="6.69405">
        <ele>378.1</ele>
        <time>2017-03-15T08:36:27.998Z</time>
      </trkpt>
      <trkpt lat="46.50035" lon="6.69482">
        <ele>379.4</ele>
        <time>2017-03-15T08:36:28.678Z</time>
      </trkpt>
      <trkpt lat="46.50016" lon="6.69575">
        <ele>381</ele>
        <time>2017-03-15T08:36:29.367Z</time>
      </trkpt>
      <trkpt lat="46.49901" lon="6.69887">
        <ele>381.7</ele>
        <time>2017-03-15T08:36:30.089Z</time>
      </trkpt>
      <trkpt lat="46.4989" lon="6.69932">
        <ele>381.4</ele>
        <time>2017-03-15T08:36:30.815Z</time>
      </trkpt>
      <trkpt lat="46.49886" lon="6.69951">
        <ele>381.2</ele>
        <time>2017-03-15T08:36:31.543Z</time>
      </trkpt>
      <trkpt lat="46.49882" lon="6.6997">
        <ele>380.9</ele>
        <time>2017-03-15T08:36:32.273Z</time>
      </trkpt>
      <trkpt lat="46.49877" lon="6.69989">
        <ele>380.8</ele>
        <time>2017-03-15T08:36:33.005Z</time>
      </trkpt>
      <trkpt lat="46.49873" lon="6.70007">
        <ele>382.3</ele>
        <time>2017-03-15T08:36:33.739Z</time>
      </trkpt>
      <trkpt lat="46.49862" lon="6.70044">
        <ele>384.6</ele>
        <time>2017-03-15T08:36:34.476Z</time>
      </trkpt>
      <trkpt lat="46.49851" lon="6.70072">
        <ele>385</ele>
        <time>2017-03-15T08:36:35.216Z</time>
      </trkpt>
      <trkpt lat="46.49836" lon="6.70103">
        <ele>387.1</ele>
        <time>2017-03-15T08:36:35.960Z</time>
      </trkpt>
      <trkpt lat="46.49823" lon="6.70125">
        <ele>386.2</ele>
        <time>2017-03-15T08:36:36.706Z</time>
      </trkpt>
      <trkpt lat="46.49797" lon="6.70163">
        <ele>386.2</ele>
        <time>2017-03-15T08:36:37.457Z</time>
      </trkpt>
      <trkpt lat="46.49779" lon="6.70193">
        <ele>387.7</ele>
        <time>2017-03-15T08:36:38.212Z</time>
      </trkpt>
      <trkpt lat="46.49765" lon="6.7022">
        <ele>387.6</ele>
        <time>2017-03-15T08:36:38.970Z</time>
      </trkpt>
      <trkpt lat="46.49724" lon="6.70328">
        <ele>388.6</ele>
        <time>2017-03-15T08:36:39.739Z</time>
      </trkpt>
      <trkpt lat="46.49698" lon="6.70391">
        <ele>391.8</ele>
        <time>2017-03-15T08:36:40.515Z</time>
      </trkpt>
      <trkpt lat="46.49682" lon="6.70415">
        <ele>391.9</ele>
        <time>2017-03-15T08:36:41.294Z</time>
      </trkpt>
      <trkpt lat="46.49658" lon="6.7046">
        <ele>392.1</ele>
        <time>2017-03-15T08:36:42.079Z</time>
      </trkpt>
      <trkpt lat="46.4964" lon="6.70492">
        <ele>391.8</ele>
        <time>2017-03-15T08:36:42.867Z</time>
      </trkpt>
      <trkpt lat="46.49631" lon="6.70509">
        <ele>391.7</ele>
        <time>2017-03-15T08:36:43.657Z</time>
      </trkpt>
      <trkpt lat="46.49621" lon="6.70525">
        <ele>391.3</ele>
        <time>2017-03-15T08:36:44.449Z</time>
      </trkpt>
      <trkpt lat="46.49612" lon="6.70542">
        <ele>390.7</ele>
        <time>2017-03-15T08:36:45.243Z</time>
      </trkpt>
      <trkpt lat="46.49612" lon="6.70542">
        <ele>390.7</ele>
        <time>2017-03-15T08:36:46.037Z</time>
      </trkpt>
      <trkpt lat="46.49605" lon="6.70558">
        <ele>389.5</ele>
        <time>2017-03-15T08:36:46.833Z</time>
      </trkpt>
      <trkpt lat="46.49578" lon="6.70616">
        <ele>388.1</ele>
        <time>2017-03-15T08:36:47.635Z</time>
      </trkpt>
      <trkpt lat="46.4956" lon="6.70662">
        <ele>389.2</ele>
        <time>2017-03-15T08:36:48.442Z</time>
      </trkpt>
      <trkpt lat="46.49558" lon="6.70672">
        <ele>389.2</ele>
        <time>2017-03-15T08:36:49.250Z</time>
      </trkpt>
      <trkpt lat="46.49529" lon="6.70745">
        <ele>387.6</ele>
        <time>2017-03-15T08:36:50.066Z</time>
      </trkpt>
      <trkpt lat="46.49513" lon="6.70783">
        <ele>388</ele>
        <time>2017-03-15T08:36:50.886Z</time>
      </trkpt>
      <trkpt lat="46.49492" lon="6.70823">
        <ele>387.7</ele>
        <time>2017-03-15T08:36:51.711Z</time>
      </trkpt>
      <trkpt lat="46.49466" lon="6.7086">
        <ele>388.2</ele>
        <time>2017-03-15T08:36:52.541Z</time>
      </trkpt>
      <trkpt lat="46.49424" lon="6.70921">
        <ele>388.7</ele>
        <time>2017-03-15T08:36:53.379Z</time>
      </trkpt>
      <trkpt lat="46.49413" lon="6.70937">
        <ele>388.6</ele>
        <time>2017-03-15T08:36:54.219Z</time>
      </trkpt>
      <trkpt lat="46.49403" lon="6.70953">
        <ele>388.3</ele>
        <time>2017-03-15T08:36:55.061Z</time>
      </trkpt>
      <trkpt lat="46.49392" lon="6.70968">
        <ele>388</ele>
        <time>2017-03-15T08:36:55.905Z</time>
      </trkpt>
      <trkpt lat="46.49382" lon="6.70983">
        <ele>388.2</ele>
        <time>2017-03-15T08:36:56.751Z</time>
      </trkpt>
      <trkpt lat="46.49185" lon="6.71264">
        <ele>397.9</ele>
        <time>2017-03-15T08:36:57.633Z</time>
      </trkpt>
      <trkpt lat="46.49164" lon="6.71298">
        <ele>395.5</ele>
        <time>2017-03-15T08:36:58.520Z</time>
      </trkpt>
      <trkpt lat="46.49156" lon="6.7131">
        <ele>394</ele>
        <time>2017-03-15T08:36:59.408Z</time>
      </trkpt>
      <trkpt lat="46.49153" lon="6.71315">
        <ele>393.5</ele>
        <time>2017-03-15T08:37:00.297Z</time>
      </trkpt>
      <trkpt lat="46.49144" lon="6.71334">
        <ele>392.8</ele>
        <time>2017-03-15T08:37:01.188Z</time>
      </trkpt>
      <trkpt lat="46.49135" lon="6.71353">
        <ele>392.3</ele>
        <time>2017-03-15T08:37:02.081Z</time>
      </trkpt>
      <trkpt lat="46.49127" lon="6.7137">
        <ele>391.9</ele>
        <time>2017-03-15T08:37:02.976Z</time>
      </trkpt>
      <trkpt lat="46.49098" lon="6.71436">
        <ele>389.5</ele>
        <time>2017-03-15T08:37:03.878Z</time>
      </trkpt>
      <trkpt lat="46.49074" lon="6.71484">
        <ele>385.7</ele>
        <time>2017-03-15T08:37:04.786Z</time>
      </trkpt>
      <trkpt lat="46.49032" lon="6.71554">
        <ele>384.4</ele>
        <time>2017-03-15T08:37:05.702Z</time>
      </trkpt>
      <trkpt lat="46.48961" lon="6.71693">
        <ele>387.2</ele>
        <time>2017-03-15T08:37:06.634Z</time>
      </trkpt>
      <trkpt lat="46.48877" lon="6.7186">
        <ele>392.1</ele>
        <time>2017-03-15T08:37:07.585Z</time>
      </trkpt>
      <trkpt lat="46.48827" lon="6.71943">
        <ele>389.5</ele>
        <time>2017-03-15T08:37:08.546Z</time>
      </trkpt>
      <trkpt lat="46.48806" lon="6.71979">
        <ele>389.2</ele>
        <time>2017-03-15T08:37:09.512Z</time>
      </trkpt>
      <trkpt lat="46.48766" lon="6.72058">
        <ele>388.5</ele>
        <time>2017-03-15T08:37:10.487Z</time>
      </trkpt>
      <trkpt lat="46.4874" lon="6.72122">
        <ele>387.7</ele>
        <time>2017-03-15T08:37:11.468Z</time>
      </trkpt>
      <trkpt lat="46.48735" lon="6.72147">
        <ele>388.8</ele>
        <time>2017-03-15T08:37:12.452Z</time>
      </trkpt>
      <trkpt lat="46.4873" lon="6.72171">
        <ele>388.5</ele>
        <time>2017-03-15T08:37:13.438Z</time>
      </trkpt>
      <trkpt lat="46.48729" lon="6.72176">
        <ele>388.4</ele>
        <time>2017-03-15T08:37:14.425Z</time>
      </trkpt>
      <trkpt lat="46.48728" lon="6.72195">
        <ele>388.2</ele>
        <time>2017-03-15T08:37:15.413Z</time>
      </trkpt>
      <trkpt lat="46.48726" lon="6.7222">
        <ele>387.9</ele>
        <time>2017-03-15T08:37:16.404Z</time>
      </trkpt>
      <trkpt lat="46.48726" lon="6.72226">
        <ele>387.9</ele>
        <time>2017-03-15T08:37:17.395Z</time>
      </trkpt>
      <trkpt lat="46.48727" lon="6.72243">
        <ele>387.8</ele>
        <time>2017-03-15T08:37:18.388Z</time>
      </trkpt>
      <trkpt lat="46.48733" lon="6.72329">
        <ele>386.9</ele>
        <time>2017-03-15T08:37:19.389Z</time>
      </trkpt>
      <trkpt lat="46.48745" lon="6.72444">
        <ele>386.3</ele>
        <time>2017-03-15T08:37:20.401Z</time>
      </trkpt>
      <trkpt lat="46.48754" lon="6.72504">
        <ele>385.8</ele>
        <time>2017-03-15T08:37:21.418Z</time>
      </trkpt>
      <trkpt lat="46.48766" lon="6.72555">
        <ele>386.3</ele>
        <time>2017-03-15T08:37:22.440Z</time>
      </trkpt>
      <trkpt lat="46.48789" lon="6.72636">
        <ele>387.7</ele>
        <time>2017-03-15T08:37:23.470Z</time>
      </trkpt>
      <trkpt lat="46.488" lon="6.72665">
        <ele>388.5</ele>
        <time>2017-03-15T08:37:24.503Z</time>
      </trkpt>
      <trkpt lat="46.48807" lon="6.72684">
        <ele>388.8</ele>
        <time>2017-03-15T08:37:25.538Z</time>
      </trkpt>
      <trkpt lat="46.48809" lon="6.72688">
        <ele>389</ele>
        <time>2017-03-15T08:37:26.574Z</time>
      </trkpt>
      <trkpt lat="46.48819" lon="6.7271">
        <ele>389.4</ele>
        <time>2017-03-15T08:37:27.612Z</time>
      </trkpt>
      <trkpt lat="46.48829" lon="6.72731">
        <ele>389.7</ele>
        <time>2017-03-15T08:37:28.653Z</time>
      </trkpt>
      <trkpt lat="46.48836" lon="6.72746">
        <ele>389.8</ele>
        <time>2017-03-15T08:37:29.695Z</time>
      </trkpt>
      <trkpt lat="46.48839" lon="6.72752">
        <ele>389.9</ele>
        <time>2017-03-15T08:37:30.738Z</time>
      </trkpt>
      <trkpt lat="46.48874" lon="6.7282">
        <ele>390.2</ele>
        <time>2017-03-15T08:37:31.789Z</time>
      </trkpt>
      <trkpt lat="46.48902" lon="6.72884">
        <ele>392.3</ele>
        <time>2017-03-15T08:37:32.847Z</time>
      </trkpt>
      <trkpt lat="46.48922" lon="6.72935">
        <ele>393.8</ele>
        <time>2017-03-15T08:37:33.910Z</time>
      </trkpt>
      <trkpt lat="46.48934" lon="6.7297">
        <ele>394.5</ele>
        <time>2017-03-15T08:37:34.977Z</time>
      </trkpt>
      <trkpt lat="46.48971" lon="6.73068">
        <ele>394.2</ele>
        <time>2017-03-15T08:37:36.054Z</time>
      </trkpt>
      <trkpt lat="46.49014" lon="6.73192">
        <ele>393.8</ele>
        <time>2017-03-15T08:37:37.144Z</time>
      </trkpt>
      <trkpt lat="46.49015" lon="6.73196">
        <ele>393.7</ele>
        <time>2017-03-15T08:37:38.234Z</time>
      </trkpt>
      <trkpt lat="46.49023" lon="6.73221">
        <ele>393.2</ele>
        <time>2017-03-15T08:37:39.327Z</time>
      </trkpt>
      <trkpt lat="46.49031" lon="6.73246">
        <ele>392.9</ele>
        <time>2017-03-15T08:37:40.422Z</time>
      </trkpt>
      <trkpt lat="46.49039" lon="6.73271">
        <ele>392.7</ele>
        <time>2017-03-15T08:37:41.520Z</time>
      </trkpt>
      <trkpt lat="46.49047" lon="6.73295">
        <ele>392.6</ele>
        <time>2017-03-15T08:37:42.620Z</time>
      </trkpt>
      <trkpt lat="46.49064" lon="6.73351">
        <ele>393</ele>
        <time>2017-03-15T08:37:43.726Z</time>
      </trkpt>
      <trkpt lat="46.49088" lon="6.73432">
        <ele>394</ele>
        <time>2017-03-15T08:37:44.840Z</time>
      </trkpt>
      <trkpt lat="46.49099" lon="6.73498">
        <ele>393.2</ele>
        <time>2017-03-15T08:37:45.960Z</time>
      </trkpt>
      <trkpt lat="46.49102" lon="6.7353">
        <ele>393.8</ele>
        <time>2017-03-15T08:37:47.083Z</time>
      </trkpt>
      <trkpt lat="46.49104" lon="6.73557">
        <ele>393.5</ele>
        <time>2017-03-15T08:37:48.209Z</time>
      </trkpt>
      <trkpt lat="46.49104" lon="6.73558">
        <ele>393.5</ele>
        <time>2017-03-15T08:37:49.335Z</time>
      </trkpt>
      <trkpt lat="46.49102" lon="6.73586">
        <ele>392.8</ele>
        <time>2017-03-15T08:37:50.463Z</time>
      </trkpt>
      <trkpt lat="46.491" lon="6.73615">
        <ele>392.2</ele>
        <time>2017-03-15T08:37:51.594Z</time>
      </trkpt>
      <trkpt lat="46.49099" lon="6.73627">
        <ele>391.7</ele>
        <time>2017-03-15T08:37:52.726Z</time>
      </trkpt>
      <trkpt lat="46.49097" lon="6.73641">
        <ele>390.9</ele>
        <time>2017-03-15T08:37:53.859Z</time>
      </trkpt>
      <trkpt lat="46.49084" lon="6.73706">
        <ele>389.6</ele>
        <time>2017-03-15T08:37:54.999Z</time>
      </trkpt>
      <trkpt lat="46.49052" lon="6.73794">
        <ele>389.5</ele>
        <time>2017-03-15T08:37:56.148Z</time>
      </trkpt>
      <trkpt lat="46.49018" lon="6.73876">
        <ele>389.7</ele>
        <time>2017-03-15T08:37:57.306Z</time>
      </trkpt>
      <trkpt lat="46.48998" lon="6.73944">
        <ele>391.1</ele>
        <time>2017-03-15T08:37:58.470Z</time>
      </trkpt>
      <trkpt lat="46.4899" lon="6.73987">
        <ele>392.2</ele>
        <time>2017-03-15T08:37:59.639Z</time>
      </trkpt>
      <trkpt lat="46.48987" lon="6.74017">
        <ele>393</ele>
        <time>2017-03-15T08:38:00.810Z</time>
      </trkpt>
      <trkpt lat="46.48984" lon="6.74028">
        <ele>392.7</ele>
        <time>2017-03-15T08:38:01.982Z</time>
      </trkpt>
      <trkpt lat="46.48981" lon="6.74067">
        <ele>393.5</ele>
        <time>2017-03-15T08:38:03.158Z</time>
      </trkpt>
      <trkpt lat="46.48982" lon="6.74173">
        <ele>392.1</ele>
        <time>2017-03-15T08:38:04.344Z</time>
      </trkpt>
      <trkpt lat="46.48982" lon="6.74229">
        <ele>390.1</ele>
        <time>2017-03-15T08:38:05.535Z</time>
      </trkpt>
      <trkpt lat="46.48982" lon="6.74259">
        <ele>390.4</ele>
        <time>2017-03-15T08:38:06.729Z</time>
      </trkpt>
      <trkpt lat="46.48983" lon="6.7429">
        <ele>391.2</ele>
        <time>2017-03-15T08:38:07.926Z</time>
      </trkpt>
      <trkpt lat="46.48983" lon="6.7432">
        <ele>392</ele>
        <time>2017-03-15T08:38:09.125Z</time>
      </trkpt>
      <trkpt lat="46.48983" lon="6.74348">
        <ele>392.9</ele>
        <time>2017-03-15T08:38:10.327Z</time>
      </trkpt>
      <trkpt lat="46.48983" lon="6.74383">
        <ele>394.2</ele>
        <time>2017-03-15T08:38:11.532Z</time>
      </trkpt>
      <trkpt lat="46.4898" lon="6.74425">
        <ele>396.3</ele>
        <time>2017-03-15T08:38:12.741Z</time>
      </trkpt>
      <trkpt lat="46.48973" lon="6.74464">
        <ele>398.5</ele>
        <time>2017-03-15T08:38:13.954Z</time>
      </trkpt>
      <trkpt lat="46.48964" lon="6.74499">
        <ele>398.8</ele>
        <time>2017-03-15T08:38:15.170Z</time>
      </trkpt>
      <trkpt lat="46.48952" lon="6.74533">
        <ele>398</ele>
        <time>2017-03-15T08:38:16.390Z</time>
      </trkpt>
      <trkpt lat="46.48933" lon="6.74574">
        <ele>396.1</ele>
        <time>2017-03-15T08:38:17.614Z</time>
      </trkpt>
      <trkpt lat="46.48906" lon="6.74625">
        <ele>395.7</ele>
        <time>2017-03-15T08:38:18.844Z</time>
      </trkpt>
      <trkpt lat="46.4889" lon="6.74659">
        <ele>395.3</ele>
        <time>2017-03-15T08:38:20.078Z</time>
      </trkpt>
      <trkpt lat="46.48873" lon="6.74704">
        <ele>395</ele>
        <time>2017-03-15T08:38:21.317Z</time>
      </trkpt>
      <trkpt lat="46.48873" lon="6.74705">
        <ele>395.1</ele>
        <time>2017-03-15T08:38:22.556Z</time>
      </trkpt>
      <trkpt lat="46.48864" lon="6.74732">
        <ele>396.8</ele>
        <time>2017-03-15T08:38:23.798Z</time>
      </trkpt>
      <trkpt lat="46.48854" lon="6.74761">
        <ele>397.6</ele>
        <time>2017-03-15T08:38:25.043Z</time>
      </trkpt>
      <trkpt lat="46.48847" lon="6.74782">
        <ele>398</ele>
        <time>2017-03-15T08:38:26.290Z</time>
      </trkpt>
      <trkpt lat="46.48844" lon="6.74789">
        <ele>397.8</ele>
        <time>2017-03-15T08:38:27.537Z</time>
      </trkpt>
      <trkpt lat="46.48835" lon="6.74815">
        <ele>397.9</ele>
        <time>2017-03-15T08:38:28.787Z</time>
      </trkpt>
      <trkpt lat="46.48821" lon="6.74858">
        <ele>398.7</ele>
        <time>2017-03-15T08:38:30.042Z</time>
      </trkpt>
      <trkpt lat="46.48801" lon="6.74892">
        <ele>398.4</ele>
        <time>2017-03-15T08:38:31.301Z</time>
      </trkpt>
      <trkpt lat="46.48747" lon="6.74958">
        <ele>397.1</ele>
        <time>2017-03-15T08:38:32.569Z</time>
      </trkpt>
      <trkpt lat="46.48733" lon="6.74988">
        <ele>397</ele>
        <time>2017-03-15T08:38:33.840Z</time>
      </trkpt>
      <trkpt lat="46.48685" lon="6.75119">
        <ele>393.9</ele>
        <time>2017-03-15T08:38:35.125Z</time>
      </trkpt>
      <trkpt lat="46.48653" lon="6.75207">
        <ele>391.3</ele>
        <time>2017-03-15T08:38:36.419Z</time>
      </trkpt>
      <trkpt lat="46.48635" lon="6.75249">
        <ele>392.3</ele>
        <time>2017-03-15T08:38:37.718Z</time>
      </trkpt>
      <trkpt lat="46.48614" lon="6.75288">
        <ele>394.7</ele>
        <time>2017-03-15T08:38:39.021Z</time>
      </trkpt>
      <trkpt lat="46.48589" lon="6.75325">
        <ele>393.3</ele>
        <time>2017-03-15T08:38:40.329Z</time>
      </trkpt>
      <trkpt lat="46.48559" lon="6.7536">
        <ele>392.8</ele>
        <time>2017-03-15T08:38:41.642Z</time>
      </trkpt>
      <trkpt lat="46.48513" lon="6.75407">
        <ele>392.8</ele>
        <time>2017-03-15T08:38:42.963Z</time>
      </trkpt>
      <trkpt lat="46.48481" lon="6.75442">
        <ele>392.8</ele>
        <time>2017-03-15T08:38:44.289Z</time>
      </trkpt>
      <trkpt lat="46.48457" lon="6.75475">
        <ele>394.5</ele>
        <time>2017-03-15T08:38:45.620Z</time>
      </trkpt>
      <trkpt lat="46.48439" lon="6.75509">
        <ele>395.4</ele>
        <time>2017-03-15T08:38:46.954Z</time>
      </trkpt>
      <trkpt lat="46.48422" lon="6.75551">
        <ele>396</ele>
        <time>2017-03-15T08:38:48.293Z</time>
      </trkpt>
      <trkpt lat="46.48398" lon="6.75611">
        <ele>396.8</ele>
        <time>2017-03-15T08:38:49.638Z</time>
      </trkpt>
      <trkpt lat="46.48383" lon="6.75639">
        <ele>397.4</ele>
        <time>2017-03-15T08:38:50.987Z</time>
      </trkpt>
      <trkpt lat="46.48378" lon="6.7565">
        <ele>397.6</ele>
        <time>2017-03-15T08:38:52.337Z</time>
      </trkpt>
      <trkpt lat="46.48369" lon="6.75665">
        <ele>398.6</ele>
        <time>2017-03-15T08:38:53.689Z</time>
      </trkpt>
      <trkpt lat="46.48353" lon="6.7569">
        <ele>400.7</ele>
        <time>2017-03-15T08:38:55.044Z</time>
      </trkpt>
      <trkpt lat="46.48351" lon="6.75694">
        <ele>400.7</ele>
        <time>2017-03-15T08:38:56.399Z</time>
      </trkpt>
      <trkpt lat="46.48337" lon="6.75714">
        <ele>399.2</ele>
        <time>2017-03-15T08:38:57.757Z</time>
      </trkpt>
      <trkpt lat="46.48321" lon="6.75735">
        <ele>397.1</ele>
        <time>2017-03-15T08:38:59.118Z</time>
      </trkpt>
      <trkpt lat="46.4829" lon="6.75772">
        <ele>399.7</ele>
        <time>2017-03-15T08:39:00.484Z</time>
      </trkpt>
      <trkpt lat="46.48224" lon="6.75828">
        <ele>394.7</ele>
        <time>2017-03-15T08:39:01.860Z</time>
      </trkpt>
      <trkpt lat="46.48211" lon="6.75838">
        <ele>394.3</ele>
        <time>2017-03-15T08:39:03.238Z</time>
      </trkpt>
      <trkpt lat="46.48188" lon="6.75863">
        <ele>395.8</ele>
        <time>2017-03-15T08:39:04.620Z</time>
      </trkpt>
      <trkpt lat="46.48166" lon="6.75886">
        <ele>393.4</ele>
        <time>2017-03-15T08:39:06.006Z</time>
      </trkpt>
      <trkpt lat="46.48129" lon="6.75936">
        <ele>397.8</ele>
        <time>2017-03-15T08:39:07.399Z</time>
      </trkpt>
      <trkpt lat="46.48078" lon="6.76028">
        <ele>395.7</ele>
        <time>2017-03-15T08:39:08.802Z</time>
      </trkpt>
      <trkpt lat="46.48014" lon="6.76163">
        <ele>400</ele>
        <time>2017-03-15T08:39:10.220Z</time>
      </trkpt>
      <trkpt lat="46.4798" lon="6.7624">
        <ele>397.5</ele>
        <time>2017-03-15T08:39:11.647Z</time>
      </trkpt>
      <trkpt lat="46.47933" lon="6.76357">
        <ele>396.8</ele>
        <time>2017-03-15T08:39:13.086Z</time>
      </trkpt>
      <trkpt lat="46.47877" lon="6.76511">
        <ele>399.9</ele>
        <time>2017-03-15T08:39:14.541Z</time>
      </trkpt>
      <trkpt lat="46.47836" lon="6.76632">
        <ele>401.4</ele>
        <time>2017-03-15T08:39:16.009Z</time>
      </trkpt>
      <trkpt lat="46.47795" lon="6.76731">
        <ele>400.2</ele>
        <time>2017-03-15T08:39:17.487Z</time>
      </trkpt>
      <trkpt lat="46.47772" lon="6.7679">
        <ele>402.9</ele>
        <time>2017-03-15T08:39:18.972Z</time>
      </trkpt>
      <trkpt lat="46.4775" lon="6.76862">
        <ele>400.1</ele>
        <time>2017-03-15T08:39:20.464Z</time>
      </trkpt>
      <trkpt lat="46.47727" lon="6.76942">
        <ele>399</ele>
        <time>2017-03-15T08:39:21.964Z</time>
      </trkpt>
      <trkpt lat="46.4771" lon="6.77003">
        <ele>403.2</ele>
        <time>2017-03-15T08:39:23.470Z</time>
      </trkpt>
      <trkpt lat="46.47665" lon="6.77139">
        <ele>401.7</ele>
        <time>2017-03-15T08:39:24.990Z</time>
      </trkpt>
      <trkpt lat="46.47609" lon="6.77303">
        <ele>407.8</ele>
        <time>2017-03-15T08:39:26.527Z</time>
      </trkpt>
      <trkpt lat="46.47563" lon="6.77427">
        <ele>402.5</ele>
        <time>2017-03-15T08:39:28.077Z</time>
      </trkpt>
      <trkpt lat="46.47502" lon="6.776">
        <ele>396.8</ele>
        <time>2017-03-15T08:39:29.645Z</time>
      </trkpt>
      <trkpt lat="46.47488" lon="6.77652">
        <ele>394.9</ele>
        <time>2017-03-15T08:39:31.218Z</time>
      </trkpt>
      <trkpt lat="46.47484" lon="6.77684">
        <ele>394.8</ele>
        <time>2017-03-15T08:39:32.794Z</time>
      </trkpt>
      <trkpt lat="46.47482" lon="6.77751">
        <ele>397.8</ele>
        <time>2017-03-15T08:39:34.376Z</time>
      </trkpt>
      <trkpt lat="46.47482" lon="6.77754">
        <ele>398</ele>
        <time>2017-03-15T08:39:35.958Z</time>
      </trkpt>
      <trkpt lat="46.4748" lon="6.77792">
        <ele>400.6</ele>
        <time>2017-03-15T08:39:37.544Z</time>
      </trkpt>
      <trkpt lat="46.47479" lon="6.77803">
        <ele>401.2</ele>
        <time>2017-03-15T08:39:39.131Z</time>
      </trkpt>
      <trkpt lat="46.47475" lon="6.7783">
        <ele>402.3</ele>
        <time>2017-03-15T08:39:40.720Z</time>
      </trkpt>
      <trkpt lat="46.47472" lon="6.77849">
        <ele>403.1</ele>
        <time>2017-03-15T08:39:42.311Z</time>
      </trkpt>
      <trkpt lat="46.47466" lon="6.77866">
        <ele>402.8</ele>
        <time>2017-03-15T08:39:43.904Z</time>
      </trkpt>
      <trkpt lat="46.47455" lon="6.77899">
        <ele>401.3</ele>
        <time>2017-03-15T08:39:45.500Z</time>
      </trkpt>
      <trkpt lat="46.47434" lon="6.77958">
        <ele>392.7</ele>
        <time>2017-03-15T08:39:47.102Z</time>
      </trkpt>
      <trkpt lat="46.47424" lon="6.78006">
        <ele>388.6</ele>
        <time>2017-03-15T08:39:48.709Z</time>
      </trkpt>
      <trkpt lat="46.47424" lon="6.78032">
        <ele>389.7</ele>
        <time>2017-03-15T08:39:50.318Z</time>
      </trkpt>
      <trkpt lat="46.47427" lon="6.78071">
        <ele>392.9</ele>
        <time>2017-03-15T08:39:51.931Z</time>
      </trkpt>
      <trkpt lat="46.47436" lon="6.78146">
        <ele>396</ele>
        <time>2017-03-15T08:39:53.551Z</time>
      </trkpt>
      <trkpt lat="46.47435" lon="6.78165">
        <ele>395.3</ele>
        <time>2017-03-15T08:39:55.173Z</time>
      </trkpt>
      <trkpt lat="46.47425" lon="6.78207">
        <ele>391.6</ele>
        <time>2017-03-15T08:39:56.799Z</time>
      </trkpt>
      <trkpt lat="46.47416" lon="6.78245">
        <ele>388.9</ele>
        <time>2017-03-15T08:39:58.429Z</time>
      </trkpt>
      <trkpt lat="46.4741" lon="6.7829">
        <ele>386.5</ele>
        <time>2017-03-15T08:40:00.063Z</time>
      </trkpt>
      <trkpt lat="46.4741" lon="6.78317">
        <ele>385.9</ele>
        <time>2017-03-15T08:40:01.699Z</time>
      </trkpt>
      <trkpt lat="46.47415" lon="6.78354">
        <ele>386.3</ele>
        <time>2017-03-15T08:40:03.339Z</time>
      </trkpt>
      <trkpt lat="46.47442" lon="6.78478">
        <ele>392.3</ele>
        <time>2017-03-15T08:40:04.991Z</time>
      </trkpt>
      <trkpt lat="46.47451" lon="6.7853">
        <ele>392</ele>
        <time>2017-03-15T08:40:06.648Z</time>
      </trkpt>
      <trkpt lat="46.47449" lon="6.78585">
        <ele>391.1</ele>
        <time>2017-03-15T08:40:08.310Z</time>
      </trkpt>
      <trkpt lat="46.47449" lon="6.78609">
        <ele>389.4</ele>
        <time>2017-03-15T08:40:09.974Z</time>
      </trkpt>
      <trkpt lat="46.47456" lon="6.78664">
        <ele>388.5</ele>
        <time>2017-03-15T08:40:11.643Z</time>
      </trkpt>
      <trkpt lat="46.47462" lon="6.78717">
        <ele>387.5</ele>
        <time>2017-03-15T08:40:13.317Z</time>
      </trkpt>
      <trkpt lat="46.47469" lon="6.78824">
        <ele>386.7</ele>
        <time>2017-03-15T08:40:15.001Z</time>
      </trkpt>
      <trkpt lat="46.47469" lon="6.78894">
        <ele>389.1</ele>
        <time>2017-03-15T08:40:16.691Z</time>
      </trkpt>
      <trkpt lat="46.47463" lon="6.78951">
        <ele>392.7</ele>
        <time>2017-03-15T08:40:18.387Z</time>
      </trkpt>
      <trkpt lat="46.4745" lon="6.79008">
        <ele>394.1</ele>
        <time>2017-03-15T08:40:20.088Z</time>
      </trkpt>
      <trkpt lat="46.47441" lon="6.79037">
        <ele>395.9</ele>
        <time>2017-03-15T08:40:21.792Z</time>
      </trkpt>
      <trkpt lat="46.4743" lon="6.79075">
        <ele>394</ele>
        <time>2017-03-15T08:40:23.500Z</time>
      </trkpt>
      <trkpt lat="46.47429" lon="6.79078">
        <ele>394</ele>
        <time>2017-03-15T08:40:25.208Z</time>
      </trkpt>
      <trkpt lat="46.47421" lon="6.79115">
        <ele>394.4</ele>
        <time>2017-03-15T08:40:26.920Z</time>
      </trkpt>
      <trkpt lat="46.47412" lon="6.79156">
        <ele>393.4</ele>
        <time>2017-03-15T08:40:28.636Z</time>
      </trkpt>
      <trkpt lat="46.4741" lon="6.79163">
        <ele>393.5</ele>
        <time>2017-03-15T08:40:30.353Z</time>
      </trkpt>
      <trkpt lat="46.47404" lon="6.79194">
        <ele>393.6</ele>
        <time>2017-03-15T08:40:32.072Z</time>
      </trkpt>
      <trkpt lat="46.47381" lon="6.79318">
        <ele>401.9</ele>
        <time>2017-03-15T08:40:33.803Z</time>
      </trkpt>
      <trkpt lat="46.4737" lon="6.79367">
        <ele>404.5</ele>
        <time>2017-03-15T08:40:35.539Z</time>
      </trkpt>
      <trkpt lat="46.47352" lon="6.79421">
        <ele>402.2</ele>
        <time>2017-03-15T08:40:37.281Z</time>
      </trkpt>
      <trkpt lat="46.47329" lon="6.79475">
        <ele>398</ele>
        <time>2017-03-15T08:40:39.028Z</time>
      </trkpt>
      <trkpt lat="46.47305" lon="6.79523">
        <ele>394.1</ele>
        <time>2017-03-15T08:40:40.781Z</time>
      </trkpt>
      <trkpt lat="46.4729" lon="6.79565">
        <ele>395.4</ele>
        <time>2017-03-15T08:40:42.538Z</time>
      </trkpt>
      <trkpt lat="46.47281" lon="6.79601">
        <ele>394.8</ele>
        <time>2017-03-15T08:40:44.299Z</time>
      </trkpt>
      <trkpt lat="46.47277" lon="6.79635">
        <ele>393.5</ele>
        <time>2017-03-15T08:40:46.063Z</time>
      </trkpt>
      <trkpt lat="46.47274" lon="6.7971">
        <ele>395.4</ele>
        <time>2017-03-15T08:40:47.834Z</time>
      </trkpt>
      <trkpt lat="46.47268" lon="6.79874">
        <ele>399.1</ele>
        <time>2017-03-15T08:40:49.620Z</time>
      </trkpt>
      <trkpt lat="46.47265" lon="6.79891">
        <ele>399.6</ele>
        <time>2017-03-15T08:40:51.408Z</time>
      </trkpt>
      <trkpt lat="46.47252" lon="6.79939">
        <ele>400.1</ele>
        <time>2017-03-15T08:40:53.200Z</time>
      </trkpt>
      <trkpt lat="46.47211" lon="6.80046">
        <ele>392.6</ele>
        <time>2017-03-15T08:40:55.004Z</time>
      </trkpt>
      <trkpt lat="46.472" lon="6.80087">
        <ele>392</ele>
        <time>2017-03-15T08:40:56.812Z</time>
      </trkpt>
      <trkpt lat="46.47189" lon="6.80144">
        <ele>392</ele>
        <time>2017-03-15T08:40:58.625Z</time>
      </trkpt>
      <trkpt lat="46.4718" lon="6.80252">
        <ele>392.8</ele>
        <time>2017-03-15T08:41:00.448Z</time>
      </trkpt>
      <trkpt lat="46.47172" lon="6.80359">
        <ele>389.1</ele>
        <time>2017-03-15T08:41:02.281Z</time>
      </trkpt>
      <trkpt lat="46.47161" lon="6.80465">
        <ele>389</ele>
        <time>2017-03-15T08:41:04.124Z</time>
      </trkpt>
      <trkpt lat="46.4715" lon="6.80525">
        <ele>389.2</ele>
        <time>2017-03-15T08:41:05.973Z</time>
      </trkpt>
      <trkpt lat="46.47138" lon="6.80577">
        <ele>391.1</ele>
        <time>2017-03-15T08:41:07.827Z</time>
      </trkpt>
      <trkpt lat="46.47129" lon="6.80621">
        <ele>393.5</ele>
        <time>2017-03-15T08:41:09.685Z</time>
      </trkpt>
      <trkpt lat="46.4712" lon="6.8066">
        <ele>394.2</ele>
        <time>2017-03-15T08:41:11.547Z</time>
      </trkpt>
      <trkpt lat="46.47119" lon="6.80666">
        <ele>394.3</ele>
        <time>2017-03-15T08:41:13.409Z</time>
      </trkpt>
      <trkpt lat="46.4711" lon="6.8071">
        <ele>394.4</ele>
        <time>2017-03-15T08:41:15.276Z</time>
      </trkpt>
      <trkpt lat="46.47102" lon="6.80753">
        <ele>393.4</ele>
        <time>2017-03-15T08:41:17.147Z</time>
      </trkpt>
      <trkpt lat="46.47096" lon="6.80798">
        <ele>392.6</ele>
        <time>2017-03-15T08:41:19.022Z</time>
      </trkpt>
      <trkpt lat="46.47087" lon="6.80975">
        <ele>393.3</ele>
        <time>2017-03-15T08:41:20.913Z</time>
      </trkpt>
      <trkpt lat="46.47079" lon="6.81172">
        <ele>393.1</ele>
        <time>2017-03-15T08:41:22.822Z</time>
      </trkpt>
      <trkpt lat="46.47075" lon="6.81201">
        <ele>391.5</ele>
        <time>2017-03-15T08:41:24.734Z</time>
      </trkpt>
      <trkpt lat="46.47071" lon="6.81252">
        <ele>390.2</ele>
        <time>2017-03-15T08:41:26.651Z</time>
      </trkpt>
      <trkpt lat="46.47064" lon="6.81361">
        <ele>391.5</ele>
        <time>2017-03-15T08:41:28.578Z</time>
      </trkpt>
      <trkpt lat="46.47063" lon="6.81381">
        <ele>391.8</ele>
        <time>2017-03-15T08:41:30.507Z</time>
      </trkpt>
      <trkpt lat="46.47056" lon="6.81526">
        <ele>392.3</ele>
        <time>2017-03-15T08:41:32.449Z</time>
      </trkpt>
      <trkpt lat="46.47058" lon="6.81541">
        <ele>392.6</ele>
        <time>2017-03-15T08:41:34.393Z</time>
      </trkpt>
      <trkpt lat="46.47057" lon="6.81571">
        <ele>392.6</ele>
        <time>2017-03-15T08:41:36.339Z</time>
      </trkpt>
      <trkpt lat="46.47039" lon="6.81909">
        <ele>393.8</ele>
        <time>2017-03-15T08:41:38.317Z</time>
      </trkpt>
      <trkpt lat="46.47033" lon="6.82026">
        <ele>394.2</ele>
        <time>2017-03-15T08:41:40.305Z</time>
      </trkpt>
      <trkpt lat="46.47025" lon="6.82091">
        <ele>395</ele>
        <time>2017-03-15T08:41:42.300Z</time>
      </trkpt>
      <trkpt lat="46.47016" lon="6.82129">
        <ele>395.5</ele>
        <time>2017-03-15T08:41:44.298Z</time>
      </trkpt>
      <trkpt lat="46.47002" lon="6.82174">
        <ele>395.6</ele>
        <time>2017-03-15T08:41:46.301Z</time>
      </trkpt>
      <trkpt lat="46.4699" lon="6.82201">
        <ele>396.4</ele>
        <time>2017-03-15T08:41:48.307Z</time>
      </trkpt>
      <trkpt lat="46.46969" lon="6.82238">
        <ele>397</ele>
        <time>2017-03-15T08:41:50.317Z</time>
      </trkpt>
      <trkpt lat="46.4695" lon="6.82257">
        <ele>396</ele>
        <time>2017-03-15T08:41:52.330Z</time>
      </trkpt>
      <trkpt lat="46.46928" lon="6.82272">
        <ele>394.2</ele>
        <time>2017-03-15T08:41:54.347Z</time>
      </trkpt>
      <trkpt lat="46.46904" lon="6.82286">
        <ele>391.2</ele>
        <time>2017-03-15T08:41:56.367Z</time>
      </trkpt>
      <trkpt lat="46.46896" lon="6.82291">
        <ele>390.6</ele>
        <time>2017-03-15T08:41:58.388Z</time>
      </trkpt>
      <trkpt lat="46.46884" lon="6.82306">
        <ele>391.1</ele>
        <time>2017-03-15T08:42:00.411Z</time>
      </trkpt>
      <trkpt lat="46.46867" lon="6.8233">
        <ele>391.1</ele>
        <time>2017-03-15T08:42:02.437Z</time>
      </trkpt>
      <trkpt lat="46.46857" lon="6.8235">
        <ele>391.6</ele>
        <time>2017-03-15T08:42:04.466Z</time>
      </trkpt>
      <trkpt lat="46.46847" lon="6.82383">
        <ele>390.7</ele>
        <time>2017-03-15T08:42:06.498Z</time>
      </trkpt>
      <trkpt lat="46.46843" lon="6.82406">
        <ele>389.9</ele>
        <time>2017-03-15T08:42:08.532Z</time>
      </trkpt>
      <trkpt lat="46.46843" lon="6.82443">
        <ele>389.8</ele>
        <time>2017-03-15T08:42:10.570Z</time>
      </trkpt>
      <trkpt lat="46.46844" lon="6.82463">
        <ele>389.3</ele>
        <time>2017-03-15T08:42:12.609Z</time>
      </trkpt>
      <trkpt lat="46.46857" lon="6.82571">
        <ele>389.4</ele>
        <time>2017-03-15T08:42:14.659Z</time>
      </trkpt>
      <trkpt lat="46.46864" lon="6.82718">
        <ele>388.7</ele>
        <time>2017-03-15T08:42:16.722Z</time>
      </trkpt>
      <trkpt lat="46.46867" lon="6.82799">
        <ele>386.1</ele>
        <time>2017-03-15T08:42:18.793Z</time>
      </trkpt>
      <trkpt lat="46.46864" lon="6.82867">
        <ele>385.6</ele>
        <time>2017-03-15T08:42:20.870Z</time>
      </trkpt>
      <trkpt lat="46.46852" lon="6.82944">
        <ele>382.4</ele>
        <time>2017-03-15T08:42:22.954Z</time>
      </trkpt>
      <trkpt lat="46.46844" lon="6.82996">
        <ele>381.9</ele>
        <time>2017-03-15T08:42:25.043Z</time>
      </trkpt>
      <trkpt lat="46.46841" lon="6.83013">
        <ele>381.2</ele>
        <time>2017-03-15T08:42:27.134Z</time>
      </trkpt>
      <trkpt lat="46.4684" lon="6.83048">
        <ele>381.4</ele>
        <time>2017-03-15T08:42:29.228Z</time>
      </trkpt>
      <trkpt lat="46.46839" lon="6.83101">
        <ele>380.5</ele>
        <time>2017-03-15T08:42:31.327Z</time>
      </trkpt>
      <trkpt lat="46.46839" lon="6.83119">
        <ele>380.5</ele>
        <time>2017-03-15T08:42:33.427Z</time>
      </trkpt>
      <trkpt lat="46.46839" lon="6.83152">
        <ele>380.5</ele>
        <time>2017-03-15T08:42:35.531Z</time>
      </trkpt>
      <trkpt lat="46.46837" lon="6.83288">
        <ele>380.6</ele>
        <time>2017-03-15T08:42:37.647Z</time>
      </trkpt>
      <trkpt lat="46.46837" lon="6.8334">
        <ele>381.6</ele>
        <time>2017-03-15T08:42:39.768Z</time>
      </trkpt>
      <trkpt lat="46.46833" lon="6.8337">
        <ele>382.7</ele>
        <time>2017-03-15T08:42:41.892Z</time>
      </trkpt>
      <trkpt lat="46.46827" lon="6.83401">
        <ele>383.7</ele>
        <time>2017-03-15T08:42:44.019Z</time>
      </trkpt>
      <trkpt lat="46.46822" lon="6.83418">
        <ele>384</ele>
        <time>2017-03-15T08:42:46.147Z</time>
      </trkpt>
      <trkpt lat="46.46805" lon="6.83448">
        <ele>384.4</ele>
        <time>2017-03-15T08:42:48.279Z</time>
      </trkpt>
      <trkpt lat="46.46801" lon="6.83455">
        <ele>384.6</ele>
        <time>2017-03-15T08:42:50.412Z</time>
      </trkpt>
      <trkpt lat="46.46779" lon="6.83487">
        <ele>385.5</ele>
        <time>2017-03-15T08:42:52.549Z</time>
      </trkpt>
      <trkpt lat="46.46761" lon="6.83513">
        <ele>386.2</ele>
        <time>2017-03-15T08:42:54.689Z</time>
      </trkpt>
      <trkpt lat="46.46752" lon="6.83525">
        <ele>385.9</ele>
        <time>2017-03-15T08:42:56.831Z</time>
      </trkpt>
      <trkpt lat="46.46738" lon="6.83544">
        <ele>385.2</ele>
        <time>2017-03-15T08:42:58.975Z</time>
      </trkpt>
      <trkpt lat="46.46722" lon="6.83557">
        <ele>385.5</ele>
        <time>2017-03-15T08:43:01.122Z</time>
      </trkpt>
      <trkpt lat="46.46722" lon="6.83558">
        <ele>385.5</ele>
        <time>2017-03-15T08:43:03.269Z</time>
      </trkpt>
      <trkpt lat="46.46713" lon="6.83565">
        <ele>385.5</ele>
        <time>2017-03-15T08:43:05.417Z</time>
      </trkpt>
      <trkpt lat="46.46695" lon="6.83576">
        <ele>385.5</ele>
        <time>2017-03-15T08:43:07.568Z</time>
      </trkpt>
      <trkpt lat="46.46691" lon="6.8358">
        <ele>385.7</ele>
        <time>2017-03-15T08:43:09.720Z</time>
      </trkpt>
      <trkpt lat="46.46689" lon="6.83583">
        <ele>385.8</ele>
        <time>2017-03-15T08:43:11.872Z</time>
      </trkpt>
      <trkpt lat="46.46685" lon="6.83588">
        <ele>386</ele>
        <time>2017-03-15T08:43:14.025Z</time>
      </trkpt>
      <trkpt lat="46.46683" lon="6.83596">
        <ele>386.2</ele>
        <time>2017-03-15T08:43:16.178Z</time>
      </trkpt>
      <trkpt lat="46.46683" lon="6.83604">
        <ele>386.4</ele>
        <time>2017-03-15T08:43:18.332Z</time>
      </trkpt>
      <trkpt lat="46.46684" lon="6.83608">
        <ele>386.4</ele>
        <time>2017-03-15T08:43:20.487Z</time>
      </trkpt>
      <trkpt lat="46.46676" lon="6.83631">
        <ele>386.3</ele>
        <time>2017-03-15T08:43:22.644Z</time>
      </trkpt>
      <trkpt lat="46.46672" lon="6.83641">
        <ele>386.3</ele>
        <time>2017-03-15T08:43:24.802Z</time>
      </trkpt>
      <trkpt lat="46.46651" lon="6.83672">
        <ele>385.9</ele>
        <time>2017-03-15T08:43:26.964Z</time>
      </trkpt>
      <trkpt lat="46.46627" lon="6.83709">
        <ele>385.1</ele>
        <time>2017-03-15T08:43:29.131Z</time>
      </trkpt>
      <trkpt lat="46.46578" lon="6.83779">
        <ele>386</ele>
        <time>2017-03-15T08:43:31.307Z</time>
      </trkpt>
      <trkpt lat="46.46511" lon="6.83881">
        <ele>385</ele>
        <time>2017-03-15T08:43:33.496Z</time>
      </trkpt>
      <trkpt lat="46.46505" lon="6.8389">
        <ele>385.1</ele>
        <time>2017-03-15T08:43:35.686Z</time>
      </trkpt>
      <trkpt lat="46.46484" lon="6.83919">
        <ele>385.3</ele>
        <time>2017-03-15T08:43:37.880Z</time>
      </trkpt>
      <trkpt lat="46.46457" lon="6.83958">
        <ele>386.6</ele>
        <time>2017-03-15T08:43:40.079Z</time>
      </trkpt>
      <trkpt lat="46.4644" lon="6.83982">
        <ele>387.8</ele>
        <time>2017-03-15T08:43:42.281Z</time>
      </trkpt>
      <trkpt lat="46.46433" lon="6.83994">
        <ele>388.2</ele>
        <time>2017-03-15T08:43:44.485Z</time>
      </trkpt>
      <trkpt lat="46.4643" lon="6.83996">
        <ele>388.3</ele>
        <time>2017-03-15T08:43:46.689Z</time>
      </trkpt>
      <trkpt lat="46.46424" lon="6.84002">
        <ele>388.4</ele>
        <time>2017-03-15T08:43:48.894Z</time>
      </trkpt>
      <trkpt lat="46.46409" lon="6.84019">
        <ele>388</ele>
        <time>2017-03-15T08:43:51.102Z</time>
      </trkpt>
      <trkpt lat="46.46406" lon="6.8402">
        <ele>388</ele>
        <time>2017-03-15T08:43:53.310Z</time>
      </trkpt>
      <trkpt lat="46.46404" lon="6.84022">
        <ele>387.9</ele>
        <time>2017-03-15T08:43:55.518Z</time>
      </trkpt>
      <trkpt lat="46.46401" lon="6.84026">
        <ele>387.7</ele>
        <time>2017-03-15T08:43:57.727Z</time>
      </trkpt>
      <trkpt lat="46.464" lon="6.84034">
        <ele>387.4</ele>
        <time>2017-03-15T08:43:59.937Z</time>
      </trkpt>
      <trkpt lat="46.4632" lon="6.84142">
        <ele>387.5</ele>
        <time>2017-03-15T08:44:02.161Z</time>
      </trkpt>
      <trkpt lat="46.46292" lon="6.8418">
        <ele>387</ele>
        <time>2017-03-15T08:44:04.390Z</time>
      </trkpt>
      <trkpt lat="46.46283" lon="6.84192">
        <ele>387</ele>
        <time>2017-03-15T08:44:06.621Z</time>
      </trkpt>
      <trkpt lat="46.46281" lon="6.84191">
        <ele>387</ele>
        <time>2017-03-15T08:44:08.852Z</time>
      </trkpt>
      <trkpt lat="46.46278" lon="6.84192">
        <ele>387</ele>
        <time>2017-03-15T08:44:11.084Z</time>
      </trkpt>
      <trkpt lat="46.46272" lon="6.84198">
        <ele>387</ele>
        <time>2017-03-15T08:44:13.317Z</time>
      </trkpt>
      <trkpt lat="46.4627" lon="6.84208">
        <ele>386.9</ele>
        <time>2017-03-15T08:44:15.551Z</time>
      </trkpt>
      <trkpt lat="46.46271" lon="6.84213">
        <ele>386.9</ele>
        <time>2017-03-15T08:44:17.785Z</time>
      </trkpt>
      <trkpt lat="46.4627" lon="6.84217">
        <ele>386.8</ele>
        <time>2017-03-15T08:44:20.019Z</time>
      </trkpt>
      <trkpt lat="46.46263" lon="6.84237">
        <ele>386.7</ele>
        <time>2017-03-15T08:44:22.255Z</time>
      </trkpt>
      <trkpt lat="46.46248" lon="6.84263">
        <ele>387.6</ele>
        <time>2017-03-15T08:44:24.495Z</time>
      </trkpt>
      <trkpt lat="46.46234" lon="6.84288">
        <ele>389.3</ele>
        <time>2017-03-15T08:44:26.738Z</time>
      </trkpt>
      <trkpt lat="46.46227" lon="6.84303">
        <ele>390.4</ele>
        <time>2017-03-15T08:44:28.982Z</time>
      </trkpt>
      <trkpt lat="46.46162" lon="6.84444">
        <ele>389.2</ele>
        <time>2017-03-15T08:44:31.242Z</time>
      </trkpt>
      <trkpt lat="46.46138" lon="6.84502">
        <ele>389.2</ele>
        <time>2017-03-15T08:44:33.508Z</time>
      </trkpt>
      <trkpt lat="46.46132" lon="6.84519">
        <ele>389.8</ele>
        <time>2017-03-15T08:44:35.776Z</time>
      </trkpt>
      <trkpt lat="46.46127" lon="6.84552">
        <ele>391.1</ele>
        <time>2017-03-15T08:44:38.047Z</time>
      </trkpt>
      <trkpt lat="46.46125" lon="6.84575">
        <ele>391.1</ele>
        <time>2017-03-15T08:44:40.320Z</time>
      </trkpt>
      <trkpt lat="46.46113" lon="6.84607">
        <ele>391.6</ele>
        <time>2017-03-15T08:44:42.596Z</time>
      </trkpt>
      <trkpt lat="46.46057" lon="6.84735">
        <ele>388.6</ele>
        <time>2017-03-15T08:44:44.886Z</time>
      </trkpt>
      <trkpt lat="46.46055" lon="6.84739">
        <ele>388.6</ele>
        <time>2017-03-15T08:44:47.177Z</time>
      </trkpt>
      <trkpt lat="46.46037" lon="6.84784">
        <ele>388.5</ele>
        <time>2017-03-15T08:44:49.473Z</time>
      </trkpt>
      <trkpt lat="46.46017" lon="6.84834">
        <ele>387</ele>
        <time>2017-03-15T08:44:51.774Z</time>
      </trkpt>
      <trkpt lat="46.45998" lon="6.84883">
        <ele>385.8</ele>
        <time>2017-03-15T08:44:54.080Z</time>
      </trkpt>
      <trkpt lat="46.45998" lon="6.84883">
        <ele>385.8</ele>
        <time>2017-03-15T08:44:56.386Z</time>
      </trkpt>
      <trkpt lat="46.45989" lon="6.84893">
        <ele>384.8</ele>
        <time>2017-03-15T08:44:58.694Z</time>
      </trkpt>
      <trkpt lat="46.45985" lon="6.84901">
        <ele>384.3</ele>
        <time>2017-03-15T08:45:01.003Z</time>
      </trkpt>
      <trkpt lat="46.45975" lon="6.84923">
        <ele>384.3</ele>
        <time>2017-03-15T08:45:03.314Z</time>
      </trkpt>
      <trkpt lat="46.45938" lon="6.8501">
        <ele>385.2</ele>
        <time>2017-03-15T08:45:05.634Z</time>
      </trkpt>
      <trkpt lat="46.45864" lon="6.85198">
        <ele>382.2</ele>
        <time>2017-03-15T08:45:07.974Z</time>
      </trkpt>
      <trkpt lat="46.45858" lon="6.85209">
        <ele>382.4</ele>
        <time>2017-03-15T08:45:10.316Z</time>
      </trkpt>
      <trkpt lat="46.45848" lon="6.8523">
        <ele>383.1</ele>
        <time>2017-03-15T08:45:12.660Z</time>
      </trkpt>
      <trkpt lat="46.45835" lon="6.85247">
        <ele>383.3</ele>
        <time>2017-03-15T08:45:15.006Z</time>
      </trkpt>
      <trkpt lat="46.45831" lon="6.8525">
        <ele>383.3</ele>
        <time>2017-03-15T08:45:17.353Z</time>
      </trkpt>
      <trkpt lat="46.4582" lon="6.85257">
        <ele>383.4</ele>
        <time>2017-03-15T08:45:19.702Z</time>
      </trkpt>
      <trkpt lat="46.45809" lon="6.85261">
        <ele>383.1</ele>
        <time>2017-03-15T08:45:22.052Z</time>
      </trkpt>
      <trkpt lat="46.45792" lon="6.85258">
        <ele>382</ele>
        <time>2017-03-15T08:45:24.404Z</time>
      </trkpt>
      <trkpt lat="46.45775" lon="6.85254">
        <ele>380.9</ele>
        <time>2017-03-15T08:45:26.759Z</time>
      </trkpt>
      <trkpt lat="46.45774" lon="6.85253">
        <ele>380.8</ele>
        <time>2017-03-15T08:45:29.114Z</time>
      </trkpt>
      <trkpt lat="46.45773" lon="6.85251">
        <ele>380.7</ele>
        <time>2017-03-15T08:45:31.469Z</time>
      </trkpt>
      <trkpt lat="46.45766" lon="6.85248">
        <ele>380.2</ele>
        <time>2017-03-15T08:45:33.825Z</time>
      </trkpt>
      <trkpt lat="46.45759" lon="6.85249">
        <ele>379.8</ele>
        <time>2017-03-15T08:45:36.182Z</time>
      </trkpt>
      <trkpt lat="46.45754" lon="6.8525">
        <ele>379.5</ele>
        <time>2017-03-15T08:45:38.540Z</time>
      </trkpt>
      <trkpt lat="46.45737" lon="6.85255">
        <ele>378.5</ele>
        <time>2017-03-15T08:45:40.900Z</time>
      </trkpt>
      <trkpt lat="46.45724" lon="6.85264">
        <ele>378.1</ele>
        <time>2017-03-15T08:45:43.262Z</time>
      </trkpt>
      <trkpt lat="46.4572" lon="6.85268">
        <ele>378</ele>
        <time>2017-03-15T08:45:45.625Z</time>
      </trkpt>
      <trkpt lat="46.45717" lon="6.85273">
        <ele>378</ele>
        <time>2017-03-15T08:45:47.988Z</time>
      </trkpt>
      <trkpt lat="46.457" lon="6.85306">
        <ele>378.2</ele>
        <time>2017-03-15T08:45:50.355Z</time>
      </trkpt>
      <trkpt lat="46.45691" lon="6.8532">
        <ele>378.4</ele>
        <time>2017-03-15T08:45:52.724Z</time>
      </trkpt>
      <trkpt lat="46.45671" lon="6.85341">
        <ele>378.7</ele>
        <time>2017-03-15T08:45:55.096Z</time>
      </trkpt>
      <trkpt lat="46.45637" lon="6.85375">
        <ele>379.9</ele>
        <time>2017-03-15T08:45:57.474Z</time>
      </trkpt>
      <trkpt lat="46.45617" lon="6.85398">
        <ele>380.1</ele>
        <time>2017-03-15T08:45:59.855Z</time>
      </trkpt>
      <trkpt lat="46.45542" lon="6.85468">
        <ele>380.5</ele>
        <time>2017-03-15T08:46:02.248Z</time>
      </trkpt>
      <trkpt lat="46.45508" lon="6.855">
        <ele>382.1</ele>
        <time>2017-03-15T08:46:04.646Z</time>
      </trkpt>
      <trkpt lat="46.45485" lon="6.85521">
        <ele>383.1</ele>
        <time>2017-03-15T08:46:07.048Z</time>
      </trkpt>
      <trkpt lat="46.45474" lon="6.85531">
        <ele>383.4</ele>
        <time>2017-03-15T08:46:09.452Z</time>
      </trkpt>
      <trkpt lat="46.45439" lon="6.85561">
        <ele>384.4</ele>
        <time>2017-03-15T08:46:11.861Z</time>
      </trkpt>
      <trkpt lat="46.45408" lon="6.85588">
        <ele>385.3</ele>
        <time>2017-03-15T08:46:14.275Z</time>
      </trkpt>
      <trkpt lat="46.45401" lon="6.85594">
        <ele>385.5</ele>
        <time>2017-03-15T08:46:16.690Z</time>
      </trkpt>
      <trkpt lat="46.45398" lon="6.85604">
        <ele>385.8</ele>
        <time>2017-03-15T08:46:19.106Z</time>
      </trkpt>
      <trkpt lat="46.45379" lon="6.85619">
        <ele>386.6</ele>
        <time>2017-03-15T08:46:21.525Z</time>
      </trkpt>
      <trkpt lat="46.45314" lon="6.85673">
        <ele>388.5</ele>
        <time>2017-03-15T08:46:23.954Z</time>
      </trkpt>
      <trkpt lat="46.45286" lon="6.85701">
        <ele>386.5</ele>
        <time>2017-03-15T08:46:26.387Z</time>
      </trkpt>
      <trkpt lat="46.45257" lon="6.85745">
        <ele>387.7</ele>
        <time>2017-03-15T08:46:28.826Z</time>
      </trkpt>
      <trkpt lat="46.45232" lon="6.85784">
        <ele>388.5</ele>
        <time>2017-03-15T08:46:31.270Z</time>
      </trkpt>
      <trkpt lat="46.45201" lon="6.85819">
        <ele>389</ele>
        <time>2017-03-15T08:46:33.719Z</time>
      </trkpt>
      <trkpt lat="46.45173" lon="6.85849">
        <ele>390.1</ele>
        <time>2017-03-15T08:46:36.173Z</time>
      </trkpt>
      <trkpt lat="46.45134" lon="6.85881">
        <ele>391.9</ele>
        <time>2017-03-15T08:46:38.633Z</time>
      </trkpt>
      <trkpt lat="46.45087" lon="6.85906">
        <ele>392.5</ele>
        <time>2017-03-15T08:46:41.099Z</time>
      </trkpt>
      <trkpt lat="46.45047" lon="6.85933">
        <ele>391.1</ele>
        <time>2017-03-15T08:46:43.571Z</time>
      </trkpt>
      <trkpt lat="46.45022" lon="6.85953">
        <ele>389.5</ele>
        <time>2017-03-15T08:46:46.047Z</time>
      </trkpt>
      <trkpt lat="46.44998" lon="6.85978">
        <ele>388.7</ele>
        <time>2017-03-15T08:46:48.527Z</time>
      </trkpt>
      <trkpt lat="46.44982" lon="6.86001">
        <ele>388.4</ele>
        <time>2017-03-15T08:46:51.010Z</time>
      </trkpt>
      <trkpt lat="46.44959" lon="6.86049">
        <ele>389.3</ele>
        <time>2017-03-15T08:46:53.498Z</time>
      </trkpt>
      <trkpt lat="46.44942" lon="6.861">
        <ele>391</ele>
        <time>2017-03-15T08:46:55.992Z</time>
      </trkpt>
      <trkpt lat="46.44936" lon="6.86127">
        <ele>391.2</ele>
        <time>2017-03-15T08:46:58.488Z</time>
      </trkpt>
      <trkpt lat="46.44932" lon="6.86148">
        <ele>391</ele>
        <time>2017-03-15T08:47:00.986Z</time>
      </trkpt>
      <trkpt lat="46.44927" lon="6.86185">
        <ele>391</ele>
        <time>2017-03-15T08:47:03.488Z</time>
      </trkpt>
      <trkpt lat="46.44925" lon="6.86196">
        <ele>390.3</ele>
        <time>2017-03-15T08:47:05.991Z</time>
      </trkpt>
      <trkpt lat="46.44923" lon="6.86244">
        <ele>388.8</ele>
        <time>2017-03-15T08:47:08.498Z</time>
      </trkpt>
      <trkpt lat="46.44921" lon="6.86275">
        <ele>389.6</ele>
        <time>2017-03-15T08:47:11.008Z</time>
      </trkpt>
      <trkpt lat="46.4492" lon="6.86304">
        <ele>389.8</ele>
        <time>2017-03-15T08:47:13.521Z</time>
      </trkpt>
      <trkpt lat="46.44917" lon="6.86357">
        <ele>390.4</ele>
        <time>2017-03-15T08:47:16.039Z</time>
      </trkpt>
      <trkpt lat="46.44907" lon="6.86534">
        <ele>388</ele>
        <time>2017-03-15T08:47:18.573Z</time>
      </trkpt>
      <trkpt lat="46.44895" lon="6.86709">
        <ele>386.7</ele>
        <time>2017-03-15T08:47:21.123Z</time>
      </trkpt>
      <trkpt lat="46.4487" lon="6.86983">
        <ele>386.2</ele>
        <time>2017-03-15T08:47:23.699Z</time>
      </trkpt>
      <trkpt lat="46.44854" lon="6.87207">
        <ele>383.5</ele>
        <time>2017-03-15T08:47:26.296Z</time>
      </trkpt>
      <trkpt lat="46.44847" lon="6.87277">
        <ele>385.1</ele>
        <time>2017-03-15T08:47:28.899Z</time>
      </trkpt>
      <trkpt lat="46.44843" lon="6.87298">
        <ele>385</ele>
        <time>2017-03-15T08:47:31.504Z</time>
      </trkpt>
      <trkpt lat="46.44831" lon="6.87332">
        <ele>385.4</ele>
        <time>2017-03-15T08:47:34.113Z</time>
      </trkpt>
      <trkpt lat="46.44812" lon="6.8737">
        <ele>386.2</ele>
        <time>2017-03-15T08:47:36.726Z</time>
      </trkpt>
      <trkpt lat="46.4478" lon="6.87406">
        <ele>386</ele>
        <time>2017-03-15T08:47:39.344Z</time>
      </trkpt>
      <trkpt lat="46.44759" lon="6.87429">
        <ele>386.7</ele>
        <time>2017-03-15T08:47:41.966Z</time>
      </trkpt>
      <trkpt lat="46.44747" lon="6.87448">
        <ele>386.7</ele>
        <time>2017-03-15T08:47:44.590Z</time>
      </trkpt>
      <trkpt lat="46.44728" lon="6.87484">
        <ele>386.9</ele>
        <time>2017-03-15T08:47:47.218Z</time>
      </trkpt>
      <trkpt lat="46.44709" lon="6.87533">
        <ele>385</ele>
        <time>2017-03-15T08:47:49.852Z</time>
      </trkpt>
      <trkpt lat="46.44694" lon="6.87601">
        <ele>387.3</ele>
        <time>2017-03-15T08:47:52.492Z</time>
      </trkpt>
      <trkpt lat="46.44646" lon="6.8773">
        <ele>390</ele>
        <time>2017-03-15T08:47:55.146Z</time>
      </trkpt>
      <trkpt lat="46.44617" lon="6.87815">
        <ele>384.4</ele>
        <time>2017-03-15T08:47:57.808Z</time>
      </trkpt>
      <trkpt lat="46.44607" lon="6.8784">
        <ele>383.8</ele>
        <time>2017-03-15T08:48:00.473Z</time>
      </trkpt>
      <trkpt lat="46.44591" lon="6.87874">
        <ele>383</ele>
        <time>2017-03-15T08:48:03.142Z</time>
      </trkpt>
      <trkpt lat="46.44586" lon="6.8788">
        <ele>383</ele>
        <time>2017-03-15T08:48:05.812Z</time>
      </trkpt>
      <trkpt lat="46.4457" lon="6.87892">
        <ele>382.7</ele>
        <time>2017-03-15T08:48:08.484Z</time>
      </trkpt>
      <trkpt lat="46.44543" lon="6.87904">
        <ele>382.9</ele>
        <time>2017-03-15T08:48:11.160Z</time>
      </trkpt>
      <trkpt lat="46.44475" lon="6.87929">
        <ele>385.7</ele>
        <time>2017-03-15T08:48:13.845Z</time>
      </trkpt>
      <trkpt lat="46.44468" lon="6.87932">
        <ele>385.9</ele>
        <time>2017-03-15T08:48:16.531Z</time>
      </trkpt>
      <trkpt lat="46.44432" lon="6.87945">
        <ele>386.5</ele>
        <time>2017-03-15T08:48:19.222Z</time>
      </trkpt>
      <trkpt lat="46.44389" lon="6.8796">
        <ele>388.8</ele>
        <time>2017-03-15T08:48:21.919Z</time>
      </trkpt>
      <trkpt lat="46.44363" lon="6.87969">
        <ele>388.9</ele>
        <time>2017-03-15T08:48:24.620Z</time>
      </trkpt>
      <trkpt lat="46.44347" lon="6.87977">
        <ele>388.7</ele>
        <time>2017-03-15T08:48:27.323Z</time>
      </trkpt>
      <trkpt lat="46.44334" lon="6.87983">
        <ele>388.5</ele>
        <time>2017-03-15T08:48:30.028Z</time>
      </trkpt>
      <trkpt lat="46.4431" lon="6.87998">
        <ele>388.1</ele>
        <time>2017-03-15T08:48:32.736Z</time>
      </trkpt>
      <trkpt lat="46.44294" lon="6.88011">
        <ele>387.4</ele>
        <time>2017-03-15T08:48:35.447Z</time>
      </trkpt>
      <trkpt lat="46.44284" lon="6.88024">
        <ele>387.5</ele>
        <time>2017-03-15T08:48:38.159Z</time>
      </trkpt>
      <trkpt lat="46.44267" lon="6.88052">
        <ele>387.6</ele>
        <time>2017-03-15T08:48:40.875Z</time>
      </trkpt>
      <trkpt lat="46.44205" lon="6.88177">
        <ele>386.2</ele>
        <time>2017-03-15T08:48:43.605Z</time>
      </trkpt>
      <trkpt lat="46.44197" lon="6.88197">
        <ele>385.5</ele>
        <time>2017-03-15T08:48:46.337Z</time>
      </trkpt>
      <trkpt lat="46.44192" lon="6.88216">
        <ele>384.5</ele>
        <time>2017-03-15T08:48:49.071Z</time>
      </trkpt>
      <trkpt lat="46.44189" lon="6.88236">
        <ele>383.7</ele>
        <time>2017-03-15T08:48:51.807Z</time>
      </trkpt>
      <trkpt lat="46.44188" lon="6.88268">
        <ele>382.1</ele>
        <time>2017-03-15T08:48:54.546Z</time>
      </trkpt>
      <trkpt lat="46.44195" lon="6.88348">
        <ele>380.4</ele>
        <time>2017-03-15T08:48:57.292Z</time>
      </trkpt>
      <trkpt lat="46.44198" lon="6.88374">
        <ele>379.1</ele>
        <time>2017-03-15T08:49:00.041Z</time>
      </trkpt>
      <trkpt lat="46.44207" lon="6.88398">
        <ele>379.5</ele>
        <time>2017-03-15T08:49:02.792Z</time>
      </trkpt>
      <trkpt lat="46.44221" lon="6.88421">
        <ele>380.6</ele>
        <time>2017-03-15T08:49:05.546Z</time>
      </trkpt>
      <trkpt lat="46.44245" lon="6.88454">
        <ele>382.2</ele>
        <time>2017-03-15T08:49:08.305Z</time>
      </trkpt>
      <trkpt lat="46.44254" lon="6.88483">
        <ele>382.4</ele>
        <time>2017-03-15T08:49:11.066Z</time>
      </trkpt>
      <trkpt lat="46.44259" lon="6.88512">
        <ele>382.1</ele>
        <time>2017-03-15T08:49:13.830Z</time>
      </trkpt>
      <trkpt lat="46.44258" lon="6.88556">
        <ele>380.5</ele>
        <time>2017-03-15T08:49:16.598Z</time>
      </trkpt>
      <trkpt lat="46.44252" lon="6.88629">
        <ele>379.8</ele>
        <time>2017-03-15T08:49:19.373Z</time>
      </trkpt>
      <trkpt lat="46.44244" lon="6.88681">
        <ele>381</ele>
        <time>2017-03-15T08:49:22.153Z</time>
      </trkpt>
      <trkpt lat="46.44233" lon="6.88718">
        <ele>382</ele>
        <time>2017-03-15T08:49:24.937Z</time>
      </trkpt>
      <trkpt lat="46.44184" lon="6.88851">
        <ele>385.3</ele>
        <time>2017-03-15T08:49:27.735Z</time>
      </trkpt>
      <trkpt lat="46.44144" lon="6.88961">
        <ele>387.7</ele>
        <time>2017-03-15T08:49:30.544Z</time>
      </trkpt>
      <trkpt lat="46.44123" lon="6.89008">
        <ele>386.8</ele>
        <time>2017-03-15T08:49:33.358Z</time>
      </trkpt>
      <trkpt lat="46.4409" lon="6.89091">
        <ele>386</ele>
        <time>2017-03-15T08:49:36.181Z</time>
      </trkpt>
      <trkpt lat="46.4408" lon="6.89127">
        <ele>386</ele>
        <time>2017-03-15T08:49:39.008Z</time>
      </trkpt>
      <trkpt lat="46.44054" lon="6.89192">
        <ele>384.9</ele>
        <time>2017-03-15T08:49:41.842Z</time>
      </trkpt>
      <trkpt lat="46.4405" lon="6.89211">
        <ele>384.4</ele>
        <time>2017-03-15T08:49:44.677Z</time>
      </trkpt>
      <trkpt lat="46.44037" lon="6.89266">
        <ele>384.3</ele>
        <time>2017-03-15T08:49:47.518Z</time>
      </trkpt>
      <trkpt lat="46.44022" lon="6.89366">
        <ele>385.4</ele>
        <time>2017-03-15T08:49:50.368Z</time>
      </trkpt>
      <trkpt lat="46.44019" lon="6.89398">
        <ele>386</ele>
        <time>2017-03-15T08:49:53.221Z</time>
      </trkpt>
      <trkpt lat="46.44018" lon="6.8941">
        <ele>386.3</ele>
        <time>2017-03-15T08:49:56.075Z</time>
      </trkpt>
      <trkpt lat="46.44017" lon="6.89465">
        <ele>387.6</ele>
        <time>2017-03-15T08:49:58.934Z</time>
      </trkpt>
      <trkpt lat="46.44017" lon="6.89469">
        <ele>387.7</ele>
        <time>2017-03-15T08:50:01.794Z</time>
      </trkpt>
      <trkpt lat="46.44019" lon="6.89533">
        <ele>387.4</ele>
        <time>2017-03-15T08:50:04.660Z</time>
      </trkpt>
      <trkpt lat="46.4402" lon="6.89548">
        <ele>387</ele>
        <time>2017-03-15T08:50:07.527Z</time>
      </trkpt>
      <trkpt lat="46.44023" lon="6.89598">
        <ele>385.2</ele>
        <time>2017-03-15T08:50:10.399Z</time>
      </trkpt>
      <trkpt lat="46.44023" lon="6.89601">
        <ele>385.1</ele>
        <time>2017-03-15T08:50:13.271Z</time>
      </trkpt>
      <trkpt lat="46.44028" lon="6.89662">
        <ele>386</ele>
        <time>2017-03-15T08:50:16.149Z</time>
      </trkpt>
      <trkpt lat="46.44039" lon="6.89791">
        <ele>385.3</ele>
        <time>2017-03-15T08:50:19.039Z</time>
      </trkpt>
      <trkpt lat="46.44042" lon="6.89819">
        <ele>382.2</ele>
        <time>2017-03-15T08:50:21.931Z</time>
      </trkpt>
      <trkpt lat="46.44047" lon="6.89839">
        <ele>381.8</ele>
        <time>2017-03-15T08:50:24.825Z</time>
      </trkpt>
      <trkpt lat="46.44062" lon="6.89908">
        <ele>382.4</ele>
        <time>2017-03-15T08:50:27.726Z</time>
      </trkpt>
      <trkpt lat="46.44067" lon="6.89944">
        <ele>382.7</ele>
        <time>2017-03-15T08:50:30.630Z</time>
      </trkpt>
      <trkpt lat="46.44076" lon="6.90045">
        <ele>383.8</ele>
        <time>2017-03-15T08:50:33.544Z</time>
      </trkpt>
      <trkpt lat="46.44082" lon="6.90104">
        <ele>386.3</ele>
        <time>2017-03-15T08:50:36.463Z</time>
      </trkpt>
      <trkpt lat="46.44081" lon="6.90166">
        <ele>388.6</ele>
        <time>2017-03-15T08:50:39.388Z</time>
      </trkpt>
      <trkpt lat="46.44079" lon="6.9019">
        <ele>389.5</ele>
        <time>2017-03-15T08:50:42.315Z</time>
      </trkpt>
      <trkpt lat="46.44074" lon="6.90214">
        <ele>389.1</ele>
        <time>2017-03-15T08:50:45.244Z</time>
      </trkpt>
      <trkpt lat="46.44063" lon="6.9025">
        <ele>388.9</ele>
        <time>2017-03-15T08:50:48.177Z</time>
      </trkpt>
      <trkpt lat="46.44047" lon="6.90292">
        <ele>392.3</ele>
        <time>2017-03-15T08:50:51.114Z</time>
      </trkpt>
      <trkpt lat="46.44029" lon="6.90333">
        <ele>393.3</ele>
        <time>2017-03-15T08:50:54.056Z</time>
      </trkpt>
      <trkpt lat="46.43994" lon="6.90406">
        <ele>391.2</ele>
        <time>2017-03-15T08:50:57.006Z</time>
      </trkpt>
      <trkpt lat="46.4392" lon="6.90536">
        <ele>390</ele>
        <time>2017-03-15T08:50:59.972Z</time>
      </trkpt>
      <trkpt lat="46.43882" lon="6.90603">
        <ele>389.1</ele>
        <time>2017-03-15T08:51:02.946Z</time>
      </trkpt>
      <trkpt lat="46.43847" lon="6.90649">
        <ele>389.8</ele>
        <time>2017-03-15T08:51:05.926Z</time>
      </trkpt>
      <trkpt lat="46.43808" lon="6.90703">
        <ele>389.4</ele>
        <time>2017-03-15T08:51:08.913Z</time>
      </trkpt>
      <trkpt lat="46.43743" lon="6.90789">
        <ele>389.5</ele>
        <time>2017-03-15T08:51:11.912Z</time>
      </trkpt>
      <trkpt lat="46.43721" lon="6.90814">
        <ele>390.2</ele>
        <time>2017-03-15T08:51:14.915Z</time>
      </trkpt>
      <trkpt lat="46.43673" lon="6.9086">
        <ele>392.6</ele>
        <time>2017-03-15T08:51:17.925Z</time>
      </trkpt>
      <trkpt lat="46.43607" lon="6.90917">
        <ele>389.2</ele>
        <time>2017-03-15T08:51:20.946Z</time>
      </trkpt>
      <trkpt lat="46.43547" lon="6.90963">
        <ele>390.4</ele>
        <time>2017-03-15T08:51:23.976Z</time>
      </trkpt>
      <trkpt lat="46.43536" lon="6.90972">
        <ele>390.7</ele>
        <time>2017-03-15T08:51:27.007Z</time>
      </trkpt>
      <trkpt lat="46.43495" lon="6.90989">
        <ele>389.8</ele>
        <time>2017-03-15T08:51:30.044Z</time>
      </trkpt>
      <trkpt lat="46.43462" lon="6.90997">
        <ele>388.6</ele>
        <time>2017-03-15T08:51:33.085Z</time>
      </trkpt>
      <trkpt lat="46.43443" lon="6.91">
        <ele>387.9</ele>
        <time>2017-03-15T08:51:36.129Z</time>
      </trkpt>
      <trkpt lat="46.43394" lon="6.91007">
        <ele>387.4</ele>
        <time>2017-03-15T08:51:39.179Z</time>
      </trkpt>
      <trkpt lat="46.43345" lon="6.91014">
        <ele>388.4</ele>
        <time>2017-03-15T08:51:42.236Z</time>
      </trkpt>
      <trkpt lat="46.43341" lon="6.91015">
        <ele>388.6</ele>
        <time>2017-03-15T08:51:45.294Z</time>
      </trkpt>
      <trkpt lat="46.4331" lon="6.91013">
        <ele>388.5</ele>
        <time>2017-03-15T08:51:48.356Z</time>
      </trkpt>
      <trkpt lat="46.43296" lon="6.91015">
        <ele>388.6</ele>
        <time>2017-03-15T08:51:51.420Z</time>
      </trkpt>
      <trkpt lat="46.4329" lon="6.91016">
        <ele>388.7</ele>
        <time>2017-03-15T08:51:54.484Z</time>
      </trkpt>
      <trkpt lat="46.4329" lon="6.91018">
        <ele>389</ele>
        <time>2017-03-15T08:51:57.549Z</time>
      </trkpt>
      <trkpt lat="46.43289" lon="6.9102">
        <ele>389.3</ele>
        <time>2017-03-15T08:52:00.614Z</time>
      </trkpt>
      <trkpt lat="46.43288" lon="6.91022">
        <ele>389.6</ele>
        <time>2017-03-15T08:52:03.679Z</time>
      </trkpt>
      <trkpt lat="46.43285" lon="6.91024">
        <ele>389.9</ele>
        <time>2017-03-15T08:52:06.745Z</time>
      </trkpt>
      <trkpt lat="46.43282" lon="6.91022">
        <ele>389.6</ele>
        <time>2017-03-15T08:52:09.811Z</time>
      </trkpt>
      <trkpt lat="46.43281" lon="6.9102">
        <ele>389.2</ele>
        <time>2017-03-15T08:52:12.877Z</time>
      </trkpt>
      <trkpt lat="46.4328" lon="6.91019">
        <ele>389.1</ele>
        <time>2017-03-15T08:52:15.943Z</time>
      </trkpt>
      <trkpt lat="46.43256" lon="6.9102">
        <ele>388.9</ele>
        <time>2017-03-15T08:52:19.013Z</time>
      </trkpt>
      <trkpt lat="46.4321" lon="6.91033">
        <ele>391.2</ele>
        <time>2017-03-15T08:52:22.089Z</time>
      </trkpt>
      <trkpt lat="46.43138" lon="6.9106">
        <ele>390.1</ele>
        <time>2017-03-15T08:52:25.175Z</time>
      </trkpt>
      <trkpt lat="46.43115" lon="6.91072">
        <ele>391.2</ele>
        <time>2017-03-15T08:52:28.264Z</time>
      </trkpt>
      <trkpt lat="46.43091" lon="6.9109">
        <ele>392.5</ele>
        <time>2017-03-15T08:52:31.357Z</time>
      </trkpt>
      <trkpt lat="46.43073" lon="6.91119">
        <ele>392.9</ele>
        <time>2017-03-15T08:52:34.453Z</time>
      </trkpt>
      <trkpt lat="46.43045" lon="6.91198">
        <ele>392.3</ele>
        <time>2017-03-15T08:52:37.557Z</time>
      </trkpt>
      <trkpt lat="46.43032" lon="6.91244">
        <ele>390.9</ele>
        <time>2017-03-15T08:52:40.666Z</time>
      </trkpt>
      <trkpt lat="46.43027" lon="6.91281">
        <ele>391.3</ele>
        <time>2017-03-15T08:52:43.778Z</time>
      </trkpt>
      <trkpt lat="46.43027" lon="6.91382">
        <ele>392.6</ele>
        <time>2017-03-15T08:52:46.900Z</time>
      </trkpt>
      <trkpt lat="46.43027" lon="6.91392">
        <ele>392.9</ele>
        <time>2017-03-15T08:52:50.023Z</time>
      </trkpt>
      <trkpt lat="46.43021" lon="6.91453">
        <ele>393.6</ele>
        <time>2017-03-15T08:52:53.151Z</time>
      </trkpt>
      <trkpt lat="46.43018" lon="6.91489">
        <ele>393.6</ele>
        <time>2017-03-15T08:52:56.283Z</time>
      </trkpt>
      <trkpt lat="46.43019" lon="6.91525">
        <ele>394.2</ele>
        <time>2017-03-15T08:52:59.418Z</time>
      </trkpt>
      <trkpt lat="46.43019" lon="6.91532">
        <ele>393.9</ele>
        <time>2017-03-15T08:53:02.554Z</time>
      </trkpt>
      <trkpt lat="46.43024" lon="6.91597">
        <ele>392.8</ele>
        <time>2017-03-15T08:53:05.696Z</time>
      </trkpt>
      <trkpt lat="46.43025" lon="6.91617">
        <ele>393.3</ele>
        <time>2017-03-15T08:53:08.840Z</time>
      </trkpt>
      <trkpt lat="46.43029" lon="6.91663">
        <ele>395.3</ele>
        <time>2017-03-15T08:53:11.988Z</time>
      </trkpt>
      <trkpt lat="46.43035" lon="6.91719">
        <ele>398.9</ele>
        <time>2017-03-15T08:53:15.141Z</time>
      </trkpt>
      <trkpt lat="46.43035" lon="6.91749">
        <ele>401.1</ele>
        <time>2017-03-15T08:53:18.297Z</time>
      </trkpt>
      <trkpt lat="46.4303" lon="6.91773">
        <ele>402.7</ele>
        <time>2017-03-15T08:53:21.455Z</time>
      </trkpt>
      <trkpt lat="46.43007" lon="6.91865">
        <ele>408.2</ele>
        <time>2017-03-15T08:53:24.622Z</time>
      </trkpt>
      <trkpt lat="46.42992" lon="6.91912">
        <ele>412.5</ele>
        <time>2017-03-15T08:53:27.794Z</time>
      </trkpt>
      <trkpt lat="46.42956" lon="6.91989">
        <ele>415.1</ele>
        <time>2017-03-15T08:53:30.975Z</time>
      </trkpt>
      <trkpt lat="46.42917" lon="6.92056">
        <ele>416.8</ele>
        <time>2017-03-15T08:53:34.164Z</time>
      </trkpt>
      <trkpt lat="46.42902" lon="6.92078">
        <ele>414.7</ele>
        <time>2017-03-15T08:53:37.355Z</time>
      </trkpt>
      <trkpt lat="46.42856" lon="6.92133">
        <ele>416.4</ele>
        <time>2017-03-15T08:53:40.554Z</time>
      </trkpt>
      <trkpt lat="46.42808" lon="6.92179">
        <ele>411.2</ele>
        <time>2017-03-15T08:53:43.761Z</time>
      </trkpt>
      <trkpt lat="46.42759" lon="6.92224">
        <ele>408.5</ele>
        <time>2017-03-15T08:53:46.976Z</time>
      </trkpt>
      <trkpt lat="46.42726" lon="6.92251">
        <ele>405.1</ele>
        <time>2017-03-15T08:53:50.196Z</time>
      </trkpt>
      <trkpt lat="46.42679" lon="6.92283">
        <ele>400.9</ele>
        <time>2017-03-15T08:53:53.423Z</time>
      </trkpt>
      <trkpt lat="46.42638" lon="6.92308">
        <ele>393.1</ele>
        <time>2017-03-15T08:53:56.656Z</time>
      </trkpt>
      <trkpt lat="46.42617" lon="6.92316">
        <ele>393.5</ele>
        <time>2017-03-15T08:53:59.892Z</time>
      </trkpt>
      <trkpt lat="46.42571" lon="6.92343">
        <ele>398.2</ele>
        <time>2017-03-15T08:54:03.134Z</time>
      </trkpt>
      <trkpt lat="46.42535" lon="6.92369">
        <ele>400.9</ele>
        <time>2017-03-15T08:54:06.382Z</time>
      </trkpt>
      <trkpt lat="46.42488" lon="6.92414">
        <ele>408</ele>
        <time>2017-03-15T08:54:09.637Z</time>
      </trkpt>
      <trkpt lat="46.42467" lon="6.92446">
        <ele>409.1</ele>
        <time>2017-03-15T08:54:12.896Z</time>
      </trkpt>
      <trkpt lat="46.42417" lon="6.92534">
        <ele>412.7</ele>
        <time>2017-03-15T08:54:16.166Z</time>
      </trkpt>
      <trkpt lat="46.42409" lon="6.92545">
        <ele>412.5</ele>
        <time>2017-03-15T08:54:19.437Z</time>
      </trkpt>
      <trkpt lat="46.42392" lon="6.92556">
        <ele>411.2</ele>
        <time>2017-03-15T08:54:22.711Z</time>
      </trkpt>
      <trkpt lat="46.42373" lon="6.92561">
        <ele>410</ele>
        <time>2017-03-15T08:54:25.987Z</time>
      </trkpt>
      <trkpt lat="46.42346" lon="6.92561">
        <ele>407.4</ele>
        <time>2017-03-15T08:54:29.267Z</time>
      </trkpt>
      <trkpt lat="46.42288" lon="6.92545">
        <ele>404.2</ele>
        <time>2017-03-15T08:54:32.555Z</time>
      </trkpt>
      <trkpt lat="46.42266" lon="6.9254">
        <ele>404.7</ele>
        <time>2017-03-15T08:54:35.846Z</time>
      </trkpt>
      <trkpt lat="46.42262" lon="6.9254">
        <ele>404.9</ele>
        <time>2017-03-15T08:54:39.137Z</time>
      </trkpt>
      <trkpt lat="46.42235" lon="6.92539">
        <ele>406.1</ele>
        <time>2017-03-15T08:54:42.432Z</time>
      </trkpt>
      <trkpt lat="46.42218" lon="6.92541">
        <ele>405.8</ele>
        <time>2017-03-15T08:54:45.729Z</time>
      </trkpt>
      <trkpt lat="46.42211" lon="6.92543">
        <ele>405.7</ele>
        <time>2017-03-15T08:54:49.027Z</time>
      </trkpt>
      <trkpt lat="46.42183" lon="6.92552">
        <ele>405.6</ele>
        <time>2017-03-15T08:54:52.329Z</time>
      </trkpt>
      <trkpt lat="46.42162" lon="6.9256">
        <ele>405.8</ele>
        <time>2017-03-15T08:54:55.634Z</time>
      </trkpt>
      <trkpt lat="46.42112" lon="6.92577">
        <ele>406.5</ele>
        <time>2017-03-15T08:54:58.946Z</time>
      </trkpt>
      <trkpt lat="46.42109" lon="6.92578">
        <ele>406.6</ele>
        <time>2017-03-15T08:55:02.258Z</time>
      </trkpt>
      <trkpt lat="46.42066" lon="6.92592">
        <ele>406.6</ele>
        <time>2017-03-15T08:55:05.576Z</time>
      </trkpt>
      <trkpt lat="46.42028" lon="6.92606">
        <ele>401.4</ele>
        <time>2017-03-15T08:55:08.899Z</time>
      </trkpt>
      <trkpt lat="46.42006" lon="6.92616">
        <ele>399.7</ele>
        <time>2017-03-15T08:55:12.225Z</time>
      </trkpt>
      <trkpt lat="46.41988" lon="6.92635">
        <ele>400.5</ele>
        <time>2017-03-15T08:55:15.554Z</time>
      </trkpt>
      <trkpt lat="46.41956" lon="6.92687">
        <ele>399.5</ele>
        <time>2017-03-15T08:55:18.890Z</time>
      </trkpt>
      <trkpt lat="46.41906" lon="6.92792">
        <ele>402.8</ele>
        <time>2017-03-15T08:55:22.237Z</time>
      </trkpt>
      <trkpt lat="46.41895" lon="6.92808">
        <ele>403.3</ele>
        <time>2017-03-15T08:55:25.586Z</time>
      </trkpt>
      <trkpt lat="46.41882" lon="6.9282">
        <ele>404.4</ele>
        <time>2017-03-15T08:55:28.938Z</time>
      </trkpt>
      <trkpt lat="46.41866" lon="6.92831">
        <ele>407.3</ele>
        <time>2017-03-15T08:55:32.292Z</time>
      </trkpt>
      <trkpt lat="46.41851" lon="6.92837">
        <ele>408.9</ele>
        <time>2017-03-15T08:55:35.648Z</time>
      </trkpt>
      <trkpt lat="46.41827" lon="6.92843">
        <ele>412.6</ele>
        <time>2017-03-15T08:55:39.007Z</time>
      </trkpt>
      <trkpt lat="46.41809" lon="6.92841">
        <ele>415.4</ele>
        <time>2017-03-15T08:55:42.369Z</time>
      </trkpt>
      <trkpt lat="46.41775" lon="6.92828">
        <ele>409.7</ele>
        <time>2017-03-15T08:55:45.735Z</time>
      </trkpt>
      <trkpt lat="46.41753" lon="6.92816">
        <ele>405.1</ele>
        <time>2017-03-15T08:55:49.104Z</time>
      </trkpt>
      <trkpt lat="46.4173" lon="6.9281">
        <ele>404.2</ele>
        <time>2017-03-15T08:55:52.477Z</time>
      </trkpt>
      <trkpt lat="46.41677" lon="6.92811">
        <ele>402.2</ele>
        <time>2017-03-15T08:55:55.857Z</time>
      </trkpt>
      <trkpt lat="46.4159" lon="6.92813">
        <ele>397.3</ele>
        <time>2017-03-15T08:55:59.248Z</time>
      </trkpt>
      <trkpt lat="46.41553" lon="6.92816">
        <ele>396</ele>
        <time>2017-03-15T08:56:02.644Z</time>
      </trkpt>
      <trkpt lat="46.41526" lon="6.9282">
        <ele>393.1</ele>
        <time>2017-03-15T08:56:06.044Z</time>
      </trkpt>
      <trkpt lat="46.41504" lon="6.92825">
        <ele>391.7</ele>
        <time>2017-03-15T08:56:09.447Z</time>
      </trkpt>
      <trkpt lat="46.41473" lon="6.92836">
        <ele>394.1</ele>
        <time>2017-03-15T08:56:12.854Z</time>
      </trkpt>
      <trkpt lat="46.41436" lon="6.92857">
        <ele>402.8</ele>
        <time>2017-03-15T08:56:16.266Z</time>
      </trkpt>
      <trkpt lat="46.41418" lon="6.92869">
        <ele>401.6</ele>
        <time>2017-03-15T08:56:19.681Z</time>
      </trkpt>
      <trkpt lat="46.41344" lon="6.92939">
        <ele>408.1</ele>
        <time>2017-03-15T08:56:23.108Z</time>
      </trkpt>
      <trkpt lat="46.41273" lon="6.93005">
        <ele>406.1</ele>
        <time>2017-03-15T08:56:26.546Z</time>
      </trkpt>
      <trkpt lat="46.4127" lon="6.93008">
        <ele>406.5</ele>
        <time>2017-03-15T08:56:29.985Z</time>
      </trkpt>
      <trkpt lat="46.41235" lon="6.93041">
        <ele>404.4</ele>
        <time>2017-03-15T08:56:33.429Z</time>
      </trkpt>
      <trkpt lat="46.4123" lon="6.93045">
        <ele>403.9</ele>
        <time>2017-03-15T08:56:36.874Z</time>
      </trkpt>
      <trkpt lat="46.41211" lon="6.9306">
        <ele>404.1</ele>
        <time>2017-03-15T08:56:40.322Z</time>
      </trkpt>
      <trkpt lat="46.41197" lon="6.93068">
        <ele>400.4</ele>
        <time>2017-03-15T08:56:43.772Z</time>
      </trkpt>
      <trkpt lat="46.41182" lon="6.93074">
        <ele>396.1</ele>
        <time>2017-03-15T08:56:47.224Z</time>
      </trkpt>
      <trkpt lat="46.41133" lon="6.93092">
        <ele>391.1</ele>
        <time>2017-03-15T08:56:50.683Z</time>
      </trkpt>
      <trkpt lat="46.41132" lon="6.93092">
        <ele>391.2</ele>
        <time>2017-03-15T08:56:54.142Z</time>
      </trkpt>
      <trkpt lat="46.41086" lon="6.93106">
        <ele>395.3</ele>
        <time>2017-03-15T08:56:57.607Z</time>
      </trkpt>
      <trkpt lat="46.41042" lon="6.9312">
        <ele>393.6</ele>
        <time>2017-03-15T08:57:01.078Z</time>
      </trkpt>
      <trkpt lat="46.4099" lon="6.93133">
        <ele>391.6</ele>
        <time>2017-03-15T08:57:04.556Z</time>
      </trkpt>
      <trkpt lat="46.40949" lon="6.93141">
        <ele>392.3</ele>
        <time>2017-03-15T08:57:08.040Z</time>
      </trkpt>
      <trkpt lat="46.40895" lon="6.93146">
        <ele>392.7</ele>
        <time>2017-03-15T08:57:11.531Z</time>
      </trkpt>
      <trkpt lat="46.40864" lon="6.9315">
        <ele>392.5</ele>
        <time>2017-03-15T08:57:15.026Z</time>
      </trkpt>
      <trkpt lat="46.40842" lon="6.93149">
        <ele>391.6</ele>
        <time>2017-03-15T08:57:18.524Z</time>
      </trkpt>
      <trkpt lat="46.40801" lon="6.93139">
        <ele>388.9</ele>
        <time>2017-03-15T08:57:22.027Z</time>
      </trkpt>
      <trkpt lat="46.40716" lon="6.93108">
        <ele>386.5</ele>
        <time>2017-03-15T08:57:25.542Z</time>
      </trkpt>
      <trkpt lat="46.40661" lon="6.93082">
        <ele>386.5</ele>
        <time>2017-03-15T08:57:29.065Z</time>
      </trkpt>
      <trkpt lat="46.40632" lon="6.93064">
        <ele>386.5</ele>
        <time>2017-03-15T08:57:32.592Z</time>
      </trkpt>
      <trkpt lat="46.40604" lon="6.93042">
        <ele>386.6</ele>
        <time>2017-03-15T08:57:36.123Z</time>
      </trkpt>
      <trkpt lat="46.40582" lon="6.93022">
        <ele>386.3</ele>
        <time>2017-03-15T08:57:39.658Z</time>
      </trkpt>
      <trkpt lat="46.40495" lon="6.92944">
        <ele>384.9</ele>
        <time>2017-03-15T08:57:43.206Z</time>
      </trkpt>
      <trkpt lat="46.40431" lon="6.92896">
        <ele>382.5</ele>
        <time>2017-03-15T08:57:46.764Z</time>
      </trkpt>
      <trkpt lat="46.40362" lon="6.92851">
        <ele>382</ele>
        <time>2017-03-15T08:57:50.332Z</time>
      </trkpt>
      <trkpt lat="46.40344" lon="6.9284">
        <ele>381.6</ele>
        <time>2017-03-15T08:57:53.903Z</time>
      </trkpt>
      <trkpt lat="46.40297" lon="6.92809">
        <ele>381.7</ele>
        <time>2017-03-15T08:57:57.481Z</time>
      </trkpt>
      <trkpt lat="46.40257" lon="6.92784">
        <ele>384.1</ele>
        <time>2017-03-15T08:58:01.064Z</time>
      </trkpt>
      <trkpt lat="46.4025" lon="6.92778">
        <ele>384.4</ele>
        <time>2017-03-15T08:58:04.648Z</time>
      </trkpt>
      <trkpt lat="46.40242" lon="6.92771">
        <ele>384.7</ele>
        <time>2017-03-15T08:58:08.234Z</time>
      </trkpt>
      <trkpt lat="46.40236" lon="6.92765">
        <ele>384.8</ele>
        <time>2017-03-15T08:58:11.821Z</time>
      </trkpt>
      <trkpt lat="46.40213" lon="6.92727">
        <ele>383</ele>
        <time>2017-03-15T08:58:15.412Z</time>
      </trkpt>
      <trkpt lat="46.40193" lon="6.92693">
        <ele>382.3</ele>
        <time>2017-03-15T08:58:19.008Z</time>
      </trkpt>
      <trkpt lat="46.40182" lon="6.92675">
        <ele>382</ele>
        <time>2017-03-15T08:58:22.606Z</time>
      </trkpt>
      <trkpt lat="46.40139" lon="6.92605">
        <ele>379.9</ele>
        <time>2017-03-15T08:58:26.212Z</time>
      </trkpt>
      <trkpt lat="46.40123" lon="6.92586">
        <ele>378.8</ele>
        <time>2017-03-15T08:58:29.821Z</time>
      </trkpt>
      <trkpt lat="46.4011" lon="6.92573">
        <ele>378</ele>
        <time>2017-03-15T08:58:33.432Z</time>
      </trkpt>
      <trkpt lat="46.40098" lon="6.92564">
        <ele>377</ele>
        <time>2017-03-15T08:58:37.045Z</time>
      </trkpt>
      <trkpt lat="46.40094" lon="6.92562">
        <ele>376.7</ele>
        <time>2017-03-15T08:58:40.659Z</time>
      </trkpt>
      <trkpt lat="46.40085" lon="6.92557">
        <ele>376.1</ele>
        <time>2017-03-15T08:58:44.274Z</time>
      </trkpt>
      <trkpt lat="46.40068" lon="6.92554">
        <ele>375.4</ele>
        <time>2017-03-15T08:58:47.891Z</time>
      </trkpt>
      <trkpt lat="46.4002" lon="6.92556">
        <ele>374.9</ele>
        <time>2017-03-15T08:58:51.515Z</time>
      </trkpt>
      <trkpt lat="46.39974" lon="6.92551">
        <ele>373.6</ele>
        <time>2017-03-15T08:58:55.145Z</time>
      </trkpt>
      <trkpt lat="46.39939" lon="6.92543">
        <ele>373.2</ele>
        <time>2017-03-15T08:58:58.779Z</time>
      </trkpt>
      <trkpt lat="46.39913" lon="6.92534">
        <ele>372.6</ele>
        <time>2017-03-15T08:59:02.417Z</time>
      </trkpt>
      <trkpt lat="46.39883" lon="6.9252">
        <ele>373.2</ele>
        <time>2017-03-15T08:59:06.059Z</time>
      </trkpt>
      <trkpt lat="46.39853" lon="6.92504">
        <ele>375.2</ele>
        <time>2017-03-15T08:59:09.705Z</time>
      </trkpt>
      <trkpt lat="46.3983" lon="6.92485">
        <ele>376.2</ele>
        <time>2017-03-15T08:59:13.355Z</time>
      </trkpt>
      <trkpt lat="46.39778" lon="6.9244">
        <ele>375.9</ele>
        <time>2017-03-15T08:59:17.013Z</time>
      </trkpt>
      <trkpt lat="46.39725" lon="6.92395">
        <ele>374.8</ele>
        <time>2017-03-15T08:59:20.679Z</time>
      </trkpt>
      <trkpt lat="46.39693" lon="6.92363">
        <ele>375.1</ele>
        <time>2017-03-15T08:59:24.351Z</time>
      </trkpt>
      <trkpt lat="46.39638" lon="6.92289">
        <ele>375.1</ele>
        <time>2017-03-15T08:59:28.033Z</time>
      </trkpt>
      <trkpt lat="46.39615" lon="6.92258">
        <ele>374.8</ele>
        <time>2017-03-15T08:59:31.719Z</time>
      </trkpt>
      <trkpt lat="46.396" lon="6.92242">
        <ele>374.8</ele>
        <time>2017-03-15T08:59:35.407Z</time>
      </trkpt>
      <trkpt lat="46.39589" lon="6.92232">
        <ele>375</ele>
        <time>2017-03-15T08:59:39.097Z</time>
      </trkpt>
      <trkpt lat="46.39568" lon="6.92219">
        <ele>375.6</ele>
        <time>2017-03-15T08:59:42.790Z</time>
      </trkpt>
      <trkpt lat="46.39541" lon="6.92208">
        <ele>375.6</ele>
        <time>2017-03-15T08:59:46.487Z</time>
      </trkpt>
      <trkpt lat="46.39515" lon="6.92201">
        <ele>375.5</ele>
        <time>2017-03-15T08:59:50.187Z</time>
      </trkpt>
      <trkpt lat="46.39338" lon="6.92174">
        <ele>374.4</ele>
        <time>2017-03-15T08:59:53.911Z</time>
      </trkpt>
      <trkpt lat="46.39282" lon="6.92166">
        <ele>373.9</ele>
        <time>2017-03-15T08:59:57.642Z</time>
      </trkpt>
      <trkpt lat="46.39231" lon="6.92159">
        <ele>374</ele>
        <time>2017-03-15T09:00:01.380Z</time>
      </trkpt>
      <trkpt lat="46.39203" lon="6.92155">
        <ele>374.3</ele>
        <time>2017-03-15T09:00:05.122Z</time>
      </trkpt>
      <trkpt lat="46.39179" lon="6.92151">
        <ele>374.6</ele>
        <time>2017-03-15T09:00:08.867Z</time>
      </trkpt>
      <trkpt lat="46.39127" lon="6.92142">
        <ele>375.3</ele>
        <time>2017-03-15T09:00:12.619Z</time>
      </trkpt>
      <trkpt lat="46.3908" lon="6.92134">
        <ele>376.4</ele>
        <time>2017-03-15T09:00:16.378Z</time>
      </trkpt>
      <trkpt lat="46.38893" lon="6.92104">
        <ele>377</ele>
        <time>2017-03-15T09:00:20.162Z</time>
      </trkpt>
      <trkpt lat="46.38872" lon="6.92101">
        <ele>377</ele>
        <time>2017-03-15T09:00:23.949Z</time>
      </trkpt>
      <trkpt lat="46.38842" lon="6.92097">
        <ele>377</ele>
        <time>2017-03-15T09:00:27.740Z</time>
      </trkpt>
      <trkpt lat="46.38794" lon="6.9209">
        <ele>376.2</ele>
        <time>2017-03-15T09:00:31.537Z</time>
      </trkpt>
      <trkpt lat="46.3879" lon="6.92087">
        <ele>376.2</ele>
        <time>2017-03-15T09:00:35.335Z</time>
      </trkpt>
      <trkpt lat="46.38787" lon="6.92084">
        <ele>376.3</ele>
        <time>2017-03-15T09:00:39.133Z</time>
      </trkpt>
      <trkpt lat="46.38765" lon="6.92081">
        <ele>376.1</ele>
        <time>2017-03-15T09:00:42.934Z</time>
      </trkpt>
      <trkpt lat="46.38739" lon="6.9208">
        <ele>375.9</ele>
        <time>2017-03-15T09:00:46.738Z</time>
      </trkpt>
      <trkpt lat="46.38739" lon="6.9208">
        <ele>375.9</ele>
        <time>2017-03-15T09:00:50.542Z</time>
      </trkpt>
      <trkpt lat="46.38727" lon="6.92076">
        <ele>376.1</ele>
        <time>2017-03-15T09:00:54.348Z</time>
      </trkpt>
      <trkpt lat="46.38719" lon="6.92071">
        <ele>376.1</ele>
        <time>2017-03-15T09:00:58.155Z</time>
      </trkpt>
      <trkpt lat="46.38716" lon="6.92068">
        <ele>376</ele>
        <time>2017-03-15T09:01:01.963Z</time>
      </trkpt>
      <trkpt lat="46.38712" lon="6.92067">
        <ele>376</ele>
        <time>2017-03-15T09:01:05.771Z</time>
      </trkpt>
      <trkpt lat="46.38707" lon="6.92068">
        <ele>376.1</ele>
        <time>2017-03-15T09:01:09.580Z</time>
      </trkpt>
      <trkpt lat="46.38709" lon="6.92049">
        <ele>375.4</ele>
        <time>2017-03-15T09:01:13.391Z</time>
      </trkpt>
      <trkpt lat="46.3871" lon="6.92015">
        <ele>375</ele>
        <time>2017-03-15T09:01:17.205Z</time>
      </trkpt>
      <trkpt lat="46.38708" lon="6.91957">
        <ele>375.1</ele>
        <time>2017-03-15T09:01:21.024Z</time>
      </trkpt>
      <trkpt lat="46.38706" lon="6.91923">
        <ele>375.5</ele>
        <time>2017-03-15T09:01:24.846Z</time>
      </trkpt>
      <trkpt lat="46.38697" lon="6.9189">
        <ele>377</ele>
        <time>2017-03-15T09:01:28.672Z</time>
      </trkpt>
      <trkpt lat="46.38684" lon="6.91877">
        <ele>377.9</ele>
        <time>2017-03-15T09:01:32.500Z</time>
      </trkpt>
      <trkpt lat="46.38657" lon="6.91864">
        <ele>378.7</ele>
        <time>2017-03-15T09:01:36.332Z</time>
      </trkpt>
      <trkpt lat="46.38631" lon="6.91848">
        <ele>378.3</ele>
        <time>2017-03-15T09:01:40.167Z</time>
      </trkpt>
      <trkpt lat="46.38605" lon="6.91822">
        <ele>377.9</ele>
        <time>2017-03-15T09:01:44.007Z</time>
      </trkpt>
      <trkpt lat="46.38567" lon="6.91767">
        <ele>375.6</ele>
        <time>2017-03-15T09:01:47.854Z</time>
      </trkpt>
      <trkpt lat="46.3853" lon="6.91693">
        <ele>375.6</ele>
        <time>2017-03-15T09:01:51.709Z</time>
      </trkpt>
      <trkpt lat="46.38506" lon="6.91642">
        <ele>374.9</ele>
        <time>2017-03-15T09:01:55.570Z</time>
      </trkpt>
      <trkpt lat="46.38483" lon="6.91575">
        <ele>373.1</ele>
        <time>2017-03-15T09:01:59.438Z</time>
      </trkpt>
      <trkpt lat="46.38464" lon="6.9146">
        <ele>373</ele>
        <time>2017-03-15T09:02:03.317Z</time>
      </trkpt>
      <trkpt lat="46.38452" lon="6.91376">
        <ele>373.7</ele>
        <time>2017-03-15T09:02:07.204Z</time>
      </trkpt>
      <trkpt lat="46.38433" lon="6.91286">
        <ele>374.6</ele>
        <time>2017-03-15T09:02:11.099Z</time>
      </trkpt>
      <trkpt lat="46.38421" lon="6.91242">
        <ele>374.7</ele>
        <time>2017-03-15T09:02:14.999Z</time>
      </trkpt>
      <trkpt lat="46.38399" lon="6.91186">
        <ele>374.3</ele>
        <time>2017-03-15T09:02:18.905Z</time>
      </trkpt>
      <trkpt lat="46.38381" lon="6.91145">
        <ele>374</ele>
        <time>2017-03-15T09:02:22.815Z</time>
      </trkpt>
      <trkpt lat="46.38339" lon="6.91067">
        <ele>373.2</ele>
        <time>2017-03-15T09:02:26.734Z</time>
      </trkpt>
      <trkpt lat="46.38327" lon="6.91043">
        <ele>373.7</ele>
        <time>2017-03-15T09:02:30.656Z</time>
      </trkpt>
      <trkpt lat="46.38319" lon="6.91027">
        <ele>374.1</ele>
        <time>2017-03-15T09:02:34.580Z</time>
      </trkpt>
      <trkpt lat="46.38305" lon="6.90986">
        <ele>375.2</ele>
        <time>2017-03-15T09:02:38.508Z</time>
      </trkpt>
      <trkpt lat="46.38302" lon="6.90975">
        <ele>375.3</ele>
        <time>2017-03-15T09:02:42.437Z</time>
      </trkpt>
      <trkpt lat="46.38286" lon="6.90901">
        <ele>376.3</ele>
        <time>2017-03-15T09:02:46.373Z</time>
      </trkpt>
      <trkpt lat="46.3827" lon="6.90833">
        <ele>375.7</ele>
        <time>2017-03-15T09:02:50.316Z</time>
      </trkpt>
      <trkpt lat="46.38269" lon="6.90827">
        <ele>375.6</ele>
        <time>2017-03-15T09:02:54.259Z</time>
      </trkpt>
      <trkpt lat="46.38261" lon="6.90782">
        <ele>375.6</ele>
        <time>2017-03-15T09:02:58.207Z</time>
      </trkpt>
      <trkpt lat="46.38258" lon="6.90757">
        <ele>375.6</ele>
        <time>2017-03-15T09:03:02.157Z</time>
      </trkpt>
      <trkpt lat="46.38253" lon="6.9054">
        <ele>374.9</ele>
        <time>2017-03-15T09:03:06.127Z</time>
      </trkpt>
      <trkpt lat="46.38245" lon="6.9047">
        <ele>374.2</ele>
        <time>2017-03-15T09:03:10.104Z</time>
      </trkpt>
      <trkpt lat="46.38234" lon="6.90411">
        <ele>374.9</ele>
        <time>2017-03-15T09:03:14.086Z</time>
      </trkpt>
      <trkpt lat="46.38224" lon="6.90312">
        <ele>376</ele>
        <time>2017-03-15T09:03:18.078Z</time>
      </trkpt>
      <trkpt lat="46.3822" lon="6.90261">
        <ele>376.6</ele>
        <time>2017-03-15T09:03:22.074Z</time>
      </trkpt>
      <trkpt lat="46.38215" lon="6.90182">
        <ele>376.5</ele>
        <time>2017-03-15T09:03:26.078Z</time>
      </trkpt>
      <trkpt lat="46.38213" lon="6.9016">
        <ele>376.3</ele>
        <time>2017-03-15T09:03:30.084Z</time>
      </trkpt>
      <trkpt lat="46.38209" lon="6.90102">
        <ele>375.7</ele>
        <time>2017-03-15T09:03:34.095Z</time>
      </trkpt>
      <trkpt lat="46.38208" lon="6.90091">
        <ele>375.7</ele>
        <time>2017-03-15T09:03:38.107Z</time>
      </trkpt>
      <trkpt lat="46.38206" lon="6.90081">
        <ele>375.7</ele>
        <time>2017-03-15T09:03:42.120Z</time>
      </trkpt>
      <trkpt lat="46.38195" lon="6.90025">
        <ele>375.1</ele>
        <time>2017-03-15T09:03:46.138Z</time>
      </trkpt>
      <trkpt lat="46.38195" lon="6.90024">
        <ele>375.1</ele>
        <time>2017-03-15T09:03:50.156Z</time>
      </trkpt>
      <trkpt lat="46.38193" lon="6.90013">
        <ele>375.1</ele>
        <time>2017-03-15T09:03:54.176Z</time>
      </trkpt>
      <trkpt lat="46.38189" lon="6.90004">
        <ele>375</ele>
        <time>2017-03-15T09:03:58.196Z</time>
      </trkpt>
      <trkpt lat="46.38179" lon="6.89979">
        <ele>374.7</ele>
        <time>2017-03-15T09:04:02.219Z</time>
      </trkpt>
      <trkpt lat="46.38166" lon="6.89967">
        <ele>374.4</ele>
        <time>2017-03-15T09:04:06.244Z</time>
      </trkpt>
      <trkpt lat="46.38163" lon="6.89964">
        <ele>374.4</ele>
        <time>2017-03-15T09:04:10.270Z</time>
      </trkpt>
      <trkpt lat="46.38162" lon="6.89963">
        <ele>374.3</ele>
        <time>2017-03-15T09:04:14.296Z</time>
      </trkpt>
      <trkpt lat="46.38158" lon="6.89959">
        <ele>374.2</ele>
        <time>2017-03-15T09:04:18.323Z</time>
      </trkpt>
      <trkpt lat="46.38148" lon="6.89956">
        <ele>374</ele>
        <time>2017-03-15T09:04:22.351Z</time>
        <extensions>
          <visugpx:TrkExtension xmlns:visugpx="https://www.visugpx.com/editgpx/">
            <visugpx:node>1</visugpx:node>
            </visugpx:TrkExtension>
        </extensions>
      </trkpt>
      <trkpt lat="46.38144" lon="6.8996">
        <ele>375.4</ele>
      </trkpt>
      <trkpt lat="46.38135" lon="6.89954">
        <ele>375.5</ele>
      </trkpt>
      <trkpt lat="46.38132" lon="6.89952">
        <ele>375.6</ele>
      </trkpt>
      <trkpt lat="46.38124" lon="6.8994">
        <ele>375.7</ele>
      </trkpt>
      <trkpt lat="46.38119" lon="6.89936">
        <ele>375.8</ele>
      </trkpt>
      <trkpt lat="46.38113" lon="6.89932">
        <ele>376</ele>
      </trkpt>
      <trkpt lat="46.38121" lon="6.89907">
        <ele>375.4</ele>
      </trkpt>
      <trkpt lat="46.38143" lon="6.89873">
        <ele>375.1</ele>
      </trkpt>
      <trkpt lat="46.3814" lon="6.89858">
        <ele>375.1</ele>
      </trkpt>
      <trkpt lat="46.38138" lon="6.89846">
        <ele>375.1</ele>
      </trkpt>
      <trkpt lat="46.38134" lon="6.89816">
        <ele>374.9</ele>
      </trkpt>
      <trkpt lat="46.38132" lon="6.89785">
        <ele>374.8</ele>
      </trkpt>
      <trkpt lat="46.38131" lon="6.89745">
        <ele>375</ele>
      </trkpt>
      <trkpt lat="46.38131" lon="6.89715">
        <ele>375.1</ele>
      </trkpt>
      <trkpt lat="46.38133" lon="6.89679">
        <ele>375.4</ele>
      </trkpt>
      <trkpt lat="46.3814" lon="6.89453">
        <ele>373.4</ele>
      </trkpt>
      <trkpt lat="46.38144" lon="6.8941">
        <ele>375.8</ele>
      </trkpt>
      <trkpt lat="46.38142" lon="6.8941">
        <ele>375.9</ele>
        <extensions>
          <visugpx:TrkExtension xmlns:visugpx="https://www.visugpx.com/editgpx/">
            <visugpx:node>2</visugpx:node>
            </visugpx:TrkExtension>
        </extensions>
      </trkpt>
      <trkpt lat="46.38144" lon="6.8941">
        <ele>375.8</ele>
      </trkpt>
      <trkpt lat="46.38164" lon="6.89411">
        <ele>374.8</ele>
      </trkpt>
      <trkpt lat="46.38181" lon="6.89415">
        <ele>376.2</ele>
      </trkpt>
      <trkpt lat="46.3822" lon="6.89418">
        <ele>375.5</ele>
      </trkpt>
      <trkpt lat="46.38244" lon="6.8942">
        <ele>375.9</ele>
      </trkpt>
      <trkpt lat="46.38245" lon="6.89416">
        <ele>376.6</ele>
        <extensions>
          <visugpx:TrkExtension xmlns:visugpx="https://www.visugpx.com/editgpx/">
            <visugpx:node>3</visugpx:node>
            </visugpx:TrkExtension>
        </extensions>
      </trkpt>
      <trkpt lat="46.38251" lon="6.89383">
        <ele>379.3</ele>
      </trkpt>
      <trkpt lat="46.38268" lon="6.89247">
        <ele>388</ele>
      </trkpt>
      <trkpt lat="46.38271" lon="6.89188">
        <ele>388.7</ele>
      </trkpt>
      <trkpt lat="46.38261" lon="6.89121">
        <ele>388.3</ele>
      </trkpt>
      <trkpt lat="46.38256" lon="6.89098">
        <ele>387.7</ele>
      </trkpt>
      <trkpt lat="46.3825" lon="6.89064">
        <ele>386.8</ele>
      </trkpt>
      <trkpt lat="46.38231" lon="6.89025">
        <ele>385.1</ele>
      </trkpt>
      <trkpt lat="46.38225" lon="6.88982">
        <ele>383.5</ele>
      </trkpt>
      <trkpt lat="46.38225" lon="6.88981">
        <ele>383.5</ele>
        <extensions>
          <visugpx:TrkExtension xmlns:visugpx="https://www.visugpx.com/editgpx/">
            <visugpx:node>4</visugpx:node>
            </visugpx:TrkExtension>
        </extensions>
      </trkpt>
      <trkpt lat="46.38222" lon="6.88901">
        <ele>381.4</ele>
      </trkpt>
      <trkpt lat="46.38215" lon="6.88873">
        <ele>381.2</ele>
      </trkpt>
      <trkpt lat="46.38207" lon="6.88858">
        <ele>381</ele>
      </trkpt>
      <trkpt lat="46.38188" lon="6.88834">
        <ele>380.2</ele>
      </trkpt>
      <trkpt lat="46.38133" lon="6.88778">
        <ele>379.3</ele>
      </trkpt>
      <trkpt lat="46.38106" lon="6.88753">
        <ele>378</ele>
      </trkpt>
      <trkpt lat="46.38077" lon="6.88723">
        <ele>374.8</ele>
      </trkpt>
      <trkpt lat="46.38044" lon="6.88677">
        <ele>374</ele>
      </trkpt>
      <trkpt lat="46.3803" lon="6.88661">
        <ele>373.7</ele>
      </trkpt>
      <trkpt lat="46.37995" lon="6.8864">
        <ele>373.1</ele>
      </trkpt>
      <trkpt lat="46.37967" lon="6.88616">
        <ele>373.1</ele>
      </trkpt>
      <trkpt lat="46.37878" lon="6.8851">
        <ele>376.2</ele>
      </trkpt>
      <trkpt lat="46.37832" lon="6.88462">
        <ele>381.9</ele>
      </trkpt>
      <trkpt lat="46.37823" lon="6.88446">
        <ele>382.2</ele>
      </trkpt>
      <trkpt lat="46.37812" lon="6.88415">
        <ele>382</ele>
      </trkpt>
      <trkpt lat="46.37806" lon="6.88406">
        <ele>381.8</ele>
      </trkpt>
      <trkpt lat="46.37799" lon="6.88398">
        <ele>381.6</ele>
      </trkpt>
      <trkpt lat="46.37773" lon="6.88382">
        <ele>381.3</ele>
      </trkpt>
      <trkpt lat="46.37766" lon="6.88376">
        <ele>381.2</ele>
      </trkpt>
      <trkpt lat="46.37764" lon="6.88373">
        <ele>381.1</ele>
      </trkpt>
      <trkpt lat="46.37765" lon="6.88371">
        <ele>381.1</ele>
        <extensions>
          <visugpx:TrkExtension xmlns:visugpx="https://www.visugpx.com/editgpx/">
            <visugpx:node>5</visugpx:node>
            </visugpx:TrkExtension>
        </extensions>
      </trkpt>
      <trkpt lat="46.37771" lon="6.88359">
        <ele>380.9</ele>
      </trkpt>
      <trkpt lat="46.37781" lon="6.88345">
        <ele>380.8</ele>
      </trkpt>
      <trkpt lat="46.37812" lon="6.88312">
        <ele>380.2</ele>
      </trkpt>
      <trkpt lat="46.37925" lon="6.88143">
        <ele>381.6</ele>
      </trkpt>
      <trkpt lat="46.37971" lon="6.8807">
        <ele>379.8</ele>
      </trkpt>
      <trkpt lat="46.37992" lon="6.88029">
        <ele>378.4</ele>
      </trkpt>
      <trkpt lat="46.38014" lon="6.87985">
        <ele>378.5</ele>
      </trkpt>
      <trkpt lat="46.38049" lon="6.87902">
        <ele>380.2</ele>
      </trkpt>
      <trkpt lat="46.38137" lon="6.87653">
        <ele>378.3</ele>
      </trkpt>
      <trkpt lat="46.38179" lon="6.87556">
        <ele>380.8</ele>
      </trkpt>
      <trkpt lat="46.38206" lon="6.87507">
        <ele>380.9</ele>
      </trkpt>
      <trkpt lat="46.3824" lon="6.87454">
        <ele>379.4</ele>
      </trkpt>
      <trkpt lat="46.38274" lon="6.8741">
        <ele>379.3</ele>
      </trkpt>
      <trkpt lat="46.38317" lon="6.8736">
        <ele>379.7</ele>
      </trkpt>
      <trkpt lat="46.38348" lon="6.87327">
        <ele>378.9</ele>
      </trkpt>
      <trkpt lat="46.38402" lon="6.87272">
        <ele>378.9</ele>
      </trkpt>
      <trkpt lat="46.38432" lon="6.87248">
        <ele>379.2</ele>
      </trkpt>
      <trkpt lat="46.38475" lon="6.87218">
        <ele>379.9</ele>
      </trkpt>
      <trkpt lat="46.38474" lon="6.87216">
        <ele>379.8</ele>
      </trkpt>
      <trkpt lat="46.38482" lon="6.87206">
        <ele>379.6</ele>
      </trkpt>
      <trkpt lat="46.38482" lon="6.87204">
        <ele>379.6</ele>
      </trkpt>
      <trkpt lat="46.38469" lon="6.87212">
        <ele>379.6</ele>
      </trkpt>
      <trkpt lat="46.38465" lon="6.87212">
        <ele>379.5</ele>
      </trkpt>
      <trkpt lat="46.38463" lon="6.87209">
        <ele>379.4</ele>
        <extensions>
          <visugpx:TrkExtension xmlns:visugpx="https://www.visugpx.com/editgpx/">
            <visugpx:node>6</visugpx:node>
            </visugpx:TrkExtension>
        </extensions>
      </trkpt>
      <trkpt lat="46.38419" lon="6.87122">
        <ele>375.6</ele>
      </trkpt>
      <trkpt lat="46.38418" lon="6.87118">
        <ele>375.5</ele>
      </trkpt>
      <trkpt lat="46.3842" lon="6.87115">
        <ele>375.4</ele>
      </trkpt>
      <trkpt lat="46.38427" lon="6.87109">
        <ele>375.3</ele>
      </trkpt>
      <trkpt lat="46.38424" lon="6.87104">
        <ele>375.1</ele>
      </trkpt>
      <trkpt lat="46.38421" lon="6.87087">
        <ele>374.4</ele>
      </trkpt>
      <trkpt lat="46.38419" lon="6.87058">
        <ele>374.3</ele>
      </trkpt>
      <trkpt lat="46.38419" lon="6.87005">
        <ele>374.1</ele>
      </trkpt>
      <trkpt lat="46.38419" lon="6.86984">
        <ele>374</ele>
      </trkpt>
      <trkpt lat="46.38414" lon="6.86856">
        <ele>372.2</ele>
      </trkpt>
      <trkpt lat="46.38409" lon="6.86703">
        <ele>372.7</ele>
      </trkpt>
      <trkpt lat="46.38408" lon="6.8669">
        <ele>372.7</ele>
      </trkpt>
      <trkpt lat="46.38408" lon="6.86681">
        <ele>372.8</ele>
      </trkpt>
      <trkpt lat="46.38404" lon="6.86583">
        <ele>373.9</ele>
      </trkpt>
      <trkpt lat="46.38404" lon="6.86507">
        <ele>373.9</ele>
      </trkpt>
      <trkpt lat="46.38409" lon="6.86487">
        <ele>373.8</ele>
      </trkpt>
      <trkpt lat="46.38409" lon="6.86479">
        <ele>373.7</ele>
      </trkpt>
      <trkpt lat="46.38409" lon="6.86472">
        <ele>373.7</ele>
      </trkpt>
      <trkpt lat="46.38409" lon="6.86466">
        <ele>373.7</ele>
      </trkpt>
      <trkpt lat="46.38409" lon="6.86451">
        <ele>373.7</ele>
      </trkpt>
      <trkpt lat="46.38408" lon="6.86406">
        <ele>373.9</ele>
      </trkpt>
      <trkpt lat="46.38402" lon="6.86387">
        <ele>373.9</ele>
      </trkpt>
      <trkpt lat="46.384" lon="6.8638">
        <ele>373.9</ele>
      </trkpt>
      <trkpt lat="46.38398" lon="6.86374">
        <ele>373.9</ele>
      </trkpt>
      <trkpt lat="46.38387" lon="6.86343">
        <ele>374</ele>
      </trkpt>
      <trkpt lat="46.38367" lon="6.86284">
        <ele>374.8</ele>
      </trkpt>
      <trkpt lat="46.38359" lon="6.8626">
        <ele>374.9</ele>
      </trkpt>
      <trkpt lat="46.38327" lon="6.86168">
        <ele>374.9</ele>
      </trkpt>
      <trkpt lat="46.38301" lon="6.86093">
        <ele>375</ele>
      </trkpt>
      <trkpt lat="46.38298" lon="6.86083">
        <ele>374.9</ele>
      </trkpt>
      <trkpt lat="46.38296" lon="6.86078">
        <ele>374.8</ele>
      </trkpt>
      <trkpt lat="46.38287" lon="6.86056">
        <ele>374.8</ele>
      </trkpt>
      <trkpt lat="46.38285" lon="6.8605">
        <ele>374.8</ele>
      </trkpt>
      <trkpt lat="46.38282" lon="6.86043">
        <ele>374.7</ele>
      </trkpt>
      <trkpt lat="46.3826" lon="6.85979">
        <ele>374.2</ele>
      </trkpt>
      <trkpt lat="46.38258" lon="6.85974">
        <ele>374.2</ele>
      </trkpt>
      <trkpt lat="46.38253" lon="6.8596">
        <ele>374.3</ele>
      </trkpt>
      <trkpt lat="46.38248" lon="6.85943">
        <ele>374.9</ele>
      </trkpt>
      <trkpt lat="46.38247" lon="6.85942">
        <ele>374.9</ele>
        <extensions>
          <visugpx:TrkExtension xmlns:visugpx="https://www.visugpx.com/editgpx/">
            <visugpx:node>7</visugpx:node>
            </visugpx:TrkExtension>
        </extensions>
      </trkpt>
      <trkpt lat="46.38242" lon="6.85926">
        <ele>375</ele>
      </trkpt>
      <trkpt lat="46.38262" lon="6.85909">
        <ele>374.6</ele>
      </trkpt>
      <trkpt lat="46.38341" lon="6.8576">
        <ele>373.8</ele>
      </trkpt>
      <trkpt lat="46.38344" lon="6.85739">
        <ele>374.1</ele>
      </trkpt>
      <trkpt lat="46.38386" lon="6.85662">
        <ele>374.7</ele>
      </trkpt>
      <trkpt lat="46.38389" lon="6.85658">
        <ele>374.7</ele>
      </trkpt>
      <trkpt lat="46.38412" lon="6.85634">
        <ele>374.7</ele>
      </trkpt>
      <trkpt lat="46.38433" lon="6.85604">
        <ele>374.2</ele>
      </trkpt>
      <trkpt lat="46.38508" lon="6.8546">
        <ele>374.8</ele>
      </trkpt>
      <trkpt lat="46.38519" lon="6.8544">
        <ele>375.3</ele>
      </trkpt>
      <trkpt lat="46.38539" lon="6.85402">
        <ele>377.9</ele>
      </trkpt>
      <trkpt lat="46.38547" lon="6.85376">
        <ele>378.2</ele>
      </trkpt>
      <trkpt lat="46.38543" lon="6.85356">
        <ele>378.9</ele>
      </trkpt>
      <trkpt lat="46.38587" lon="6.85284">
        <ele>377</ele>
      </trkpt>
      <trkpt lat="46.38593" lon="6.85282">
        <ele>377</ele>
      </trkpt>
      <trkpt lat="46.38603" lon="6.85278">
        <ele>376.9</ele>
      </trkpt>
      <trkpt lat="46.38634" lon="6.85225">
        <ele>379.9</ele>
      </trkpt>
      <trkpt lat="46.38647" lon="6.85205">
        <ele>379.9</ele>
      </trkpt>
      <trkpt lat="46.3864" lon="6.85194">
        <ele>380.6</ele>
      </trkpt>
      <trkpt lat="46.38635" lon="6.85189">
        <ele>381.1</ele>
      </trkpt>
      <trkpt lat="46.38621" lon="6.85195">
        <ele>382.2</ele>
      </trkpt>
      <trkpt lat="46.38586" lon="6.85219">
        <ele>382.5</ele>
      </trkpt>
      <trkpt lat="46.38581" lon="6.85225">
        <ele>388.4</ele>
      </trkpt>
      <trkpt lat="46.38567" lon="6.8524">
        <ele>387.3</ele>
      </trkpt>
      <trkpt lat="46.38559" lon="6.85247">
        <ele>388.3</ele>
      </trkpt>
      <trkpt lat="46.38551" lon="6.85259">
        <ele>384.4</ele>
      </trkpt>
      <trkpt lat="46.38546" lon="6.85272">
        <ele>384.6</ele>
      </trkpt>
      <trkpt lat="46.38543" lon="6.85275">
        <ele>384.8</ele>
      </trkpt>
      <trkpt lat="46.38538" lon="6.85275">
        <ele>385.2</ele>
      </trkpt>
      <trkpt lat="46.38534" lon="6.85273">
        <ele>385.7</ele>
      </trkpt>
      <trkpt lat="46.38537" lon="6.85268">
        <ele>385.6</ele>
      </trkpt>
      <trkpt lat="46.38544" lon="6.8525">
        <ele>383.5</ele>
        <time>2017-03-15T09:26:59.504Z</time>
      </trkpt>
      <trkpt lat="46.38544" lon="6.8525">
        <ele>383.5</ele>
        <time>2017-03-15T09:26:59.504Z</time>
      </trkpt>
      <trkpt lat="46.3856" lon="6.85223">
        <ele>383.9</ele>
        <time>2017-03-15T09:27:04.678Z</time>
      </trkpt>
      <trkpt lat="46.38582" lon="6.85194">
        <ele>386.1</ele>
        <time>2017-03-15T09:27:09.856Z</time>
      </trkpt>
      <trkpt lat="46.38621" lon="6.85145">
        <ele>385.1</ele>
        <time>2017-03-15T09:27:15.041Z</time>
      </trkpt>
      <trkpt lat="46.38651" lon="6.8512">
        <ele>382.8</ele>
        <time>2017-03-15T09:27:20.230Z</time>
      </trkpt>
      <trkpt lat="46.38669" lon="6.85103">
        <ele>384.1</ele>
        <time>2017-03-15T09:27:25.422Z</time>
      </trkpt>
      <trkpt lat="46.38679" lon="6.85076">
        <ele>383.2</ele>
        <time>2017-03-15T09:27:30.617Z</time>
      </trkpt>
      <trkpt lat="46.38691" lon="6.85023">
        <ele>384.1</ele>
        <time>2017-03-15T09:27:35.817Z</time>
      </trkpt>
      <trkpt lat="46.38701" lon="6.84988">
        <ele>380.7</ele>
        <time>2017-03-15T09:27:41.020Z</time>
      </trkpt>
      <trkpt lat="46.38726" lon="6.84942">
        <ele>377.6</ele>
        <time>2017-03-15T09:27:46.229Z</time>
      </trkpt>
      <trkpt lat="46.38745" lon="6.84904">
        <ele>379.3</ele>
        <time>2017-03-15T09:27:51.442Z</time>
      </trkpt>
      <trkpt lat="46.38757" lon="6.84848">
        <ele>381.8</ele>
        <time>2017-03-15T09:27:56.661Z</time>
      </trkpt>
      <trkpt lat="46.3876" lon="6.84822">
        <ele>381.2</ele>
        <time>2017-03-15T09:28:01.882Z</time>
      </trkpt>
      <trkpt lat="46.3876" lon="6.84794">
        <ele>381.5</ele>
        <time>2017-03-15T09:28:07.106Z</time>
      </trkpt>
      <trkpt lat="46.38754" lon="6.84557">
        <ele>383.9</ele>
        <time>2017-03-15T09:28:12.352Z</time>
      </trkpt>
      <trkpt lat="46.38748" lon="6.84486">
        <ele>386.8</ele>
        <time>2017-03-15T09:28:17.604Z</time>
      </trkpt>
      <trkpt lat="46.38742" lon="6.84446">
        <ele>387.1</ele>
        <time>2017-03-15T09:28:22.860Z</time>
      </trkpt>
      <trkpt lat="46.38726" lon="6.84339">
        <ele>386.1</ele>
        <time>2017-03-15T09:28:28.126Z</time>
      </trkpt>
      <trkpt lat="46.38693" lon="6.84127">
        <ele>390.1</ele>
        <time>2017-03-15T09:28:33.412Z</time>
      </trkpt>
      <trkpt lat="46.38674" lon="6.84004">
        <ele>391.5</ele>
        <time>2017-03-15T09:28:38.710Z</time>
      </trkpt>
      <trkpt lat="46.38614" lon="6.83612">
        <ele>387.3</ele>
        <time>2017-03-15T09:28:44.045Z</time>
      </trkpt>
      <trkpt lat="46.3856" lon="6.83249">
        <ele>389</ele>
        <time>2017-03-15T09:28:49.414Z</time>
      </trkpt>
      <trkpt lat="46.38543" lon="6.8312">
        <ele>389.8</ele>
        <time>2017-03-15T09:28:54.795Z</time>
      </trkpt>
      <trkpt lat="46.38537" lon="6.83039">
        <ele>385.9</ele>
        <time>2017-03-15T09:29:00.184Z</time>
      </trkpt>
      <trkpt lat="46.38538" lon="6.82988">
        <ele>384.4</ele>
        <time>2017-03-15T09:29:05.577Z</time>
      </trkpt>
      <trkpt lat="46.38545" lon="6.8292">
        <ele>384.2</ele>
        <time>2017-03-15T09:29:10.977Z</time>
      </trkpt>
      <trkpt lat="46.38557" lon="6.82866">
        <ele>382.4</ele>
        <time>2017-03-15T09:29:16.382Z</time>
      </trkpt>
      <trkpt lat="46.3858" lon="6.82783">
        <ele>385.3</ele>
        <time>2017-03-15T09:29:21.795Z</time>
      </trkpt>
      <trkpt lat="46.3862" lon="6.82656">
        <ele>385.4</ele>
        <time>2017-03-15T09:29:27.221Z</time>
      </trkpt>
      <trkpt lat="46.38633" lon="6.82581">
        <ele>385.6</ele>
        <time>2017-03-15T09:29:32.654Z</time>
      </trkpt>
      <trkpt lat="46.38643" lon="6.82501">
        <ele>386.7</ele>
        <time>2017-03-15T09:29:38.095Z</time>
      </trkpt>
      <trkpt lat="46.38652" lon="6.82431">
        <ele>390.5</ele>
        <time>2017-03-15T09:29:43.542Z</time>
      </trkpt>
      <trkpt lat="46.38666" lon="6.8237">
        <ele>395.2</ele>
        <time>2017-03-15T09:29:48.995Z</time>
      </trkpt>
      <trkpt lat="46.38681" lon="6.82321">
        <ele>396.7</ele>
        <time>2017-03-15T09:29:54.453Z</time>
      </trkpt>
      <trkpt lat="46.38693" lon="6.82293">
        <ele>399.1</ele>
        <time>2017-03-15T09:29:59.914Z</time>
      </trkpt>
      <trkpt lat="46.38714" lon="6.82256">
        <ele>389.9</ele>
        <time>2017-03-15T09:30:05.380Z</time>
      </trkpt>
      <trkpt lat="46.38744" lon="6.822">
        <ele>382.8</ele>
        <time>2017-03-15T09:30:10.852Z</time>
      </trkpt>
      <trkpt lat="46.38759" lon="6.82147">
        <ele>383.2</ele>
        <time>2017-03-15T09:30:16.329Z</time>
      </trkpt>
      <trkpt lat="46.38767" lon="6.82113">
        <ele>384</ele>
        <time>2017-03-15T09:30:21.810Z</time>
      </trkpt>
      <trkpt lat="46.38842" lon="6.81838">
        <ele>387.5</ele>
        <time>2017-03-15T09:30:27.318Z</time>
      </trkpt>
      <trkpt lat="46.38874" lon="6.81725">
        <ele>387.3</ele>
        <time>2017-03-15T09:30:32.837Z</time>
      </trkpt>
      <trkpt lat="46.38893" lon="6.81683">
        <ele>384.5</ele>
        <time>2017-03-15T09:30:38.361Z</time>
      </trkpt>
      <trkpt lat="46.38917" lon="6.81654">
        <ele>383.2</ele>
        <time>2017-03-15T09:30:43.889Z</time>
      </trkpt>
      <trkpt lat="46.38936" lon="6.81636">
        <ele>383.7</ele>
        <time>2017-03-15T09:30:49.420Z</time>
      </trkpt>
      <trkpt lat="46.38942" lon="6.81631">
        <ele>383.8</ele>
        <time>2017-03-15T09:30:54.952Z</time>
      </trkpt>
      <trkpt lat="46.38988" lon="6.81587">
        <ele>377.2</ele>
        <time>2017-03-15T09:31:00.491Z</time>
      </trkpt>
      <trkpt lat="46.38998" lon="6.81569">
        <ele>376.8</ele>
        <time>2017-03-15T09:31:06.033Z</time>
      </trkpt>
      <trkpt lat="46.39005" lon="6.81549">
        <ele>378.8</ele>
        <time>2017-03-15T09:31:11.577Z</time>
      </trkpt>
      <trkpt lat="46.39008" lon="6.81533">
        <ele>380.6</ele>
        <time>2017-03-15T09:31:17.122Z</time>
      </trkpt>
      <trkpt lat="46.39007" lon="6.81496">
        <ele>383.2</ele>
        <time>2017-03-15T09:31:22.671Z</time>
      </trkpt>
      <trkpt lat="46.39004" lon="6.81463">
        <ele>386.6</ele>
        <time>2017-03-15T09:31:28.223Z</time>
      </trkpt>
      <trkpt lat="46.39004" lon="6.81394">
        <ele>391.3</ele>
        <time>2017-03-15T09:31:33.781Z</time>
      </trkpt>
      <trkpt lat="46.39011" lon="6.813">
        <ele>393.6</ele>
        <time>2017-03-15T09:31:39.348Z</time>
      </trkpt>
      <trkpt lat="46.39033" lon="6.81172">
        <ele>393.8</ele>
        <time>2017-03-15T09:31:44.927Z</time>
      </trkpt>
      <trkpt lat="46.39061" lon="6.81032">
        <ele>384.1</ele>
        <time>2017-03-15T09:31:50.519Z</time>
      </trkpt>
      <trkpt lat="46.39074" lon="6.80987">
        <ele>383.5</ele>
        <time>2017-03-15T09:31:56.116Z</time>
      </trkpt>
      <trkpt lat="46.39091" lon="6.80944">
        <ele>384</ele>
        <time>2017-03-15T09:32:01.717Z</time>
      </trkpt>
      <trkpt lat="46.39166" lon="6.80837">
        <ele>382.6</ele>
        <time>2017-03-15T09:32:07.333Z</time>
      </trkpt>
      <trkpt lat="46.39187" lon="6.80794">
        <ele>380.9</ele>
        <time>2017-03-15T09:32:12.953Z</time>
      </trkpt>
      <trkpt lat="46.39206" lon="6.80737">
        <ele>377.1</ele>
        <time>2017-03-15T09:32:18.579Z</time>
      </trkpt>
      <trkpt lat="46.39233" lon="6.80633">
        <ele>384.4</ele>
        <time>2017-03-15T09:32:24.215Z</time>
      </trkpt>
      <trkpt lat="46.39241" lon="6.80606">
        <ele>385.1</ele>
        <time>2017-03-15T09:32:29.854Z</time>
      </trkpt>
      <trkpt lat="46.39273" lon="6.80554">
        <ele>384.5</ele>
        <time>2017-03-15T09:32:35.500Z</time>
      </trkpt>
      <trkpt lat="46.39306" lon="6.8049">
        <ele>385.2</ele>
        <time>2017-03-15T09:32:41.153Z</time>
      </trkpt>
      <trkpt lat="46.39328" lon="6.80459">
        <ele>384.2</ele>
        <time>2017-03-15T09:32:46.810Z</time>
      </trkpt>
      <trkpt lat="46.39354" lon="6.80408">
        <ele>382.8</ele>
        <time>2017-03-15T09:32:52.473Z</time>
      </trkpt>
      <trkpt lat="46.39368" lon="6.80376">
        <ele>382.4</ele>
        <time>2017-03-15T09:32:58.139Z</time>
      </trkpt>
      <trkpt lat="46.39373" lon="6.8035">
        <ele>381.9</ele>
        <time>2017-03-15T09:33:03.808Z</time>
      </trkpt>
      <trkpt lat="46.39374" lon="6.80318">
        <ele>382.2</ele>
        <time>2017-03-15T09:33:09.480Z</time>
      </trkpt>
      <trkpt lat="46.39365" lon="6.80252">
        <ele>385.2</ele>
        <time>2017-03-15T09:33:15.158Z</time>
      </trkpt>
      <trkpt lat="46.3935" lon="6.80167">
        <ele>384</ele>
        <time>2017-03-15T09:33:20.844Z</time>
      </trkpt>
      <trkpt lat="46.39305" lon="6.79741">
        <ele>382.4</ele>
        <time>2017-03-15T09:33:26.570Z</time>
      </trkpt>
      <trkpt lat="46.393" lon="6.79715">
        <ele>382.2</ele>
        <time>2017-03-15T09:33:32.298Z</time>
      </trkpt>
      <trkpt lat="46.39289" lon="6.7968">
        <ele>383.2</ele>
        <time>2017-03-15T09:33:38.030Z</time>
      </trkpt>
      <trkpt lat="46.39259" lon="6.79598">
        <ele>385</ele>
        <time>2017-03-15T09:33:43.771Z</time>
      </trkpt>
      <trkpt lat="46.39241" lon="6.79535">
        <ele>384.2</ele>
        <time>2017-03-15T09:33:49.518Z</time>
      </trkpt>
      <trkpt lat="46.39234" lon="6.795">
        <ele>382.5</ele>
        <time>2017-03-15T09:33:55.268Z</time>
      </trkpt>
      <trkpt lat="46.39234" lon="6.79458">
        <ele>382.4</ele>
        <time>2017-03-15T09:34:01.022Z</time>
      </trkpt>
      <trkpt lat="46.39237" lon="6.79416">
        <ele>383</ele>
        <time>2017-03-15T09:34:06.780Z</time>
      </trkpt>
      <trkpt lat="46.3924" lon="6.79391">
        <ele>383.6</ele>
        <time>2017-03-15T09:34:12.540Z</time>
      </trkpt>
      <trkpt lat="46.39251" lon="6.79283">
        <ele>383.3</ele>
        <time>2017-03-15T09:34:18.310Z</time>
      </trkpt>
      <trkpt lat="46.39255" lon="6.79247">
        <ele>382.2</ele>
        <time>2017-03-15T09:34:24.084Z</time>
      </trkpt>
      <trkpt lat="46.39255" lon="6.79212">
        <ele>382.5</ele>
        <time>2017-03-15T09:34:29.861Z</time>
      </trkpt>
      <trkpt lat="46.39252" lon="6.79165">
        <ele>383.6</ele>
        <time>2017-03-15T09:34:35.642Z</time>
      </trkpt>
      <trkpt lat="46.39251" lon="6.79118">
        <ele>384.7</ele>
        <time>2017-03-15T09:34:41.428Z</time>
      </trkpt>
      <trkpt lat="46.39255" lon="6.79071">
        <ele>384.4</ele>
        <time>2017-03-15T09:34:47.218Z</time>
      </trkpt>
      <trkpt lat="46.39261" lon="6.79041">
        <ele>385.5</ele>
        <time>2017-03-15T09:34:53.011Z</time>
      </trkpt>
      <trkpt lat="46.39271" lon="6.79008">
        <ele>384.2</ele>
        <time>2017-03-15T09:34:58.807Z</time>
      </trkpt>
      <trkpt lat="46.39286" lon="6.78973">
        <ele>382.1</ele>
        <time>2017-03-15T09:35:04.607Z</time>
      </trkpt>
      <trkpt lat="46.3936" lon="6.78821">
        <ele>383.4</ele>
        <time>2017-03-15T09:35:10.424Z</time>
      </trkpt>
      <trkpt lat="46.39377" lon="6.78776">
        <ele>379.7</ele>
        <time>2017-03-15T09:35:16.246Z</time>
      </trkpt>
      <trkpt lat="46.3938" lon="6.78743">
        <ele>378.3</ele>
        <time>2017-03-15T09:35:22.071Z</time>
      </trkpt>
      <trkpt lat="46.3938" lon="6.78696">
        <ele>383.4</ele>
        <time>2017-03-15T09:35:27.900Z</time>
      </trkpt>
      <trkpt lat="46.39383" lon="6.78671">
        <ele>386.2</ele>
        <time>2017-03-15T09:35:33.732Z</time>
      </trkpt>
      <trkpt lat="46.39418" lon="6.78528">
        <ele>386.6</ele>
        <time>2017-03-15T09:35:39.578Z</time>
      </trkpt>
      <trkpt lat="46.39428" lon="6.78468">
        <ele>385.3</ele>
        <time>2017-03-15T09:35:45.429Z</time>
      </trkpt>
      <trkpt lat="46.3943" lon="6.78436">
        <ele>385.5</ele>
        <time>2017-03-15T09:35:51.283Z</time>
      </trkpt>
      <trkpt lat="46.39434" lon="6.78368">
        <ele>385.6</ele>
        <time>2017-03-15T09:35:57.144Z</time>
      </trkpt>
      <trkpt lat="46.39439" lon="6.78337">
        <ele>384.3</ele>
        <time>2017-03-15T09:36:03.008Z</time>
      </trkpt>
      <trkpt lat="46.39446" lon="6.78306">
        <ele>382.7</ele>
        <time>2017-03-15T09:36:08.875Z</time>
      </trkpt>
      <trkpt lat="46.39478" lon="6.78201">
        <ele>385.8</ele>
        <time>2017-03-15T09:36:14.752Z</time>
      </trkpt>
      <trkpt lat="46.39536" lon="6.78025">
        <ele>380.7</ele>
        <time>2017-03-15T09:36:20.647Z</time>
      </trkpt>
      <trkpt lat="46.39585" lon="6.77882">
        <ele>385.1</ele>
        <time>2017-03-15T09:36:26.557Z</time>
      </trkpt>
      <trkpt lat="46.39597" lon="6.77853">
        <ele>386.7</ele>
        <time>2017-03-15T09:36:32.470Z</time>
      </trkpt>
      <trkpt lat="46.3962" lon="6.77815">
        <ele>385.4</ele>
        <time>2017-03-15T09:36:38.388Z</time>
      </trkpt>
      <trkpt lat="46.39633" lon="6.77785">
        <ele>384.7</ele>
        <time>2017-03-15T09:36:44.309Z</time>
      </trkpt>
      <trkpt lat="46.39653" lon="6.77725">
        <ele>382.9</ele>
        <time>2017-03-15T09:36:50.236Z</time>
      </trkpt>
      <trkpt lat="46.39695" lon="6.77603">
        <ele>384.1</ele>
        <time>2017-03-15T09:36:56.176Z</time>
      </trkpt>
      <trkpt lat="46.39706" lon="6.77551">
        <ele>380.6</ele>
        <time>2017-03-15T09:37:02.121Z</time>
      </trkpt>
      <trkpt lat="46.39707" lon="6.77519">
        <ele>380.4</ele>
        <time>2017-03-15T09:37:08.069Z</time>
      </trkpt>
      <trkpt lat="46.39705" lon="6.77434">
        <ele>380.3</ele>
        <time>2017-03-15T09:37:14.025Z</time>
      </trkpt>
      <trkpt lat="46.39702" lon="6.77366">
        <ele>383.3</ele>
        <time>2017-03-15T09:37:19.987Z</time>
      </trkpt>
      <trkpt lat="46.397" lon="6.77296">
        <ele>386.9</ele>
        <time>2017-03-15T09:37:25.955Z</time>
      </trkpt>
      <trkpt lat="46.39699" lon="6.7725">
        <ele>389.1</ele>
        <time>2017-03-15T09:37:31.928Z</time>
      </trkpt>
      <trkpt lat="46.39701" lon="6.77224">
        <ele>391.2</ele>
        <time>2017-03-15T09:37:37.903Z</time>
      </trkpt>
      <trkpt lat="46.39707" lon="6.772">
        <ele>392</ele>
        <time>2017-03-15T09:37:43.880Z</time>
      </trkpt>
      <trkpt lat="46.3972" lon="6.77158">
        <ele>389.1</ele>
        <time>2017-03-15T09:37:49.862Z</time>
      </trkpt>
      <trkpt lat="46.39739" lon="6.77097">
        <ele>386.2</ele>
        <time>2017-03-15T09:37:55.850Z</time>
      </trkpt>
      <trkpt lat="46.39757" lon="6.77052">
        <ele>386</ele>
        <time>2017-03-15T09:38:01.842Z</time>
      </trkpt>
      <trkpt lat="46.3978" lon="6.77007">
        <ele>383</ele>
        <time>2017-03-15T09:38:07.840Z</time>
      </trkpt>
      <trkpt lat="46.39798" lon="6.7696">
        <ele>380.9</ele>
        <time>2017-03-15T09:38:13.843Z</time>
      </trkpt>
      <trkpt lat="46.39863" lon="6.7678">
        <ele>381.9</ele>
        <time>2017-03-15T09:38:19.864Z</time>
      </trkpt>
      <trkpt lat="46.39875" lon="6.76737">
        <ele>377.9</ele>
        <time>2017-03-15T09:38:25.890Z</time>
      </trkpt>
      <trkpt lat="46.3989" lon="6.76636">
        <ele>382.5</ele>
        <time>2017-03-15T09:38:31.925Z</time>
      </trkpt>
      <trkpt lat="46.399" lon="6.76586">
        <ele>382.1</ele>
        <time>2017-03-15T09:38:37.965Z</time>
      </trkpt>
      <trkpt lat="46.39931" lon="6.76507">
        <ele>382.8</ele>
        <time>2017-03-15T09:38:44.013Z</time>
      </trkpt>
      <trkpt lat="46.39945" lon="6.76462">
        <ele>382</ele>
        <time>2017-03-15T09:38:50.066Z</time>
      </trkpt>
      <trkpt lat="46.39964" lon="6.7639">
        <ele>377.9</ele>
        <time>2017-03-15T09:38:56.126Z</time>
      </trkpt>
      <trkpt lat="46.3998" lon="6.76321">
        <ele>385.5</ele>
        <time>2017-03-15T09:39:02.193Z</time>
      </trkpt>
      <trkpt lat="46.39985" lon="6.76274">
        <ele>387.2</ele>
        <time>2017-03-15T09:39:08.264Z</time>
      </trkpt>
      <trkpt lat="46.39991" lon="6.76203">
        <ele>386.9</ele>
        <time>2017-03-15T09:39:14.342Z</time>
      </trkpt>
      <trkpt lat="46.39998" lon="6.76116">
        <ele>384.9</ele>
        <time>2017-03-15T09:39:20.428Z</time>
      </trkpt>
      <trkpt lat="46.40004" lon="6.76061">
        <ele>384.4</ele>
        <time>2017-03-15T09:39:26.519Z</time>
      </trkpt>
      <trkpt lat="46.40017" lon="6.75981">
        <ele>387</ele>
        <time>2017-03-15T09:39:32.618Z</time>
      </trkpt>
      <trkpt lat="46.40028" lon="6.75938">
        <ele>391</ele>
        <time>2017-03-15T09:39:38.721Z</time>
      </trkpt>
      <trkpt lat="46.40045" lon="6.75898">
        <ele>388.9</ele>
        <time>2017-03-15T09:39:44.828Z</time>
      </trkpt>
      <trkpt lat="46.40062" lon="6.75871">
        <ele>386.6</ele>
        <time>2017-03-15T09:39:50.938Z</time>
      </trkpt>
      <trkpt lat="46.40073" lon="6.75858">
        <ele>386.1</ele>
        <time>2017-03-15T09:39:57.050Z</time>
      </trkpt>
      <trkpt lat="46.40109" lon="6.7583">
        <ele>385</ele>
        <time>2017-03-15T09:40:03.168Z</time>
      </trkpt>
      <trkpt lat="46.40131" lon="6.75815">
        <ele>384.2</ele>
        <time>2017-03-15T09:40:09.289Z</time>
      </trkpt>
      <trkpt lat="46.40149" lon="6.75799">
        <ele>383</ele>
        <time>2017-03-15T09:40:15.413Z</time>
      </trkpt>
      <trkpt lat="46.40166" lon="6.75778">
        <ele>382.8</ele>
        <time>2017-03-15T09:40:21.540Z</time>
      </trkpt>
      <trkpt lat="46.40179" lon="6.75756">
        <ele>382.6</ele>
        <time>2017-03-15T09:40:27.670Z</time>
      </trkpt>
      <trkpt lat="46.40194" lon="6.75719">
        <ele>382.4</ele>
        <time>2017-03-15T09:40:33.803Z</time>
      </trkpt>
      <trkpt lat="46.40216" lon="6.75662">
        <ele>383.2</ele>
        <time>2017-03-15T09:40:39.943Z</time>
      </trkpt>
      <trkpt lat="46.40249" lon="6.75573">
        <ele>381.9</ele>
        <time>2017-03-15T09:40:46.092Z</time>
      </trkpt>
      <trkpt lat="46.40271" lon="6.75514">
        <ele>381.1</ele>
        <time>2017-03-15T09:40:52.247Z</time>
      </trkpt>
      <trkpt lat="46.40273" lon="6.75494">
        <ele>380.6</ele>
        <time>2017-03-15T09:40:58.404Z</time>
      </trkpt>
      <trkpt lat="46.40258" lon="6.75437">
        <ele>385.6</ele>
        <time>2017-03-15T09:41:04.566Z</time>
      </trkpt>
      <trkpt lat="46.40255" lon="6.75394">
        <ele>387.6</ele>
        <time>2017-03-15T09:41:10.732Z</time>
      </trkpt>
      <trkpt lat="46.40258" lon="6.75364">
        <ele>389.6</ele>
        <time>2017-03-15T09:41:16.901Z</time>
      </trkpt>
      <trkpt lat="46.40281" lon="6.75273">
        <ele>387.6</ele>
        <time>2017-03-15T09:41:23.079Z</time>
      </trkpt>
      <trkpt lat="46.40325" lon="6.75101">
        <ele>384.3</ele>
        <time>2017-03-15T09:41:29.274Z</time>
      </trkpt>
      <trkpt lat="46.40342" lon="6.75027">
        <ele>382</ele>
        <time>2017-03-15T09:41:35.476Z</time>
      </trkpt>
      <trkpt lat="46.40364" lon="6.74947">
        <ele>377.9</ele>
        <time>2017-03-15T09:41:41.686Z</time>
      </trkpt>
      <trkpt lat="46.40373" lon="6.74895">
        <ele>375.9</ele>
        <time>2017-03-15T09:41:47.901Z</time>
      </trkpt>
      <trkpt lat="46.40379" lon="6.7485">
        <ele>374.7</ele>
        <time>2017-03-15T09:41:54.120Z</time>
      </trkpt>
      <trkpt lat="46.40381" lon="6.74794">
        <ele>375</ele>
        <time>2017-03-15T09:42:00.345Z</time>
      </trkpt>
      <trkpt lat="46.4038" lon="6.74694">
        <ele>380.7</ele>
        <time>2017-03-15T09:42:06.579Z</time>
      </trkpt>
      <trkpt lat="46.40378" lon="6.74556">
        <ele>388.7</ele>
        <time>2017-03-15T09:42:12.826Z</time>
      </trkpt>
      <trkpt lat="46.40379" lon="6.74508">
        <ele>390.4</ele>
        <time>2017-03-15T09:42:19.077Z</time>
      </trkpt>
      <trkpt lat="46.40393" lon="6.7444">
        <ele>387.7</ele>
        <time>2017-03-15T09:42:25.335Z</time>
      </trkpt>
      <trkpt lat="46.40396" lon="6.74414">
        <ele>387.7</ele>
        <time>2017-03-15T09:42:31.595Z</time>
      </trkpt>
      <trkpt lat="46.40395" lon="6.74388">
        <ele>389.5</ele>
        <time>2017-03-15T09:42:37.857Z</time>
      </trkpt>
      <trkpt lat="46.40386" lon="6.74336">
        <ele>396.2</ele>
        <time>2017-03-15T09:42:44.124Z</time>
      </trkpt>
      <trkpt lat="46.40386" lon="6.74301">
        <ele>398.6</ele>
        <time>2017-03-15T09:42:50.395Z</time>
      </trkpt>
      <trkpt lat="46.40417" lon="6.74143">
        <ele>394</ele>
        <time>2017-03-15T09:42:56.681Z</time>
      </trkpt>
      <trkpt lat="46.40445" lon="6.73973">
        <ele>402</ele>
        <time>2017-03-15T09:43:02.983Z</time>
      </trkpt>
      <trkpt lat="46.40455" lon="6.73899">
        <ele>399.6</ele>
        <time>2017-03-15T09:43:09.292Z</time>
      </trkpt>
      <trkpt lat="46.40465" lon="6.73581">
        <ele>416.1</ele>
        <time>2017-03-15T09:43:15.630Z</time>
      </trkpt>
      <trkpt lat="46.40468" lon="6.7354">
        <ele>419.9</ele>
        <time>2017-03-15T09:43:21.972Z</time>
      </trkpt>
      <trkpt lat="46.40472" lon="6.7352">
        <ele>414.4</ele>
        <time>2017-03-15T09:43:28.316Z</time>
      </trkpt>
      <trkpt lat="46.4049" lon="6.73468">
        <ele>398.4</ele>
        <time>2017-03-15T09:43:34.665Z</time>
      </trkpt>
      <trkpt lat="46.40501" lon="6.73431">
        <ele>397.1</ele>
        <time>2017-03-15T09:43:41.018Z</time>
      </trkpt>
      <trkpt lat="46.40521" lon="6.73338">
        <ele>394.9</ele>
        <time>2017-03-15T09:43:47.380Z</time>
      </trkpt>
      <trkpt lat="46.40527" lon="6.73317">
        <ele>395.3</ele>
        <time>2017-03-15T09:43:53.744Z</time>
      </trkpt>
      <trkpt lat="46.4054" lon="6.73283">
        <ele>394.2</ele>
        <time>2017-03-15T09:44:00.112Z</time>
      </trkpt>
      <trkpt lat="46.40548" lon="6.73265">
        <ele>389.7</ele>
        <time>2017-03-15T09:44:06.482Z</time>
      </trkpt>
      <trkpt lat="46.40562" lon="6.73214">
        <ele>382.6</ele>
        <time>2017-03-15T09:44:12.857Z</time>
      </trkpt>
      <trkpt lat="46.40579" lon="6.73129">
        <ele>382.3</ele>
        <time>2017-03-15T09:44:19.240Z</time>
      </trkpt>
      <trkpt lat="46.40601" lon="6.73015">
        <ele>383.7</ele>
        <time>2017-03-15T09:44:25.634Z</time>
      </trkpt>
      <trkpt lat="46.40634" lon="6.72841">
        <ele>381.6</ele>
        <time>2017-03-15T09:44:32.044Z</time>
      </trkpt>
      <trkpt lat="46.40638" lon="6.72806">
        <ele>383</ele>
        <time>2017-03-15T09:44:38.458Z</time>
      </trkpt>
      <trkpt lat="46.40638" lon="6.72749">
        <ele>382.3</ele>
        <time>2017-03-15T09:44:44.877Z</time>
      </trkpt>
      <trkpt lat="46.40636" lon="6.72715">
        <ele>383.9</ele>
        <time>2017-03-15T09:44:51.299Z</time>
      </trkpt>
      <trkpt lat="46.40638" lon="6.72687">
        <ele>384.4</ele>
        <time>2017-03-15T09:44:57.724Z</time>
      </trkpt>
      <trkpt lat="46.40649" lon="6.72646">
        <ele>382.8</ele>
        <time>2017-03-15T09:45:04.153Z</time>
      </trkpt>
      <trkpt lat="46.40664" lon="6.72609">
        <ele>384.6</ele>
        <time>2017-03-15T09:45:10.586Z</time>
      </trkpt>
      <trkpt lat="46.40687" lon="6.72564">
        <ele>383.5</ele>
        <time>2017-03-15T09:45:17.024Z</time>
      </trkpt>
      <trkpt lat="46.40707" lon="6.72524">
        <ele>382.4</ele>
        <time>2017-03-15T09:45:23.466Z</time>
      </trkpt>
      <trkpt lat="46.40716" lon="6.72503">
        <ele>380.4</ele>
        <time>2017-03-15T09:45:29.911Z</time>
      </trkpt>
      <trkpt lat="46.40729" lon="6.7246">
        <ele>379.1</ele>
        <time>2017-03-15T09:45:36.360Z</time>
      </trkpt>
      <trkpt lat="46.40741" lon="6.72398">
        <ele>381.8</ele>
        <time>2017-03-15T09:45:42.815Z</time>
      </trkpt>
      <trkpt lat="46.40745" lon="6.72374">
        <ele>382</ele>
        <time>2017-03-15T09:45:49.272Z</time>
      </trkpt>
      <trkpt lat="46.40745" lon="6.72347">
        <ele>383</ele>
        <time>2017-03-15T09:45:55.732Z</time>
      </trkpt>
      <trkpt lat="46.40743" lon="6.72323">
        <ele>383.9</ele>
        <time>2017-03-15T09:46:02.194Z</time>
      </trkpt>
      <trkpt lat="46.40735" lon="6.72286">
        <ele>384.2</ele>
        <time>2017-03-15T09:46:08.660Z</time>
      </trkpt>
      <trkpt lat="46.40716" lon="6.72192">
        <ele>386.4</ele>
        <time>2017-03-15T09:46:15.135Z</time>
      </trkpt>
      <trkpt lat="46.4071" lon="6.72146">
        <ele>385.9</ele>
        <time>2017-03-15T09:46:21.614Z</time>
      </trkpt>
      <trkpt lat="46.40709" lon="6.72105">
        <ele>385.7</ele>
        <time>2017-03-15T09:46:28.097Z</time>
      </trkpt>
      <trkpt lat="46.40711" lon="6.72049">
        <ele>385</ele>
        <time>2017-03-15T09:46:34.585Z</time>
      </trkpt>
      <trkpt lat="46.40715" lon="6.72011">
        <ele>385.4</ele>
        <time>2017-03-15T09:46:41.076Z</time>
      </trkpt>
      <trkpt lat="46.40731" lon="6.71928">
        <ele>384.3</ele>
        <time>2017-03-15T09:46:47.575Z</time>
      </trkpt>
      <trkpt lat="46.40748" lon="6.71845">
        <ele>382.8</ele>
        <time>2017-03-15T09:46:54.082Z</time>
      </trkpt>
      <trkpt lat="46.4075" lon="6.71819">
        <ele>382.5</ele>
        <time>2017-03-15T09:47:00.592Z</time>
      </trkpt>
      <trkpt lat="46.40749" lon="6.71795">
        <ele>383</ele>
        <time>2017-03-15T09:47:07.104Z</time>
      </trkpt>
      <trkpt lat="46.40745" lon="6.71738">
        <ele>384.3</ele>
        <time>2017-03-15T09:47:13.621Z</time>
      </trkpt>
      <trkpt lat="46.40746" lon="6.71689">
        <ele>385.3</ele>
        <time>2017-03-15T09:47:20.143Z</time>
      </trkpt>
      <trkpt lat="46.40742" lon="6.71634">
        <ele>386</ele>
        <time>2017-03-15T09:47:26.670Z</time>
      </trkpt>
      <trkpt lat="46.40737" lon="6.71599">
        <ele>385.9</ele>
        <time>2017-03-15T09:47:33.200Z</time>
      </trkpt>
      <trkpt lat="46.4073" lon="6.71544">
        <ele>388</ele>
        <time>2017-03-15T09:47:39.735Z</time>
      </trkpt>
      <trkpt lat="46.40732" lon="6.71505">
        <ele>387.5</ele>
        <time>2017-03-15T09:47:46.274Z</time>
      </trkpt>
      <trkpt lat="46.40737" lon="6.71475">
        <ele>388.2</ele>
        <time>2017-03-15T09:47:52.816Z</time>
      </trkpt>
      <trkpt lat="46.40751" lon="6.71419">
        <ele>390.8</ele>
        <time>2017-03-15T09:47:59.363Z</time>
      </trkpt>
      <trkpt lat="46.40755" lon="6.71394">
        <ele>390.3</ele>
        <time>2017-03-15T09:48:05.913Z</time>
      </trkpt>
      <trkpt lat="46.40761" lon="6.71315">
        <ele>392.6</ele>
        <time>2017-03-15T09:48:12.470Z</time>
      </trkpt>
      <trkpt lat="46.4076" lon="6.71273">
        <ele>397</ele>
        <time>2017-03-15T09:48:19.031Z</time>
      </trkpt>
      <trkpt lat="46.40757" lon="6.7124">
        <ele>399.3</ele>
        <time>2017-03-15T09:48:25.595Z</time>
      </trkpt>
      <trkpt lat="46.40749" lon="6.71192">
        <ele>408.2</ele>
        <time>2017-03-15T09:48:32.164Z</time>
      </trkpt>
      <trkpt lat="46.40748" lon="6.71175">
        <ele>410.5</ele>
        <time>2017-03-15T09:48:38.734Z</time>
      </trkpt>
      <trkpt lat="46.40759" lon="6.71073">
        <ele>409.8</ele>
        <time>2017-03-15T09:48:45.314Z</time>
      </trkpt>
      <trkpt lat="46.40777" lon="6.70907">
        <ele>397.5</ele>
        <time>2017-03-15T09:48:51.909Z</time>
      </trkpt>
      <trkpt lat="46.40779" lon="6.70876">
        <ele>395.4</ele>
        <time>2017-03-15T09:48:58.507Z</time>
      </trkpt>
      <trkpt lat="46.40776" lon="6.70841">
        <ele>397.3</ele>
        <time>2017-03-15T09:49:05.108Z</time>
      </trkpt>
      <trkpt lat="46.40774" lon="6.70816">
        <ele>399</ele>
        <time>2017-03-15T09:49:11.712Z</time>
      </trkpt>
      <trkpt lat="46.40775" lon="6.70742">
        <ele>401.3</ele>
        <time>2017-03-15T09:49:18.322Z</time>
      </trkpt>
      <trkpt lat="46.40777" lon="6.70665">
        <ele>396.6</ele>
        <time>2017-03-15T09:49:24.940Z</time>
      </trkpt>
      <trkpt lat="46.40771" lon="6.70604">
        <ele>392.3</ele>
        <time>2017-03-15T09:49:31.563Z</time>
      </trkpt>
      <trkpt lat="46.40759" lon="6.70521">
        <ele>393</ele>
        <time>2017-03-15T09:49:38.194Z</time>
      </trkpt>
      <trkpt lat="46.40756" lon="6.7047">
        <ele>393.2</ele>
        <time>2017-03-15T09:49:44.830Z</time>
      </trkpt>
      <trkpt lat="46.40755" lon="6.70383">
        <ele>392.6</ele>
        <time>2017-03-15T09:49:51.474Z</time>
      </trkpt>
      <trkpt lat="46.40762" lon="6.70229">
        <ele>388.6</ele>
        <time>2017-03-15T09:49:58.132Z</time>
      </trkpt>
      <trkpt lat="46.40774" lon="6.69968">
        <ele>393.2</ele>
        <time>2017-03-15T09:50:04.814Z</time>
      </trkpt>
      <trkpt lat="46.40781" lon="6.69882">
        <ele>396.1</ele>
        <time>2017-03-15T09:50:11.504Z</time>
      </trkpt>
      <trkpt lat="46.40782" lon="6.69873">
        <ele>396.2</ele>
        <time>2017-03-15T09:50:18.195Z</time>
      </trkpt>
      <trkpt lat="46.40793" lon="6.69798">
        <ele>395.1</ele>
        <time>2017-03-15T09:50:24.893Z</time>
      </trkpt>
      <trkpt lat="46.40799" lon="6.6973">
        <ele>393.3</ele>
        <time>2017-03-15T09:50:31.597Z</time>
      </trkpt>
      <trkpt lat="46.408" lon="6.69692">
        <ele>392.4</ele>
        <time>2017-03-15T09:50:38.305Z</time>
      </trkpt>
      <trkpt lat="46.40797" lon="6.6965">
        <ele>392.7</ele>
        <time>2017-03-15T09:50:45.017Z</time>
      </trkpt>
      <trkpt lat="46.40788" lon="6.69487">
        <ele>383</ele>
        <time>2017-03-15T09:50:51.744Z</time>
      </trkpt>
      <trkpt lat="46.40768" lon="6.6914">
        <ele>386.8</ele>
        <time>2017-03-15T09:50:58.503Z</time>
      </trkpt>
      <trkpt lat="46.40751" lon="6.68823">
        <ele>387.7</ele>
        <time>2017-03-15T09:51:05.291Z</time>
      </trkpt>
      <trkpt lat="46.40745" lon="6.68777">
        <ele>386.8</ele>
        <time>2017-03-15T09:51:12.084Z</time>
      </trkpt>
      <trkpt lat="46.4073" lon="6.68723">
        <ele>387.7</ele>
        <time>2017-03-15T09:51:18.882Z</time>
      </trkpt>
      <trkpt lat="46.40704" lon="6.68646">
        <ele>391</ele>
        <time>2017-03-15T09:51:25.688Z</time>
      </trkpt>
      <trkpt lat="46.4068" lon="6.68564">
        <ele>388</ele>
        <time>2017-03-15T09:51:32.502Z</time>
      </trkpt>
      <trkpt lat="46.40668" lon="6.6851">
        <ele>386.5</ele>
        <time>2017-03-15T09:51:39.321Z</time>
      </trkpt>
      <trkpt lat="46.4066" lon="6.6845">
        <ele>386.8</ele>
        <time>2017-03-15T09:51:46.146Z</time>
      </trkpt>
      <trkpt lat="46.40658" lon="6.68399">
        <ele>385.9</ele>
        <time>2017-03-15T09:51:52.976Z</time>
      </trkpt>
      <trkpt lat="46.40661" lon="6.68309">
        <ele>384.2</ele>
        <time>2017-03-15T09:51:59.814Z</time>
      </trkpt>
      <trkpt lat="46.40688" lon="6.68018">
        <ele>382.7</ele>
        <time>2017-03-15T09:52:06.679Z</time>
      </trkpt>
      <trkpt lat="46.40699" lon="6.67882">
        <ele>382.9</ele>
        <time>2017-03-15T09:52:13.557Z</time>
      </trkpt>
      <trkpt lat="46.407" lon="6.6784">
        <ele>382.4</ele>
        <time>2017-03-15T09:52:20.439Z</time>
      </trkpt>
      <trkpt lat="46.40697" lon="6.67798">
        <ele>382.7</ele>
        <time>2017-03-15T09:52:27.325Z</time>
      </trkpt>
      <trkpt lat="46.40687" lon="6.67745">
        <ele>383.5</ele>
        <time>2017-03-15T09:52:34.216Z</time>
      </trkpt>
      <trkpt lat="46.40683" lon="6.67729">
        <ele>383.7</ele>
        <time>2017-03-15T09:52:41.108Z</time>
      </trkpt>
      <trkpt lat="46.40627" lon="6.67542">
        <ele>385.2</ele>
        <time>2017-03-15T09:52:48.019Z</time>
      </trkpt>
      <trkpt lat="46.40572" lon="6.67363">
        <ele>387.6</ele>
        <time>2017-03-15T09:52:54.948Z</time>
      </trkpt>
      <trkpt lat="46.40515" lon="6.67176">
        <ele>383.8</ele>
        <time>2017-03-15T09:53:01.896Z</time>
      </trkpt>
      <trkpt lat="46.40491" lon="6.67094">
        <ele>384.3</ele>
        <time>2017-03-15T09:53:08.852Z</time>
      </trkpt>
      <trkpt lat="46.40477" lon="6.67026">
        <ele>385.5</ele>
        <time>2017-03-15T09:53:15.815Z</time>
      </trkpt>
      <trkpt lat="46.40457" lon="6.66902">
        <ele>383</ele>
        <time>2017-03-15T09:53:22.789Z</time>
      </trkpt>
      <trkpt lat="46.4043" lon="6.66736">
        <ele>383.2</ele>
        <time>2017-03-15T09:53:29.779Z</time>
      </trkpt>
      <trkpt lat="46.40427" lon="6.66692">
        <ele>385.7</ele>
        <time>2017-03-15T09:53:36.773Z</time>
      </trkpt>
      <trkpt lat="46.40428" lon="6.66617">
        <ele>384.5</ele>
        <time>2017-03-15T09:53:43.774Z</time>
      </trkpt>
      <trkpt lat="46.40437" lon="6.66483">
        <ele>378</ele>
        <time>2017-03-15T09:53:50.788Z</time>
      </trkpt>
      <trkpt lat="46.40438" lon="6.664">
        <ele>376.8</ele>
        <time>2017-03-15T09:53:57.809Z</time>
      </trkpt>
      <trkpt lat="46.40436" lon="6.66271">
        <ele>377.1</ele>
        <time>2017-03-15T09:54:04.842Z</time>
      </trkpt>
      <trkpt lat="46.40442" lon="6.66111">
        <ele>380.3</ele>
        <time>2017-03-15T09:54:11.890Z</time>
      </trkpt>
      <trkpt lat="46.40454" lon="6.65878">
        <ele>374.3</ele>
        <time>2017-03-15T09:54:18.960Z</time>
      </trkpt>
      <trkpt lat="46.40472" lon="6.65664">
        <ele>378.2</ele>
        <time>2017-03-15T09:54:26.049Z</time>
      </trkpt>
      <trkpt lat="46.40499" lon="6.65371">
        <ele>374.8</ele>
        <time>2017-03-15T09:54:33.166Z</time>
      </trkpt>
      <trkpt lat="46.40504" lon="6.65316">
        <ele>373.8</ele>
        <time>2017-03-15T09:54:40.288Z</time>
      </trkpt>
      <trkpt lat="46.40517" lon="6.6524">
        <ele>375.2</ele>
        <time>2017-03-15T09:54:47.417Z</time>
      </trkpt>
      <trkpt lat="46.40567" lon="6.64996">
        <ele>375.7</ele>
        <time>2017-03-15T09:54:54.570Z</time>
      </trkpt>
      <trkpt lat="46.40574" lon="6.64951">
        <ele>376.6</ele>
        <time>2017-03-15T09:55:01.727Z</time>
      </trkpt>
      <trkpt lat="46.40579" lon="6.64892">
        <ele>377.4</ele>
        <time>2017-03-15T09:55:08.889Z</time>
      </trkpt>
      <trkpt lat="46.4058" lon="6.6487">
        <ele>377</ele>
        <time>2017-03-15T09:55:16.053Z</time>
      </trkpt>
      <trkpt lat="46.40576" lon="6.64755">
        <ele>376.2</ele>
        <time>2017-03-15T09:55:23.228Z</time>
      </trkpt>
      <trkpt lat="46.40568" lon="6.64522">
        <ele>374.8</ele>
        <time>2017-03-15T09:55:30.424Z</time>
      </trkpt>
      <trkpt lat="46.40564" lon="6.64447">
        <ele>372.9</ele>
        <time>2017-03-15T09:55:37.627Z</time>
      </trkpt>
      <trkpt lat="46.4055" lon="6.64362">
        <ele>372.5</ele>
        <time>2017-03-15T09:55:44.838Z</time>
      </trkpt>
      <trkpt lat="46.40537" lon="6.64285">
        <ele>374.4</ele>
        <time>2017-03-15T09:55:52.057Z</time>
      </trkpt>
      <trkpt lat="46.40525" lon="6.64183">
        <ele>376.3</ele>
        <time>2017-03-15T09:55:59.285Z</time>
      </trkpt>
      <trkpt lat="46.40519" lon="6.64096">
        <ele>377.7</ele>
        <time>2017-03-15T09:56:06.521Z</time>
      </trkpt>
      <trkpt lat="46.40513" lon="6.64007">
        <ele>376.9</ele>
        <time>2017-03-15T09:56:13.766Z</time>
      </trkpt>
      <trkpt lat="46.40508" lon="6.63905">
        <ele>378</ele>
        <time>2017-03-15T09:56:21.020Z</time>
      </trkpt>
      <trkpt lat="46.40515" lon="6.63832">
        <ele>378</ele>
        <time>2017-03-15T09:56:28.281Z</time>
      </trkpt>
      <trkpt lat="46.40523" lon="6.6379">
        <ele>377</ele>
        <time>2017-03-15T09:56:35.546Z</time>
      </trkpt>
      <trkpt lat="46.40537" lon="6.63719">
        <ele>377</ele>
        <time>2017-03-15T09:56:42.818Z</time>
      </trkpt>
      <trkpt lat="46.40544" lon="6.63677">
        <ele>377</ele>
        <time>2017-03-15T09:56:50.094Z</time>
      </trkpt>
      <trkpt lat="46.40545" lon="6.63652">
        <ele>377.2</ele>
        <time>2017-03-15T09:56:57.372Z</time>
      </trkpt>
      <trkpt lat="46.40546" lon="6.63615">
        <ele>377.6</ele>
        <time>2017-03-15T09:57:04.653Z</time>
      </trkpt>
      <trkpt lat="46.40543" lon="6.63586">
        <ele>377.6</ele>
        <time>2017-03-15T09:57:11.937Z</time>
      </trkpt>
      <trkpt lat="46.40522" lon="6.63462">
        <ele>380.6</ele>
        <time>2017-03-15T09:57:19.233Z</time>
      </trkpt>
      <trkpt lat="46.40502" lon="6.63329">
        <ele>378.3</ele>
        <time>2017-03-15T09:57:26.541Z</time>
      </trkpt>
      <trkpt lat="46.40432" lon="6.62877">
        <ele>376.6</ele>
        <time>2017-03-15T09:57:33.892Z</time>
      </trkpt>
      <trkpt lat="46.40422" lon="6.628">
        <ele>377.2</ele>
        <time>2017-03-15T09:57:41.250Z</time>
      </trkpt>
      <trkpt lat="46.40418" lon="6.62735">
        <ele>377.7</ele>
        <time>2017-03-15T09:57:48.614Z</time>
      </trkpt>
      <trkpt lat="46.40409" lon="6.62528">
        <ele>374.3</ele>
        <time>2017-03-15T09:57:55.998Z</time>
      </trkpt>
      <trkpt lat="46.40398" lon="6.62304">
        <ele>377.2</ele>
        <time>2017-03-15T09:58:03.402Z</time>
      </trkpt>
      <trkpt lat="46.40385" lon="6.62202">
        <ele>377.4</ele>
        <time>2017-03-15T09:58:10.816Z</time>
      </trkpt>
      <trkpt lat="46.40366" lon="6.62104">
        <ele>375.2</ele>
        <time>2017-03-15T09:58:18.239Z</time>
      </trkpt>
      <trkpt lat="46.40337" lon="6.61952">
        <ele>375.5</ele>
        <time>2017-03-15T09:58:25.677Z</time>
      </trkpt>
      <trkpt lat="46.40335" lon="6.61916">
        <ele>375.3</ele>
        <time>2017-03-15T09:58:33.118Z</time>
      </trkpt>
      <trkpt lat="46.4033" lon="6.61821">
        <ele>375.7</ele>
        <time>2017-03-15T09:58:40.568Z</time>
      </trkpt>
      <trkpt lat="46.40326" lon="6.61637">
        <ele>375.9</ele>
        <time>2017-03-15T09:58:48.035Z</time>
      </trkpt>
      <trkpt lat="46.40309" lon="6.61492">
        <ele>377.3</ele>
        <time>2017-03-15T09:58:55.516Z</time>
      </trkpt>
      <trkpt lat="46.403" lon="6.61413">
        <ele>378.4</ele>
        <time>2017-03-15T09:59:03.004Z</time>
      </trkpt>
      <trkpt lat="46.40293" lon="6.6134">
        <ele>377.2</ele>
        <time>2017-03-15T09:59:10.499Z</time>
      </trkpt>
      <trkpt lat="46.40293" lon="6.61295">
        <ele>376.1</ele>
        <time>2017-03-15T09:59:17.998Z</time>
      </trkpt>
      <trkpt lat="46.40294" lon="6.61193">
        <ele>377.5</ele>
        <time>2017-03-15T09:59:25.506Z</time>
      </trkpt>
      <trkpt lat="46.40293" lon="6.61144">
        <ele>378.6</ele>
        <time>2017-03-15T09:59:33.019Z</time>
      </trkpt>
      <trkpt lat="46.40287" lon="6.61106">
        <ele>377.5</ele>
        <time>2017-03-15T09:59:40.535Z</time>
      </trkpt>
      <trkpt lat="46.40266" lon="6.61008">
        <ele>374.7</ele>
        <time>2017-03-15T09:59:48.061Z</time>
      </trkpt>
      <trkpt lat="46.40233" lon="6.60846">
        <ele>374.3</ele>
        <time>2017-03-15T09:59:55.602Z</time>
      </trkpt>
      <trkpt lat="46.40205" lon="6.60704">
        <ele>375.9</ele>
        <time>2017-03-15T10:00:03.157Z</time>
      </trkpt>
      <trkpt lat="46.40202" lon="6.60687">
        <ele>376.4</ele>
        <time>2017-03-15T10:00:10.714Z</time>
      </trkpt>
      <trkpt lat="46.40192" lon="6.60596">
        <ele>377.3</ele>
        <time>2017-03-15T10:00:18.279Z</time>
      </trkpt>
      <trkpt lat="46.40175" lon="6.60376">
        <ele>375.7</ele>
        <time>2017-03-15T10:00:25.865Z</time>
      </trkpt>
      <trkpt lat="46.40148" lon="6.60013">
        <ele>375</ele>
        <time>2017-03-15T10:00:33.484Z</time>
      </trkpt>
      <trkpt lat="46.40143" lon="6.59941">
        <ele>376.8</ele>
        <time>2017-03-15T10:00:41.110Z</time>
      </trkpt>
      <trkpt lat="46.40144" lon="6.59849">
        <ele>377.3</ele>
        <time>2017-03-15T10:00:48.744Z</time>
      </trkpt>
      <trkpt lat="46.40148" lon="6.59736">
        <ele>378</ele>
        <time>2017-03-15T10:00:56.389Z</time>
      </trkpt>
      <trkpt lat="46.40153" lon="6.59676">
        <ele>379</ele>
        <time>2017-03-15T10:01:04.039Z</time>
      </trkpt>
      <trkpt lat="46.40159" lon="6.59647">
        <ele>378.5</ele>
        <time>2017-03-15T10:01:11.692Z</time>
      </trkpt>
      <trkpt lat="46.4016" lon="6.59645">
        <ele>378.2</ele>
        <time>2017-03-15T10:01:19.346Z</time>
      </trkpt>
      <trkpt lat="46.40163" lon="6.5964">
        <ele>377.6</ele>
        <time>2017-03-15T10:01:27.000Z</time>
      </trkpt>
      <trkpt lat="46.40163" lon="6.5963">
        <ele>377</ele>
        <time>2017-03-15T10:01:34.655Z</time>
      </trkpt>
      <trkpt lat="46.40161" lon="6.59625">
        <ele>376.9</ele>
        <time>2017-03-15T10:01:42.311Z</time>
      </trkpt>
      <trkpt lat="46.40162" lon="6.59609">
        <ele>375.8</ele>
        <time>2017-03-15T10:01:49.968Z</time>
      </trkpt>
      <trkpt lat="46.40161" lon="6.59593">
        <ele>375</ele>
        <time>2017-03-15T10:01:57.627Z</time>
      </trkpt>
      <trkpt lat="46.40149" lon="6.59522">
        <ele>374.4</ele>
        <time>2017-03-15T10:02:05.292Z</time>
      </trkpt>
      <trkpt lat="46.40142" lon="6.59465">
        <ele>374.7</ele>
        <time>2017-03-15T10:02:12.963Z</time>
      </trkpt>
      <trkpt lat="46.40139" lon="6.59419">
        <ele>375</ele>
        <time>2017-03-15T10:02:20.638Z</time>
      </trkpt>
      <trkpt lat="46.40142" lon="6.5939">
        <ele>375.2</ele>
        <time>2017-03-15T10:02:28.316Z</time>
      </trkpt>
      <trkpt lat="46.40147" lon="6.59346">
        <ele>377.4</ele>
        <time>2017-03-15T10:02:35.998Z</time>
      </trkpt>
      <trkpt lat="46.40153" lon="6.5931">
        <ele>378.6</ele>
        <time>2017-03-15T10:02:43.683Z</time>
      </trkpt>
      <trkpt lat="46.40162" lon="6.59275">
        <ele>378</ele>
        <time>2017-03-15T10:02:51.372Z</time>
      </trkpt>
      <trkpt lat="46.40172" lon="6.5924">
        <ele>377.2</ele>
        <time>2017-03-15T10:02:59.064Z</time>
      </trkpt>
      <trkpt lat="46.40199" lon="6.59129">
        <ele>372.5</ele>
        <time>2017-03-15T10:03:06.767Z</time>
      </trkpt>
      <trkpt lat="46.4021" lon="6.59037">
        <ele>372.1</ele>
        <time>2017-03-15T10:03:14.479Z</time>
      </trkpt>
      <trkpt lat="46.40214" lon="6.58929">
        <ele>371.9</ele>
        <time>2017-03-15T10:03:22.201Z</time>
      </trkpt>
      <trkpt lat="46.40211" lon="6.58854">
        <ele>372.2</ele>
        <time>2017-03-15T10:03:29.929Z</time>
      </trkpt>
      <trkpt lat="46.40204" lon="6.58797">
        <ele>372.5</ele>
        <time>2017-03-15T10:03:37.663Z</time>
      </trkpt>
      <trkpt lat="46.40199" lon="6.58766">
        <ele>372.8</ele>
        <time>2017-03-15T10:03:45.400Z</time>
      </trkpt>
      <trkpt lat="46.40192" lon="6.58727">
        <ele>373.2</ele>
        <time>2017-03-15T10:03:53.140Z</time>
      </trkpt>
      <trkpt lat="46.40193" lon="6.58725">
        <ele>373.1</ele>
        <time>2017-03-15T10:04:00.881Z</time>
      </trkpt>
      <trkpt lat="46.40194" lon="6.58721">
        <ele>373</ele>
        <time>2017-03-15T10:04:08.622Z</time>
      </trkpt>
      <trkpt lat="46.40194" lon="6.58712">
        <ele>372.9</ele>
        <time>2017-03-15T10:04:16.364Z</time>
      </trkpt>
      <trkpt lat="46.40191" lon="6.58704">
        <ele>373.1</ele>
        <time>2017-03-15T10:04:24.107Z</time>
      </trkpt>
      <trkpt lat="46.4019" lon="6.58702">
        <ele>373.1</ele>
        <time>2017-03-15T10:04:31.850Z</time>
      </trkpt>
      <trkpt lat="46.40188" lon="6.58699">
        <ele>373.2</ele>
        <time>2017-03-15T10:04:39.593Z</time>
      </trkpt>
      <trkpt lat="46.40177" lon="6.58655">
        <ele>373.9</ele>
        <time>2017-03-15T10:04:47.341Z</time>
      </trkpt>
      <trkpt lat="46.40167" lon="6.58611">
        <ele>374.2</ele>
        <time>2017-03-15T10:04:55.093Z</time>
      </trkpt>
      <trkpt lat="46.40159" lon="6.58584">
        <ele>374.4</ele>
        <time>2017-03-15T10:05:02.848Z</time>
      </trkpt>
      <trkpt lat="46.40146" lon="6.58549">
        <ele>374.7</ele>
        <time>2017-03-15T10:05:10.606Z</time>
      </trkpt>
      <trkpt lat="46.40121" lon="6.58496">
        <ele>375.6</ele>
        <time>2017-03-15T10:05:18.370Z</time>
      </trkpt>
      <trkpt lat="46.40078" lon="6.58408">
        <ele>378</ele>
        <time>2017-03-15T10:05:26.144Z</time>
      </trkpt>
      <trkpt lat="46.40045" lon="6.5834">
        <ele>379.2</ele>
        <time>2017-03-15T10:05:33.926Z</time>
      </trkpt>
      <trkpt lat="46.40039" lon="6.58331">
        <ele>379.6</ele>
        <time>2017-03-15T10:05:41.709Z</time>
      </trkpt>
      <trkpt lat="46.40019" lon="6.58288">
        <ele>380.8</ele>
        <time>2017-03-15T10:05:49.497Z</time>
      </trkpt>
      <trkpt lat="46.40001" lon="6.58249">
        <ele>382</ele>
        <time>2017-03-15T10:05:57.289Z</time>
      </trkpt>
      <trkpt lat="46.39958" lon="6.58159">
        <ele>385</ele>
        <time>2017-03-15T10:06:05.091Z</time>
      </trkpt>
      <trkpt lat="46.39944" lon="6.58114">
        <ele>386.9</ele>
        <time>2017-03-15T10:06:12.898Z</time>
      </trkpt>
      <trkpt lat="46.39932" lon="6.58071">
        <ele>389.1</ele>
        <time>2017-03-15T10:06:20.709Z</time>
      </trkpt>
      <trkpt lat="46.39913" lon="6.57939">
        <ele>393.2</ele>
        <time>2017-03-15T10:06:28.532Z</time>
      </trkpt>
      <trkpt lat="46.39888" lon="6.57758">
        <ele>395.5</ele>
        <time>2017-03-15T10:06:36.373Z</time>
      </trkpt>
      <trkpt lat="46.3989" lon="6.57732">
        <ele>395.2</ele>
        <time>2017-03-15T10:06:44.216Z</time>
      </trkpt>
      <trkpt lat="46.39893" lon="6.57722">
        <ele>394.6</ele>
        <time>2017-03-15T10:06:52.060Z</time>
      </trkpt>
      <trkpt lat="46.39894" lon="6.57712">
        <ele>394.2</ele>
        <time>2017-03-15T10:06:59.905Z</time>
      </trkpt>
      <trkpt lat="46.39894" lon="6.57699">
        <ele>393.9</ele>
        <time>2017-03-15T10:07:07.751Z</time>
      </trkpt>
      <trkpt lat="46.39893" lon="6.57681">
        <ele>393.6</ele>
        <time>2017-03-15T10:07:15.599Z</time>
      </trkpt>
      <trkpt lat="46.39886" lon="6.57659">
        <ele>394.3</ele>
        <time>2017-03-15T10:07:23.449Z</time>
      </trkpt>
      <trkpt lat="46.39874" lon="6.57638">
        <ele>396.1</ele>
        <time>2017-03-15T10:07:31.301Z</time>
      </trkpt>
      <trkpt lat="46.39868" lon="6.57613">
        <ele>396.6</ele>
        <time>2017-03-15T10:07:39.156Z</time>
      </trkpt>
      <trkpt lat="46.39856" lon="6.57526">
        <ele>393.6</ele>
        <time>2017-03-15T10:07:47.019Z</time>
      </trkpt>
      <trkpt lat="46.39834" lon="6.57373">
        <ele>391.7</ele>
        <time>2017-03-15T10:07:54.897Z</time>
      </trkpt>
      <trkpt lat="46.39824" lon="6.57317">
        <ele>392.3</ele>
        <time>2017-03-15T10:08:02.780Z</time>
      </trkpt>
      <trkpt lat="46.39827" lon="6.57307">
        <ele>391.4</ele>
        <time>2017-03-15T10:08:10.664Z</time>
      </trkpt>
      <trkpt lat="46.39825" lon="6.57298">
        <ele>391.5</ele>
        <time>2017-03-15T10:08:18.549Z</time>
      </trkpt>
      <trkpt lat="46.3982" lon="6.57275">
        <ele>391.6</ele>
        <time>2017-03-15T10:08:26.436Z</time>
      </trkpt>
      <trkpt lat="46.39814" lon="6.57265">
        <ele>392.3</ele>
        <time>2017-03-15T10:08:34.324Z</time>
      </trkpt>
      <trkpt lat="46.39752" lon="6.56831">
        <ele>394.2</ele>
        <time>2017-03-15T10:08:42.253Z</time>
      </trkpt>
      <trkpt lat="46.397" lon="6.56468">
        <ele>396</ele>
        <time>2017-03-15T10:08:50.216Z</time>
      </trkpt>
      <trkpt lat="46.3963" lon="6.55985">
        <ele>396.1</ele>
        <time>2017-03-15T10:08:58.225Z</time>
      </trkpt>
      <trkpt lat="46.39559" lon="6.55528">
        <ele>389</ele>
        <time>2017-03-15T10:09:06.277Z</time>
      </trkpt>
      <trkpt lat="46.39517" lon="6.5529">
        <ele>389.9</ele>
        <time>2017-03-15T10:09:14.352Z</time>
      </trkpt>
      <trkpt lat="46.39507" lon="6.55221">
        <ele>388.6</ele>
        <time>2017-03-15T10:09:22.433Z</time>
      </trkpt>
      <trkpt lat="46.39501" lon="6.55164">
        <ele>386</ele>
        <time>2017-03-15T10:09:30.520Z</time>
      </trkpt>
      <trkpt lat="46.39486" lon="6.54959">
        <ele>381.4</ele>
        <time>2017-03-15T10:09:38.626Z</time>
      </trkpt>
      <trkpt lat="46.39474" lon="6.5477">
        <ele>378.2</ele>
        <time>2017-03-15T10:09:46.749Z</time>
      </trkpt>
      <trkpt lat="46.3946" lon="6.54524">
        <ele>372.3</ele>
        <time>2017-03-15T10:09:54.895Z</time>
      </trkpt>
      <trkpt lat="46.39465" lon="6.54456">
        <ele>372.4</ele>
        <time>2017-03-15T10:10:03.047Z</time>
      </trkpt>
      <trkpt lat="46.39495" lon="6.54285">
        <ele>376.7</ele>
        <time>2017-03-15T10:10:11.215Z</time>
      </trkpt>
      <trkpt lat="46.39502" lon="6.54243">
        <ele>376.8</ele>
        <time>2017-03-15T10:10:19.387Z</time>
      </trkpt>
      <trkpt lat="46.39502" lon="6.54135">
        <ele>376.6</ele>
        <time>2017-03-15T10:10:27.569Z</time>
      </trkpt>
      <trkpt lat="46.39501" lon="6.54064">
        <ele>376.1</ele>
        <time>2017-03-15T10:10:35.758Z</time>
      </trkpt>
      <trkpt lat="46.39494" lon="6.54024">
        <ele>376.3</ele>
        <time>2017-03-15T10:10:43.951Z</time>
      </trkpt>
      <trkpt lat="46.39485" lon="6.53998">
        <ele>376.8</ele>
        <time>2017-03-15T10:10:52.146Z</time>
      </trkpt>
      <trkpt lat="46.39469" lon="6.53969">
        <ele>377.2</ele>
        <time>2017-03-15T10:11:00.345Z</time>
      </trkpt>
      <trkpt lat="46.3946" lon="6.53952">
        <ele>377.4</ele>
        <time>2017-03-15T10:11:08.546Z</time>
      </trkpt>
      <trkpt lat="46.3945" lon="6.53936">
        <ele>377.6</ele>
        <time>2017-03-15T10:11:16.749Z</time>
      </trkpt>
      <trkpt lat="46.39422" lon="6.53891">
        <ele>378.1</ele>
        <time>2017-03-15T10:11:24.957Z</time>
      </trkpt>
      <trkpt lat="46.39391" lon="6.53809">
        <ele>379.2</ele>
        <time>2017-03-15T10:11:33.174Z</time>
      </trkpt>
      <trkpt lat="46.39388" lon="6.53801">
        <ele>379.3</ele>
        <time>2017-03-15T10:11:41.392Z</time>
      </trkpt>
      <trkpt lat="46.39376" lon="6.53772">
        <ele>379.8</ele>
        <time>2017-03-15T10:11:49.613Z</time>
      </trkpt>
      <trkpt lat="46.39317" lon="6.5361">
        <ele>379</ele>
        <time>2017-03-15T10:11:57.851Z</time>
      </trkpt>
      <trkpt lat="46.39312" lon="6.53595">
        <ele>378.7</ele>
        <time>2017-03-15T10:12:06.090Z</time>
      </trkpt>
      <trkpt lat="46.39298" lon="6.53545">
        <ele>378</ele>
        <time>2017-03-15T10:12:14.334Z</time>
      </trkpt>
      <trkpt lat="46.393" lon="6.53543">
        <ele>378</ele>
        <time>2017-03-15T10:12:22.579Z</time>
      </trkpt>
      <trkpt lat="46.39302" lon="6.53537">
        <ele>378</ele>
        <time>2017-03-15T10:12:30.824Z</time>
      </trkpt>
      <trkpt lat="46.39303" lon="6.53522">
        <ele>378</ele>
        <time>2017-03-15T10:12:39.071Z</time>
      </trkpt>
      <trkpt lat="46.39297" lon="6.53509">
        <ele>378</ele>
        <time>2017-03-15T10:12:47.319Z</time>
      </trkpt>
      <trkpt lat="46.39292" lon="6.53506">
        <ele>378</ele>
        <time>2017-03-15T10:12:55.568Z</time>
      </trkpt>
      <trkpt lat="46.3929" lon="6.53505">
        <ele>378</ele>
        <time>2017-03-15T10:13:03.817Z</time>
      </trkpt>
      <trkpt lat="46.39281" lon="6.53488">
        <ele>378</ele>
        <time>2017-03-15T10:13:12.068Z</time>
      </trkpt>
      <trkpt lat="46.39268" lon="6.5345">
        <ele>379.2</ele>
        <time>2017-03-15T10:13:20.323Z</time>
      </trkpt>
      <trkpt lat="46.39261" lon="6.53436">
        <ele>379.7</ele>
        <time>2017-03-15T10:13:28.580Z</time>
      </trkpt>
      <trkpt lat="46.39244" lon="6.53397">
        <ele>380.9</ele>
        <time>2017-03-15T10:13:36.841Z</time>
      </trkpt>
      <trkpt lat="46.3921" lon="6.53324">
        <ele>382.7</ele>
        <time>2017-03-15T10:13:45.110Z</time>
      </trkpt>
      <trkpt lat="46.39171" lon="6.53243">
        <ele>384</ele>
        <time>2017-03-15T10:13:53.388Z</time>
      </trkpt>
      <trkpt lat="46.39176" lon="6.5324">
        <ele>383.7</ele>
        <time>2017-03-15T10:14:01.667Z</time>
      </trkpt>
      <trkpt lat="46.39171" lon="6.53243">
        <ele>384</ele>
        <time>2017-03-15T10:14:09.947Z</time>
      </trkpt>
      <trkpt lat="46.39156" lon="6.53209">
        <ele>384.3</ele>
        <time>2017-03-15T10:14:18.230Z</time>
      </trkpt>
      <trkpt lat="46.39146" lon="6.53189">
        <ele>384.6</ele>
        <time>2017-03-15T10:14:26.516Z</time>
      </trkpt>
      <trkpt lat="46.39133" lon="6.53155">
        <ele>385.3</ele>
        <time>2017-03-15T10:14:34.805Z</time>
      </trkpt>
      <trkpt lat="46.39123" lon="6.53124">
        <ele>385.2</ele>
        <time>2017-03-15T10:14:43.097Z</time>
      </trkpt>
      <trkpt lat="46.39113" lon="6.53083">
        <ele>384.9</ele>
        <time>2017-03-15T10:14:51.393Z</time>
      </trkpt>
      <trkpt lat="46.39103" lon="6.5303">
        <ele>383.9</ele>
        <time>2017-03-15T10:14:59.694Z</time>
      </trkpt>
      <trkpt lat="46.39083" lon="6.52885">
        <ele>385.8</ele>
        <time>2017-03-15T10:15:08.009Z</time>
      </trkpt>
      <trkpt lat="46.39074" lon="6.5284">
        <ele>386.5</ele>
        <time>2017-03-15T10:15:16.328Z</time>
      </trkpt>
      <trkpt lat="46.39071" lon="6.52816">
        <ele>386.8</ele>
        <time>2017-03-15T10:15:24.650Z</time>
      </trkpt>
      <trkpt lat="46.39059" lon="6.52771">
        <ele>386</ele>
        <time>2017-03-15T10:15:32.976Z</time>
      </trkpt>
      <trkpt lat="46.3903" lon="6.52675">
        <ele>385.4</ele>
        <time>2017-03-15T10:15:41.312Z</time>
      </trkpt>
      <trkpt lat="46.39007" lon="6.52616">
        <ele>385.7</ele>
        <time>2017-03-15T10:15:49.654Z</time>
      </trkpt>
      <trkpt lat="46.38992" lon="6.52582">
        <ele>385.9</ele>
        <time>2017-03-15T10:15:58.000Z</time>
      </trkpt>
      <trkpt lat="46.3898" lon="6.52559">
        <ele>385.9</ele>
        <time>2017-03-15T10:16:06.348Z</time>
      </trkpt>
      <trkpt lat="46.38958" lon="6.52518">
        <ele>386</ele>
        <time>2017-03-15T10:16:14.701Z</time>
      </trkpt>
      <trkpt lat="46.38938" lon="6.52487">
        <ele>386.1</ele>
        <time>2017-03-15T10:16:23.058Z</time>
      </trkpt>
      <trkpt lat="46.38902" lon="6.52436">
        <ele>386.3</ele>
        <time>2017-03-15T10:16:31.422Z</time>
      </trkpt>
      <trkpt lat="46.38894" lon="6.52427">
        <ele>386.7</ele>
        <time>2017-03-15T10:16:39.787Z</time>
      </trkpt>
      <trkpt lat="46.38836" lon="6.52369">
        <ele>390.5</ele>
        <time>2017-03-15T10:16:48.162Z</time>
      </trkpt>
      <trkpt lat="46.3876" lon="6.5229">
        <ele>400.6</ele>
        <time>2017-03-15T10:16:56.549Z</time>
      </trkpt>
      <trkpt lat="46.38708" lon="6.52225">
        <ele>405.7</ele>
        <time>2017-03-15T10:17:04.945Z</time>
      </trkpt>
      <trkpt lat="46.38679" lon="6.52144">
        <ele>408.5</ele>
        <time>2017-03-15T10:17:13.350Z</time>
      </trkpt>
      <trkpt lat="46.38661" lon="6.52039">
        <ele>402</ele>
        <time>2017-03-15T10:17:21.765Z</time>
      </trkpt>
      <trkpt lat="46.38649" lon="6.51929">
        <ele>395</ele>
        <time>2017-03-15T10:17:30.190Z</time>
      </trkpt>
      <trkpt lat="46.38625" lon="6.51841">
        <ele>396.6</ele>
        <time>2017-03-15T10:17:38.624Z</time>
      </trkpt>
      <trkpt lat="46.38568" lon="6.51687">
        <ele>394.7</ele>
        <time>2017-03-15T10:17:47.074Z</time>
      </trkpt>
      <trkpt lat="46.38486" lon="6.51496">
        <ele>394.4</ele>
        <time>2017-03-15T10:17:55.545Z</time>
      </trkpt>
      <trkpt lat="46.38402" lon="6.51322">
        <ele>395</ele>
        <time>2017-03-15T10:18:04.035Z</time>
      </trkpt>
      <trkpt lat="46.38334" lon="6.51206">
        <ele>397.8</ele>
        <time>2017-03-15T10:18:12.539Z</time>
      </trkpt>
      <trkpt lat="46.38295" lon="6.51103">
        <ele>397.1</ele>
        <time>2017-03-15T10:18:21.054Z</time>
      </trkpt>
      <trkpt lat="46.38287" lon="6.51047">
        <ele>398</ele>
        <time>2017-03-15T10:18:29.574Z</time>
      </trkpt>
      <trkpt lat="46.38285" lon="6.50961">
        <ele>398.9</ele>
        <time>2017-03-15T10:18:38.102Z</time>
      </trkpt>
      <trkpt lat="46.3829" lon="6.50812">
        <ele>395.7</ele>
        <time>2017-03-15T10:18:46.644Z</time>
      </trkpt>
      <trkpt lat="46.38292" lon="6.50749">
        <ele>393.6</ele>
        <time>2017-03-15T10:18:55.192Z</time>
      </trkpt>
      <trkpt lat="46.38294" lon="6.50694">
        <ele>394.2</ele>
        <time>2017-03-15T10:19:03.745Z</time>
      </trkpt>
      <trkpt lat="46.38292" lon="6.50651">
        <ele>394.8</ele>
        <time>2017-03-15T10:19:12.302Z</time>
      </trkpt>
      <trkpt lat="46.38291" lon="6.5057">
        <ele>396.8</ele>
        <time>2017-03-15T10:19:20.866Z</time>
      </trkpt>
      <trkpt lat="46.38283" lon="6.50509">
        <ele>399.2</ele>
        <time>2017-03-15T10:19:29.436Z</time>
      </trkpt>
      <trkpt lat="46.38284" lon="6.50499">
        <ele>399.6</ele>
        <time>2017-03-15T10:19:38.007Z</time>
      </trkpt>
      <trkpt lat="46.38275" lon="6.50446">
        <ele>400.9</ele>
        <time>2017-03-15T10:19:46.583Z</time>
      </trkpt>
      <trkpt lat="46.3827" lon="6.5042">
        <ele>401.1</ele>
        <time>2017-03-15T10:19:55.162Z</time>
      </trkpt>
      <trkpt lat="46.3825" lon="6.50324">
        <ele>400.8</ele>
        <time>2017-03-15T10:20:03.750Z</time>
      </trkpt>
      <trkpt lat="46.38239" lon="6.50271">
        <ele>401.5</ele>
        <time>2017-03-15T10:20:12.343Z</time>
      </trkpt>
      <trkpt lat="46.3825" lon="6.50263">
        <ele>401.4</ele>
        <time>2017-03-15T10:20:20.938Z</time>
      </trkpt>
      <trkpt lat="46.38259" lon="6.50253">
        <ele>401.4</ele>
        <time>2017-03-15T10:20:29.534Z</time>
      </trkpt>
      <trkpt lat="46.38269" lon="6.50235">
        <ele>401.5</ele>
        <time>2017-03-15T10:20:38.132Z</time>
      </trkpt>
      <trkpt lat="46.38287" lon="6.50187">
        <ele>401.3</ele>
        <time>2017-03-15T10:20:46.735Z</time>
      </trkpt>
      <trkpt lat="46.38306" lon="6.5014">
        <ele>401.1</ele>
        <time>2017-03-15T10:20:55.343Z</time>
      </trkpt>
      <trkpt lat="46.38318" lon="6.5012">
        <ele>401.2</ele>
        <time>2017-03-15T10:21:03.954Z</time>
      </trkpt>
      <trkpt lat="46.38366" lon="6.50058">
        <ele>399.9</ele>
        <time>2017-03-15T10:21:12.573Z</time>
      </trkpt>
      <trkpt lat="46.38397" lon="6.50019">
        <ele>399.6</ele>
        <time>2017-03-15T10:21:21.198Z</time>
      </trkpt>
      <trkpt lat="46.38418" lon="6.49991">
        <ele>399.6</ele>
        <time>2017-03-15T10:21:29.827Z</time>
      </trkpt>
      <trkpt lat="46.38444" lon="6.49951">
        <ele>398.1</ele>
        <time>2017-03-15T10:21:38.461Z</time>
      </trkpt>
      <trkpt lat="46.38465" lon="6.49909">
        <ele>398</ele>
        <time>2017-03-15T10:21:47.099Z</time>
      </trkpt>
      <trkpt lat="46.38483" lon="6.49861">
        <ele>398</ele>
        <time>2017-03-15T10:21:55.742Z</time>
      </trkpt>
      <trkpt lat="46.38516" lon="6.49799">
        <ele>398</ele>
        <time>2017-03-15T10:22:04.393Z</time>
      </trkpt>
      <trkpt lat="46.38521" lon="6.49799">
        <ele>397.9</ele>
        <time>2017-03-15T10:22:13.044Z</time>
      </trkpt>
      <trkpt lat="46.38525" lon="6.49797">
        <ele>397.9</ele>
        <time>2017-03-15T10:22:21.696Z</time>
      </trkpt>
      <trkpt lat="46.3853" lon="6.49788">
        <ele>398.1</ele>
        <time>2017-03-15T10:22:30.349Z</time>
      </trkpt>
      <trkpt lat="46.38532" lon="6.49791">
        <ele>398</ele>
        <time>2017-03-15T10:22:39.002Z</time>
      </trkpt>
      <trkpt lat="46.38532" lon="6.49792">
        <ele>398</ele>
        <time>2017-03-15T10:22:47.655Z</time>
      </trkpt>
      <trkpt lat="46.3853" lon="6.49788">
        <ele>398.1</ele>
        <time>2017-03-15T10:22:56.309Z</time>
      </trkpt>
      <trkpt lat="46.38531" lon="6.49779">
        <ele>398.3</ele>
        <time>2017-03-15T10:23:04.964Z</time>
      </trkpt>
      <trkpt lat="46.3853" lon="6.49773">
        <ele>398.5</ele>
        <time>2017-03-15T10:23:13.619Z</time>
      </trkpt>
      <trkpt lat="46.38528" lon="6.4976">
        <ele>398.8</ele>
        <time>2017-03-15T10:23:22.276Z</time>
      </trkpt>
      <trkpt lat="46.38535" lon="6.49711">
        <ele>399.6</ele>
        <time>2017-03-15T10:23:30.937Z</time>
      </trkpt>
      <trkpt lat="46.38549" lon="6.49626">
        <ele>398.2</ele>
        <time>2017-03-15T10:23:39.606Z</time>
      </trkpt>
      <trkpt lat="46.38563" lon="6.49541">
        <ele>397.8</ele>
        <time>2017-03-15T10:23:48.283Z</time>
      </trkpt>
      <trkpt lat="46.38601" lon="6.49303">
        <ele>400.8</ele>
        <time>2017-03-15T10:23:56.983Z</time>
      </trkpt>
      <trkpt lat="46.38623" lon="6.49214">
        <ele>399.4</ele>
        <time>2017-03-15T10:24:05.692Z</time>
      </trkpt>
      <trkpt lat="46.38636" lon="6.49168">
        <ele>397.9</ele>
        <time>2017-03-15T10:24:14.405Z</time>
      </trkpt>
      <trkpt lat="46.38645" lon="6.49138">
        <ele>397</ele>
        <time>2017-03-15T10:24:23.121Z</time>
      </trkpt>
      <trkpt lat="46.38647" lon="6.49125">
        <ele>397</ele>
        <time>2017-03-15T10:24:31.838Z</time>
      </trkpt>
      <trkpt lat="46.38645" lon="6.49109">
        <ele>397</ele>
        <time>2017-03-15T10:24:40.557Z</time>
      </trkpt>
      <trkpt lat="46.3865" lon="6.4911">
        <ele>397</ele>
        <time>2017-03-15T10:24:49.277Z</time>
      </trkpt>
      <trkpt lat="46.38658" lon="6.49103">
        <ele>396.9</ele>
        <time>2017-03-15T10:24:57.998Z</time>
      </trkpt>
      <trkpt lat="46.3866" lon="6.49092">
        <ele>396.9</ele>
        <time>2017-03-15T10:25:06.720Z</time>
      </trkpt>
      <trkpt lat="46.38656" lon="6.4908">
        <ele>396.9</ele>
        <time>2017-03-15T10:25:15.443Z</time>
      </trkpt>
      <trkpt lat="46.38668" lon="6.4906">
        <ele>396.4</ele>
        <time>2017-03-15T10:25:24.169Z</time>
      </trkpt>
      <trkpt lat="46.38673" lon="6.49043">
        <ele>396.1</ele>
        <time>2017-03-15T10:25:32.896Z</time>
      </trkpt>
      <trkpt lat="46.38679" lon="6.49009">
        <ele>395.6</ele>
        <time>2017-03-15T10:25:41.627Z</time>
      </trkpt>
      <trkpt lat="46.38684" lon="6.48974">
        <ele>395.1</ele>
        <time>2017-03-15T10:25:50.361Z</time>
      </trkpt>
      <trkpt lat="46.38687" lon="6.48909">
        <ele>395.1</ele>
        <time>2017-03-15T10:25:59.101Z</time>
      </trkpt>
      <trkpt lat="46.38696" lon="6.48725">
        <ele>393.1</ele>
        <time>2017-03-15T10:26:07.858Z</time>
      </trkpt>
      <trkpt lat="46.38702" lon="6.48581">
        <ele>391.6</ele>
        <time>2017-03-15T10:26:16.628Z</time>
      </trkpt>
      <trkpt lat="46.38704" lon="6.48514">
        <ele>390.1</ele>
        <time>2017-03-15T10:26:25.404Z</time>
      </trkpt>
      <trkpt lat="46.38698" lon="6.48469">
        <ele>388.8</ele>
        <time>2017-03-15T10:26:34.185Z</time>
      </trkpt>
      <trkpt lat="46.3869" lon="6.48443">
        <ele>388.5</ele>
        <time>2017-03-15T10:26:42.968Z</time>
      </trkpt>
      <trkpt lat="46.38675" lon="6.48414">
        <ele>388.2</ele>
        <time>2017-03-15T10:26:51.755Z</time>
      </trkpt>
      <trkpt lat="46.38658" lon="6.48393">
        <ele>387.3</ele>
        <time>2017-03-15T10:27:00.545Z</time>
      </trkpt>
      <trkpt lat="46.38635" lon="6.48376">
        <ele>385.8</ele>
        <time>2017-03-15T10:27:09.338Z</time>
      </trkpt>
      <trkpt lat="46.38605" lon="6.48356">
        <ele>384.3</ele>
        <time>2017-03-15T10:27:18.135Z</time>
      </trkpt>
      <trkpt lat="46.38581" lon="6.48341">
        <ele>383.1</ele>
        <time>2017-03-15T10:27:26.936Z</time>
      </trkpt>
      <trkpt lat="46.38574" lon="6.48342">
        <ele>383.1</ele>
        <time>2017-03-15T10:27:35.738Z</time>
      </trkpt>
      <trkpt lat="46.38565" lon="6.48337">
        <ele>382.7</ele>
        <time>2017-03-15T10:27:44.541Z</time>
      </trkpt>
      <trkpt lat="46.38547" lon="6.48328">
        <ele>382</ele>
        <time>2017-03-15T10:27:53.347Z</time>
      </trkpt>
      <trkpt lat="46.38525" lon="6.4832">
        <ele>381.3</ele>
        <time>2017-03-15T10:28:02.156Z</time>
      </trkpt>
      <trkpt lat="46.38499" lon="6.48317">
        <ele>381</ele>
        <time>2017-03-15T10:28:10.968Z</time>
      </trkpt>
      <trkpt lat="46.38448" lon="6.48315">
        <ele>381.7</ele>
        <time>2017-03-15T10:28:19.787Z</time>
      </trkpt>
      <trkpt lat="46.38388" lon="6.48317">
        <ele>382.9</ele>
        <time>2017-03-15T10:28:28.614Z</time>
      </trkpt>
      <trkpt lat="46.38348" lon="6.48312">
        <ele>381.9</ele>
        <time>2017-03-15T10:28:37.446Z</time>
      </trkpt>
      <trkpt lat="46.3834" lon="6.48308">
        <ele>381.3</ele>
        <time>2017-03-15T10:28:46.279Z</time>
      </trkpt>
      <trkpt lat="46.3827" lon="6.4829">
        <ele>380.3</ele>
        <time>2017-03-15T10:28:55.122Z</time>
      </trkpt>
      <trkpt lat="46.38234" lon="6.4828">
        <ele>380.6</ele>
        <time>2017-03-15T10:29:03.970Z</time>
      </trkpt>
      <trkpt lat="46.38203" lon="6.48263">
        <ele>379</ele>
        <time>2017-03-15T10:29:12.822Z</time>
      </trkpt>
      <trkpt lat="46.38136" lon="6.48221">
        <ele>375.4</ele>
        <time>2017-03-15T10:29:21.684Z</time>
      </trkpt>
      <trkpt lat="46.38102" lon="6.48202">
        <ele>376.1</ele>
        <time>2017-03-15T10:29:30.551Z</time>
      </trkpt>
      <trkpt lat="46.38015" lon="6.48164">
        <ele>377.2</ele>
        <time>2017-03-15T10:29:39.430Z</time>
      </trkpt>
      <trkpt lat="46.37948" lon="6.48134">
        <ele>377.3</ele>
        <time>2017-03-15T10:29:48.318Z</time>
      </trkpt>
      <trkpt lat="46.37902" lon="6.48116">
        <ele>378</ele>
        <time>2017-03-15T10:29:57.213Z</time>
      </trkpt>
      <trkpt lat="46.37898" lon="6.4811">
        <ele>377.7</ele>
        <time>2017-03-15T10:30:06.108Z</time>
      </trkpt>
      <trkpt lat="46.37872" lon="6.48097">
        <ele>377.2</ele>
        <time>2017-03-15T10:30:15.007Z</time>
      </trkpt>
      <trkpt lat="46.37865" lon="6.48094">
        <ele>377.1</ele>
        <time>2017-03-15T10:30:23.907Z</time>
      </trkpt>
      <trkpt lat="46.37857" lon="6.48087">
        <ele>376.7</ele>
        <time>2017-03-15T10:30:32.808Z</time>
      </trkpt>
      <trkpt lat="46.37854" lon="6.4808">
        <ele>376.2</ele>
        <time>2017-03-15T10:30:41.710Z</time>
      </trkpt>
      <trkpt lat="46.37848" lon="6.48076">
        <ele>376</ele>
        <time>2017-03-15T10:30:50.613Z</time>
      </trkpt>
      <trkpt lat="46.37844" lon="6.48077">
        <ele>376.2</ele>
        <time>2017-03-15T10:30:59.517Z</time>
      </trkpt>
      <trkpt lat="46.37839" lon="6.48083">
        <ele>376.8</ele>
        <time>2017-03-15T10:31:08.421Z</time>
      </trkpt>
      <trkpt lat="46.3783" lon="6.48084">
        <ele>377.2</ele>
        <time>2017-03-15T10:31:17.327Z</time>
      </trkpt>
      <trkpt lat="46.3782" lon="6.48085">
        <ele>378.1</ele>
        <time>2017-03-15T10:31:26.234Z</time>
      </trkpt>
      <trkpt lat="46.37803" lon="6.48078">
        <ele>378.1</ele>
        <time>2017-03-15T10:31:35.143Z</time>
      </trkpt>
      <trkpt lat="46.37787" lon="6.4807">
        <ele>377.8</ele>
        <time>2017-03-15T10:31:44.055Z</time>
      </trkpt>
      <trkpt lat="46.37766" lon="6.48055">
        <ele>377.9</ele>
        <time>2017-03-15T10:31:52.970Z</time>
      </trkpt>
      <trkpt lat="46.3775" lon="6.48036">
        <ele>378</ele>
        <time>2017-03-15T10:32:01.887Z</time>
      </trkpt>
      <trkpt lat="46.37736" lon="6.48013">
        <ele>377.9</ele>
        <time>2017-03-15T10:32:10.807Z</time>
      </trkpt>
      <trkpt lat="46.37724" lon="6.47983">
        <ele>377.4</ele>
        <time>2017-03-15T10:32:19.730Z</time>
      </trkpt>
      <trkpt lat="46.37718" lon="6.47963">
        <ele>376.7</ele>
        <time>2017-03-15T10:32:28.655Z</time>
      </trkpt>
      <trkpt lat="46.37696" lon="6.4794">
        <ele>376.6</ele>
        <time>2017-03-15T10:32:37.584Z</time>
      </trkpt>
      <trkpt lat="46.37614" lon="6.479">
        <ele>378.2</ele>
        <time>2017-03-15T10:32:46.525Z</time>
      </trkpt>
      <trkpt lat="46.37582" lon="6.47891">
        <ele>379</ele>
        <time>2017-03-15T10:32:55.470Z</time>
      </trkpt>
      <trkpt lat="46.37539" lon="6.4787">
        <ele>381.7</ele>
        <time>2017-03-15T10:33:04.421Z</time>
      </trkpt>
      <trkpt lat="46.37532" lon="6.47863">
        <ele>382.2</ele>
        <time>2017-03-15T10:33:13.373Z</time>
      </trkpt>
      <trkpt lat="46.37524" lon="6.4785">
        <ele>382.5</ele>
        <time>2017-03-15T10:33:22.327Z</time>
      </trkpt>
      <trkpt lat="46.37488" lon="6.47778">
        <ele>382.4</ele>
        <time>2017-03-15T10:33:31.289Z</time>
      </trkpt>
      <trkpt lat="46.37476" lon="6.47754">
        <ele>382.5</ele>
        <time>2017-03-15T10:33:40.254Z</time>
      </trkpt>
      <trkpt lat="46.37402" lon="6.47607">
        <ele>389.3</ele>
        <time>2017-03-15T10:33:49.236Z</time>
      </trkpt>
      <trkpt lat="46.3737" lon="6.47536">
        <ele>394.3</ele>
        <time>2017-03-15T10:33:58.225Z</time>
      </trkpt>
      <trkpt lat="46.37331" lon="6.47438">
        <ele>396.7</ele>
        <time>2017-03-15T10:34:07.225Z</time>
      </trkpt>
      <trkpt lat="46.37294" lon="6.47349">
        <ele>396.7</ele>
        <time>2017-03-15T10:34:16.234Z</time>
      </trkpt>
      <trkpt lat="46.37276" lon="6.47318">
        <ele>398.4</ele>
        <time>2017-03-15T10:34:25.247Z</time>
      </trkpt>
      <trkpt lat="46.37251" lon="6.47284">
        <ele>400.8</ele>
        <time>2017-03-15T10:34:34.265Z</time>
      </trkpt>
      <trkpt lat="46.37228" lon="6.47254">
        <ele>402.9</ele>
        <time>2017-03-15T10:34:43.287Z</time>
      </trkpt>
      <trkpt lat="46.37199" lon="6.47213">
        <ele>403.8</ele>
        <time>2017-03-15T10:34:52.314Z</time>
      </trkpt>
      <trkpt lat="46.37185" lon="6.47189">
        <ele>403.6</ele>
        <time>2017-03-15T10:35:01.344Z</time>
      </trkpt>
      <trkpt lat="46.37155" lon="6.47122">
        <ele>401.8</ele>
        <time>2017-03-15T10:35:10.381Z</time>
      </trkpt>
      <trkpt lat="46.3715" lon="6.47116">
        <ele>402</ele>
        <time>2017-03-15T10:35:19.419Z</time>
      </trkpt>
      <trkpt lat="46.37144" lon="6.47113">
        <ele>403.1</ele>
        <time>2017-03-15T10:35:28.458Z</time>
      </trkpt>
      <trkpt lat="46.37137" lon="6.47114">
        <ele>405.2</ele>
        <time>2017-03-15T10:35:37.498Z</time>
      </trkpt>
      <trkpt lat="46.37132" lon="6.4712">
        <ele>407.2</ele>
        <time>2017-03-15T10:35:46.539Z</time>
      </trkpt>
      <trkpt lat="46.37131" lon="6.47128">
        <ele>408.3</ele>
        <time>2017-03-15T10:35:55.581Z</time>
      </trkpt>
      <trkpt lat="46.37132" lon="6.4714">
        <ele>408.9</ele>
        <time>2017-03-15T10:36:04.624Z</time>
      </trkpt>
      <trkpt lat="46.37139" lon="6.47159">
        <ele>408.9</ele>
        <time>2017-03-15T10:36:13.669Z</time>
      </trkpt>
      <trkpt lat="46.37175" lon="6.47233">
        <ele>410.8</ele>
        <time>2017-03-15T10:36:22.722Z</time>
      </trkpt>
      <trkpt lat="46.37227" lon="6.47339">
        <ele>412.6</ele>
        <time>2017-03-15T10:36:31.787Z</time>
      </trkpt>
      <trkpt lat="46.37276" lon="6.47456">
        <ele>414.1</ele>
        <time>2017-03-15T10:36:40.865Z</time>
      </trkpt>
      <trkpt lat="46.37285" lon="6.47492">
        <ele>414.8</ele>
        <time>2017-03-15T10:36:49.946Z</time>
      </trkpt>
      <trkpt lat="46.37285" lon="6.47494">
        <ele>414.9</ele>
        <time>2017-03-15T10:36:59.028Z</time>
      </trkpt>
      <trkpt lat="46.37286" lon="6.47516">
        <ele>415.4</ele>
        <time>2017-03-15T10:37:08.112Z</time>
      </trkpt>
      <trkpt lat="46.37282" lon="6.47516">
        <ele>416.4</ele>
        <time>2017-03-15T10:37:17.196Z</time>
      </trkpt>
      <trkpt lat="46.37278" lon="6.47519">
        <ele>417.5</ele>
        <time>2017-03-15T10:37:26.281Z</time>
      </trkpt>
      <trkpt lat="46.3722" lon="6.47405">
        <ele>420.5</ele>
        <time>2017-03-15T10:37:35.379Z</time>
      </trkpt>
      <trkpt lat="46.37175" lon="6.47311">
        <ele>416.8</ele>
        <time>2017-03-15T10:37:44.487Z</time>
      </trkpt>
      <trkpt lat="46.37131" lon="6.47226">
        <ele>417.7</ele>
        <time>2017-03-15T10:37:53.605Z</time>
      </trkpt>
      <trkpt lat="46.37112" lon="6.47191">
        <ele>418.3</ele>
        <time>2017-03-15T10:38:02.727Z</time>
      </trkpt>
      <trkpt lat="46.3708" lon="6.47118">
        <ele>418.7</ele>
        <time>2017-03-15T10:38:11.857Z</time>
      </trkpt>
      <trkpt lat="46.3706" lon="6.47062">
        <ele>420.2</ele>
        <time>2017-03-15T10:38:20.993Z</time>
      </trkpt>
      <trkpt lat="46.37032" lon="6.46976">
        <ele>416.7</ele>
        <time>2017-03-15T10:38:30.138Z</time>
      </trkpt>
      <trkpt lat="46.36998" lon="6.46871">
        <ele>417.9</ele>
        <time>2017-03-15T10:38:39.294Z</time>
      </trkpt>
      <trkpt lat="46.36982" lon="6.46814">
        <ele>417.7</ele>
        <time>2017-03-15T10:38:48.455Z</time>
      </trkpt>
      <trkpt lat="46.36973" lon="6.4676">
        <ele>416.4</ele>
        <time>2017-03-15T10:38:57.621Z</time>
      </trkpt>
      <trkpt lat="46.36943" lon="6.46472">
        <ele>411.7</ele>
        <time>2017-03-15T10:39:06.814Z</time>
      </trkpt>
      <trkpt lat="46.36935" lon="6.46427">
        <ele>410.4</ele>
        <time>2017-03-15T10:39:16.012Z</time>
      </trkpt>
      <trkpt lat="46.36923" lon="6.4638">
        <ele>410.4</ele>
        <time>2017-03-15T10:39:25.214Z</time>
      </trkpt>
      <trkpt lat="46.36895" lon="6.46273">
        <ele>411.3</ele>
        <time>2017-03-15T10:39:34.427Z</time>
      </trkpt>
      <trkpt lat="46.36887" lon="6.46245">
        <ele>410.6</ele>
        <time>2017-03-15T10:39:43.643Z</time>
      </trkpt>
      <trkpt lat="46.3687" lon="6.46198">
        <ele>411.5</ele>
        <time>2017-03-15T10:39:52.863Z</time>
      </trkpt>
      <trkpt lat="46.36825" lon="6.46106">
        <ele>415.7</ele>
        <time>2017-03-15T10:40:02.094Z</time>
      </trkpt>
      <trkpt lat="46.36785" lon="6.46025">
        <ele>417.7</ele>
        <time>2017-03-15T10:40:11.334Z</time>
      </trkpt>
      <trkpt lat="46.36746" lon="6.45942">
        <ele>420.2</ele>
        <time>2017-03-15T10:40:20.583Z</time>
      </trkpt>
      <trkpt lat="46.36727" lon="6.45895">
        <ele>422.1</ele>
        <time>2017-03-15T10:40:29.837Z</time>
      </trkpt>
      <trkpt lat="46.3669" lon="6.45778">
        <ele>420.4</ele>
        <time>2017-03-15T10:40:39.103Z</time>
      </trkpt>
      <trkpt lat="46.36671" lon="6.4572">
        <ele>419</ele>
        <time>2017-03-15T10:40:48.375Z</time>
      </trkpt>
      <trkpt lat="46.36654" lon="6.45679">
        <ele>421.6</ele>
        <time>2017-03-15T10:40:57.651Z</time>
      </trkpt>
      <trkpt lat="46.36628" lon="6.45625">
        <ele>421.5</ele>
        <time>2017-03-15T10:41:06.934Z</time>
      </trkpt>
      <trkpt lat="46.36602" lon="6.45573">
        <ele>418.7</ele>
        <time>2017-03-15T10:41:16.222Z</time>
      </trkpt>
      <trkpt lat="46.3659" lon="6.45558">
        <ele>419</ele>
        <time>2017-03-15T10:41:25.513Z</time>
      </trkpt>
      <trkpt lat="46.36568" lon="6.45538">
        <ele>420.6</ele>
        <time>2017-03-15T10:41:34.807Z</time>
      </trkpt>
      <trkpt lat="46.36531" lon="6.45519">
        <ele>421.1</ele>
        <time>2017-03-15T10:41:44.106Z</time>
      </trkpt>
      <trkpt lat="46.36501" lon="6.45502">
        <ele>421.2</ele>
        <time>2017-03-15T10:41:53.410Z</time>
      </trkpt>
      <trkpt lat="46.36471" lon="6.45479">
        <ele>421.2</ele>
        <time>2017-03-15T10:42:02.718Z</time>
      </trkpt>
      <trkpt lat="46.36431" lon="6.45433">
        <ele>420.4</ele>
        <time>2017-03-15T10:42:12.033Z</time>
      </trkpt>
      <trkpt lat="46.3635" lon="6.45328">
        <ele>417.4</ele>
        <time>2017-03-15T10:42:21.362Z</time>
      </trkpt>
      <trkpt lat="46.36282" lon="6.4521">
        <ele>413.2</ele>
        <time>2017-03-15T10:42:30.706Z</time>
      </trkpt>
      <trkpt lat="46.36206" lon="6.45082">
        <ele>411.3</ele>
        <time>2017-03-15T10:42:40.065Z</time>
      </trkpt>
      <trkpt lat="46.36196" lon="6.4507">
        <ele>411.3</ele>
        <time>2017-03-15T10:42:49.426Z</time>
      </trkpt>
      <trkpt lat="46.3618" lon="6.45055">
        <ele>411.9</ele>
        <time>2017-03-15T10:42:58.790Z</time>
      </trkpt>
      <trkpt lat="46.36158" lon="6.45043">
        <ele>413.1</ele>
        <time>2017-03-15T10:43:08.157Z</time>
      </trkpt>
      <trkpt lat="46.36137" lon="6.45036">
        <ele>414.2</ele>
        <time>2017-03-15T10:43:17.527Z</time>
      </trkpt>
      <trkpt lat="46.36131" lon="6.45032">
        <ele>414.4</ele>
        <time>2017-03-15T10:43:26.897Z</time>
      </trkpt>
      <trkpt lat="46.36113" lon="6.4503">
        <ele>415.2</ele>
        <time>2017-03-15T10:43:36.270Z</time>
      </trkpt>
      <trkpt lat="46.36089" lon="6.45029">
        <ele>416.4</ele>
        <time>2017-03-15T10:43:45.646Z</time>
      </trkpt>
      <trkpt lat="46.36072" lon="6.45037">
        <ele>417.3</ele>
        <time>2017-03-15T10:43:55.024Z</time>
      </trkpt>
      <trkpt lat="46.36033" lon="6.45062">
        <ele>418.9</ele>
        <time>2017-03-15T10:44:04.408Z</time>
      </trkpt>
      <trkpt lat="46.36021" lon="6.4507">
        <ele>419.5</ele>
        <time>2017-03-15T10:44:13.794Z</time>
      </trkpt>
      <trkpt lat="46.36015" lon="6.45077">
        <ele>419.5</ele>
        <time>2017-03-15T10:44:23.181Z</time>
      </trkpt>
      <trkpt lat="46.35986" lon="6.45097">
        <ele>421</ele>
        <time>2017-03-15T10:44:32.572Z</time>
      </trkpt>
      <trkpt lat="46.3597" lon="6.45109">
        <ele>421.5</ele>
        <time>2017-03-15T10:44:41.966Z</time>
      </trkpt>
      <trkpt lat="46.35961" lon="6.45112">
        <ele>421.6</ele>
        <time>2017-03-15T10:44:51.361Z</time>
      </trkpt>
      <trkpt lat="46.35942" lon="6.45123">
        <ele>421.5</ele>
        <time>2017-03-15T10:45:00.759Z</time>
      </trkpt>
      <trkpt lat="46.35921" lon="6.45133">
        <ele>421.3</ele>
        <time>2017-03-15T10:45:10.159Z</time>
      </trkpt>
      <trkpt lat="46.35917" lon="6.45134">
        <ele>421.2</ele>
        <time>2017-03-15T10:45:19.560Z</time>
      </trkpt>
      <trkpt lat="46.35915" lon="6.45132">
        <ele>421.2</ele>
        <time>2017-03-15T10:45:28.961Z</time>
      </trkpt>
      <trkpt lat="46.35907" lon="6.4513">
        <ele>421.1</ele>
        <time>2017-03-15T10:45:38.363Z</time>
      </trkpt>
      <trkpt lat="46.35896" lon="6.45122">
        <ele>421</ele>
        <time>2017-03-15T10:45:47.767Z</time>
      </trkpt>
      <trkpt lat="46.3588" lon="6.45104">
        <ele>421</ele>
        <time>2017-03-15T10:45:57.174Z</time>
      </trkpt>
      <trkpt lat="46.35869" lon="6.45096">
        <ele>421</ele>
        <time>2017-03-15T10:46:06.582Z</time>
      </trkpt>
      <trkpt lat="46.35855" lon="6.45094">
        <ele>421</ele>
        <time>2017-03-15T10:46:15.992Z</time>
      </trkpt>
      <trkpt lat="46.35835" lon="6.45099">
        <ele>421.1</ele>
        <time>2017-03-15T10:46:25.405Z</time>
      </trkpt>
      <trkpt lat="46.3583" lon="6.45095">
        <ele>421.2</ele>
        <time>2017-03-15T10:46:34.819Z</time>
      </trkpt>
      <trkpt lat="46.35823" lon="6.45088">
        <ele>421.2</ele>
        <time>2017-03-15T10:46:44.234Z</time>
      </trkpt>
      <trkpt lat="46.35813" lon="6.45082">
        <ele>421.2</ele>
        <time>2017-03-15T10:46:53.650Z</time>
      </trkpt>
      <trkpt lat="46.35793" lon="6.45082">
        <ele>421.2</ele>
        <time>2017-03-15T10:47:03.069Z</time>
      </trkpt>
      <trkpt lat="46.35789" lon="6.45087">
        <ele>421.3</ele>
        <time>2017-03-15T10:47:12.489Z</time>
      </trkpt>
      <trkpt lat="46.35787" lon="6.45083">
        <ele>421.2</ele>
        <time>2017-03-15T10:47:21.909Z</time>
      </trkpt>
      <trkpt lat="46.35756" lon="6.45029">
        <ele>420.6</ele>
        <time>2017-03-15T10:47:31.336Z</time>
      </trkpt>
      <trkpt lat="46.35736" lon="6.44993">
        <ele>420.1</ele>
        <time>2017-03-15T10:47:40.767Z</time>
      </trkpt>
      <trkpt lat="46.35712" lon="6.44944">
        <ele>419.8</ele>
        <time>2017-03-15T10:47:50.203Z</time>
      </trkpt>
      <trkpt lat="46.35692" lon="6.44912">
        <ele>419.5</ele>
        <time>2017-03-15T10:47:59.643Z</time>
      </trkpt>
      <trkpt lat="46.35666" lon="6.44877">
        <ele>420</ele>
        <time>2017-03-15T10:48:09.088Z</time>
      </trkpt>
      <trkpt lat="46.35646" lon="6.44855">
        <ele>420.6</ele>
        <time>2017-03-15T10:48:18.537Z</time>
      </trkpt>
      <trkpt lat="46.35569" lon="6.44778">
        <ele>419.3</ele>
        <time>2017-03-15T10:48:27.998Z</time>
      </trkpt>
      <trkpt lat="46.35538" lon="6.44737">
        <ele>418.2</ele>
        <time>2017-03-15T10:48:37.465Z</time>
      </trkpt>
      <trkpt lat="46.35514" lon="6.447">
        <ele>420.4</ele>
        <time>2017-03-15T10:48:46.936Z</time>
      </trkpt>
      <trkpt lat="46.355" lon="6.44674">
        <ele>422</ele>
        <time>2017-03-15T10:48:56.410Z</time>
      </trkpt>
      <trkpt lat="46.3548" lon="6.44633">
        <ele>424.8</ele>
        <time>2017-03-15T10:49:05.889Z</time>
      </trkpt>
      <trkpt lat="46.35444" lon="6.44531">
        <ele>427.6</ele>
        <time>2017-03-15T10:49:15.379Z</time>
      </trkpt>
      <trkpt lat="46.35337" lon="6.44226">
        <ele>430.4</ele>
        <time>2017-03-15T10:49:24.900Z</time>
      </trkpt>
      <trkpt lat="46.35334" lon="6.44213">
        <ele>430.2</ele>
        <time>2017-03-15T10:49:34.422Z</time>
      </trkpt>
      <trkpt lat="46.35321" lon="6.44173">
        <ele>429.4</ele>
        <time>2017-03-15T10:49:43.948Z</time>
      </trkpt>
      <trkpt lat="46.35252" lon="6.43978">
        <ele>428.5</ele>
        <time>2017-03-15T10:49:53.495Z</time>
      </trkpt>
      <trkpt lat="46.3525" lon="6.4396">
        <ele>428.5</ele>
        <time>2017-03-15T10:50:03.043Z</time>
      </trkpt>
      <trkpt lat="46.35251" lon="6.43956">
        <ele>428.5</ele>
        <time>2017-03-15T10:50:12.592Z</time>
      </trkpt>
      <trkpt lat="46.35252" lon="6.43945">
        <ele>428.5</ele>
        <time>2017-03-15T10:50:22.142Z</time>
      </trkpt>
      <trkpt lat="46.35249" lon="6.43934">
        <ele>428.6</ele>
        <time>2017-03-15T10:50:31.693Z</time>
      </trkpt>
      <trkpt lat="46.35248" lon="6.43932">
        <ele>428.6</ele>
        <time>2017-03-15T10:50:41.244Z</time>
      </trkpt>
      <trkpt lat="46.35241" lon="6.43926">
        <ele>428.8</ele>
        <time>2017-03-15T10:50:50.796Z</time>
      </trkpt>
      <trkpt lat="46.35237" lon="6.43925">
        <ele>428.9</ele>
        <time>2017-03-15T10:51:00.349Z</time>
      </trkpt>
      <trkpt lat="46.35227" lon="6.43907">
        <ele>429</ele>
        <time>2017-03-15T10:51:09.904Z</time>
      </trkpt>
      <trkpt lat="46.35216" lon="6.43879">
        <ele>428.9</ele>
        <time>2017-03-15T10:51:19.462Z</time>
      </trkpt>
      <trkpt lat="46.35192" lon="6.43814">
        <ele>427.9</ele>
        <time>2017-03-15T10:51:29.027Z</time>
      </trkpt>
      <trkpt lat="46.35135" lon="6.43653">
        <ele>428.3</ele>
        <time>2017-03-15T10:51:38.608Z</time>
      </trkpt>
      <trkpt lat="46.34995" lon="6.43261">
        <ele>431.5</ele>
        <time>2017-03-15T10:51:48.230Z</time>
      </trkpt>
      <trkpt lat="46.34977" lon="6.43202">
        <ele>432.2</ele>
        <time>2017-03-15T10:51:57.858Z</time>
      </trkpt>
      <trkpt lat="46.34971" lon="6.43189">
        <ele>432.5</ele>
        <time>2017-03-15T10:52:07.488Z</time>
      </trkpt>
      <trkpt lat="46.34946" lon="6.43157">
        <ele>433.7</ele>
        <time>2017-03-15T10:52:17.122Z</time>
      </trkpt>
      <trkpt lat="46.3494" lon="6.43145">
        <ele>433.9</ele>
        <time>2017-03-15T10:52:26.757Z</time>
      </trkpt>
      <trkpt lat="46.34936" lon="6.43134">
        <ele>434</ele>
        <time>2017-03-15T10:52:36.393Z</time>
      </trkpt>
      <trkpt lat="46.34936" lon="6.43124">
        <ele>433.9</ele>
        <time>2017-03-15T10:52:46.030Z</time>
      </trkpt>
      <trkpt lat="46.34932" lon="6.43112">
        <ele>433.9</ele>
        <time>2017-03-15T10:52:55.669Z</time>
      </trkpt>
      <trkpt lat="46.34929" lon="6.43108">
        <ele>434</ele>
        <time>2017-03-15T10:53:05.308Z</time>
      </trkpt>
      <trkpt lat="46.34924" lon="6.43104">
        <ele>434.2</ele>
        <time>2017-03-15T10:53:14.948Z</time>
      </trkpt>
      <trkpt lat="46.34923" lon="6.43095">
        <ele>434.1</ele>
        <time>2017-03-15T10:53:24.589Z</time>
      </trkpt>
      <trkpt lat="46.34922" lon="6.43093">
        <ele>434.2</ele>
        <time>2017-03-15T10:53:34.230Z</time>
      </trkpt>
      <trkpt lat="46.34924" lon="6.43104">
        <ele>434.2</ele>
        <time>2017-03-15T10:53:43.872Z</time>
      </trkpt>
      <trkpt lat="46.34917" lon="6.43101">
        <ele>434.5</ele>
        <time>2017-03-15T10:53:53.515Z</time>
      </trkpt>
      <trkpt lat="46.34906" lon="6.43103">
        <ele>435</ele>
        <time>2017-03-15T10:54:03.160Z</time>
      </trkpt>
      <trkpt lat="46.34912" lon="6.43086">
        <ele>434.6</ele>
        <time>2017-03-15T10:54:12.806Z</time>
      </trkpt>
      <trkpt lat="46.34914" lon="6.43062">
        <ele>434.1</ele>
        <time>2017-03-15T10:54:22.455Z</time>
      </trkpt>
      <trkpt lat="46.34912" lon="6.43039">
        <ele>433.7</ele>
        <time>2017-03-15T10:54:32.106Z</time>
      </trkpt>
      <trkpt lat="46.34907" lon="6.43018">
        <ele>433.4</ele>
        <time>2017-03-15T10:54:41.759Z</time>
      </trkpt>
      <trkpt lat="46.34862" lon="6.42886">
        <ele>433.7</ele>
        <time>2017-03-15T10:54:51.425Z</time>
      </trkpt>
      <trkpt lat="46.34834" lon="6.4283">
        <ele>433.4</ele>
        <time>2017-03-15T10:55:01.098Z</time>
      </trkpt>
      <trkpt lat="46.34828" lon="6.42822">
        <ele>433.5</ele>
        <time>2017-03-15T10:55:10.772Z</time>
      </trkpt>
      <trkpt lat="46.34819" lon="6.42813">
        <ele>433.7</ele>
        <time>2017-03-15T10:55:20.447Z</time>
      </trkpt>
      <trkpt lat="46.34812" lon="6.42811">
        <ele>434.1</ele>
        <time>2017-03-15T10:55:30.123Z</time>
      </trkpt>
      <trkpt lat="46.34813" lon="6.42811">
        <ele>434</ele>
        <time>2017-03-15T10:55:39.799Z</time>
      </trkpt>
      <trkpt lat="46.34817" lon="6.42809">
        <ele>433.8</ele>
        <time>2017-03-15T10:55:49.476Z</time>
      </trkpt>
      <trkpt lat="46.34823" lon="6.42802">
        <ele>433.4</ele>
        <time>2017-03-15T10:55:59.154Z</time>
      </trkpt>
      <trkpt lat="46.34827" lon="6.42792">
        <ele>433.1</ele>
        <time>2017-03-15T10:56:08.833Z</time>
      </trkpt>
      <trkpt lat="46.34829" lon="6.42781">
        <ele>432.9</ele>
        <time>2017-03-15T10:56:18.513Z</time>
      </trkpt>
      <trkpt lat="46.34827" lon="6.42771">
        <ele>432.9</ele>
        <time>2017-03-15T10:56:28.194Z</time>
      </trkpt>
      <trkpt lat="46.34823" lon="6.42761">
        <ele>432.9</ele>
        <time>2017-03-15T10:56:37.876Z</time>
      </trkpt>
      <trkpt lat="46.34804" lon="6.427">
        <ele>432.1</ele>
        <time>2017-03-15T10:56:47.564Z</time>
      </trkpt>
      <trkpt lat="46.34716" lon="6.42443">
        <ele>428.1</ele>
        <time>2017-03-15T10:56:57.279Z</time>
      </trkpt>
      <trkpt lat="46.34562" lon="6.42007">
        <ele>423.6</ele>
        <time>2017-03-15T10:57:07.039Z</time>
      </trkpt>
      <trkpt lat="46.34442" lon="6.41642">
        <ele>421.4</ele>
        <time>2017-03-15T10:57:16.836Z</time>
      </trkpt>
      <trkpt lat="46.34294" lon="6.41318">
        <ele>423</ele>
        <time>2017-03-15T10:57:26.669Z</time>
      </trkpt>
      <trkpt lat="46.3412" lon="6.40906">
        <ele>410.7</ele>
        <time>2017-03-15T10:57:36.547Z</time>
      </trkpt>
      <trkpt lat="46.3401" lon="6.40651">
        <ele>417.7</ele>
        <time>2017-03-15T10:57:46.452Z</time>
      </trkpt>
      <trkpt lat="46.33971" lon="6.40573">
        <ele>416.7</ele>
        <time>2017-03-15T10:57:56.366Z</time>
      </trkpt>
      <trkpt lat="46.33935" lon="6.40512">
        <ele>416.8</ele>
        <time>2017-03-15T10:58:06.288Z</time>
      </trkpt>
      <trkpt lat="46.33905" lon="6.40467">
        <ele>416.8</ele>
        <time>2017-03-15T10:58:16.216Z</time>
      </trkpt>
      <trkpt lat="46.33813" lon="6.40332">
        <ele>414.4</ele>
        <time>2017-03-15T10:58:26.161Z</time>
      </trkpt>
      <trkpt lat="46.33763" lon="6.40257">
        <ele>414.6</ele>
        <time>2017-03-15T10:58:36.116Z</time>
      </trkpt>
      <trkpt lat="46.33694" lon="6.40149">
        <ele>415</ele>
        <time>2017-03-15T10:58:46.084Z</time>
      </trkpt>
      <trkpt lat="46.33645" lon="6.4006">
        <ele>409.8</ele>
        <time>2017-03-15T10:58:56.063Z</time>
      </trkpt>
      <trkpt lat="46.33614" lon="6.39991">
        <ele>407.2</ele>
        <time>2017-03-15T10:59:06.049Z</time>
      </trkpt>
      <trkpt lat="46.33591" lon="6.39927">
        <ele>407.4</ele>
        <time>2017-03-15T10:59:16.042Z</time>
      </trkpt>
      <trkpt lat="46.33582" lon="6.39901">
        <ele>407.6</ele>
        <time>2017-03-15T10:59:26.038Z</time>
      </trkpt>
      <trkpt lat="46.33563" lon="6.39837">
        <ele>409.5</ele>
        <time>2017-03-15T10:59:36.040Z</time>
      </trkpt>
      <trkpt lat="46.33549" lon="6.39771">
        <ele>410.7</ele>
        <time>2017-03-15T10:59:46.048Z</time>
      </trkpt>
      <trkpt lat="46.33532" lon="6.39697">
        <ele>410.7</ele>
        <time>2017-03-15T10:59:56.064Z</time>
      </trkpt>
      <trkpt lat="46.33507" lon="6.39572">
        <ele>406.1</ele>
        <time>2017-03-15T11:00:06.092Z</time>
      </trkpt>
      <trkpt lat="46.33505" lon="6.39553">
        <ele>405.4</ele>
        <time>2017-03-15T11:00:16.121Z</time>
      </trkpt>
      <trkpt lat="46.33496" lon="6.39508">
        <ele>404.2</ele>
        <time>2017-03-15T11:00:26.155Z</time>
      </trkpt>
      <trkpt lat="46.3346" lon="6.39329">
        <ele>398.7</ele>
        <time>2017-03-15T11:00:36.206Z</time>
      </trkpt>
      <trkpt lat="46.33385" lon="6.38962">
        <ele>401.3</ele>
        <time>2017-03-15T11:00:46.292Z</time>
      </trkpt>
      <trkpt lat="46.33329" lon="6.38683">
        <ele>401.1</ele>
        <time>2017-03-15T11:00:56.405Z</time>
      </trkpt>
      <trkpt lat="46.33282" lon="6.38451">
        <ele>400</ele>
        <time>2017-03-15T11:01:06.541Z</time>
      </trkpt>
      <trkpt lat="46.33262" lon="6.38368">
        <ele>398.5</ele>
        <time>2017-03-15T11:01:16.685Z</time>
      </trkpt>
      <trkpt lat="46.33188" lon="6.38111">
        <ele>389.5</ele>
        <time>2017-03-15T11:01:26.854Z</time>
      </trkpt>
      <trkpt lat="46.3318" lon="6.38071">
        <ele>388.3</ele>
        <time>2017-03-15T11:01:37.027Z</time>
      </trkpt>
      <trkpt lat="46.33175" lon="6.38025">
        <ele>388.5</ele>
        <time>2017-03-15T11:01:47.205Z</time>
      </trkpt>
      <trkpt lat="46.33174" lon="6.37971">
        <ele>387.2</ele>
        <time>2017-03-15T11:01:57.388Z</time>
      </trkpt>
      <trkpt lat="46.3318" lon="6.37905">
        <ele>385.4</ele>
        <time>2017-03-15T11:02:07.577Z</time>
      </trkpt>
      <trkpt lat="46.3319" lon="6.3785">
        <ele>388</ele>
        <time>2017-03-15T11:02:17.771Z</time>
      </trkpt>
      <trkpt lat="46.33205" lon="6.37786">
        <ele>389.1</ele>
        <time>2017-03-15T11:02:27.971Z</time>
      </trkpt>
      <trkpt lat="46.33218" lon="6.37719">
        <ele>390.1</ele>
        <time>2017-03-15T11:02:38.178Z</time>
      </trkpt>
      <trkpt lat="46.33221" lon="6.37682">
        <ele>392</ele>
        <time>2017-03-15T11:02:48.388Z</time>
      </trkpt>
      <trkpt lat="46.33221" lon="6.37638">
        <ele>394.1</ele>
        <time>2017-03-15T11:02:58.602Z</time>
      </trkpt>
      <trkpt lat="46.33218" lon="6.3758">
        <ele>398.3</ele>
        <time>2017-03-15T11:03:08.821Z</time>
      </trkpt>
      <trkpt lat="46.33216" lon="6.37551">
        <ele>399.4</ele>
        <time>2017-03-15T11:03:19.043Z</time>
      </trkpt>
      <trkpt lat="46.33206" lon="6.37501">
        <ele>399.6</ele>
        <time>2017-03-15T11:03:29.270Z</time>
      </trkpt>
      <trkpt lat="46.33154" lon="6.37328">
        <ele>399</ele>
        <time>2017-03-15T11:03:39.514Z</time>
      </trkpt>
      <trkpt lat="46.33133" lon="6.37259">
        <ele>398.8</ele>
        <time>2017-03-15T11:03:49.765Z</time>
      </trkpt>
      <trkpt lat="46.33124" lon="6.3723">
        <ele>398.7</ele>
        <time>2017-03-15T11:04:00.019Z</time>
      </trkpt>
      <trkpt lat="46.33112" lon="6.37167">
        <ele>398.2</ele>
        <time>2017-03-15T11:04:10.279Z</time>
      </trkpt>
      <trkpt lat="46.3311" lon="6.37169">
        <ele>398.1</ele>
        <time>2017-03-15T11:04:20.540Z</time>
      </trkpt>
      <trkpt lat="46.33108" lon="6.37171">
        <ele>398.1</ele>
        <time>2017-03-15T11:04:30.801Z</time>
      </trkpt>
      <trkpt lat="46.33107" lon="6.37171">
        <ele>398</ele>
        <time>2017-03-15T11:04:41.062Z</time>
      </trkpt>
      <trkpt lat="46.33115" lon="6.37163">
        <ele>398.2</ele>
        <time>2017-03-15T11:04:51.324Z</time>
      </trkpt>
      <trkpt lat="46.33119" lon="6.37147">
        <ele>398.3</ele>
        <time>2017-03-15T11:05:01.588Z</time>
      </trkpt>
      <trkpt lat="46.33119" lon="6.37142">
        <ele>398.3</ele>
        <time>2017-03-15T11:05:11.852Z</time>
      </trkpt>
      <trkpt lat="46.33137" lon="6.37104">
        <ele>397.4</ele>
        <time>2017-03-15T11:05:22.121Z</time>
      </trkpt>
      <trkpt lat="46.33148" lon="6.37095">
        <ele>397.1</ele>
        <time>2017-03-15T11:05:32.391Z</time>
      </trkpt>
      <trkpt lat="46.33185" lon="6.37062">
        <ele>394.5</ele>
        <time>2017-03-15T11:05:42.667Z</time>
      </trkpt>
      <trkpt lat="46.33223" lon="6.37037">
        <ele>392.4</ele>
        <time>2017-03-15T11:05:52.949Z</time>
      </trkpt>
      <trkpt lat="46.33268" lon="6.37004">
        <ele>391</ele>
        <time>2017-03-15T11:06:03.237Z</time>
      </trkpt>
      <trkpt lat="46.33321" lon="6.36968">
        <ele>391.2</ele>
        <time>2017-03-15T11:06:13.533Z</time>
      </trkpt>
      <trkpt lat="46.33354" lon="6.36954">
        <ele>391.8</ele>
        <time>2017-03-15T11:06:23.834Z</time>
      </trkpt>
      <trkpt lat="46.33355" lon="6.36952">
        <ele>391.8</ele>
        <time>2017-03-15T11:06:34.135Z</time>
      </trkpt>
      <trkpt lat="46.33509" lon="6.36538">
        <ele>387</ele>
        <time>2017-03-15T11:06:44.480Z</time>
      </trkpt>
      <trkpt lat="46.33615" lon="6.36256">
        <ele>385.7</ele>
        <time>2017-03-15T11:06:54.854Z</time>
      </trkpt>
      <trkpt lat="46.33639" lon="6.36208">
        <ele>386.3</ele>
        <time>2017-03-15T11:07:05.234Z</time>
      </trkpt>
      <trkpt lat="46.33712" lon="6.36088">
        <ele>386.4</ele>
        <time>2017-03-15T11:07:15.628Z</time>
      </trkpt>
      <trkpt lat="46.33782" lon="6.35978">
        <ele>386.4</ele>
        <time>2017-03-15T11:07:26.036Z</time>
      </trkpt>
      <trkpt lat="46.33798" lon="6.35958">
        <ele>386.5</ele>
        <time>2017-03-15T11:07:36.447Z</time>
      </trkpt>
      <trkpt lat="46.33823" lon="6.3593">
        <ele>386.5</ele>
        <time>2017-03-15T11:07:46.862Z</time>
      </trkpt>
      <trkpt lat="46.34083" lon="6.35718">
        <ele>381.5</ele>
        <time>2017-03-15T11:07:57.317Z</time>
      </trkpt>
      <trkpt lat="46.34139" lon="6.35678">
        <ele>383.3</ele>
        <time>2017-03-15T11:08:07.780Z</time>
      </trkpt>
      <trkpt lat="46.34158" lon="6.35675">
        <ele>384.1</ele>
        <time>2017-03-15T11:08:18.246Z</time>
      </trkpt>
      <trkpt lat="46.34165" lon="6.35677">
        <ele>384.3</ele>
        <time>2017-03-15T11:08:28.713Z</time>
      </trkpt>
      <trkpt lat="46.34168" lon="6.35678">
        <ele>384.4</ele>
        <time>2017-03-15T11:08:39.180Z</time>
      </trkpt>
      <trkpt lat="46.34169" lon="6.35678">
        <ele>384.4</ele>
        <time>2017-03-15T11:08:49.647Z</time>
      </trkpt>
      <trkpt lat="46.34173" lon="6.35679">
        <ele>384.5</ele>
        <time>2017-03-15T11:09:00.115Z</time>
      </trkpt>
      <trkpt lat="46.34177" lon="6.35679">
        <ele>384.7</ele>
        <time>2017-03-15T11:09:10.584Z</time>
      </trkpt>
      <trkpt lat="46.34184" lon="6.35678">
        <ele>384.9</ele>
        <time>2017-03-15T11:09:21.053Z</time>
      </trkpt>
      <trkpt lat="46.34201" lon="6.35681">
        <ele>385.3</ele>
        <time>2017-03-15T11:09:31.525Z</time>
      </trkpt>
      <trkpt lat="46.3421" lon="6.35686">
        <ele>385.5</ele>
        <time>2017-03-15T11:09:41.998Z</time>
      </trkpt>
      <trkpt lat="46.3422" lon="6.35695">
        <ele>385.7</ele>
        <time>2017-03-15T11:09:52.473Z</time>
      </trkpt>
      <trkpt lat="46.34262" lon="6.35742">
        <ele>386.2</ele>
        <time>2017-03-15T11:10:02.955Z</time>
      </trkpt>
      <trkpt lat="46.34286" lon="6.35769">
        <ele>386.2</ele>
        <time>2017-03-15T11:10:13.441Z</time>
      </trkpt>
      <trkpt lat="46.34304" lon="6.35785">
        <ele>386.2</ele>
        <time>2017-03-15T11:10:23.930Z</time>
      </trkpt>
      <trkpt lat="46.34318" lon="6.35792">
        <ele>386.2</ele>
        <time>2017-03-15T11:10:34.421Z</time>
      </trkpt>
      <trkpt lat="46.3434" lon="6.35795">
        <ele>385.9</ele>
        <time>2017-03-15T11:10:44.915Z</time>
      </trkpt>
      <trkpt lat="46.34432" lon="6.35798">
        <ele>384.6</ele>
        <time>2017-03-15T11:10:55.421Z</time>
      </trkpt>
      <trkpt lat="46.34482" lon="6.35798">
        <ele>383.5</ele>
        <time>2017-03-15T11:11:05.933Z</time>
      </trkpt>
      <trkpt lat="46.34517" lon="6.35794">
        <ele>382</ele>
        <time>2017-03-15T11:11:16.450Z</time>
      </trkpt>
      <trkpt lat="46.34542" lon="6.35786">
        <ele>380.9</ele>
        <time>2017-03-15T11:11:26.971Z</time>
      </trkpt>
      <trkpt lat="46.34568" lon="6.35775">
        <ele>379.6</ele>
        <time>2017-03-15T11:11:37.495Z</time>
      </trkpt>
      <trkpt lat="46.34579" lon="6.35768">
        <ele>379.9</ele>
        <time>2017-03-15T11:11:48.021Z</time>
      </trkpt>
      <trkpt lat="46.34606" lon="6.35745">
        <ele>379.8</ele>
        <time>2017-03-15T11:11:58.551Z</time>
      </trkpt>
      <trkpt lat="46.34666" lon="6.35701">
        <ele>379.5</ele>
        <time>2017-03-15T11:12:09.090Z</time>
      </trkpt>
      <trkpt lat="46.34704" lon="6.35684">
        <ele>379.7</ele>
        <time>2017-03-15T11:12:19.634Z</time>
      </trkpt>
      <trkpt lat="46.34788" lon="6.3566">
        <ele>380.4</ele>
        <time>2017-03-15T11:12:30.190Z</time>
      </trkpt>
      <trkpt lat="46.3493" lon="6.35619">
        <ele>383.1</ele>
        <time>2017-03-15T11:12:40.765Z</time>
      </trkpt>
      <trkpt lat="46.34966" lon="6.3561">
        <ele>384.1</ele>
        <time>2017-03-15T11:12:51.345Z</time>
      </trkpt>
      <trkpt lat="46.34988" lon="6.35607">
        <ele>384.6</ele>
        <time>2017-03-15T11:13:01.928Z</time>
      </trkpt>
      <trkpt lat="46.35006" lon="6.35609">
        <ele>384.8</ele>
        <time>2017-03-15T11:13:12.513Z</time>
      </trkpt>
      <trkpt lat="46.35048" lon="6.35623">
        <ele>384.3</ele>
        <time>2017-03-15T11:13:23.104Z</time>
      </trkpt>
      <trkpt lat="46.3508" lon="6.35639">
        <ele>383.1</ele>
        <time>2017-03-15T11:13:33.699Z</time>
      </trkpt>
      <trkpt lat="46.35115" lon="6.35652">
        <ele>382.3</ele>
        <time>2017-03-15T11:13:44.299Z</time>
      </trkpt>
      <trkpt lat="46.35134" lon="6.35654">
        <ele>382.5</ele>
        <time>2017-03-15T11:13:54.902Z</time>
      </trkpt>
      <trkpt lat="46.3515" lon="6.35652">
        <ele>382.5</ele>
        <time>2017-03-15T11:14:05.507Z</time>
      </trkpt>
      <trkpt lat="46.35204" lon="6.35624">
        <ele>386.2</ele>
        <time>2017-03-15T11:14:16.120Z</time>
      </trkpt>
      <trkpt lat="46.35252" lon="6.35593">
        <ele>388.6</ele>
        <time>2017-03-15T11:14:26.740Z</time>
      </trkpt>
      <trkpt lat="46.35332" lon="6.35546">
        <ele>388.2</ele>
        <time>2017-03-15T11:14:37.371Z</time>
      </trkpt>
      <trkpt lat="46.3544" lon="6.35483">
        <ele>386.8</ele>
        <time>2017-03-15T11:14:48.018Z</time>
      </trkpt>
      <trkpt lat="46.35456" lon="6.3547">
        <ele>386.1</ele>
        <time>2017-03-15T11:14:58.667Z</time>
      </trkpt>
      <trkpt lat="46.35478" lon="6.35446">
        <ele>386.2</ele>
        <time>2017-03-15T11:15:09.320Z</time>
      </trkpt>
      <trkpt lat="46.35522" lon="6.35391">
        <ele>387.3</ele>
        <time>2017-03-15T11:15:19.981Z</time>
      </trkpt>
      <trkpt lat="46.3554" lon="6.35368">
        <ele>387.4</ele>
        <time>2017-03-15T11:15:30.645Z</time>
      </trkpt>
      <trkpt lat="46.35561" lon="6.35337">
        <ele>388.7</ele>
        <time>2017-03-15T11:15:41.313Z</time>
      </trkpt>
      <trkpt lat="46.35594" lon="6.35276">
        <ele>390.3</ele>
        <time>2017-03-15T11:15:51.988Z</time>
      </trkpt>
      <trkpt lat="46.35603" lon="6.35259">
        <ele>390.7</ele>
        <time>2017-03-15T11:16:02.665Z</time>
      </trkpt>
      <trkpt lat="46.35625" lon="6.3523">
        <ele>391.6</ele>
        <time>2017-03-15T11:16:13.346Z</time>
      </trkpt>
      <trkpt lat="46.3563" lon="6.35229">
        <ele>391.4</ele>
        <time>2017-03-15T11:16:24.028Z</time>
      </trkpt>
      <trkpt lat="46.35636" lon="6.35221">
        <ele>391.4</ele>
        <time>2017-03-15T11:16:34.711Z</time>
      </trkpt>
      <trkpt lat="46.35639" lon="6.35214">
        <ele>391.3</ele>
        <time>2017-03-15T11:16:45.394Z</time>
      </trkpt>
      <trkpt lat="46.35639" lon="6.35201">
        <ele>391.3</ele>
        <time>2017-03-15T11:16:56.079Z</time>
      </trkpt>
      <trkpt lat="46.35643" lon="6.35191">
        <ele>391.2</ele>
        <time>2017-03-15T11:17:06.765Z</time>
      </trkpt>
      <trkpt lat="46.35647" lon="6.35182">
        <ele>391</ele>
        <time>2017-03-15T11:17:17.452Z</time>
      </trkpt>
      <trkpt lat="46.35653" lon="6.35175">
        <ele>390.6</ele>
        <time>2017-03-15T11:17:28.140Z</time>
      </trkpt>
      <trkpt lat="46.35675" lon="6.35153">
        <ele>390.1</ele>
        <time>2017-03-15T11:17:38.831Z</time>
      </trkpt>
      <trkpt lat="46.35723" lon="6.35112">
        <ele>390.7</ele>
        <time>2017-03-15T11:17:49.530Z</time>
      </trkpt>
      <trkpt lat="46.35785" lon="6.35061">
        <ele>393.1</ele>
        <time>2017-03-15T11:18:00.238Z</time>
      </trkpt>
      <trkpt lat="46.35948" lon="6.34926">
        <ele>390.8</ele>
        <time>2017-03-15T11:18:10.971Z</time>
      </trkpt>
      <trkpt lat="46.35959" lon="6.34918">
        <ele>390.8</ele>
        <time>2017-03-15T11:18:21.706Z</time>
      </trkpt>
      <trkpt lat="46.36001" lon="6.34887">
        <ele>391.3</ele>
        <time>2017-03-15T11:18:32.447Z</time>
      </trkpt>
      <trkpt lat="46.36032" lon="6.34869">
        <ele>391.8</ele>
        <time>2017-03-15T11:18:43.193Z</time>
      </trkpt>
      <trkpt lat="46.36079" lon="6.3485">
        <ele>392.8</ele>
        <time>2017-03-15T11:18:53.945Z</time>
      </trkpt>
      <trkpt lat="46.36212" lon="6.34797">
        <ele>395.8</ele>
        <time>2017-03-15T11:19:04.716Z</time>
      </trkpt>
      <trkpt lat="46.36328" lon="6.34754">
        <ele>394.8</ele>
        <time>2017-03-15T11:19:15.503Z</time>
      </trkpt>
      <trkpt lat="46.36374" lon="6.34736">
        <ele>396.4</ele>
        <time>2017-03-15T11:19:26.296Z</time>
      </trkpt>
      <trkpt lat="46.36415" lon="6.34716">
        <ele>397</ele>
        <time>2017-03-15T11:19:37.095Z</time>
      </trkpt>
      <trkpt lat="46.36435" lon="6.34702">
        <ele>396.9</ele>
        <time>2017-03-15T11:19:47.897Z</time>
      </trkpt>
      <trkpt lat="46.36455" lon="6.34678">
        <ele>397.3</ele>
        <time>2017-03-15T11:19:58.702Z</time>
      </trkpt>
      <trkpt lat="46.36481" lon="6.34634">
        <ele>398.3</ele>
        <time>2017-03-15T11:20:09.512Z</time>
      </trkpt>
      <trkpt lat="46.36571" lon="6.34444">
        <ele>402.9</ele>
        <time>2017-03-15T11:20:20.344Z</time>
      </trkpt>
      <trkpt lat="46.36617" lon="6.34346">
        <ele>401.6</ele>
        <time>2017-03-15T11:20:31.187Z</time>
      </trkpt>
      <trkpt lat="46.36636" lon="6.34311">
        <ele>400.1</ele>
        <time>2017-03-15T11:20:42.034Z</time>
      </trkpt>
      <trkpt lat="46.36667" lon="6.3427">
        <ele>400.1</ele>
        <time>2017-03-15T11:20:52.886Z</time>
      </trkpt>
      <trkpt lat="46.36704" lon="6.34225">
        <ele>399.5</ele>
        <time>2017-03-15T11:21:03.745Z</time>
      </trkpt>
      <trkpt lat="46.36718" lon="6.34209">
        <ele>399.7</ele>
        <time>2017-03-15T11:21:14.606Z</time>
      </trkpt>
      <trkpt lat="46.36727" lon="6.34195">
        <ele>400.6</ele>
        <time>2017-03-15T11:21:25.469Z</time>
      </trkpt>
      <trkpt lat="46.36745" lon="6.34154">
        <ele>403.4</ele>
        <time>2017-03-15T11:21:36.336Z</time>
      </trkpt>
      <trkpt lat="46.36764" lon="6.34088">
        <ele>404.4</ele>
        <time>2017-03-15T11:21:47.210Z</time>
      </trkpt>
      <trkpt lat="46.3679" lon="6.33996">
        <ele>404</ele>
        <time>2017-03-15T11:21:58.093Z</time>
      </trkpt>
      <trkpt lat="46.36797" lon="6.33952">
        <ele>403.2</ele>
        <time>2017-03-15T11:22:08.980Z</time>
      </trkpt>
      <trkpt lat="46.36798" lon="6.33909">
        <ele>401.6</ele>
        <time>2017-03-15T11:22:19.871Z</time>
      </trkpt>
      <trkpt lat="46.36792" lon="6.33824">
        <ele>401.6</ele>
        <time>2017-03-15T11:22:30.770Z</time>
      </trkpt>
      <trkpt lat="46.36779" lon="6.337">
        <ele>402.9</ele>
        <time>2017-03-15T11:22:41.681Z</time>
      </trkpt>
      <trkpt lat="46.36779" lon="6.33664">
        <ele>402.5</ele>
        <time>2017-03-15T11:22:52.595Z</time>
      </trkpt>
      <trkpt lat="46.36788" lon="6.33549">
        <ele>402.5</ele>
        <time>2017-03-15T11:23:03.520Z</time>
      </trkpt>
      <trkpt lat="46.36791" lon="6.33494">
        <ele>403</ele>
        <time>2017-03-15T11:23:14.450Z</time>
      </trkpt>
      <trkpt lat="46.36795" lon="6.33462">
        <ele>403.2</ele>
        <time>2017-03-15T11:23:25.383Z</time>
      </trkpt>
      <trkpt lat="46.368" lon="6.33421">
        <ele>403.4</ele>
        <time>2017-03-15T11:23:36.320Z</time>
      </trkpt>
      <trkpt lat="46.36811" lon="6.33293">
        <ele>402.7</ele>
        <time>2017-03-15T11:23:47.269Z</time>
      </trkpt>
      <trkpt lat="46.36813" lon="6.33224">
        <ele>401.1</ele>
        <time>2017-03-15T11:23:58.224Z</time>
      </trkpt>
      <trkpt lat="46.36821" lon="6.33114">
        <ele>401.7</ele>
        <time>2017-03-15T11:24:09.189Z</time>
      </trkpt>
      <trkpt lat="46.36825" lon="6.33027">
        <ele>402.9</ele>
        <time>2017-03-15T11:24:20.162Z</time>
      </trkpt>
      <trkpt lat="46.36826" lon="6.32935">
        <ele>400.8</ele>
        <time>2017-03-15T11:24:31.144Z</time>
      </trkpt>
      <trkpt lat="46.36827" lon="6.32805">
        <ele>395.8</ele>
        <time>2017-03-15T11:24:42.138Z</time>
      </trkpt>
      <trkpt lat="46.36828" lon="6.32715">
        <ele>395.4</ele>
        <time>2017-03-15T11:24:53.140Z</time>
      </trkpt>
      <trkpt lat="46.36831" lon="6.32685">
        <ele>395.6</ele>
        <time>2017-03-15T11:25:04.145Z</time>
      </trkpt>
      <trkpt lat="46.36831" lon="6.32646">
        <ele>396</ele>
        <time>2017-03-15T11:25:15.154Z</time>
      </trkpt>
      <trkpt lat="46.36829" lon="6.32606">
        <ele>395.6</ele>
        <time>2017-03-15T11:25:26.166Z</time>
      </trkpt>
      <trkpt lat="46.3683" lon="6.32555">
        <ele>395.4</ele>
        <time>2017-03-15T11:25:37.183Z</time>
      </trkpt>
      <trkpt lat="46.36832" lon="6.32554">
        <ele>395.3</ele>
        <time>2017-03-15T11:25:48.200Z</time>
      </trkpt>
      <trkpt lat="46.36835" lon="6.3255">
        <ele>395.2</ele>
        <time>2017-03-15T11:25:59.218Z</time>
      </trkpt>
      <trkpt lat="46.36838" lon="6.32538">
        <ele>395.2</ele>
        <time>2017-03-15T11:26:10.237Z</time>
      </trkpt>
      <trkpt lat="46.36834" lon="6.32519">
        <ele>395.6</ele>
        <time>2017-03-15T11:26:21.258Z</time>
      </trkpt>
      <trkpt lat="46.36829" lon="6.32502">
        <ele>396</ele>
        <time>2017-03-15T11:26:32.281Z</time>
      </trkpt>
      <trkpt lat="46.36826" lon="6.32446">
        <ele>396.9</ele>
        <time>2017-03-15T11:26:43.309Z</time>
      </trkpt>
      <trkpt lat="46.36824" lon="6.32289">
        <ele>399.6</ele>
        <time>2017-03-15T11:26:54.351Z</time>
      </trkpt>
      <trkpt lat="46.36822" lon="6.32238">
        <ele>400.4</ele>
        <time>2017-03-15T11:27:05.398Z</time>
      </trkpt>
      <trkpt lat="46.36813" lon="6.32201">
        <ele>400</ele>
        <time>2017-03-15T11:27:16.449Z</time>
      </trkpt>
      <trkpt lat="46.36797" lon="6.32165">
        <ele>399.1</ele>
        <time>2017-03-15T11:27:27.503Z</time>
      </trkpt>
      <trkpt lat="46.3678" lon="6.32138">
        <ele>398.4</ele>
        <time>2017-03-15T11:27:38.561Z</time>
      </trkpt>
      <trkpt lat="46.36768" lon="6.32124">
        <ele>398</ele>
        <time>2017-03-15T11:27:49.621Z</time>
      </trkpt>
      <trkpt lat="46.36756" lon="6.32113">
        <ele>397.8</ele>
        <time>2017-03-15T11:28:00.683Z</time>
      </trkpt>
      <trkpt lat="46.36747" lon="6.32107">
        <ele>397.7</ele>
        <time>2017-03-15T11:28:11.746Z</time>
      </trkpt>
      <trkpt lat="46.36723" lon="6.32094">
        <ele>397.6</ele>
        <time>2017-03-15T11:28:22.813Z</time>
      </trkpt>
      <trkpt lat="46.36699" lon="6.32086">
        <ele>397.5</ele>
        <time>2017-03-15T11:28:33.883Z</time>
      </trkpt>
      <trkpt lat="46.36659" lon="6.32071">
        <ele>397.2</ele>
        <time>2017-03-15T11:28:44.958Z</time>
      </trkpt>
      <trkpt lat="46.36628" lon="6.32056">
        <ele>396.7</ele>
        <time>2017-03-15T11:28:56.038Z</time>
      </trkpt>
      <trkpt lat="46.3661" lon="6.32044">
        <ele>396</ele>
        <time>2017-03-15T11:29:07.120Z</time>
      </trkpt>
      <trkpt lat="46.3659" lon="6.32032">
        <ele>395.4</ele>
        <time>2017-03-15T11:29:18.205Z</time>
      </trkpt>
      <trkpt lat="46.36534" lon="6.31991">
        <ele>393.5</ele>
        <time>2017-03-15T11:29:29.299Z</time>
      </trkpt>
      <trkpt lat="46.36509" lon="6.31969">
        <ele>392.9</ele>
        <time>2017-03-15T11:29:40.397Z</time>
      </trkpt>
      <trkpt lat="46.36439" lon="6.31899">
        <ele>393.6</ele>
        <time>2017-03-15T11:29:51.506Z</time>
      </trkpt>
      <trkpt lat="46.364" lon="6.31863">
        <ele>395.1</ele>
        <time>2017-03-15T11:30:02.621Z</time>
      </trkpt>
      <trkpt lat="46.36278" lon="6.31746">
        <ele>393.9</ele>
        <time>2017-03-15T11:30:13.756Z</time>
      </trkpt>
      <trkpt lat="46.36242" lon="6.31712">
        <ele>394.8</ele>
        <time>2017-03-15T11:30:24.896Z</time>
      </trkpt>
      <trkpt lat="46.36223" lon="6.31689">
        <ele>395.6</ele>
        <time>2017-03-15T11:30:36.040Z</time>
      </trkpt>
      <trkpt lat="46.36201" lon="6.31655">
        <ele>396.3</ele>
        <time>2017-03-15T11:30:47.188Z</time>
      </trkpt>
      <trkpt lat="46.3619" lon="6.31631">
        <ele>396.9</ele>
        <time>2017-03-15T11:30:58.339Z</time>
      </trkpt>
      <trkpt lat="46.36155" lon="6.3153">
        <ele>400.4</ele>
        <time>2017-03-15T11:31:09.500Z</time>
      </trkpt>
      <trkpt lat="46.36077" lon="6.31303">
        <ele>403.4</ele>
        <time>2017-03-15T11:31:20.684Z</time>
      </trkpt>
      <trkpt lat="46.36054" lon="6.31253">
        <ele>404.3</ele>
        <time>2017-03-15T11:31:31.874Z</time>
      </trkpt>
      <trkpt lat="46.36024" lon="6.31197">
        <ele>404.9</ele>
        <time>2017-03-15T11:31:43.071Z</time>
      </trkpt>
      <trkpt lat="46.35959" lon="6.31076">
        <ele>404.7</ele>
        <time>2017-03-15T11:31:54.282Z</time>
      </trkpt>
      <trkpt lat="46.35844" lon="6.3086">
        <ele>407.5</ele>
        <time>2017-03-15T11:32:05.518Z</time>
      </trkpt>
      <trkpt lat="46.35735" lon="6.30648">
        <ele>406.8</ele>
        <time>2017-03-15T11:32:16.778Z</time>
      </trkpt>
      <trkpt lat="46.35686" lon="6.30556">
        <ele>407.1</ele>
        <time>2017-03-15T11:32:28.049Z</time>
      </trkpt>
      <trkpt lat="46.35654" lon="6.30498">
        <ele>407.8</ele>
        <time>2017-03-15T11:32:39.327Z</time>
      </trkpt>
      <trkpt lat="46.35638" lon="6.30472">
        <ele>408.3</ele>
        <time>2017-03-15T11:32:50.608Z</time>
      </trkpt>
      <trkpt lat="46.35548" lon="6.30352">
        <ele>411.1</ele>
        <time>2017-03-15T11:33:01.905Z</time>
      </trkpt>
      <trkpt lat="46.35456" lon="6.30231">
        <ele>414.5</ele>
        <time>2017-03-15T11:33:13.219Z</time>
      </trkpt>
      <trkpt lat="46.35354" lon="6.30095">
        <ele>420</ele>
        <time>2017-03-15T11:33:24.551Z</time>
      </trkpt>
      <trkpt lat="46.35312" lon="6.30041">
        <ele>422.6</ele>
        <time>2017-03-15T11:33:35.891Z</time>
      </trkpt>
      <trkpt lat="46.35266" lon="6.29969">
        <ele>424.3</ele>
        <time>2017-03-15T11:33:47.240Z</time>
      </trkpt>
      <trkpt lat="46.35247" lon="6.29937">
        <ele>425.3</ele>
        <time>2017-03-15T11:33:58.593Z</time>
      </trkpt>
      <trkpt lat="46.35247" lon="6.29932">
        <ele>425.3</ele>
        <time>2017-03-15T11:34:09.946Z</time>
      </trkpt>
      <trkpt lat="46.35245" lon="6.29922">
        <ele>425.3</ele>
        <time>2017-03-15T11:34:21.300Z</time>
      </trkpt>
      <trkpt lat="46.3524" lon="6.29915">
        <ele>425.6</ele>
        <time>2017-03-15T11:34:32.655Z</time>
      </trkpt>
      <trkpt lat="46.35234" lon="6.29912">
        <ele>426</ele>
        <time>2017-03-15T11:34:44.011Z</time>
      </trkpt>
      <trkpt lat="46.35223" lon="6.2988">
        <ele>426.1</ele>
        <time>2017-03-15T11:34:55.370Z</time>
      </trkpt>
      <trkpt lat="46.35217" lon="6.29875">
        <ele>426.3</ele>
        <time>2017-03-15T11:35:06.730Z</time>
      </trkpt>
      <trkpt lat="46.35211" lon="6.29862">
        <ele>426.4</ele>
        <time>2017-03-15T11:35:18.092Z</time>
      </trkpt>
      <trkpt lat="46.35199" lon="6.29822">
        <ele>426.1</ele>
        <time>2017-03-15T11:35:29.458Z</time>
      </trkpt>
      <trkpt lat="46.35186" lon="6.29782">
        <ele>426.7</ele>
        <time>2017-03-15T11:35:40.828Z</time>
      </trkpt>
      <trkpt lat="46.35137" lon="6.29618">
        <ele>427.7</ele>
        <time>2017-03-15T11:35:52.214Z</time>
      </trkpt>
      <trkpt lat="46.35128" lon="6.29587">
        <ele>427.3</ele>
        <time>2017-03-15T11:36:03.603Z</time>
      </trkpt>
      <trkpt lat="46.35121" lon="6.29557">
        <ele>426.9</ele>
        <time>2017-03-15T11:36:14.995Z</time>
      </trkpt>
      <trkpt lat="46.35119" lon="6.29519">
        <ele>426.7</ele>
        <time>2017-03-15T11:36:26.391Z</time>
      </trkpt>
      <trkpt lat="46.35118" lon="6.29429">
        <ele>426.6</ele>
        <time>2017-03-15T11:36:37.795Z</time>
      </trkpt>
      <trkpt lat="46.35116" lon="6.29407">
        <ele>426.6</ele>
        <time>2017-03-15T11:36:49.201Z</time>
      </trkpt>
      <trkpt lat="46.35104" lon="6.29342">
        <ele>426</ele>
        <time>2017-03-15T11:37:00.613Z</time>
      </trkpt>
      <trkpt lat="46.35087" lon="6.29242">
        <ele>425.3</ele>
        <time>2017-03-15T11:37:12.035Z</time>
      </trkpt>
      <trkpt lat="46.35077" lon="6.29187">
        <ele>424.5</ele>
        <time>2017-03-15T11:37:23.462Z</time>
      </trkpt>
      <trkpt lat="46.35073" lon="6.2918">
        <ele>424.4</ele>
        <time>2017-03-15T11:37:34.890Z</time>
      </trkpt>
      <trkpt lat="46.35069" lon="6.29176">
        <ele>424.4</ele>
        <time>2017-03-15T11:37:46.319Z</time>
      </trkpt>
      <trkpt lat="46.35061" lon="6.29174">
        <ele>424.2</ele>
        <time>2017-03-15T11:37:57.749Z</time>
      </trkpt>
      <trkpt lat="46.35048" lon="6.29171">
        <ele>423.7</ele>
        <time>2017-03-15T11:38:09.181Z</time>
      </trkpt>
      <trkpt lat="46.35015" lon="6.29131">
        <ele>422.2</ele>
        <time>2017-03-15T11:38:20.618Z</time>
      </trkpt>
      <trkpt lat="46.35" lon="6.29114">
        <ele>421.7</ele>
        <time>2017-03-15T11:38:32.058Z</time>
      </trkpt>
      <trkpt lat="46.34935" lon="6.29039">
        <ele>419.6</ele>
        <time>2017-03-15T11:38:43.509Z</time>
      </trkpt>
      <trkpt lat="46.34888" lon="6.2898">
        <ele>418.1</ele>
        <time>2017-03-15T11:38:54.968Z</time>
      </trkpt>
      <trkpt lat="46.34874" lon="6.28961">
        <ele>418.1</ele>
        <time>2017-03-15T11:39:06.430Z</time>
      </trkpt>
      <trkpt lat="46.34868" lon="6.2895">
        <ele>418</ele>
        <time>2017-03-15T11:39:17.893Z</time>
      </trkpt>
      <trkpt lat="46.34863" lon="6.28939">
        <ele>417.9</ele>
        <time>2017-03-15T11:39:29.357Z</time>
      </trkpt>
      <trkpt lat="46.34864" lon="6.28936">
        <ele>417.9</ele>
        <time>2017-03-15T11:39:40.822Z</time>
      </trkpt>
      <trkpt lat="46.34864" lon="6.28934">
        <ele>417.9</ele>
        <time>2017-03-15T11:39:52.287Z</time>
      </trkpt>
      <trkpt lat="46.34863" lon="6.28927">
        <ele>417.8</ele>
        <time>2017-03-15T11:40:03.752Z</time>
      </trkpt>
      <trkpt lat="46.34858" lon="6.28919">
        <ele>417.7</ele>
        <time>2017-03-15T11:40:15.218Z</time>
      </trkpt>
      <trkpt lat="46.34848" lon="6.28914">
        <ele>417.8</ele>
        <time>2017-03-15T11:40:26.686Z</time>
      </trkpt>
      <trkpt lat="46.3483" lon="6.28911">
        <ele>418</ele>
        <time>2017-03-15T11:40:38.156Z</time>
      </trkpt>
      <trkpt lat="46.34826" lon="6.28909">
        <ele>418</ele>
        <time>2017-03-15T11:40:49.627Z</time>
      </trkpt>
      <trkpt lat="46.348" lon="6.28878">
        <ele>417.7</ele>
        <time>2017-03-15T11:41:01.102Z</time>
      </trkpt>
      <trkpt lat="46.34785" lon="6.28853">
        <ele>417.3</ele>
        <time>2017-03-15T11:41:12.580Z</time>
      </trkpt>
      <trkpt lat="46.34735" lon="6.28742">
        <ele>416.9</ele>
        <time>2017-03-15T11:41:24.071Z</time>
      </trkpt>
      <trkpt lat="46.34695" lon="6.28654">
        <ele>415.7</ele>
        <time>2017-03-15T11:41:35.571Z</time>
      </trkpt>
      <trkpt lat="46.34664" lon="6.28585">
        <ele>413.7</ele>
        <time>2017-03-15T11:41:47.079Z</time>
      </trkpt>
      <trkpt lat="46.34654" lon="6.28569">
        <ele>413.2</ele>
        <time>2017-03-15T11:41:58.589Z</time>
      </trkpt>
      <trkpt lat="46.34638" lon="6.28554">
        <ele>412.8</ele>
        <time>2017-03-15T11:42:10.102Z</time>
      </trkpt>
      <trkpt lat="46.34585" lon="6.28514">
        <ele>412</ele>
        <time>2017-03-15T11:42:21.622Z</time>
      </trkpt>
      <trkpt lat="46.34556" lon="6.28495">
        <ele>411.5</ele>
        <time>2017-03-15T11:42:33.147Z</time>
      </trkpt>
      <trkpt lat="46.34517" lon="6.28474">
        <ele>410.9</ele>
        <time>2017-03-15T11:42:44.677Z</time>
      </trkpt>
      <trkpt lat="46.34469" lon="6.28442">
        <ele>410.1</ele>
        <time>2017-03-15T11:42:56.214Z</time>
      </trkpt>
      <trkpt lat="46.34441" lon="6.28423">
        <ele>409.6</ele>
        <time>2017-03-15T11:43:07.755Z</time>
      </trkpt>
      <trkpt lat="46.34426" lon="6.28412">
        <ele>409.4</ele>
        <time>2017-03-15T11:43:19.299Z</time>
      </trkpt>
      <trkpt lat="46.34402" lon="6.28392">
        <ele>408.9</ele>
        <time>2017-03-15T11:43:30.846Z</time>
      </trkpt>
      <trkpt lat="46.34331" lon="6.28305">
        <ele>407.2</ele>
        <time>2017-03-15T11:43:42.406Z</time>
      </trkpt>
      <trkpt lat="46.34125" lon="6.28045">
        <ele>412.6</ele>
        <time>2017-03-15T11:43:54.002Z</time>
      </trkpt>
      <trkpt lat="46.34071" lon="6.27976">
        <ele>416.2</ele>
        <time>2017-03-15T11:44:05.608Z</time>
      </trkpt>
      <trkpt lat="46.34017" lon="6.2791">
        <ele>417</ele>
        <time>2017-03-15T11:44:17.223Z</time>
      </trkpt>
      <trkpt lat="46.33979" lon="6.27877">
        <ele>417.6</ele>
        <time>2017-03-15T11:44:28.844Z</time>
      </trkpt>
      <trkpt lat="46.33928" lon="6.27848">
        <ele>418.8</ele>
        <time>2017-03-15T11:44:40.473Z</time>
      </trkpt>
      <trkpt lat="46.3372" lon="6.27732">
        <ele>419.4</ele>
        <time>2017-03-15T11:44:52.131Z</time>
      </trkpt>
      <trkpt lat="46.33643" lon="6.27692">
        <ele>418.2</ele>
        <time>2017-03-15T11:45:03.800Z</time>
      </trkpt>
      <trkpt lat="46.33535" lon="6.27629">
        <ele>412.9</ele>
        <time>2017-03-15T11:45:15.485Z</time>
      </trkpt>
      <trkpt lat="46.3345" lon="6.27586">
        <ele>413.6</ele>
        <time>2017-03-15T11:45:27.182Z</time>
      </trkpt>
      <trkpt lat="46.33412" lon="6.27565">
        <ele>414.4</ele>
        <time>2017-03-15T11:45:38.884Z</time>
      </trkpt>
      <trkpt lat="46.33366" lon="6.27531">
        <ele>414.6</ele>
        <time>2017-03-15T11:45:50.593Z</time>
      </trkpt>
      <trkpt lat="46.3332" lon="6.27482">
        <ele>413.9</ele>
        <time>2017-03-15T11:46:02.310Z</time>
      </trkpt>
      <trkpt lat="46.33276" lon="6.27429">
        <ele>412.9</ele>
        <time>2017-03-15T11:46:14.034Z</time>
      </trkpt>
      <trkpt lat="46.33242" lon="6.27389">
        <ele>412.3</ele>
        <time>2017-03-15T11:46:25.764Z</time>
      </trkpt>
      <trkpt lat="46.33228" lon="6.27367">
        <ele>412.1</ele>
        <time>2017-03-15T11:46:37.497Z</time>
      </trkpt>
      <trkpt lat="46.33214" lon="6.27338">
        <ele>411.7</ele>
        <time>2017-03-15T11:46:49.233Z</time>
      </trkpt>
      <trkpt lat="46.33155" lon="6.27205">
        <ele>410</ele>
        <time>2017-03-15T11:47:00.984Z</time>
      </trkpt>
      <trkpt lat="46.33144" lon="6.27185">
        <ele>410.1</ele>
        <time>2017-03-15T11:47:12.737Z</time>
      </trkpt>
      <trkpt lat="46.3313" lon="6.27165">
        <ele>410.3</ele>
        <time>2017-03-15T11:47:24.493Z</time>
      </trkpt>
      <trkpt lat="46.33086" lon="6.27125">
        <ele>411.2</ele>
        <time>2017-03-15T11:47:36.256Z</time>
      </trkpt>
      <trkpt lat="46.33043" lon="6.27089">
        <ele>411.7</ele>
        <time>2017-03-15T11:47:48.025Z</time>
      </trkpt>
      <trkpt lat="46.32973" lon="6.27027">
        <ele>411.9</ele>
        <time>2017-03-15T11:47:59.805Z</time>
      </trkpt>
      <trkpt lat="46.32957" lon="6.27013">
        <ele>411.8</ele>
        <time>2017-03-15T11:48:11.588Z</time>
      </trkpt>
      <trkpt lat="46.32902" lon="6.26965">
        <ele>411.5</ele>
        <time>2017-03-15T11:48:23.379Z</time>
      </trkpt>
      <trkpt lat="46.32894" lon="6.26957">
        <ele>411.5</ele>
        <time>2017-03-15T11:48:35.172Z</time>
      </trkpt>
      <trkpt lat="46.32872" lon="6.26937">
        <ele>411.6</ele>
        <time>2017-03-15T11:48:46.968Z</time>
      </trkpt>
      <trkpt lat="46.32852" lon="6.26911">
        <ele>411.4</ele>
        <time>2017-03-15T11:48:58.768Z</time>
      </trkpt>
      <trkpt lat="46.3283" lon="6.26874">
        <ele>412.1</ele>
        <time>2017-03-15T11:49:10.572Z</time>
      </trkpt>
      <trkpt lat="46.32814" lon="6.26841">
        <ele>413.3</ele>
        <time>2017-03-15T11:49:22.380Z</time>
      </trkpt>
      <trkpt lat="46.32805" lon="6.26827">
        <ele>414.1</ele>
        <time>2017-03-15T11:49:34.190Z</time>
      </trkpt>
      <trkpt lat="46.32796" lon="6.26816">
        <ele>414.8</ele>
        <time>2017-03-15T11:49:46.001Z</time>
      </trkpt>
      <trkpt lat="46.32777" lon="6.26801">
        <ele>415.9</ele>
        <time>2017-03-15T11:49:57.815Z</time>
      </trkpt>
      <trkpt lat="46.32723" lon="6.26765">
        <ele>418.6</ele>
        <time>2017-03-15T11:50:09.637Z</time>
      </trkpt>
      <trkpt lat="46.32713" lon="6.26755">
        <ele>418.7</ele>
        <time>2017-03-15T11:50:21.461Z</time>
      </trkpt>
      <trkpt lat="46.32705" lon="6.26753">
        <ele>418.7</ele>
        <time>2017-03-15T11:50:33.286Z</time>
      </trkpt>
      <trkpt lat="46.3269" lon="6.26758">
        <ele>418.7</ele>
        <time>2017-03-15T11:50:45.113Z</time>
      </trkpt>
      <trkpt lat="46.32667" lon="6.26763">
        <ele>418.9</ele>
        <time>2017-03-15T11:50:56.943Z</time>
      </trkpt>
      <trkpt lat="46.32624" lon="6.26768">
        <ele>419.2</ele>
        <time>2017-03-15T11:51:08.779Z</time>
      </trkpt>
      <trkpt lat="46.32586" lon="6.26774">
        <ele>418.8</ele>
        <time>2017-03-15T11:51:20.620Z</time>
      </trkpt>
      <trkpt lat="46.32549" lon="6.2678">
        <ele>418.4</ele>
        <time>2017-03-15T11:51:32.466Z</time>
      </trkpt>
      <trkpt lat="46.32503" lon="6.26792">
        <ele>417.1</ele>
        <time>2017-03-15T11:51:44.318Z</time>
      </trkpt>
      <trkpt lat="46.32387" lon="6.26837">
        <ele>417.7</ele>
        <time>2017-03-15T11:51:56.186Z</time>
      </trkpt>
      <trkpt lat="46.32315" lon="6.26863">
        <ele>418</ele>
        <time>2017-03-15T11:52:08.064Z</time>
      </trkpt>
      <trkpt lat="46.32272" lon="6.26878">
        <ele>418</ele>
        <time>2017-03-15T11:52:19.948Z</time>
      </trkpt>
      <trkpt lat="46.32256" lon="6.26886">
        <ele>418</ele>
        <time>2017-03-15T11:52:31.834Z</time>
      </trkpt>
      <trkpt lat="46.32236" lon="6.26896">
        <ele>418</ele>
        <time>2017-03-15T11:52:43.723Z</time>
      </trkpt>
      <trkpt lat="46.32209" lon="6.26903">
        <ele>417.9</ele>
        <time>2017-03-15T11:52:55.616Z</time>
      </trkpt>
      <trkpt lat="46.32177" lon="6.26915">
        <ele>417.8</ele>
        <time>2017-03-15T11:53:07.513Z</time>
      </trkpt>
      <trkpt lat="46.32095" lon="6.26946">
        <ele>417</ele>
        <time>2017-03-15T11:53:19.421Z</time>
      </trkpt>
      <trkpt lat="46.32066" lon="6.26953">
        <ele>417</ele>
        <time>2017-03-15T11:53:31.333Z</time>
      </trkpt>
      <trkpt lat="46.3204" lon="6.26954">
        <ele>416.7</ele>
        <time>2017-03-15T11:53:43.249Z</time>
      </trkpt>
      <trkpt lat="46.32025" lon="6.26953">
        <ele>416.5</ele>
        <time>2017-03-15T11:53:55.167Z</time>
      </trkpt>
      <trkpt lat="46.31992" lon="6.26946">
        <ele>416.1</ele>
        <time>2017-03-15T11:54:07.089Z</time>
      </trkpt>
      <trkpt lat="46.31963" lon="6.26936">
        <ele>416.2</ele>
        <time>2017-03-15T11:54:19.015Z</time>
      </trkpt>
      <trkpt lat="46.31949" lon="6.26929">
        <ele>416.4</ele>
        <time>2017-03-15T11:54:30.943Z</time>
      </trkpt>
      <trkpt lat="46.31926" lon="6.26909">
        <ele>416.7</ele>
        <time>2017-03-15T11:54:42.875Z</time>
      </trkpt>
      <trkpt lat="46.31902" lon="6.26884">
        <ele>416.9</ele>
        <time>2017-03-15T11:54:54.811Z</time>
      </trkpt>
      <trkpt lat="46.31846" lon="6.26818">
        <ele>416.4</ele>
        <time>2017-03-15T11:55:06.756Z</time>
      </trkpt>
      <trkpt lat="46.31834" lon="6.26805">
        <ele>416.1</ele>
        <time>2017-03-15T11:55:18.703Z</time>
      </trkpt>
      <trkpt lat="46.31765" lon="6.26737">
        <ele>413</ele>
        <time>2017-03-15T11:55:30.662Z</time>
      </trkpt>
      <trkpt lat="46.31724" lon="6.26695">
        <ele>412.9</ele>
        <time>2017-03-15T11:55:42.627Z</time>
      </trkpt>
      <trkpt lat="46.3172" lon="6.26686">
        <ele>413.2</ele>
        <time>2017-03-15T11:55:54.593Z</time>
      </trkpt>
      <trkpt lat="46.31713" lon="6.26679">
        <ele>413.4</ele>
        <time>2017-03-15T11:56:06.560Z</time>
      </trkpt>
      <trkpt lat="46.31703" lon="6.26667">
        <ele>413.8</ele>
        <time>2017-03-15T11:56:18.529Z</time>
      </trkpt>
      <trkpt lat="46.31696" lon="6.2666">
        <ele>414.1</ele>
        <time>2017-03-15T11:56:30.499Z</time>
      </trkpt>
      <trkpt lat="46.31696" lon="6.26654">
        <ele>414.2</ele>
        <time>2017-03-15T11:56:42.470Z</time>
      </trkpt>
      <trkpt lat="46.31695" lon="6.26648">
        <ele>414.4</ele>
        <time>2017-03-15T11:56:54.441Z</time>
      </trkpt>
      <trkpt lat="46.31688" lon="6.2664">
        <ele>414.9</ele>
        <time>2017-03-15T11:57:06.414Z</time>
      </trkpt>
      <trkpt lat="46.31684" lon="6.26638">
        <ele>415</ele>
        <time>2017-03-15T11:57:18.387Z</time>
      </trkpt>
      <trkpt lat="46.3168" lon="6.2664">
        <ele>415</ele>
        <time>2017-03-15T11:57:30.361Z</time>
      </trkpt>
      <trkpt lat="46.31676" lon="6.26645">
        <ele>414.7</ele>
        <time>2017-03-15T11:57:42.335Z</time>
      </trkpt>
      <trkpt lat="46.31674" lon="6.26648">
        <ele>414.6</ele>
        <time>2017-03-15T11:57:54.310Z</time>
      </trkpt>
      <trkpt lat="46.31674" lon="6.26649">
        <ele>414.6</ele>
        <time>2017-03-15T11:58:06.285Z</time>
      </trkpt>
      <trkpt lat="46.3166" lon="6.26647">
        <ele>414.8</ele>
        <time>2017-03-15T11:58:18.262Z</time>
      </trkpt>
      <trkpt lat="46.31644" lon="6.26649">
        <ele>415.2</ele>
        <time>2017-03-15T11:58:30.241Z</time>
      </trkpt>
      <trkpt lat="46.31636" lon="6.26652">
        <ele>415.8</ele>
        <time>2017-03-15T11:58:42.221Z</time>
      </trkpt>
      <trkpt lat="46.31616" lon="6.26665">
        <ele>417.2</ele>
        <time>2017-03-15T11:58:54.204Z</time>
      </trkpt>
      <trkpt lat="46.31603" lon="6.26677">
        <ele>418.2</ele>
        <time>2017-03-15T11:59:06.189Z</time>
      </trkpt>
      <trkpt lat="46.31592" lon="6.26672">
        <ele>419</ele>
        <time>2017-03-15T11:59:18.175Z</time>
      </trkpt>
      <trkpt lat="46.31586" lon="6.26669">
        <ele>419.4</ele>
        <time>2017-03-15T11:59:30.162Z</time>
      </trkpt>
      <trkpt lat="46.31573" lon="6.26654">
        <ele>420.3</ele>
        <time>2017-03-15T11:59:42.152Z</time>
      </trkpt>
      <trkpt lat="46.31553" lon="6.26626">
        <ele>421.5</ele>
        <time>2017-03-15T11:59:54.145Z</time>
      </trkpt>
      <trkpt lat="46.31537" lon="6.26599">
        <ele>422.2</ele>
        <time>2017-03-15T12:00:06.142Z</time>
      </trkpt>
      <trkpt lat="46.31519" lon="6.26575">
        <ele>422.9</ele>
        <time>2017-03-15T12:00:18.142Z</time>
      </trkpt>
      <trkpt lat="46.31395" lon="6.26444">
        <ele>421.6</ele>
        <time>2017-03-15T12:00:30.162Z</time>
      </trkpt>
      <trkpt lat="46.31206" lon="6.26245">
        <ele>419.3</ele>
        <time>2017-03-15T12:00:42.214Z</time>
      </trkpt>
      <trkpt lat="46.31156" lon="6.26192">
        <ele>419</ele>
        <time>2017-03-15T12:00:54.274Z</time>
      </trkpt>
      <trkpt lat="46.31095" lon="6.26131">
        <ele>418.6</ele>
        <time>2017-03-15T12:01:06.344Z</time>
      </trkpt>
      <trkpt lat="46.31029" lon="6.26052">
        <ele>420.1</ele>
        <time>2017-03-15T12:01:18.425Z</time>
      </trkpt>
      <trkpt lat="46.30986" lon="6.25994">
        <ele>422.5</ele>
        <time>2017-03-15T12:01:30.514Z</time>
      </trkpt>
      <trkpt lat="46.3089" lon="6.25844">
        <ele>421.4</ele>
        <time>2017-03-15T12:01:42.622Z</time>
      </trkpt>
      <trkpt lat="46.30868" lon="6.25809">
        <ele>421</ele>
        <time>2017-03-15T12:01:54.734Z</time>
      </trkpt>
      <trkpt lat="46.30845" lon="6.25767">
        <ele>421</ele>
        <time>2017-03-15T12:02:06.851Z</time>
      </trkpt>
      <trkpt lat="46.3081" lon="6.25716">
        <ele>420.7</ele>
        <time>2017-03-15T12:02:18.975Z</time>
      </trkpt>
      <trkpt lat="46.30799" lon="6.25704">
        <ele>420.4</ele>
        <time>2017-03-15T12:02:31.101Z</time>
      </trkpt>
      <trkpt lat="46.30776" lon="6.25687">
        <ele>420</ele>
        <time>2017-03-15T12:02:43.230Z</time>
      </trkpt>
      <trkpt lat="46.30702" lon="6.25626">
        <ele>417.7</ele>
        <time>2017-03-15T12:02:55.370Z</time>
      </trkpt>
      <trkpt lat="46.30682" lon="6.25603">
        <ele>416.8</ele>
        <time>2017-03-15T12:03:07.514Z</time>
      </trkpt>
      <trkpt lat="46.30674" lon="6.25591">
        <ele>416.3</ele>
        <time>2017-03-15T12:03:19.659Z</time>
      </trkpt>
      <trkpt lat="46.30658" lon="6.25559">
        <ele>415</ele>
        <time>2017-03-15T12:03:31.808Z</time>
      </trkpt>
      <trkpt lat="46.30629" lon="6.25476">
        <ele>412</ele>
        <time>2017-03-15T12:03:43.966Z</time>
      </trkpt>
      <trkpt lat="46.3062" lon="6.25448">
        <ele>412</ele>
        <time>2017-03-15T12:03:56.127Z</time>
      </trkpt>
      <trkpt lat="46.30612" lon="6.25421">
        <ele>411.3</ele>
        <time>2017-03-15T12:04:08.290Z</time>
      </trkpt>
      <trkpt lat="46.30607" lon="6.25388">
        <ele>410.1</ele>
        <time>2017-03-15T12:04:20.456Z</time>
      </trkpt>
      <trkpt lat="46.30609" lon="6.2535">
        <ele>409</ele>
        <time>2017-03-15T12:04:32.626Z</time>
      </trkpt>
      <trkpt lat="46.30618" lon="6.25314">
        <ele>407.1</ele>
        <time>2017-03-15T12:04:44.799Z</time>
      </trkpt>
      <trkpt lat="46.30631" lon="6.25273">
        <ele>405.1</ele>
        <time>2017-03-15T12:04:56.977Z</time>
      </trkpt>
      <trkpt lat="46.30639" lon="6.25242">
        <ele>403.3</ele>
        <time>2017-03-15T12:05:09.158Z</time>
      </trkpt>
      <trkpt lat="46.30643" lon="6.25205">
        <ele>401.6</ele>
        <time>2017-03-15T12:05:21.342Z</time>
      </trkpt>
      <trkpt lat="46.30642" lon="6.25186">
        <ele>401.1</ele>
        <time>2017-03-15T12:05:33.528Z</time>
      </trkpt>
      <trkpt lat="46.30637" lon="6.2516">
        <ele>400.8</ele>
        <time>2017-03-15T12:05:45.716Z</time>
      </trkpt>
      <trkpt lat="46.30632" lon="6.25144">
        <ele>400.8</ele>
        <time>2017-03-15T12:05:57.906Z</time>
      </trkpt>
      <trkpt lat="46.30609" lon="6.25094">
        <ele>400.1</ele>
        <time>2017-03-15T12:06:10.102Z</time>
      </trkpt>
      <trkpt lat="46.30563" lon="6.24998">
        <ele>396.4</ele>
        <time>2017-03-15T12:06:22.308Z</time>
      </trkpt>
      <trkpt lat="46.30546" lon="6.24967">
        <ele>395.2</ele>
        <time>2017-03-15T12:06:34.518Z</time>
      </trkpt>
      <trkpt lat="46.30525" lon="6.24941">
        <ele>394.5</ele>
        <time>2017-03-15T12:06:46.732Z</time>
      </trkpt>
      <trkpt lat="46.30503" lon="6.2492">
        <ele>395</ele>
        <time>2017-03-15T12:06:58.949Z</time>
      </trkpt>
      <trkpt lat="46.30446" lon="6.24881">
        <ele>395.7</ele>
        <time>2017-03-15T12:07:11.175Z</time>
      </trkpt>
      <trkpt lat="46.30383" lon="6.24834">
        <ele>394.1</ele>
        <time>2017-03-15T12:07:23.410Z</time>
      </trkpt>
      <trkpt lat="46.30296" lon="6.24767">
        <ele>388.6</ele>
        <time>2017-03-15T12:07:35.658Z</time>
      </trkpt>
      <trkpt lat="46.30283" lon="6.24759">
        <ele>387</ele>
        <time>2017-03-15T12:07:47.908Z</time>
      </trkpt>
      <trkpt lat="46.30284" lon="6.24742">
        <ele>385.5</ele>
        <time>2017-03-15T12:08:00.160Z</time>
      </trkpt>
      <trkpt lat="46.3028" lon="6.24709">
        <ele>384.2</ele>
        <time>2017-03-15T12:08:12.415Z</time>
      </trkpt>
      <trkpt lat="46.30284" lon="6.24742">
        <ele>385.5</ele>
        <time>2017-03-15T12:08:24.673Z</time>
      </trkpt>
      <trkpt lat="46.30283" lon="6.24759">
        <ele>387</ele>
        <time>2017-03-15T12:08:36.932Z</time>
      </trkpt>
      <trkpt lat="46.30273" lon="6.24752">
        <ele>385.8</ele>
        <time>2017-03-15T12:08:49.193Z</time>
      </trkpt>
      <trkpt lat="46.30261" lon="6.24746">
        <ele>384.5</ele>
        <time>2017-03-15T12:09:01.456Z</time>
      </trkpt>
      <trkpt lat="46.30248" lon="6.24725">
        <ele>382.1</ele>
        <time>2017-03-15T12:09:13.721Z</time>
      </trkpt>
      <trkpt lat="46.30255" lon="6.24622">
        <ele>383.2</ele>
        <time>2017-03-15T12:09:25.996Z</time>
      </trkpt>
      <trkpt lat="46.30249" lon="6.2455">
        <ele>383.6</ele>
        <time>2017-03-15T12:09:38.278Z</time>
      </trkpt>
      <trkpt lat="46.30249" lon="6.24504">
        <ele>382.5</ele>
        <time>2017-03-15T12:09:50.564Z</time>
      </trkpt>
      <trkpt lat="46.30244" lon="6.24474">
        <ele>382</ele>
        <time>2017-03-15T12:10:02.853Z</time>
      </trkpt>
      <trkpt lat="46.30241" lon="6.24458">
        <ele>381.6</ele>
        <time>2017-03-15T12:10:15.143Z</time>
      </trkpt>
      <trkpt lat="46.30235" lon="6.2445">
        <ele>381.7</ele>
        <time>2017-03-15T12:10:27.434Z</time>
      </trkpt>
      <trkpt lat="46.30224" lon="6.2444">
        <ele>382</ele>
        <time>2017-03-15T12:10:39.727Z</time>
      </trkpt>
      <trkpt lat="46.30202" lon="6.24433">
        <ele>383</ele>
        <time>2017-03-15T12:10:52.023Z</time>
      </trkpt>
      <trkpt lat="46.30186" lon="6.24427">
        <ele>383.8</ele>
        <time>2017-03-15T12:11:04.321Z</time>
      </trkpt>
      <trkpt lat="46.30164" lon="6.24411">
        <ele>384.5</ele>
        <time>2017-03-15T12:11:16.622Z</time>
      </trkpt>
      <trkpt lat="46.30115" lon="6.24379">
        <ele>383.2</ele>
        <time>2017-03-15T12:11:28.931Z</time>
      </trkpt>
      <trkpt lat="46.30106" lon="6.24377">
        <ele>383</ele>
        <time>2017-03-15T12:11:41.241Z</time>
      </trkpt>
      <trkpt lat="46.30096" lon="6.24379">
        <ele>383.2</ele>
        <time>2017-03-15T12:11:53.552Z</time>
      </trkpt>
      <trkpt lat="46.3006" lon="6.24391">
        <ele>384.6</ele>
        <time>2017-03-15T12:12:05.868Z</time>
      </trkpt>
      <trkpt lat="46.29931" lon="6.24406">
        <ele>386.9</ele>
        <time>2017-03-15T12:12:18.201Z</time>
      </trkpt>
      <trkpt lat="46.29901" lon="6.24407">
        <ele>387.5</ele>
        <time>2017-03-15T12:12:30.538Z</time>
      </trkpt>
      <trkpt lat="46.29854" lon="6.24394">
        <ele>385.9</ele>
        <time>2017-03-15T12:12:42.882Z</time>
      </trkpt>
      <trkpt lat="46.29734" lon="6.24358">
        <ele>389.4</ele>
        <time>2017-03-15T12:12:55.242Z</time>
      </trkpt>
      <trkpt lat="46.29675" lon="6.24335">
        <ele>392.3</ele>
        <time>2017-03-15T12:13:07.610Z</time>
      </trkpt>
      <trkpt lat="46.2958" lon="6.24304">
        <ele>395.1</ele>
        <time>2017-03-15T12:13:19.991Z</time>
      </trkpt>
      <trkpt lat="46.29519" lon="6.2428">
        <ele>396.8</ele>
        <time>2017-03-15T12:13:32.381Z</time>
      </trkpt>
      <trkpt lat="46.29472" lon="6.24258">
        <ele>398.1</ele>
        <time>2017-03-15T12:13:44.777Z</time>
      </trkpt>
      <trkpt lat="46.29423" lon="6.24226">
        <ele>399.6</ele>
        <time>2017-03-15T12:13:57.180Z</time>
      </trkpt>
      <trkpt lat="46.29374" lon="6.24185">
        <ele>399.2</ele>
        <time>2017-03-15T12:14:09.591Z</time>
      </trkpt>
      <trkpt lat="46.29338" lon="6.24145">
        <ele>397.7</ele>
        <time>2017-03-15T12:14:22.008Z</time>
      </trkpt>
      <trkpt lat="46.29301" lon="6.241">
        <ele>397.3</ele>
        <time>2017-03-15T12:14:34.432Z</time>
      </trkpt>
      <trkpt lat="46.29308" lon="6.24085">
        <ele>396.7</ele>
        <time>2017-03-15T12:14:46.857Z</time>
      </trkpt>
      <trkpt lat="46.29312" lon="6.24079">
        <ele>396.4</ele>
        <time>2017-03-15T12:14:59.283Z</time>
      </trkpt>
      <trkpt lat="46.29317" lon="6.24085">
        <ele>396.5</ele>
        <time>2017-03-15T12:15:11.710Z</time>
      </trkpt>
      <trkpt lat="46.29319" lon="6.24096">
        <ele>396.7</ele>
        <time>2017-03-15T12:15:24.138Z</time>
      </trkpt>
      <trkpt lat="46.2932" lon="6.24109">
        <ele>397</ele>
        <time>2017-03-15T12:15:36.567Z</time>
      </trkpt>
      <trkpt lat="46.29328" lon="6.24119">
        <ele>397.2</ele>
        <time>2017-03-15T12:15:48.998Z</time>
      </trkpt>
      <trkpt lat="46.29376" lon="6.24172">
        <ele>398.5</ele>
        <time>2017-03-15T12:16:01.437Z</time>
      </trkpt>
      <trkpt lat="46.29402" lon="6.24197">
        <ele>399.2</ele>
        <time>2017-03-15T12:16:13.880Z</time>
      </trkpt>
      <trkpt lat="46.29356" lon="6.24151">
        <ele>397.7</ele>
        <time>2017-03-15T12:16:26.330Z</time>
      </trkpt>
      <trkpt lat="46.29324" lon="6.24115">
        <ele>397.1</ele>
        <time>2017-03-15T12:16:38.786Z</time>
      </trkpt>
      <trkpt lat="46.29319" lon="6.24105">
        <ele>397</ele>
        <time>2017-03-15T12:16:51.243Z</time>
      </trkpt>
      <trkpt lat="46.29318" lon="6.2409">
        <ele>396.6</ele>
        <time>2017-03-15T12:17:03.701Z</time>
      </trkpt>
      <trkpt lat="46.29312" lon="6.24079">
        <ele>396.4</ele>
        <time>2017-03-15T12:17:16.160Z</time>
      </trkpt>
      <trkpt lat="46.29301" lon="6.241">
        <ele>397.3</ele>
        <time>2017-03-15T12:17:28.622Z</time>
      </trkpt>
      <trkpt lat="46.29227" lon="6.2402">
        <ele>397.1</ele>
        <time>2017-03-15T12:17:41.096Z</time>
      </trkpt>
      <trkpt lat="46.29111" lon="6.23912">
        <ele>396.7</ele>
        <time>2017-03-15T12:17:53.589Z</time>
      </trkpt>
      <trkpt lat="46.28931" lon="6.23743">
        <ele>396.9</ele>
        <time>2017-03-15T12:18:06.110Z</time>
      </trkpt>
      <trkpt lat="46.28897" lon="6.23713">
        <ele>395.9</ele>
        <time>2017-03-15T12:18:18.637Z</time>
      </trkpt>
      <trkpt lat="46.28834" lon="6.23652">
        <ele>395.3</ele>
        <time>2017-03-15T12:18:31.174Z</time>
      </trkpt>
      <trkpt lat="46.28785" lon="6.23596">
        <ele>393.8</ele>
        <time>2017-03-15T12:18:43.719Z</time>
      </trkpt>
      <trkpt lat="46.28744" lon="6.23536">
        <ele>392.1</ele>
        <time>2017-03-15T12:18:56.272Z</time>
      </trkpt>
      <trkpt lat="46.28664" lon="6.2341">
        <ele>393.6</ele>
        <time>2017-03-15T12:19:08.841Z</time>
      </trkpt>
      <trkpt lat="46.28621" lon="6.23326">
        <ele>393.6</ele>
        <time>2017-03-15T12:19:21.419Z</time>
      </trkpt>
      <trkpt lat="46.28576" lon="6.23234">
        <ele>395.1</ele>
        <time>2017-03-15T12:19:34.008Z</time>
      </trkpt>
      <trkpt lat="46.28554" lon="6.23185">
        <ele>395.4</ele>
        <time>2017-03-15T12:19:46.602Z</time>
      </trkpt>
      <trkpt lat="46.28524" lon="6.23126">
        <ele>395.4</ele>
        <time>2017-03-15T12:19:59.203Z</time>
      </trkpt>
      <trkpt lat="46.28489" lon="6.2308">
        <ele>396</ele>
        <time>2017-03-15T12:20:11.810Z</time>
      </trkpt>
      <trkpt lat="46.28472" lon="6.23062">
        <ele>396.2</ele>
        <time>2017-03-15T12:20:24.420Z</time>
      </trkpt>
      <trkpt lat="46.28413" lon="6.23007">
        <ele>395.6</ele>
        <time>2017-03-15T12:20:37.039Z</time>
      </trkpt>
      <trkpt lat="46.28345" lon="6.22951">
        <ele>394.9</ele>
        <time>2017-03-15T12:20:49.669Z</time>
      </trkpt>
      <trkpt lat="46.28283" lon="6.22897">
        <ele>394.5</ele>
        <time>2017-03-15T12:21:02.308Z</time>
      </trkpt>
      <trkpt lat="46.28201" lon="6.22829">
        <ele>393.9</ele>
        <time>2017-03-15T12:21:14.960Z</time>
      </trkpt>
      <trkpt lat="46.28074" lon="6.22711">
        <ele>395.8</ele>
        <time>2017-03-15T12:21:27.632Z</time>
      </trkpt>
      <trkpt lat="46.28011" lon="6.22655">
        <ele>396</ele>
        <time>2017-03-15T12:21:40.314Z</time>
      </trkpt>
      <trkpt lat="46.27951" lon="6.22587">
        <ele>396.2</ele>
        <time>2017-03-15T12:21:53.006Z</time>
      </trkpt>
      <trkpt lat="46.27855" lon="6.22482">
        <ele>398.2</ele>
        <time>2017-03-15T12:22:05.714Z</time>
      </trkpt>
      <trkpt lat="46.27796" lon="6.22423">
        <ele>399.1</ele>
        <time>2017-03-15T12:22:18.432Z</time>
      </trkpt>
      <trkpt lat="46.27739" lon="6.22366">
        <ele>398.7</ele>
        <time>2017-03-15T12:22:31.159Z</time>
      </trkpt>
      <trkpt lat="46.27651" lon="6.22285">
        <ele>403.4</ele>
        <time>2017-03-15T12:22:43.900Z</time>
      </trkpt>
      <trkpt lat="46.27638" lon="6.22272">
        <ele>403.5</ele>
        <time>2017-03-15T12:22:56.643Z</time>
      </trkpt>
      <trkpt lat="46.27622" lon="6.22261">
        <ele>403.5</ele>
        <time>2017-03-15T12:23:09.389Z</time>
      </trkpt>
      <trkpt lat="46.27591" lon="6.22241">
        <ele>403.5</ele>
        <time>2017-03-15T12:23:22.139Z</time>
      </trkpt>
      <trkpt lat="46.27537" lon="6.22213">
        <ele>402.9</ele>
        <time>2017-03-15T12:23:34.897Z</time>
      </trkpt>
      <trkpt lat="46.27458" lon="6.22173">
        <ele>400.3</ele>
        <time>2017-03-15T12:23:47.666Z</time>
      </trkpt>
      <trkpt lat="46.27407" lon="6.22142">
        <ele>399</ele>
        <time>2017-03-15T12:24:00.442Z</time>
      </trkpt>
      <trkpt lat="46.27393" lon="6.2213">
        <ele>398.7</ele>
        <time>2017-03-15T12:24:13.221Z</time>
      </trkpt>
      <trkpt lat="46.2735" lon="6.22095">
        <ele>397.3</ele>
        <time>2017-03-15T12:24:26.006Z</time>
      </trkpt>
      <trkpt lat="46.27324" lon="6.22078">
        <ele>396.8</ele>
        <time>2017-03-15T12:24:38.795Z</time>
      </trkpt>
      <trkpt lat="46.273" lon="6.22067">
        <ele>397</ele>
        <time>2017-03-15T12:24:51.587Z</time>
      </trkpt>
      <trkpt lat="46.27263" lon="6.22053">
        <ele>398</ele>
        <time>2017-03-15T12:25:04.384Z</time>
      </trkpt>
      <trkpt lat="46.27248" lon="6.22046">
        <ele>398.3</ele>
        <time>2017-03-15T12:25:17.183Z</time>
      </trkpt>
      <trkpt lat="46.2723" lon="6.22032">
        <ele>398.5</ele>
        <time>2017-03-15T12:25:29.985Z</time>
      </trkpt>
      <trkpt lat="46.27112" lon="6.21933">
        <ele>392.3</ele>
        <time>2017-03-15T12:25:42.805Z</time>
      </trkpt>
      <trkpt lat="46.27032" lon="6.21865">
        <ele>391</ele>
        <time>2017-03-15T12:25:55.638Z</time>
      </trkpt>
      <trkpt lat="46.26998" lon="6.21836">
        <ele>391.3</ele>
        <time>2017-03-15T12:26:08.476Z</time>
      </trkpt>
      <trkpt lat="46.26959" lon="6.21813">
        <ele>391.8</ele>
        <time>2017-03-15T12:26:21.320Z</time>
      </trkpt>
      <trkpt lat="46.26833" lon="6.21752">
        <ele>390.4</ele>
        <time>2017-03-15T12:26:34.181Z</time>
      </trkpt>
      <trkpt lat="46.2672" lon="6.21696">
        <ele>392.7</ele>
        <time>2017-03-15T12:26:47.058Z</time>
      </trkpt>
      <trkpt lat="46.26669" lon="6.21659">
        <ele>392.1</ele>
        <time>2017-03-15T12:26:59.943Z</time>
      </trkpt>
      <trkpt lat="46.26609" lon="6.21612">
        <ele>392.3</ele>
        <time>2017-03-15T12:27:12.837Z</time>
      </trkpt>
      <trkpt lat="46.26525" lon="6.21539">
        <ele>392.8</ele>
        <time>2017-03-15T12:27:25.744Z</time>
      </trkpt>
      <trkpt lat="46.26449" lon="6.21458">
        <ele>394.1</ele>
        <time>2017-03-15T12:27:38.664Z</time>
      </trkpt>
      <trkpt lat="46.26423" lon="6.21434">
        <ele>394.5</ele>
        <time>2017-03-15T12:27:51.588Z</time>
      </trkpt>
      <trkpt lat="46.2639" lon="6.21409">
        <ele>395.3</ele>
        <time>2017-03-15T12:28:04.517Z</time>
      </trkpt>
      <trkpt lat="46.26358" lon="6.21392">
        <ele>395.7</ele>
        <time>2017-03-15T12:28:17.450Z</time>
      </trkpt>
      <trkpt lat="46.26249" lon="6.21336">
        <ele>396.6</ele>
        <time>2017-03-15T12:28:30.399Z</time>
      </trkpt>
      <trkpt lat="46.26122" lon="6.21283">
        <ele>398.2</ele>
        <time>2017-03-15T12:28:43.365Z</time>
      </trkpt>
      <trkpt lat="46.26063" lon="6.21265">
        <ele>399.4</ele>
        <time>2017-03-15T12:28:56.340Z</time>
      </trkpt>
      <trkpt lat="46.25974" lon="6.21239">
        <ele>399.3</ele>
        <time>2017-03-15T12:29:09.327Z</time>
      </trkpt>
      <trkpt lat="46.25952" lon="6.21226">
        <ele>399.6</ele>
        <time>2017-03-15T12:29:22.317Z</time>
      </trkpt>
      <trkpt lat="46.25939" lon="6.21215">
        <ele>399.6</ele>
        <time>2017-03-15T12:29:35.309Z</time>
      </trkpt>
      <trkpt lat="46.25926" lon="6.21201">
        <ele>399.6</ele>
        <time>2017-03-15T12:29:48.303Z</time>
      </trkpt>
      <trkpt lat="46.25915" lon="6.21185">
        <ele>399.5</ele>
        <time>2017-03-15T12:30:01.299Z</time>
      </trkpt>
      <trkpt lat="46.25904" lon="6.21164">
        <ele>399.3</ele>
        <time>2017-03-15T12:30:14.298Z</time>
      </trkpt>
      <trkpt lat="46.25898" lon="6.21152">
        <ele>399.1</ele>
        <time>2017-03-15T12:30:27.298Z</time>
      </trkpt>
      <trkpt lat="46.25881" lon="6.21102">
        <ele>399</ele>
        <time>2017-03-15T12:30:40.303Z</time>
      </trkpt>
      <trkpt lat="46.25864" lon="6.21041">
        <ele>399.3</ele>
        <time>2017-03-15T12:30:53.314Z</time>
      </trkpt>
      <trkpt lat="46.25849" lon="6.21001">
        <ele>399.6</ele>
        <time>2017-03-15T12:31:06.329Z</time>
      </trkpt>
      <trkpt lat="46.25833" lon="6.20968">
        <ele>399.8</ele>
        <time>2017-03-15T12:31:19.348Z</time>
      </trkpt>
      <trkpt lat="46.25808" lon="6.20931">
        <ele>400.1</ele>
        <time>2017-03-15T12:31:32.372Z</time>
      </trkpt>
      <trkpt lat="46.25742" lon="6.2085">
        <ele>401.7</ele>
        <time>2017-03-15T12:31:45.407Z</time>
      </trkpt>
      <trkpt lat="46.25625" lon="6.20714">
        <ele>404.3</ele>
        <time>2017-03-15T12:31:58.462Z</time>
      </trkpt>
      <trkpt lat="46.25601" lon="6.20688">
        <ele>404.5</ele>
        <time>2017-03-15T12:32:11.521Z</time>
      </trkpt>
      <trkpt lat="46.25562" lon="6.20654">
        <ele>405</ele>
        <time>2017-03-15T12:32:24.587Z</time>
      </trkpt>
      <trkpt lat="46.25527" lon="6.20623">
        <ele>405.3</ele>
        <time>2017-03-15T12:32:37.658Z</time>
      </trkpt>
      <trkpt lat="46.25474" lon="6.20567">
        <ele>406</ele>
        <time>2017-03-15T12:32:50.738Z</time>
      </trkpt>
      <trkpt lat="46.25409" lon="6.20497">
        <ele>406.8</ele>
        <time>2017-03-15T12:33:03.829Z</time>
      </trkpt>
      <trkpt lat="46.2539" lon="6.20473">
        <ele>407</ele>
        <time>2017-03-15T12:33:16.923Z</time>
      </trkpt>
      <trkpt lat="46.25377" lon="6.20448">
        <ele>406.9</ele>
        <time>2017-03-15T12:33:30.020Z</time>
      </trkpt>
      <trkpt lat="46.25363" lon="6.2043">
        <ele>406.8</ele>
        <time>2017-03-15T12:33:43.119Z</time>
      </trkpt>
      <trkpt lat="46.25337" lon="6.20404">
        <ele>406.8</ele>
        <time>2017-03-15T12:33:56.223Z</time>
      </trkpt>
      <trkpt lat="46.25277" lon="6.20344">
        <ele>404.1</ele>
        <time>2017-03-15T12:34:09.336Z</time>
      </trkpt>
      <trkpt lat="46.25214" lon="6.20288">
        <ele>401.3</ele>
        <time>2017-03-15T12:34:22.459Z</time>
      </trkpt>
      <trkpt lat="46.25167" lon="6.2025">
        <ele>400.5</ele>
        <time>2017-03-15T12:34:35.589Z</time>
      </trkpt>
      <trkpt lat="46.25117" lon="6.20214">
        <ele>399.8</ele>
        <time>2017-03-15T12:34:48.727Z</time>
      </trkpt>
      <trkpt lat="46.25024" lon="6.20164">
        <ele>399.1</ele>
        <time>2017-03-15T12:35:01.878Z</time>
      </trkpt>
      <trkpt lat="46.24968" lon="6.20135">
        <ele>399.3</ele>
        <time>2017-03-15T12:35:15.037Z</time>
      </trkpt>
      <trkpt lat="46.24913" lon="6.20111">
        <ele>401</ele>
        <time>2017-03-15T12:35:28.204Z</time>
      </trkpt>
      <trkpt lat="46.24856" lon="6.2009">
        <ele>401.8</ele>
        <time>2017-03-15T12:35:41.379Z</time>
      </trkpt>
      <trkpt lat="46.24795" lon="6.20071">
        <ele>402.5</ele>
        <time>2017-03-15T12:35:54.562Z</time>
      </trkpt>
      <trkpt lat="46.24731" lon="6.20051">
        <ele>404.5</ele>
        <time>2017-03-15T12:36:07.754Z</time>
      </trkpt>
      <trkpt lat="46.24709" lon="6.20052">
        <ele>405.4</ele>
        <time>2017-03-15T12:36:20.949Z</time>
      </trkpt>
      <trkpt lat="46.24699" lon="6.20055">
        <ele>406</ele>
        <time>2017-03-15T12:36:34.145Z</time>
      </trkpt>
      <trkpt lat="46.24657" lon="6.20078">
        <ele>408.5</ele>
        <time>2017-03-15T12:36:47.347Z</time>
      </trkpt>
      <trkpt lat="46.24637" lon="6.20087">
        <ele>409.5</ele>
        <time>2017-03-15T12:37:00.552Z</time>
      </trkpt>
      <trkpt lat="46.24614" lon="6.2009">
        <ele>410.1</ele>
        <time>2017-03-15T12:37:13.760Z</time>
      </trkpt>
      <trkpt lat="46.246" lon="6.20087">
        <ele>410.4</ele>
        <time>2017-03-15T12:37:26.970Z</time>
      </trkpt>
      <trkpt lat="46.24575" lon="6.20073">
        <ele>410.8</ele>
        <time>2017-03-15T12:37:40.183Z</time>
      </trkpt>
      <trkpt lat="46.2454" lon="6.20048">
        <ele>411.6</ele>
        <time>2017-03-15T12:37:53.401Z</time>
      </trkpt>
      <trkpt lat="46.24519" lon="6.20027">
        <ele>412.4</ele>
        <time>2017-03-15T12:38:06.623Z</time>
      </trkpt>
      <trkpt lat="46.24465" lon="6.19962">
        <ele>413.9</ele>
        <time>2017-03-15T12:38:19.854Z</time>
      </trkpt>
      <trkpt lat="46.24439" lon="6.19932">
        <ele>413.6</ele>
        <time>2017-03-15T12:38:33.090Z</time>
      </trkpt>
      <trkpt lat="46.24412" lon="6.19907">
        <ele>413.2</ele>
        <time>2017-03-15T12:38:46.330Z</time>
      </trkpt>
      <trkpt lat="46.2438" lon="6.19879">
        <ele>413</ele>
        <time>2017-03-15T12:38:59.575Z</time>
      </trkpt>
      <trkpt lat="46.24341" lon="6.1985">
        <ele>413.4</ele>
        <time>2017-03-15T12:39:12.826Z</time>
      </trkpt>
      <trkpt lat="46.24306" lon="6.19833">
        <ele>414</ele>
        <time>2017-03-15T12:39:26.082Z</time>
      </trkpt>
      <trkpt lat="46.24275" lon="6.19821">
        <ele>414.7</ele>
        <time>2017-03-15T12:39:39.342Z</time>
      </trkpt>
      <trkpt lat="46.2424" lon="6.19814">
        <ele>415.7</ele>
        <time>2017-03-15T12:39:52.607Z</time>
      </trkpt>
      <trkpt lat="46.24196" lon="6.19808">
        <ele>415</ele>
        <time>2017-03-15T12:40:05.878Z</time>
      </trkpt>
      <trkpt lat="46.2414" lon="6.198">
        <ele>413.5</ele>
        <time>2017-03-15T12:40:19.156Z</time>
      </trkpt>
      <trkpt lat="46.24116" lon="6.19792">
        <ele>413.6</ele>
        <time>2017-03-15T12:40:32.437Z</time>
      </trkpt>
      <trkpt lat="46.24087" lon="6.19779">
        <ele>413.5</ele>
        <time>2017-03-15T12:40:45.722Z</time>
      </trkpt>
      <trkpt lat="46.24078" lon="6.19774">
        <ele>413.5</ele>
        <time>2017-03-15T12:40:59.009Z</time>
      </trkpt>
      <trkpt lat="46.24067" lon="6.19771">
        <ele>413.5</ele>
        <time>2017-03-15T12:41:12.297Z</time>
      </trkpt>
      <trkpt lat="46.24049" lon="6.19767">
        <ele>413.6</ele>
        <time>2017-03-15T12:41:25.588Z</time>
      </trkpt>
      <trkpt lat="46.24035" lon="6.1977">
        <ele>413.8</ele>
        <time>2017-03-15T12:41:38.881Z</time>
      </trkpt>
      <trkpt lat="46.24012" lon="6.19794">
        <ele>415.4</ele>
        <time>2017-03-15T12:41:52.177Z</time>
      </trkpt>
      <trkpt lat="46.24" lon="6.19808">
        <ele>416.3</ele>
        <time>2017-03-15T12:42:05.475Z</time>
      </trkpt>
      <trkpt lat="46.23991" lon="6.19815">
        <ele>416.8</ele>
        <time>2017-03-15T12:42:18.775Z</time>
      </trkpt>
      <trkpt lat="46.2399" lon="6.19814">
        <ele>416.8</ele>
        <time>2017-03-15T12:42:32.075Z</time>
      </trkpt>
      <trkpt lat="46.2399" lon="6.19812">
        <ele>416.7</ele>
        <time>2017-03-15T12:42:45.375Z</time>
      </trkpt>
      <trkpt lat="46.23988" lon="6.19809">
        <ele>416.7</ele>
        <time>2017-03-15T12:42:58.675Z</time>
      </trkpt>
      <trkpt lat="46.23983" lon="6.19806">
        <ele>416.6</ele>
        <time>2017-03-15T12:43:11.976Z</time>
      </trkpt>
      <trkpt lat="46.23981" lon="6.19806">
        <ele>416.7</ele>
        <time>2017-03-15T12:43:25.277Z</time>
      </trkpt>
      <trkpt lat="46.2398" lon="6.19807">
        <ele>416.8</ele>
        <time>2017-03-15T12:43:38.579Z</time>
      </trkpt>
      <trkpt lat="46.23979" lon="6.19807">
        <ele>416.8</ele>
        <time>2017-03-15T12:43:51.881Z</time>
      </trkpt>
      <trkpt lat="46.2396" lon="6.1978">
        <ele>416.2</ele>
        <time>2017-03-15T12:44:05.186Z</time>
      </trkpt>
      <trkpt lat="46.23953" lon="6.19776">
        <ele>416.2</ele>
        <time>2017-03-15T12:44:18.492Z</time>
      </trkpt>
      <trkpt lat="46.23938" lon="6.19749">
        <ele>415.5</ele>
        <time>2017-03-15T12:44:31.802Z</time>
      </trkpt>
      <trkpt lat="46.23913" lon="6.19708">
        <ele>413.9</ele>
        <time>2017-03-15T12:44:45.117Z</time>
      </trkpt>
      <trkpt lat="46.23872" lon="6.19662">
        <ele>411.8</ele>
        <time>2017-03-15T12:44:58.439Z</time>
      </trkpt>
      <trkpt lat="46.23855" lon="6.19653">
        <ele>411.6</ele>
        <time>2017-03-15T12:45:11.763Z</time>
      </trkpt>
      <trkpt lat="46.23829" lon="6.19628">
        <ele>410.6</ele>
        <time>2017-03-15T12:45:25.091Z</time>
      </trkpt>
      <trkpt lat="46.23793" lon="6.19598">
        <ele>409.9</ele>
        <time>2017-03-15T12:45:38.425Z</time>
      </trkpt>
      <trkpt lat="46.23731" lon="6.19545">
        <ele>408.1</ele>
        <time>2017-03-15T12:45:51.768Z</time>
      </trkpt>
      <trkpt lat="46.23702" lon="6.19525">
        <ele>407.3</ele>
        <time>2017-03-15T12:46:05.116Z</time>
      </trkpt>
      <trkpt lat="46.23615" lon="6.19465">
        <ele>404</ele>
        <time>2017-03-15T12:46:18.476Z</time>
      </trkpt>
      <trkpt lat="46.2355" lon="6.19415">
        <ele>398.7</ele>
        <time>2017-03-15T12:46:31.846Z</time>
      </trkpt>
      <trkpt lat="46.23522" lon="6.19392">
        <ele>396.5</ele>
        <time>2017-03-15T12:46:45.221Z</time>
      </trkpt>
      <trkpt lat="46.23489" lon="6.19361">
        <ele>394</ele>
        <time>2017-03-15T12:46:58.601Z</time>
      </trkpt>
      <trkpt lat="46.23458" lon="6.19325">
        <ele>392</ele>
        <time>2017-03-15T12:47:11.986Z</time>
      </trkpt>
      <trkpt lat="46.2338" lon="6.19214">
        <ele>387.9</ele>
        <time>2017-03-15T12:47:25.386Z</time>
      </trkpt>
      <trkpt lat="46.23338" lon="6.19152">
        <ele>385.5</ele>
        <time>2017-03-15T12:47:38.794Z</time>
      </trkpt>
      <trkpt lat="46.23279" lon="6.19063">
        <ele>381.7</ele>
        <time>2017-03-15T12:47:52.213Z</time>
      </trkpt>
      <trkpt lat="46.23248" lon="6.19018">
        <ele>380.8</ele>
        <time>2017-03-15T12:48:05.638Z</time>
      </trkpt>
      <trkpt lat="46.23197" lon="6.18961">
        <ele>379</ele>
        <time>2017-03-15T12:48:19.072Z</time>
      </trkpt>
      <trkpt lat="46.23044" lon="6.18831">
        <ele>376.4</ele>
        <time>2017-03-15T12:48:32.529Z</time>
      </trkpt>
      <trkpt lat="46.22987" lon="6.18781">
        <ele>376</ele>
        <time>2017-03-15T12:48:45.995Z</time>
      </trkpt>
      <trkpt lat="46.22983" lon="6.1877">
        <ele>375.2</ele>
        <time>2017-03-15T12:48:59.462Z</time>
      </trkpt>
      <trkpt lat="46.22958" lon="6.18747">
        <ele>373.8</ele>
        <time>2017-03-15T12:49:12.933Z</time>
      </trkpt>
      <trkpt lat="46.22893" lon="6.18697">
        <ele>372.8</ele>
        <time>2017-03-15T12:49:26.414Z</time>
      </trkpt>
      <trkpt lat="46.22817" lon="6.1862">
        <ele>375.8</ele>
        <time>2017-03-15T12:49:39.908Z</time>
      </trkpt>
      <trkpt lat="46.22739" lon="6.18514">
        <ele>375.1</ele>
        <time>2017-03-15T12:49:53.416Z</time>
      </trkpt>
      <trkpt lat="46.22693" lon="6.18454">
        <ele>375.1</ele>
        <time>2017-03-15T12:50:06.932Z</time>
      </trkpt>
      <trkpt lat="46.22664" lon="6.18426">
        <ele>373.9</ele>
        <time>2017-03-15T12:50:20.453Z</time>
      </trkpt>
      <trkpt lat="46.22618" lon="6.18389">
        <ele>373.4</ele>
        <time>2017-03-15T12:50:33.981Z</time>
      </trkpt>
      <trkpt lat="46.22547" lon="6.18336">
        <ele>375.3</ele>
        <time>2017-03-15T12:50:47.519Z</time>
      </trkpt>
      <trkpt lat="46.22433" lon="6.18249">
        <ele>375.9</ele>
        <time>2017-03-15T12:51:01.075Z</time>
      </trkpt>
      <trkpt lat="46.22367" lon="6.18199">
        <ele>376.7</ele>
        <time>2017-03-15T12:51:14.641Z</time>
      </trkpt>
      <trkpt lat="46.22144" lon="6.18029">
        <ele>382.2</ele>
        <time>2017-03-15T12:51:28.240Z</time>
      </trkpt>
      <trkpt lat="46.22055" lon="6.17962">
        <ele>381.1</ele>
        <time>2017-03-15T12:51:41.853Z</time>
      </trkpt>
      <trkpt lat="46.21831" lon="6.178">
        <ele>377.5</ele>
        <time>2017-03-15T12:51:55.499Z</time>
      </trkpt>
      <trkpt lat="46.21611" lon="6.17644">
        <ele>378.2</ele>
        <time>2017-03-15T12:52:09.178Z</time>
      </trkpt>
      <trkpt lat="46.21454" lon="6.17536">
        <ele>380.5</ele>
        <time>2017-03-15T12:52:22.880Z</time>
      </trkpt>
      <trkpt lat="46.21378" lon="6.17483">
        <ele>379.6</ele>
        <time>2017-03-15T12:52:36.593Z</time>
      </trkpt>
      <trkpt lat="46.21281" lon="6.17408">
        <ele>379.3</ele>
        <time>2017-03-15T12:52:50.321Z</time>
      </trkpt>
    </trkseg>
  </trk>
</gpx>